<?xml version="1.0" encoding="utf-8"?>
<gpx xmlns:xsi="http://www.w3.org/2001/XMLSchema-instance" xmlns:xsd="http://www.w3.org/2001/XMLSchema" version="1.1" creator="Shapelink.com" xmlns="http://www.topografix.com/GPX/1/1" xmlns:gpxtpx="http://www.garmin.com/xmlschemas/TrackPointExtension/v1">
  <metadata>
    <name>Cykling 62.63 km, 2017-07-07</name>
    <desc></desc>
    <author><name>Alexander Engvall</name></author> 
    <time>2017-07-07T15:32:33Z</time>
  </metadata>
  <trk>
    <name>Cykling 62.63 km, 2017-07-07</name>
    <trkseg>
      <trkpt lat="59.332961648787" lon="18.061404537389">
        <ele>0</ele>
        <time>2017-07-07T15:32:33Z</time>
      </trkpt>
      <trkpt lat="59.332937006001" lon="18.061271851912">
        <ele>0</ele>
        <time>2017-07-07T15:32:34Z</time>
      </trkpt>
      <trkpt lat="59.332909178093" lon="18.061132628553">
        <ele>0</ele>
        <time>2017-07-07T15:32:35Z</time>
      </trkpt>
      <trkpt lat="59.332880511995" lon="18.060996590316">
        <ele>0</ele>
        <time>2017-07-07T15:32:36Z</time>
      </trkpt>
      <trkpt lat="59.332760986101" lon="18.060487557529">
        <ele>0</ele>
        <time>2017-07-07T15:32:40Z</time>
      </trkpt>
      <trkpt lat="59.332456723131" lon="18.059958156725">
        <ele>0</ele>
        <time>2017-07-07T15:32:44Z</time>
      </trkpt>
      <trkpt lat="59.332283133982" lon="18.059465301005">
        <ele>0</ele>
        <time>2017-07-07T15:32:49Z</time>
      </trkpt>
      <trkpt lat="59.332221191741" lon="18.059314510624">
        <ele>0</ele>
        <time>2017-07-07T15:32:51Z</time>
      </trkpt>
      <trkpt lat="59.332193447652" lon="18.059243851207">
        <ele>0</ele>
        <time>2017-07-07T15:32:52Z</time>
      </trkpt>
      <trkpt lat="59.33215673493" lon="18.059181406052">
        <ele>0</ele>
        <time>2017-07-07T15:32:53Z</time>
      </trkpt>
      <trkpt lat="59.33211063448" lon="18.05913295867">
        <ele>0</ele>
        <time>2017-07-07T15:32:54Z</time>
      </trkpt>
      <trkpt lat="59.332056068311" lon="18.058894828891">
        <ele>0</ele>
        <time>2017-07-07T15:32:57Z</time>
      </trkpt>
      <trkpt lat="59.331987001455" lon="18.058594924509">
        <ele>0</ele>
        <time>2017-07-07T15:33:00Z</time>
      </trkpt>
      <trkpt lat="59.331925226852" lon="18.058473722235">
        <ele>0</ele>
        <time>2017-07-07T15:33:02Z</time>
      </trkpt>
      <trkpt lat="59.331882562981" lon="18.058440110816">
        <ele>0</ele>
        <time>2017-07-07T15:33:04Z</time>
      </trkpt>
      <trkpt lat="59.331865212448" lon="18.058431728916">
        <ele>0</ele>
        <time>2017-07-07T15:33:05Z</time>
      </trkpt>
      <trkpt lat="59.331652647464" lon="18.058152946922">
        <ele>0</ele>
        <time>2017-07-07T15:33:35Z</time>
      </trkpt>
      <trkpt lat="59.331627334126" lon="18.058121933892">
        <ele>0</ele>
        <time>2017-07-07T15:33:36Z</time>
      </trkpt>
      <trkpt lat="59.331488781319" lon="18.058145403212">
        <ele>0</ele>
        <time>2017-07-07T15:33:39Z</time>
      </trkpt>
      <trkpt lat="59.331431868218" lon="18.058191755119">
        <ele>0</ele>
        <time>2017-07-07T15:33:40Z</time>
      </trkpt>
      <trkpt lat="59.331320724224" lon="18.058302060923">
        <ele>0</ele>
        <time>2017-07-07T15:33:42Z</time>
      </trkpt>
      <trkpt lat="59.331273701765" lon="18.058348245192">
        <ele>0</ele>
        <time>2017-07-07T15:33:43Z</time>
      </trkpt>
      <trkpt lat="59.331233133369" lon="18.058394597099">
        <ele>0</ele>
        <time>2017-07-07T15:33:44Z</time>
      </trkpt>
      <trkpt lat="59.324781668758" lon="18.066371902786">
        <ele>0</ele>
        <time>2017-07-07T15:36:10Z</time>
      </trkpt>
      <trkpt lat="59.32470438764" lon="18.066428648249">
        <ele>0</ele>
        <time>2017-07-07T15:36:11Z</time>
      </trkpt>
      <trkpt lat="59.324627441798" lon="18.066470222473">
        <ele>0</ele>
        <time>2017-07-07T15:36:12Z</time>
      </trkpt>
      <trkpt lat="59.324483273118" lon="18.066506348462">
        <ele>0</ele>
        <time>2017-07-07T15:36:14Z</time>
      </trkpt>
      <trkpt lat="59.324278838577" lon="18.066473407595">
        <ele>0</ele>
        <time>2017-07-07T15:36:17Z</time>
      </trkpt>
      <trkpt lat="59.324196612138" lon="18.066496625458">
        <ele>0</ele>
        <time>2017-07-07T15:36:19Z</time>
      </trkpt>
      <trkpt lat="59.324150846964" lon="18.066524453366">
        <ele>0</ele>
        <time>2017-07-07T15:36:20Z</time>
      </trkpt>
      <trkpt lat="59.324096280795" lon="18.06654926379">
        <ele>0</ele>
        <time>2017-07-07T15:36:21Z</time>
      </trkpt>
      <trkpt lat="59.324036853124" lon="18.066565943771">
        <ele>0</ele>
        <time>2017-07-07T15:36:22Z</time>
      </trkpt>
      <trkpt lat="59.323977593091" lon="18.06659201148">
        <ele>0</ele>
        <time>2017-07-07T15:36:23Z</time>
      </trkpt>
      <trkpt lat="59.323917075773" lon="18.066631490229">
        <ele>0</ele>
        <time>2017-07-07T15:36:24Z</time>
      </trkpt>
      <trkpt lat="59.323672491931" lon="18.066885294161">
        <ele>0</ele>
        <time>2017-07-07T15:36:28Z</time>
      </trkpt>
      <trkpt lat="59.32336831278" lon="18.067220905437">
        <ele>0</ele>
        <time>2017-07-07T15:36:33Z</time>
      </trkpt>
      <trkpt lat="59.322961706811" lon="18.067867317565">
        <ele>0</ele>
        <time>2017-07-07T15:36:40Z</time>
      </trkpt>
      <trkpt lat="59.322784178169" lon="18.068337290698">
        <ele>0</ele>
        <time>2017-07-07T15:36:44Z</time>
      </trkpt>
      <trkpt lat="59.322559627068" lon="18.068916982902">
        <ele>0</ele>
        <time>2017-07-07T15:36:49Z</time>
      </trkpt>
      <trkpt lat="59.322377320743" lon="18.069543027013">
        <ele>0</ele>
        <time>2017-07-07T15:36:54Z</time>
      </trkpt>
      <trkpt lat="59.322373297431" lon="18.070006378445">
        <ele>0</ele>
        <time>2017-07-07T15:36:57Z</time>
      </trkpt>
      <trkpt lat="59.322389223041" lon="18.070158845206">
        <ele>0</ele>
        <time>2017-07-07T15:36:58Z</time>
      </trkpt>
      <trkpt lat="59.322435658767" lon="18.070461264158">
        <ele>0</ele>
        <time>2017-07-07T15:37:00Z</time>
      </trkpt>
      <trkpt lat="59.322490224936" lon="18.070760917083">
        <ele>0</ele>
        <time>2017-07-07T15:37:02Z</time>
      </trkpt>
      <trkpt lat="59.322452254929" lon="18.07122804037">
        <ele>0</ele>
        <time>2017-07-07T15:37:05Z</time>
      </trkpt>
      <trkpt lat="59.322326694067" lon="18.071948464675">
        <ele>0</ele>
        <time>2017-07-07T15:37:10Z</time>
      </trkpt>
      <trkpt lat="59.322128545951" lon="18.072314753705">
        <ele>0</ele>
        <time>2017-07-07T15:37:14Z</time>
      </trkpt>
      <trkpt lat="59.321950011481" lon="18.072331685143">
        <ele>0</ele>
        <time>2017-07-07T15:37:17Z</time>
      </trkpt>
      <trkpt lat="59.321840962962" lon="18.072242837003">
        <ele>0</ele>
        <time>2017-07-07T15:37:19Z</time>
      </trkpt>
      <trkpt lat="59.321784552775" lon="18.072204028806">
        <ele>0</ele>
        <time>2017-07-07T15:37:20Z</time>
      </trkpt>
      <trkpt lat="59.321732333538" lon="18.072187097368">
        <ele>0</ele>
        <time>2017-07-07T15:37:21Z</time>
      </trkpt>
      <trkpt lat="59.321684137613" lon="18.072162203125">
        <ele>0</ele>
        <time>2017-07-07T15:37:22Z</time>
      </trkpt>
      <trkpt lat="59.321643988312" lon="18.072109564793">
        <ele>0</ele>
        <time>2017-07-07T15:37:23Z</time>
      </trkpt>
      <trkpt lat="59.321601827355" lon="18.072060279221">
        <ele>0</ele>
        <time>2017-07-07T15:37:24Z</time>
      </trkpt>
      <trkpt lat="59.321555726905" lon="18.072022560671">
        <ele>0</ele>
        <time>2017-07-07T15:37:25Z</time>
      </trkpt>
      <trkpt lat="59.321509374998" lon="18.071990960908">
        <ele>0</ele>
        <time>2017-07-07T15:37:26Z</time>
      </trkpt>
      <trkpt lat="59.321460927616" lon="18.071959696421">
        <ele>0</ele>
        <time>2017-07-07T15:37:27Z</time>
      </trkpt>
      <trkpt lat="59.321408792198" lon="18.071922983699">
        <ele>0</ele>
        <time>2017-07-07T15:37:28Z</time>
      </trkpt>
      <trkpt lat="59.321354896581" lon="18.071885265149">
        <ele>0</ele>
        <time>2017-07-07T15:37:29Z</time>
      </trkpt>
      <trkpt lat="59.321242327664" lon="18.071758949916">
        <ele>0</ele>
        <time>2017-07-07T15:37:31Z</time>
      </trkpt>
      <trkpt lat="59.321192455359" lon="18.071676723477">
        <ele>0</ele>
        <time>2017-07-07T15:37:32Z</time>
      </trkpt>
      <trkpt lat="59.321096734061" lon="18.071612518123">
        <ele>0</ele>
        <time>2017-07-07T15:37:34Z</time>
      </trkpt>
      <trkpt lat="59.321047951403" lon="18.071589803174">
        <ele>0</ele>
        <time>2017-07-07T15:37:35Z</time>
      </trkpt>
      <trkpt lat="59.321001431858" lon="18.071570692442">
        <ele>0</ele>
        <time>2017-07-07T15:37:36Z</time>
      </trkpt>
      <trkpt lat="59.320955666684" lon="18.071566585311">
        <ele>0</ele>
        <time>2017-07-07T15:37:37Z</time>
      </trkpt>
      <trkpt lat="59.320831782202" lon="18.07154990533">
        <ele>0</ele>
        <time>2017-07-07T15:37:40Z</time>
      </trkpt>
      <trkpt lat="59.320696079241" lon="18.0715356561">
        <ele>0</ele>
        <time>2017-07-07T15:37:44Z</time>
      </trkpt>
      <trkpt lat="59.320704042046" lon="18.07169994134">
        <ele>0</ele>
        <time>2017-07-07T15:37:45Z</time>
      </trkpt>
      <trkpt lat="59.320671520274" lon="18.071876296516">
        <ele>0</ele>
        <time>2017-07-07T15:37:46Z</time>
      </trkpt>
      <trkpt lat="59.320690379549" lon="18.072128675525">
        <ele>0</ele>
        <time>2017-07-07T15:37:47Z</time>
      </trkpt>
      <trkpt lat="59.320650146429" lon="18.072304360149">
        <ele>0</ele>
        <time>2017-07-07T15:37:48Z</time>
      </trkpt>
      <trkpt lat="59.320600106486" lon="18.072456575453">
        <ele>0</ele>
        <time>2017-07-07T15:37:49Z</time>
      </trkpt>
      <trkpt lat="59.320550066543" lon="18.072607365834">
        <ele>0</ele>
        <time>2017-07-07T15:37:50Z</time>
      </trkpt>
      <trkpt lat="59.320477563108" lon="18.072885644914">
        <ele>0</ele>
        <time>2017-07-07T15:37:52Z</time>
      </trkpt>
      <trkpt lat="59.320312104402" lon="18.073595005111">
        <ele>0</ele>
        <time>2017-07-07T15:37:57Z</time>
      </trkpt>
      <trkpt lat="59.320274302033" lon="18.073729869882">
        <ele>0</ele>
        <time>2017-07-07T15:37:58Z</time>
      </trkpt>
      <trkpt lat="59.32023515856" lon="18.073847132663">
        <ele>0</ele>
        <time>2017-07-07T15:37:59Z</time>
      </trkpt>
      <trkpt lat="59.320193165241" lon="18.073966742376">
        <ele>0</ele>
        <time>2017-07-07T15:38:00Z</time>
      </trkpt>
      <trkpt lat="59.320151926293" lon="18.074086687365">
        <ele>0</ele>
        <time>2017-07-07T15:38:01Z</time>
      </trkpt>
      <trkpt lat="59.319906168985" lon="18.074857905984">
        <ele>0</ele>
        <time>2017-07-07T15:38:07Z</time>
      </trkpt>
      <trkpt lat="59.319667452473" lon="18.075816376249">
        <ele>0</ele>
        <time>2017-07-07T15:38:14Z</time>
      </trkpt>
      <trkpt lat="59.319552201348" lon="18.076366731803">
        <ele>0</ele>
        <time>2017-07-07T15:38:18Z</time>
      </trkpt>
      <trkpt lat="59.3194019977" lon="18.077096962931">
        <ele>0</ele>
        <time>2017-07-07T15:38:23Z</time>
      </trkpt>
      <trkpt lat="59.319252464604" lon="18.07781034644">
        <ele>0</ele>
        <time>2017-07-07T15:38:28Z</time>
      </trkpt>
      <trkpt lat="59.319031350082" lon="18.078772420922">
        <ele>0</ele>
        <time>2017-07-07T15:38:35Z</time>
      </trkpt>
      <trkpt lat="59.318999079767" lon="18.078912063376">
        <ele>0</ele>
        <time>2017-07-07T15:38:36Z</time>
      </trkpt>
      <trkpt lat="59.318755669391" lon="18.079919986851">
        <ele>0</ele>
        <time>2017-07-07T15:38:43Z</time>
      </trkpt>
      <trkpt lat="59.318718956669" lon="18.080058623477">
        <ele>0</ele>
        <time>2017-07-07T15:38:44Z</time>
      </trkpt>
      <trkpt lat="59.318677298626" lon="18.08018410052">
        <ele>0</ele>
        <time>2017-07-07T15:38:45Z</time>
      </trkpt>
      <trkpt lat="59.318569172116" lon="18.080585006797">
        <ele>0</ele>
        <time>2017-07-07T15:38:48Z</time>
      </trkpt>
      <trkpt lat="59.318394996234" lon="18.081426549557">
        <ele>0</ele>
        <time>2017-07-07T15:38:54Z</time>
      </trkpt>
      <trkpt lat="59.318226687682" lon="18.082462552397">
        <ele>0</ele>
        <time>2017-07-07T15:39:01Z</time>
      </trkpt>
      <trkpt lat="59.318189052951" lon="18.082766983005">
        <ele>0</ele>
        <time>2017-07-07T15:39:03Z</time>
      </trkpt>
      <trkpt lat="59.318121327199" lon="18.083322451518">
        <ele>0</ele>
        <time>2017-07-07T15:39:07Z</time>
      </trkpt>
      <trkpt lat="59.318081596993" lon="18.083542560212">
        <ele>0</ele>
        <time>2017-07-07T15:39:11Z</time>
      </trkpt>
      <trkpt lat="59.318068688867" lon="18.08357038812">
        <ele>0</ele>
        <time>2017-07-07T15:39:13Z</time>
      </trkpt>
      <trkpt lat="59.31806843741" lon="18.083575584898">
        <ele>0</ele>
        <time>2017-07-07T15:39:15Z</time>
      </trkpt>
      <trkpt lat="59.318059720234" lon="18.0836223559">
        <ele>0</ele>
        <time>2017-07-07T15:39:16Z</time>
      </trkpt>
      <trkpt lat="59.318044465176" lon="18.083688489091">
        <ele>0</ele>
        <time>2017-07-07T15:39:17Z</time>
      </trkpt>
      <trkpt lat="59.318027617557" lon="18.083767781865">
        <ele>0</ele>
        <time>2017-07-07T15:39:18Z</time>
      </trkpt>
      <trkpt lat="59.318011524309" lon="18.083864173715">
        <ele>0</ele>
        <time>2017-07-07T15:39:19Z</time>
      </trkpt>
      <trkpt lat="59.317991491568" lon="18.083965259429">
        <ele>0</ele>
        <time>2017-07-07T15:39:20Z</time>
      </trkpt>
      <trkpt lat="59.317924352549" lon="18.084276898471">
        <ele>0</ele>
        <time>2017-07-07T15:39:23Z</time>
      </trkpt>
      <trkpt lat="59.317905157998" lon="18.084382175135">
        <ele>0</ele>
        <time>2017-07-07T15:39:24Z</time>
      </trkpt>
      <trkpt lat="59.31789157932" lon="18.084485356324">
        <ele>0</ele>
        <time>2017-07-07T15:39:25Z</time>
      </trkpt>
      <trkpt lat="59.317878503556" lon="18.084595745947">
        <ele>0</ele>
        <time>2017-07-07T15:39:26Z</time>
      </trkpt>
      <trkpt lat="59.317863332317" lon="18.08471367928">
        <ele>0</ele>
        <time>2017-07-07T15:39:27Z</time>
      </trkpt>
      <trkpt lat="59.317774651815" lon="18.085320947935">
        <ele>0</ele>
        <time>2017-07-07T15:39:32Z</time>
      </trkpt>
      <trkpt lat="59.317766186096" lon="18.085438881268">
        <ele>0</ele>
        <time>2017-07-07T15:39:33Z</time>
      </trkpt>
      <trkpt lat="59.317747662097" lon="18.085707185887">
        <ele>0</ele>
        <time>2017-07-07T15:39:35Z</time>
      </trkpt>
      <trkpt lat="59.31765353336" lon="18.086711169869">
        <ele>0</ele>
        <time>2017-07-07T15:39:42Z</time>
      </trkpt>
      <trkpt lat="59.317600392114" lon="18.08762387496">
        <ele>0</ele>
        <time>2017-07-07T15:39:48Z</time>
      </trkpt>
      <trkpt lat="59.31753534857" lon="18.088565413787">
        <ele>0</ele>
        <time>2017-07-07T15:39:54Z</time>
      </trkpt>
      <trkpt lat="59.317449266457" lon="18.089685570903">
        <ele>0</ele>
        <time>2017-07-07T15:40:01Z</time>
      </trkpt>
      <trkpt lat="59.317327645088" lon="18.090762225958">
        <ele>0</ele>
        <time>2017-07-07T15:40:08Z</time>
      </trkpt>
      <trkpt lat="59.317311803297" lon="18.090912848701">
        <ele>0</ele>
        <time>2017-07-07T15:40:09Z</time>
      </trkpt>
      <trkpt lat="59.317172496119" lon="18.091818680634">
        <ele>0</ele>
        <time>2017-07-07T15:40:15Z</time>
      </trkpt>
      <trkpt lat="59.317117678493" lon="18.092111460401">
        <ele>0</ele>
        <time>2017-07-07T15:40:17Z</time>
      </trkpt>
      <trkpt lat="59.317090353499" lon="18.092263591886">
        <ele>0</ele>
        <time>2017-07-07T15:40:18Z</time>
      </trkpt>
      <trkpt lat="59.317065543075" lon="18.092413963172">
        <ele>0</ele>
        <time>2017-07-07T15:40:19Z</time>
      </trkpt>
      <trkpt lat="59.317037128434" lon="18.092573051634">
        <ele>0</ele>
        <time>2017-07-07T15:40:20Z</time>
      </trkpt>
      <trkpt lat="59.317008797612" lon="18.092737839788">
        <ele>0</ele>
        <time>2017-07-07T15:40:21Z</time>
      </trkpt>
      <trkpt lat="59.316978958048" lon="18.09289022273">
        <ele>0</ele>
        <time>2017-07-07T15:40:22Z</time>
      </trkpt>
      <trkpt lat="59.316837303938" lon="18.09361777165">
        <ele>0</ele>
        <time>2017-07-07T15:40:27Z</time>
      </trkpt>
      <trkpt lat="59.31672565703" lon="18.094167121376">
        <ele>0</ele>
        <time>2017-07-07T15:40:31Z</time>
      </trkpt>
      <trkpt lat="59.316661535495" lon="18.094406676078">
        <ele>0</ele>
        <time>2017-07-07T15:40:33Z</time>
      </trkpt>
      <trkpt lat="59.316626163877" lon="18.094518071529">
        <ele>0</ele>
        <time>2017-07-07T15:40:34Z</time>
      </trkpt>
      <trkpt lat="59.316583919101" lon="18.094618905786">
        <ele>0</ele>
        <time>2017-07-07T15:40:35Z</time>
      </trkpt>
      <trkpt lat="59.316541003773" lon="18.094710436134">
        <ele>0</ele>
        <time>2017-07-07T15:40:36Z</time>
      </trkpt>
      <trkpt lat="59.316496328246" lon="18.094798362265">
        <ele>0</ele>
        <time>2017-07-07T15:40:37Z</time>
      </trkpt>
      <trkpt lat="59.31644570157" lon="18.094886120758">
        <ele>0</ele>
        <time>2017-07-07T15:40:39Z</time>
      </trkpt>
      <trkpt lat="59.316329444617" lon="18.09500581429">
        <ele>0</ele>
        <time>2017-07-07T15:40:43Z</time>
      </trkpt>
      <trkpt lat="59.316232214577" lon="18.095075048784">
        <ele>0</ele>
        <time>2017-07-07T15:40:45Z</time>
      </trkpt>
      <trkpt lat="59.31612551299" lon="18.095131039876">
        <ele>0</ele>
        <time>2017-07-07T15:40:47Z</time>
      </trkpt>
      <trkpt lat="59.315797613062" lon="18.095266910475">
        <ele>0</ele>
        <time>2017-07-07T15:40:53Z</time>
      </trkpt>
      <trkpt lat="59.315594268168" lon="18.095423987281">
        <ele>0</ele>
        <time>2017-07-07T15:40:57Z</time>
      </trkpt>
      <trkpt lat="59.315543390035" lon="18.095463801306">
        <ele>0</ele>
        <time>2017-07-07T15:40:58Z</time>
      </trkpt>
      <trkpt lat="59.315496786671" lon="18.095511578136">
        <ele>0</ele>
        <time>2017-07-07T15:40:59Z</time>
      </trkpt>
      <trkpt lat="59.315323616617" lon="18.095777284366">
        <ele>0</ele>
        <time>2017-07-07T15:41:03Z</time>
      </trkpt>
      <trkpt lat="59.315282210031" lon="18.095852889104">
        <ele>0</ele>
        <time>2017-07-07T15:41:04Z</time>
      </trkpt>
      <trkpt lat="59.315247676603" lon="18.09593117605">
        <ele>0</ele>
        <time>2017-07-07T15:41:05Z</time>
      </trkpt>
      <trkpt lat="59.315211466795" lon="18.096023544588">
        <ele>0</ele>
        <time>2017-07-07T15:41:06Z</time>
      </trkpt>
      <trkpt lat="59.315169305838" lon="18.096134688582">
        <ele>0</ele>
        <time>2017-07-07T15:41:07Z</time>
      </trkpt>
      <trkpt lat="59.315009379186" lon="18.096652606183">
        <ele>0</ele>
        <time>2017-07-07T15:41:11Z</time>
      </trkpt>
      <trkpt lat="59.314817266038" lon="18.097324666925">
        <ele>0</ele>
        <time>2017-07-07T15:41:16Z</time>
      </trkpt>
      <trkpt lat="59.314783906076" lon="18.097454334918">
        <ele>0</ele>
        <time>2017-07-07T15:41:17Z</time>
      </trkpt>
      <trkpt lat="59.314751803399" lon="18.097573357898">
        <ele>0</ele>
        <time>2017-07-07T15:41:18Z</time>
      </trkpt>
      <trkpt lat="59.314720035998" lon="18.097693302887">
        <ele>0</ele>
        <time>2017-07-07T15:41:19Z</time>
      </trkpt>
      <trkpt lat="59.314592128204" lon="18.098154726482">
        <ele>0</ele>
        <time>2017-07-07T15:41:23Z</time>
      </trkpt>
      <trkpt lat="59.314465226238" lon="18.098734334867">
        <ele>0</ele>
        <time>2017-07-07T15:41:28Z</time>
      </trkpt>
      <trkpt lat="59.314442259832" lon="18.0988606501">
        <ele>0</ele>
        <time>2017-07-07T15:41:29Z</time>
      </trkpt>
      <trkpt lat="59.314328349811" lon="18.099105569218">
        <ele>0</ele>
        <time>2017-07-07T15:41:32Z</time>
      </trkpt>
      <trkpt lat="59.314280908257" lon="18.099186370734">
        <ele>0</ele>
        <time>2017-07-07T15:41:33Z</time>
      </trkpt>
      <trkpt lat="59.314231790323" lon="18.099267004612">
        <ele>0</ele>
        <time>2017-07-07T15:41:34Z</time>
      </trkpt>
      <trkpt lat="59.31418342676" lon="18.09934428573">
        <ele>0</ele>
        <time>2017-07-07T15:41:35Z</time>
      </trkpt>
      <trkpt lat="59.314130453152" lon="18.099403964858">
        <ele>0</ele>
        <time>2017-07-07T15:41:36Z</time>
      </trkpt>
      <trkpt lat="59.313985781558" lon="18.099427769454">
        <ele>0</ele>
        <time>2017-07-07T15:41:39Z</time>
      </trkpt>
      <trkpt lat="59.313951080492" lon="18.099835548889">
        <ele>0</ele>
        <time>2017-07-07T15:41:43Z</time>
      </trkpt>
      <trkpt lat="59.313939010556" lon="18.100066889329">
        <ele>0</ele>
        <time>2017-07-07T15:41:45Z</time>
      </trkpt>
      <trkpt lat="59.313912775209" lon="18.100310383524">
        <ele>0</ele>
        <time>2017-07-07T15:41:47Z</time>
      </trkpt>
      <trkpt lat="59.313874469926" lon="18.10107430989">
        <ele>0</ele>
        <time>2017-07-07T15:41:53Z</time>
      </trkpt>
      <trkpt lat="59.313882265093" lon="18.101203307331">
        <ele>0</ele>
        <time>2017-07-07T15:41:54Z</time>
      </trkpt>
      <trkpt lat="59.313893580658" lon="18.101326772718">
        <ele>0</ele>
        <time>2017-07-07T15:41:55Z</time>
      </trkpt>
      <trkpt lat="59.313899196531" lon="18.101451160114">
        <ele>0</ele>
        <time>2017-07-07T15:41:56Z</time>
      </trkpt>
      <trkpt lat="59.313898777436" lon="18.101586946894">
        <ele>0</ele>
        <time>2017-07-07T15:41:57Z</time>
      </trkpt>
      <trkpt lat="59.313898525979" lon="18.10187394315">
        <ele>0</ele>
        <time>2017-07-07T15:41:59Z</time>
      </trkpt>
      <trkpt lat="59.31389089845" lon="18.102159598302">
        <ele>0</ele>
        <time>2017-07-07T15:42:01Z</time>
      </trkpt>
      <trkpt lat="59.313886958957" lon="18.102301922964">
        <ele>0</ele>
        <time>2017-07-07T15:42:02Z</time>
      </trkpt>
      <trkpt lat="59.313885282577" lon="18.10244391235">
        <ele>0</ele>
        <time>2017-07-07T15:42:03Z</time>
      </trkpt>
      <trkpt lat="59.313884779663" lon="18.102586907564">
        <ele>0</ele>
        <time>2017-07-07T15:42:04Z</time>
      </trkpt>
      <trkpt lat="59.313885534034" lon="18.102726130923">
        <ele>0</ele>
        <time>2017-07-07T15:42:05Z</time>
      </trkpt>
      <trkpt lat="59.313866758578" lon="18.103139358593">
        <ele>0</ele>
        <time>2017-07-07T15:42:08Z</time>
      </trkpt>
      <trkpt lat="59.313852425529" lon="18.10327539683">
        <ele>0</ele>
        <time>2017-07-07T15:42:09Z</time>
      </trkpt>
      <trkpt lat="59.313837002833" lon="18.103410764515">
        <ele>0</ele>
        <time>2017-07-07T15:42:10Z</time>
      </trkpt>
      <trkpt lat="59.313820909585" lon="18.103547473304">
        <ele>0</ele>
        <time>2017-07-07T15:42:11Z</time>
      </trkpt>
      <trkpt lat="59.313802804681" lon="18.103683427722">
        <ele>0</ele>
        <time>2017-07-07T15:42:12Z</time>
      </trkpt>
      <trkpt lat="59.313684787529" lon="18.10422171334">
        <ele>0</ele>
        <time>2017-07-07T15:42:16Z</time>
      </trkpt>
      <trkpt lat="59.313428301389" lon="18.105149673489">
        <ele>0</ele>
        <time>2017-07-07T15:42:23Z</time>
      </trkpt>
      <trkpt lat="59.313246917073" lon="18.105713607721">
        <ele>0</ele>
        <time>2017-07-07T15:42:27Z</time>
      </trkpt>
      <trkpt lat="59.313192350904" lon="18.105836737832">
        <ele>0</ele>
        <time>2017-07-07T15:42:28Z</time>
      </trkpt>
      <trkpt lat="59.313133677604" lon="18.105959616486">
        <ele>0</ele>
        <time>2017-07-07T15:42:29Z</time>
      </trkpt>
      <trkpt lat="59.313076764503" lon="18.106076208715">
        <ele>0</ele>
        <time>2017-07-07T15:42:30Z</time>
      </trkpt>
      <trkpt lat="59.313021946877" lon="18.106192130392">
        <ele>0</ele>
        <time>2017-07-07T15:42:31Z</time>
      </trkpt>
      <trkpt lat="59.312806699685" lon="18.106629078839">
        <ele>0</ele>
        <time>2017-07-07T15:42:35Z</time>
      </trkpt>
      <trkpt lat="59.312694046949" lon="18.106827310774">
        <ele>0</ele>
        <time>2017-07-07T15:42:37Z</time>
      </trkpt>
      <trkpt lat="59.312636798572" lon="18.106921104235">
        <ele>0</ele>
        <time>2017-07-07T15:42:38Z</time>
      </trkpt>
      <trkpt lat="59.312577706177" lon="18.107008443633">
        <ele>0</ele>
        <time>2017-07-07T15:42:39Z</time>
      </trkpt>
      <trkpt lat="59.312512746452" lon="18.107086562941">
        <ele>0</ele>
        <time>2017-07-07T15:42:40Z</time>
      </trkpt>
      <trkpt lat="59.312444517786" lon="18.107154204874">
        <ele>0</ele>
        <time>2017-07-07T15:42:41Z</time>
      </trkpt>
      <trkpt lat="59.31229833745" lon="18.107237018046">
        <ele>0</ele>
        <time>2017-07-07T15:42:43Z</time>
      </trkpt>
      <trkpt lat="59.312216613925" lon="18.107257721339">
        <ele>0</ele>
        <time>2017-07-07T15:42:44Z</time>
      </trkpt>
      <trkpt lat="59.312071523236" lon="18.107329889498">
        <ele>0</ele>
        <time>2017-07-07T15:42:46Z</time>
      </trkpt>
      <trkpt lat="59.311999522715" lon="18.107372218093">
        <ele>0</ele>
        <time>2017-07-07T15:42:47Z</time>
      </trkpt>
      <trkpt lat="59.311922660692" lon="18.107388059884">
        <ele>0</ele>
        <time>2017-07-07T15:42:48Z</time>
      </trkpt>
      <trkpt lat="59.31184236209" lon="18.107379594165">
        <ele>0</ele>
        <time>2017-07-07T15:42:49Z</time>
      </trkpt>
      <trkpt lat="59.311764578058" lon="18.107353861732">
        <ele>0</ele>
        <time>2017-07-07T15:42:50Z</time>
      </trkpt>
      <trkpt lat="59.311675478461" lon="18.107337349389">
        <ele>0</ele>
        <time>2017-07-07T15:42:51Z</time>
      </trkpt>
      <trkpt lat="59.311592162375" lon="18.107311700775">
        <ele>0</ele>
        <time>2017-07-07T15:42:52Z</time>
      </trkpt>
      <trkpt lat="59.311522760243" lon="18.107244645575">
        <ele>0</ele>
        <time>2017-07-07T15:42:53Z</time>
      </trkpt>
      <trkpt lat="59.311457800518" lon="18.107157389996">
        <ele>0</ele>
        <time>2017-07-07T15:42:54Z</time>
      </trkpt>
      <trkpt lat="59.311385213264" lon="18.107078013403">
        <ele>0</ele>
        <time>2017-07-07T15:42:55Z</time>
      </trkpt>
      <trkpt lat="59.311304327929" lon="18.107013305135">
        <ele>0</ele>
        <time>2017-07-07T15:42:56Z</time>
      </trkpt>
      <trkpt lat="59.311219000187" lon="18.106941304614">
        <ele>0</ele>
        <time>2017-07-07T15:42:57Z</time>
      </trkpt>
      <trkpt lat="59.311134007721" lon="18.106851283008">
        <ele>0</ele>
        <time>2017-07-07T15:42:58Z</time>
      </trkpt>
      <trkpt lat="59.310886238757" lon="18.106491448041">
        <ele>0</ele>
        <time>2017-07-07T15:43:01Z</time>
      </trkpt>
      <trkpt lat="59.310812729494" lon="18.106355409804">
        <ele>0</ele>
        <time>2017-07-07T15:43:02Z</time>
      </trkpt>
      <trkpt lat="59.310737543851" lon="18.106224652164">
        <ele>0</ele>
        <time>2017-07-07T15:43:03Z</time>
      </trkpt>
      <trkpt lat="59.31065883781" lon="18.106128847047">
        <ele>0</ele>
        <time>2017-07-07T15:43:04Z</time>
      </trkpt>
      <trkpt lat="59.310581472873" lon="18.10603052736">
        <ele>0</ele>
        <time>2017-07-07T15:43:05Z</time>
      </trkpt>
      <trkpt lat="59.310245945416" lon="18.105526104618">
        <ele>0</ele>
        <time>2017-07-07T15:43:10Z</time>
      </trkpt>
      <trkpt lat="59.310014437338" lon="18.105242712579">
        <ele>0</ele>
        <time>2017-07-07T15:43:13Z</time>
      </trkpt>
      <trkpt lat="59.309845206777" lon="18.105078008244">
        <ele>0</ele>
        <time>2017-07-07T15:43:15Z</time>
      </trkpt>
      <trkpt lat="59.309665415022" lon="18.104986477896">
        <ele>0</ele>
        <time>2017-07-07T15:43:17Z</time>
      </trkpt>
      <trkpt lat="59.309570364276" lon="18.104972144847">
        <ele>0</ele>
        <time>2017-07-07T15:43:18Z</time>
      </trkpt>
      <trkpt lat="59.309476570815" lon="18.104980023833">
        <ele>0</ele>
        <time>2017-07-07T15:43:19Z</time>
      </trkpt>
      <trkpt lat="59.309382777354" lon="18.105002990239">
        <ele>0</ele>
        <time>2017-07-07T15:43:20Z</time>
      </trkpt>
      <trkpt lat="59.309295521775" lon="18.105041546979">
        <ele>0</ele>
        <time>2017-07-07T15:43:21Z</time>
      </trkpt>
      <trkpt lat="59.309215558449" lon="18.105098795356">
        <ele>0</ele>
        <time>2017-07-07T15:43:22Z</time>
      </trkpt>
      <trkpt lat="59.309137103865" lon="18.105171801705">
        <ele>0</ele>
        <time>2017-07-07T15:43:23Z</time>
      </trkpt>
      <trkpt lat="59.309058397824" lon="18.105248663728">
        <ele>0</ele>
        <time>2017-07-07T15:43:24Z</time>
      </trkpt>
      <trkpt lat="59.308980446154" lon="18.105326531579">
        <ele>0</ele>
        <time>2017-07-07T15:43:25Z</time>
      </trkpt>
      <trkpt lat="59.308902997398" lon="18.105392916227">
        <ele>0</ele>
        <time>2017-07-07T15:43:26Z</time>
      </trkpt>
      <trkpt lat="59.308663023601" lon="18.105595842026">
        <ele>0</ele>
        <time>2017-07-07T15:43:29Z</time>
      </trkpt>
      <trkpt lat="59.30846278001" lon="18.105964561807">
        <ele>0</ele>
        <time>2017-07-07T15:43:32Z</time>
      </trkpt>
      <trkpt lat="59.308410560773" lon="18.106109820134">
        <ele>0</ele>
        <time>2017-07-07T15:43:33Z</time>
      </trkpt>
      <trkpt lat="59.30819455921" lon="18.106858994356">
        <ele>0</ele>
        <time>2017-07-07T15:43:38Z</time>
      </trkpt>
      <trkpt lat="59.307940084726" lon="18.107934727402">
        <ele>0</ele>
        <time>2017-07-07T15:43:45Z</time>
      </trkpt>
      <trkpt lat="59.307854589346" lon="18.108419955593">
        <ele>0</ele>
        <time>2017-07-07T15:43:48Z</time>
      </trkpt>
      <trkpt lat="59.307835478614" lon="18.10858281591">
        <ele>0</ele>
        <time>2017-07-07T15:43:49Z</time>
      </trkpt>
      <trkpt lat="59.307815026778" lon="18.108745257132">
        <ele>0</ele>
        <time>2017-07-07T15:43:50Z</time>
      </trkpt>
      <trkpt lat="59.307794910218" lon="18.108911470209">
        <ele>0</ele>
        <time>2017-07-07T15:43:51Z</time>
      </trkpt>
      <trkpt lat="59.307776470038" lon="18.109079778761">
        <ele>0</ele>
        <time>2017-07-07T15:43:52Z</time>
      </trkpt>
      <trkpt lat="59.307728441751" lon="18.109766926923">
        <ele>0</ele>
        <time>2017-07-07T15:43:56Z</time>
      </trkpt>
      <trkpt lat="59.307712348503" lon="18.110604027276">
        <ele>0</ele>
        <time>2017-07-07T15:44:01Z</time>
      </trkpt>
      <trkpt lat="59.307708744286" lon="18.111382789605">
        <ele>0</ele>
        <time>2017-07-07T15:44:06Z</time>
      </trkpt>
      <trkpt lat="59.307608915857" lon="18.11208980287">
        <ele>0</ele>
        <time>2017-07-07T15:44:11Z</time>
      </trkpt>
      <trkpt lat="59.307425268428" lon="18.112573606138">
        <ele>0</ele>
        <time>2017-07-07T15:44:15Z</time>
      </trkpt>
      <trkpt lat="59.307364667291" lon="18.112670919997">
        <ele>0</ele>
        <time>2017-07-07T15:44:16Z</time>
      </trkpt>
      <trkpt lat="59.307217732584" lon="18.112932351458">
        <ele>0</ele>
        <time>2017-07-07T15:44:19Z</time>
      </trkpt>
      <trkpt lat="59.307183450613" lon="18.113168218124">
        <ele>0</ele>
        <time>2017-07-07T15:44:21Z</time>
      </trkpt>
      <trkpt lat="59.307173057057" lon="18.113431493603">
        <ele>0</ele>
        <time>2017-07-07T15:44:23Z</time>
      </trkpt>
      <trkpt lat="59.307181690414" lon="18.113770290001">
        <ele>0</ele>
        <time>2017-07-07T15:44:26Z</time>
      </trkpt>
      <trkpt lat="59.307160903302" lon="18.113842877255">
        <ele>0</ele>
        <time>2017-07-07T15:44:27Z</time>
      </trkpt>
      <trkpt lat="59.307043137607" lon="18.113838351029">
        <ele>0</ele>
        <time>2017-07-07T15:44:29Z</time>
      </trkpt>
      <trkpt lat="59.306758655921" lon="18.113790322742">
        <ele>0</ele>
        <time>2017-07-07T15:44:33Z</time>
      </trkpt>
      <trkpt lat="59.306472581674" lon="18.113750592536">
        <ele>0</ele>
        <time>2017-07-07T15:44:37Z</time>
      </trkpt>
      <trkpt lat="59.306398150402" lon="18.113751766002">
        <ele>0</ele>
        <time>2017-07-07T15:44:38Z</time>
      </trkpt>
      <trkpt lat="59.306116099467" lon="18.113739696066">
        <ele>0</ele>
        <time>2017-07-07T15:44:42Z</time>
      </trkpt>
      <trkpt lat="59.306048038439" lon="18.113761069911">
        <ele>0</ele>
        <time>2017-07-07T15:44:43Z</time>
      </trkpt>
      <trkpt lat="59.305981486153" lon="18.113764757947">
        <ele>0</ele>
        <time>2017-07-07T15:44:44Z</time>
      </trkpt>
      <trkpt lat="59.305854248911" lon="18.11368320206">
        <ele>0</ele>
        <time>2017-07-07T15:44:46Z</time>
      </trkpt>
      <trkpt lat="59.305735058293" lon="18.113677418549">
        <ele>0</ele>
        <time>2017-07-07T15:44:48Z</time>
      </trkpt>
      <trkpt lat="59.305673451328" lon="18.113699462946">
        <ele>0</ele>
        <time>2017-07-07T15:44:49Z</time>
      </trkpt>
      <trkpt lat="59.305384862511" lon="18.113734918383">
        <ele>0</ele>
        <time>2017-07-07T15:44:53Z</time>
      </trkpt>
      <trkpt lat="59.305316801483" lon="18.113760986092">
        <ele>0</ele>
        <time>2017-07-07T15:44:54Z</time>
      </trkpt>
      <trkpt lat="59.305199873978" lon="18.113887804239">
        <ele>0</ele>
        <time>2017-07-07T15:44:56Z</time>
      </trkpt>
      <trkpt lat="59.305008012287" lon="18.113959050389">
        <ele>0</ele>
        <time>2017-07-07T15:44:59Z</time>
      </trkpt>
      <trkpt lat="59.304733588881" lon="18.114134735013">
        <ele>0</ele>
        <time>2017-07-07T15:45:03Z</time>
      </trkpt>
      <trkpt lat="59.30462219343" lon="18.114465149511">
        <ele>0</ele>
        <time>2017-07-07T15:45:06Z</time>
      </trkpt>
      <trkpt lat="59.304591012762" lon="18.114724150221">
        <ele>0</ele>
        <time>2017-07-07T15:45:08Z</time>
      </trkpt>
      <trkpt lat="59.304586570355" lon="18.114852225653">
        <ele>0</ele>
        <time>2017-07-07T15:45:09Z</time>
      </trkpt>
      <trkpt lat="59.304590928943" lon="18.115000333826">
        <ele>0</ele>
        <time>2017-07-07T15:45:10Z</time>
      </trkpt>
      <trkpt lat="59.304563017216" lon="18.11542831364">
        <ele>0</ele>
        <time>2017-07-07T15:45:13Z</time>
      </trkpt>
      <trkpt lat="59.304525633942" lon="18.115561753488">
        <ele>0</ele>
        <time>2017-07-07T15:45:14Z</time>
      </trkpt>
      <trkpt lat="59.304365120557" lon="18.115901471895">
        <ele>0</ele>
        <time>2017-07-07T15:45:17Z</time>
      </trkpt>
      <trkpt lat="59.304307704542" lon="18.116001551781">
        <ele>0</ele>
        <time>2017-07-07T15:45:18Z</time>
      </trkpt>
      <trkpt lat="59.30426763906" lon="18.116119317476">
        <ele>0</ele>
        <time>2017-07-07T15:45:19Z</time>
      </trkpt>
      <trkpt lat="59.304198739842" lon="18.116358872178">
        <ele>0</ele>
        <time>2017-07-07T15:45:21Z</time>
      </trkpt>
      <trkpt lat="59.304073011342" lon="18.116815015176">
        <ele>0</ele>
        <time>2017-07-07T15:45:25Z</time>
      </trkpt>
      <trkpt lat="59.304049793479" lon="18.116926410627">
        <ele>0</ele>
        <time>2017-07-07T15:45:26Z</time>
      </trkpt>
      <trkpt lat="59.30403965138" lon="18.117041494114">
        <ele>0</ele>
        <time>2017-07-07T15:45:27Z</time>
      </trkpt>
      <trkpt lat="59.30404216595" lon="18.117147106054">
        <ele>0</ele>
        <time>2017-07-07T15:45:28Z</time>
      </trkpt>
      <trkpt lat="59.304052810963" lon="18.117248946139">
        <ele>0</ele>
        <time>2017-07-07T15:45:29Z</time>
      </trkpt>
      <trkpt lat="59.304106036028" lon="18.117425971867">
        <ele>0</ele>
        <time>2017-07-07T15:45:31Z</time>
      </trkpt>
      <trkpt lat="59.30411927943" lon="18.117523369545">
        <ele>0</ele>
        <time>2017-07-07T15:45:32Z</time>
      </trkpt>
      <trkpt lat="59.304111568082" lon="18.117602075586">
        <ele>0</ele>
        <time>2017-07-07T15:45:33Z</time>
      </trkpt>
      <trkpt lat="59.304082315251" lon="18.117683128559">
        <ele>0</ele>
        <time>2017-07-07T15:45:34Z</time>
      </trkpt>
      <trkpt lat="59.30404803328" lon="18.117764432989">
        <ele>0</ele>
        <time>2017-07-07T15:45:35Z</time>
      </trkpt>
      <trkpt lat="59.303946109376" lon="18.117864009961">
        <ele>0</ele>
        <time>2017-07-07T15:45:37Z</time>
      </trkpt>
      <trkpt lat="59.303894309234" lon="18.117898208113">
        <ele>0</ele>
        <time>2017-07-07T15:45:38Z</time>
      </trkpt>
      <trkpt lat="59.303847286775" lon="18.117895861181">
        <ele>0</ele>
        <time>2017-07-07T15:45:39Z</time>
      </trkpt>
      <trkpt lat="59.3038284275" lon="18.117884629435">
        <ele>0</ele>
        <time>2017-07-07T15:45:40Z</time>
      </trkpt>
      <trkpt lat="59.303784254887" lon="18.117874403517">
        <ele>0</ele>
        <time>2017-07-07T15:45:44Z</time>
      </trkpt>
      <trkpt lat="59.303680151689" lon="18.117803492643">
        <ele>0</ele>
        <time>2017-07-07T15:45:48Z</time>
      </trkpt>
      <trkpt lat="59.303569845885" lon="18.117772982527">
        <ele>0</ele>
        <time>2017-07-07T15:45:51Z</time>
      </trkpt>
      <trkpt lat="59.303526511462" lon="18.117950259712">
        <ele>0</ele>
        <time>2017-07-07T15:45:53Z</time>
      </trkpt>
      <trkpt lat="59.303449900896" lon="18.118452670798">
        <ele>0</ele>
        <time>2017-07-07T15:45:57Z</time>
      </trkpt>
      <trkpt lat="59.30344956562" lon="18.11858661356">
        <ele>0</ele>
        <time>2017-07-07T15:45:58Z</time>
      </trkpt>
      <trkpt lat="59.303398603668" lon="18.11929656049">
        <ele>0</ele>
        <time>2017-07-07T15:46:03Z</time>
      </trkpt>
      <trkpt lat="59.303350323924" lon="18.120092170438">
        <ele>0</ele>
        <time>2017-07-07T15:46:09Z</time>
      </trkpt>
      <trkpt lat="59.303342947852" lon="18.120856934994">
        <ele>0</ele>
        <time>2017-07-07T15:46:15Z</time>
      </trkpt>
      <trkpt lat="59.30335149739" lon="18.120996325991">
        <ele>0</ele>
        <time>2017-07-07T15:46:16Z</time>
      </trkpt>
      <trkpt lat="59.30336239386" lon="18.121132783323">
        <ele>0</ele>
        <time>2017-07-07T15:46:17Z</time>
      </trkpt>
      <trkpt lat="59.303376810728" lon="18.121272677234">
        <ele>0</ele>
        <time>2017-07-07T15:46:18Z</time>
      </trkpt>
      <trkpt lat="59.303395167089" lon="18.121402261408">
        <ele>0</ele>
        <time>2017-07-07T15:46:19Z</time>
      </trkpt>
      <trkpt lat="59.303416121839" lon="18.121527989908">
        <ele>0</ele>
        <time>2017-07-07T15:46:20Z</time>
      </trkpt>
      <trkpt lat="59.303472280569" lon="18.121895200947">
        <ele>0</ele>
        <time>2017-07-07T15:46:23Z</time>
      </trkpt>
      <trkpt lat="59.303463060479" lon="18.122016822316">
        <ele>0</ele>
        <time>2017-07-07T15:46:24Z</time>
      </trkpt>
      <trkpt lat="59.303416205658" lon="18.122397192938">
        <ele>0</ele>
        <time>2017-07-07T15:46:27Z</time>
      </trkpt>
      <trkpt lat="59.303359627833" lon="18.12263423307">
        <ele>0</ele>
        <time>2017-07-07T15:46:29Z</time>
      </trkpt>
      <trkpt lat="59.303227361451" lon="18.123348203312">
        <ele>0</ele>
        <time>2017-07-07T15:46:34Z</time>
      </trkpt>
      <trkpt lat="59.303151505256" lon="18.123977935459">
        <ele>0</ele>
        <time>2017-07-07T15:46:38Z</time>
      </trkpt>
      <trkpt lat="59.303132059248" lon="18.124141801604">
        <ele>0</ele>
        <time>2017-07-07T15:46:39Z</time>
      </trkpt>
      <trkpt lat="59.30311177505" lon="18.12429468746">
        <ele>0</ele>
        <time>2017-07-07T15:46:40Z</time>
      </trkpt>
      <trkpt lat="59.303095597983" lon="18.124458637424">
        <ele>0</ele>
        <time>2017-07-07T15:46:41Z</time>
      </trkpt>
      <trkpt lat="59.303073637405" lon="18.124613032022">
        <ele>0</ele>
        <time>2017-07-07T15:46:42Z</time>
      </trkpt>
      <trkpt lat="59.303000044323" lon="18.125054339057">
        <ele>0</ele>
        <time>2017-07-07T15:46:45Z</time>
      </trkpt>
      <trkpt lat="59.302843805707" lon="18.125792113895">
        <ele>0</ele>
        <time>2017-07-07T15:46:50Z</time>
      </trkpt>
      <trkpt lat="59.302808601727" lon="18.125941898448">
        <ele>0</ele>
        <time>2017-07-07T15:46:51Z</time>
      </trkpt>
      <trkpt lat="59.302780270905" lon="18.126097717969">
        <ele>0</ele>
        <time>2017-07-07T15:46:52Z</time>
      </trkpt>
      <trkpt lat="59.302751604807" lon="18.126254291861">
        <ele>0</ele>
        <time>2017-07-07T15:46:53Z</time>
      </trkpt>
      <trkpt lat="59.302725956193" lon="18.126412709771">
        <ele>0</ele>
        <time>2017-07-07T15:46:54Z</time>
      </trkpt>
      <trkpt lat="59.302650938188" lon="18.127029030878">
        <ele>0</ele>
        <time>2017-07-07T15:46:58Z</time>
      </trkpt>
      <trkpt lat="59.302568963206" lon="18.127891696026">
        <ele>0</ele>
        <time>2017-07-07T15:47:03Z</time>
      </trkpt>
      <trkpt lat="59.302559491659" lon="18.128065033718">
        <ele>0</ele>
        <time>2017-07-07T15:47:04Z</time>
      </trkpt>
      <trkpt lat="59.302554043424" lon="18.128237281763">
        <ele>0</ele>
        <time>2017-07-07T15:47:05Z</time>
      </trkpt>
      <trkpt lat="59.302550606845" lon="18.128412044378">
        <ele>0</ele>
        <time>2017-07-07T15:47:06Z</time>
      </trkpt>
      <trkpt lat="59.302554294881" lon="18.128597535825">
        <ele>0</ele>
        <time>2017-07-07T15:47:07Z</time>
      </trkpt>
      <trkpt lat="59.302558150555" lon="18.128782524358">
        <ele>0</ele>
        <time>2017-07-07T15:47:08Z</time>
      </trkpt>
      <trkpt lat="59.302565442808" lon="18.128961310285">
        <ele>0</ele>
        <time>2017-07-07T15:47:09Z</time>
      </trkpt>
      <trkpt lat="59.302575836364" lon="18.12913942566">
        <ele>0</ele>
        <time>2017-07-07T15:47:10Z</time>
      </trkpt>
      <trkpt lat="59.302629061429" lon="18.12963395776">
        <ele>0</ele>
        <time>2017-07-07T15:47:13Z</time>
      </trkpt>
      <trkpt lat="59.302662337572" lon="18.129796901896">
        <ele>0</ele>
        <time>2017-07-07T15:47:14Z</time>
      </trkpt>
      <trkpt lat="59.30286534719" lon="18.130566444135">
        <ele>0</ele>
        <time>2017-07-07T15:47:19Z</time>
      </trkpt>
      <trkpt lat="59.302994847545" lon="18.131063239348">
        <ele>0</ele>
        <time>2017-07-07T15:47:22Z</time>
      </trkpt>
      <trkpt lat="59.303027453136" lon="18.131245126578">
        <ele>0</ele>
        <time>2017-07-07T15:47:23Z</time>
      </trkpt>
      <trkpt lat="59.303052347379" lon="18.131431959129">
        <ele>0</ele>
        <time>2017-07-07T15:47:24Z</time>
      </trkpt>
      <trkpt lat="59.303065926057" lon="18.131600938233">
        <ele>0</ele>
        <time>2017-07-07T15:47:25Z</time>
      </trkpt>
      <trkpt lat="59.303070619921" lon="18.131764133826">
        <ele>0</ele>
        <time>2017-07-07T15:47:26Z</time>
      </trkpt>
      <trkpt lat="59.303071374292" lon="18.131928167609">
        <ele>0</ele>
        <time>2017-07-07T15:47:27Z</time>
      </trkpt>
      <trkpt lat="59.303058633804" lon="18.132499058818">
        <ele>0</ele>
        <time>2017-07-07T15:47:31Z</time>
      </trkpt>
      <trkpt lat="59.303057208881" lon="18.132633169218">
        <ele>0</ele>
        <time>2017-07-07T15:47:32Z</time>
      </trkpt>
      <trkpt lat="59.303056203053" lon="18.132765100324">
        <ele>0</ele>
        <time>2017-07-07T15:47:33Z</time>
      </trkpt>
      <trkpt lat="59.303055197225" lon="18.132900048914">
        <ele>0</ele>
        <time>2017-07-07T15:47:34Z</time>
      </trkpt>
      <trkpt lat="59.303052179741" lon="18.133036841522">
        <ele>0</ele>
        <time>2017-07-07T15:47:35Z</time>
      </trkpt>
      <trkpt lat="59.303030973534" lon="18.133300368458">
        <ele>0</ele>
        <time>2017-07-07T15:47:37Z</time>
      </trkpt>
      <trkpt lat="59.303016137571" lon="18.13358015628">
        <ele>0</ele>
        <time>2017-07-07T15:47:39Z</time>
      </trkpt>
      <trkpt lat="59.302998703219" lon="18.134505266583">
        <ele>0</ele>
        <time>2017-07-07T15:47:45Z</time>
      </trkpt>
      <trkpt lat="59.302971881139" lon="18.134828807923">
        <ele>0</ele>
        <time>2017-07-07T15:47:47Z</time>
      </trkpt>
      <trkpt lat="59.302901221722" lon="18.135111361772">
        <ele>0</ele>
        <time>2017-07-07T15:47:49Z</time>
      </trkpt>
      <trkpt lat="59.302807344442" lon="18.135381091314">
        <ele>0</ele>
        <time>2017-07-07T15:47:51Z</time>
      </trkpt>
      <trkpt lat="59.302658062803" lon="18.135784763618">
        <ele>0</ele>
        <time>2017-07-07T15:47:54Z</time>
      </trkpt>
      <trkpt lat="59.302515989598" lon="18.136433522678">
        <ele>0</ele>
        <time>2017-07-07T15:47:58Z</time>
      </trkpt>
      <trkpt lat="59.302485060387" lon="18.136597472642">
        <ele>0</ele>
        <time>2017-07-07T15:47:59Z</time>
      </trkpt>
      <trkpt lat="59.302452706253" lon="18.136750777593">
        <ele>0</ele>
        <time>2017-07-07T15:48:00Z</time>
      </trkpt>
      <trkpt lat="59.30241356278" lon="18.136904082544">
        <ele>0</ele>
        <time>2017-07-07T15:48:01Z</time>
      </trkpt>
      <trkpt lat="59.30237332966" lon="18.137037270935">
        <ele>0</ele>
        <time>2017-07-07T15:48:02Z</time>
      </trkpt>
      <trkpt lat="59.302328486495" lon="18.137173057715">
        <ele>0</ele>
        <time>2017-07-07T15:48:03Z</time>
      </trkpt>
      <trkpt lat="59.302183228168" lon="18.137547644826">
        <ele>0</ele>
        <time>2017-07-07T15:48:06Z</time>
      </trkpt>
      <trkpt lat="59.302140061383" lon="18.13767555262">
        <ele>0</ele>
        <time>2017-07-07T15:48:07Z</time>
      </trkpt>
      <trkpt lat="59.301989522459" lon="18.138225740536">
        <ele>0</ele>
        <time>2017-07-07T15:48:11Z</time>
      </trkpt>
      <trkpt lat="59.301971082279" lon="18.138373848709">
        <ele>0</ele>
        <time>2017-07-07T15:48:12Z</time>
      </trkpt>
      <trkpt lat="59.301952977375" lon="18.138530590239">
        <ele>0</ele>
        <time>2017-07-07T15:48:13Z</time>
      </trkpt>
      <trkpt lat="59.301931268254" lon="18.138689091968">
        <ele>0</ele>
        <time>2017-07-07T15:48:14Z</time>
      </trkpt>
      <trkpt lat="59.3019089724" lon="18.138851114095">
        <ele>0</ele>
        <time>2017-07-07T15:48:15Z</time>
      </trkpt>
      <trkpt lat="59.301878881379" lon="18.139020428475">
        <ele>0</ele>
        <time>2017-07-07T15:48:16Z</time>
      </trkpt>
      <trkpt lat="59.301747620825" lon="18.139456790189">
        <ele>0</ele>
        <time>2017-07-07T15:48:19Z</time>
      </trkpt>
      <trkpt lat="59.301528685597" lon="18.139658291065">
        <ele>0</ele>
        <time>2017-07-07T15:48:22Z</time>
      </trkpt>
      <trkpt lat="59.301329112558" lon="18.139851410041">
        <ele>0</ele>
        <time>2017-07-07T15:48:25Z</time>
      </trkpt>
      <trkpt lat="59.301106237837" lon="18.14002332281">
        <ele>0</ele>
        <time>2017-07-07T15:48:28Z</time>
      </trkpt>
      <trkpt lat="59.300971121609" lon="18.140121307221">
        <ele>0</ele>
        <time>2017-07-07T15:48:30Z</time>
      </trkpt>
      <trkpt lat="59.30088302784" lon="18.140223398763">
        <ele>0</ele>
        <time>2017-07-07T15:48:32Z</time>
      </trkpt>
      <trkpt lat="59.300843046177" lon="18.140280730959">
        <ele>0</ele>
        <time>2017-07-07T15:48:33Z</time>
      </trkpt>
      <trkpt lat="59.300755287684" lon="18.14051534034">
        <ele>0</ele>
        <time>2017-07-07T15:48:36Z</time>
      </trkpt>
      <trkpt lat="59.300679431489" lon="18.140903589948">
        <ele>0</ele>
        <time>2017-07-07T15:48:39Z</time>
      </trkpt>
      <trkpt lat="59.30066677482" lon="18.141078520201">
        <ele>0</ele>
        <time>2017-07-07T15:48:40Z</time>
      </trkpt>
      <trkpt lat="59.300658895834" lon="18.14140046898">
        <ele>0</ele>
        <time>2017-07-07T15:48:42Z</time>
      </trkpt>
      <trkpt lat="59.300632995763" lon="18.142538731">
        <ele>0</ele>
        <time>2017-07-07T15:48:49Z</time>
      </trkpt>
      <trkpt lat="59.300616231963" lon="18.143480437465">
        <ele>0</ele>
        <time>2017-07-07T15:48:55Z</time>
      </trkpt>
      <trkpt lat="59.300599300525" lon="18.14395946305">
        <ele>0</ele>
        <time>2017-07-07T15:48:58Z</time>
      </trkpt>
      <trkpt lat="59.300594355204" lon="18.144118216236">
        <ele>0</ele>
        <time>2017-07-07T15:48:59Z</time>
      </trkpt>
      <trkpt lat="59.300590331892" lon="18.144277891431">
        <ele>0</ele>
        <time>2017-07-07T15:49:00Z</time>
      </trkpt>
      <trkpt lat="59.30058882315" lon="18.144439913558">
        <ele>0</ele>
        <time>2017-07-07T15:49:01Z</time>
      </trkpt>
      <trkpt lat="59.300585721847" lon="18.144603863522">
        <ele>0</ele>
        <time>2017-07-07T15:49:02Z</time>
      </trkpt>
      <trkpt lat="59.300569880056" lon="18.145577085931">
        <ele>0</ele>
        <time>2017-07-07T15:49:08Z</time>
      </trkpt>
      <trkpt lat="59.300478601165" lon="18.146580231723">
        <ele>0</ele>
        <time>2017-07-07T15:49:14Z</time>
      </trkpt>
      <trkpt lat="59.300349855181" lon="18.147223291091">
        <ele>0</ele>
        <time>2017-07-07T15:49:18Z</time>
      </trkpt>
      <trkpt lat="59.300307861862" lon="18.147368214142">
        <ele>0</ele>
        <time>2017-07-07T15:49:19Z</time>
      </trkpt>
      <trkpt lat="59.300280453049" lon="18.147524201301">
        <ele>0</ele>
        <time>2017-07-07T15:49:20Z</time>
      </trkpt>
      <trkpt lat="59.300254050064" lon="18.147853107057">
        <ele>0</ele>
        <time>2017-07-07T15:49:22Z</time>
      </trkpt>
      <trkpt lat="59.300222198844" lon="18.148014290994">
        <ele>0</ele>
        <time>2017-07-07T15:49:23Z</time>
      </trkpt>
      <trkpt lat="59.300136871102" lon="18.148302376897">
        <ele>0</ele>
        <time>2017-07-07T15:49:25Z</time>
      </trkpt>
      <trkpt lat="59.299969065464" lon="18.148657769457">
        <ele>0</ele>
        <time>2017-07-07T15:49:28Z</time>
      </trkpt>
      <trkpt lat="59.299905027748" lon="18.148753490755">
        <ele>0</ele>
        <time>2017-07-07T15:49:29Z</time>
      </trkpt>
      <trkpt lat="59.299834535969" lon="18.148823060525">
        <ele>0</ele>
        <time>2017-07-07T15:49:30Z</time>
      </trkpt>
      <trkpt lat="59.299765050018" lon="18.148885673318">
        <ele>0</ele>
        <time>2017-07-07T15:49:31Z</time>
      </trkpt>
      <trkpt lat="59.299689110004" lon="18.148925906438">
        <ele>0</ele>
        <time>2017-07-07T15:49:32Z</time>
      </trkpt>
      <trkpt lat="59.299611912705" lon="18.148917021624">
        <ele>0</ele>
        <time>2017-07-07T15:49:33Z</time>
      </trkpt>
      <trkpt lat="59.299472186432" lon="18.148809146571">
        <ele>0</ele>
        <time>2017-07-07T15:49:35Z</time>
      </trkpt>
      <trkpt lat="59.299408819268" lon="18.148745276493">
        <ele>0</ele>
        <time>2017-07-07T15:49:36Z</time>
      </trkpt>
      <trkpt lat="59.299345955018" lon="18.148681993148">
        <ele>0</ele>
        <time>2017-07-07T15:49:37Z</time>
      </trkpt>
      <trkpt lat="59.299286694985" lon="18.148622565477">
        <ele>0</ele>
        <time>2017-07-07T15:49:38Z</time>
      </trkpt>
      <trkpt lat="59.29922844078" lon="18.148559282132">
        <ele>0</ele>
        <time>2017-07-07T15:49:39Z</time>
      </trkpt>
      <trkpt lat="59.299169432204" lon="18.148485186136">
        <ele>0</ele>
        <time>2017-07-07T15:49:40Z</time>
      </trkpt>
      <trkpt lat="59.299112602922" lon="18.148415532547">
        <ele>0</ele>
        <time>2017-07-07T15:49:41Z</time>
      </trkpt>
      <trkpt lat="59.299054683993" lon="18.148348980261">
        <ele>0</ele>
        <time>2017-07-07T15:49:42Z</time>
      </trkpt>
      <trkpt lat="59.299000704557" lon="18.148272956428">
        <ele>0</ele>
        <time>2017-07-07T15:49:43Z</time>
      </trkpt>
      <trkpt lat="59.298957202496" lon="18.148188047781">
        <ele>0</ele>
        <time>2017-07-07T15:49:44Z</time>
      </trkpt>
      <trkpt lat="59.298909593304" lon="18.148105737523">
        <ele>0</ele>
        <time>2017-07-07T15:49:45Z</time>
      </trkpt>
      <trkpt lat="59.298863744311" lon="18.148022337618">
        <ele>0</ele>
        <time>2017-07-07T15:49:46Z</time>
      </trkpt>
      <trkpt lat="59.29877330361" lon="18.147868362115">
        <ele>0</ele>
        <time>2017-07-07T15:49:48Z</time>
      </trkpt>
      <trkpt lat="59.298733321947" lon="18.147785968038">
        <ele>0</ele>
        <time>2017-07-07T15:49:49Z</time>
      </trkpt>
      <trkpt lat="59.298690071343" lon="18.147706926721">
        <ele>0</ele>
        <time>2017-07-07T15:49:50Z</time>
      </trkpt>
      <trkpt lat="59.298649586766" lon="18.147624616463">
        <ele>0</ele>
        <time>2017-07-07T15:49:51Z</time>
      </trkpt>
      <trkpt lat="59.29860818018" lon="18.147541132739">
        <ele>0</ele>
        <time>2017-07-07T15:49:52Z</time>
      </trkpt>
      <trkpt lat="59.298567695603" lon="18.147460917956">
        <ele>0</ele>
        <time>2017-07-07T15:49:53Z</time>
      </trkpt>
      <trkpt lat="59.29852603756" lon="18.147378104784">
        <ele>0</ele>
        <time>2017-07-07T15:49:54Z</time>
      </trkpt>
      <trkpt lat="59.298483792784" lon="18.14729210649">
        <ele>0</ele>
        <time>2017-07-07T15:49:55Z</time>
      </trkpt>
      <trkpt lat="59.298446828605" lon="18.147207365481">
        <ele>0</ele>
        <time>2017-07-07T15:49:56Z</time>
      </trkpt>
      <trkpt lat="59.298327637987" lon="18.146948197133">
        <ele>0</ele>
        <time>2017-07-07T15:49:59Z</time>
      </trkpt>
      <trkpt lat="59.298067128535" lon="18.146488198461">
        <ele>0</ele>
        <time>2017-07-07T15:50:04Z</time>
      </trkpt>
      <trkpt lat="59.297592880633" lon="18.145889898439">
        <ele>0</ele>
        <time>2017-07-07T15:50:11Z</time>
      </trkpt>
      <trkpt lat="59.297289958767" lon="18.14554112758">
        <ele>0</ele>
        <time>2017-07-07T15:50:16Z</time>
      </trkpt>
      <trkpt lat="59.297155513091" lon="18.145393522321">
        <ele>0</ele>
        <time>2017-07-07T15:50:18Z</time>
      </trkpt>
      <trkpt lat="59.297075046851" lon="18.145325209836">
        <ele>0</ele>
        <time>2017-07-07T15:50:19Z</time>
      </trkpt>
      <trkpt lat="59.29667782861" lon="18.145100742554">
        <ele>0</ele>
        <time>2017-07-07T15:50:24Z</time>
      </trkpt>
      <trkpt lat="59.296181117216" lon="18.144870743218">
        <ele>0</ele>
        <time>2017-07-07T15:50:30Z</time>
      </trkpt>
      <trkpt lat="59.295802255336" lon="18.144676534595">
        <ele>0</ele>
        <time>2017-07-07T15:50:35Z</time>
      </trkpt>
      <trkpt lat="59.295749197909" lon="18.14458894374">
        <ele>0</ele>
        <time>2017-07-07T15:50:36Z</time>
      </trkpt>
      <trkpt lat="59.29561332731" lon="18.144550051724">
        <ele>0</ele>
        <time>2017-07-07T15:50:38Z</time>
      </trkpt>
      <trkpt lat="59.295544344273" lon="18.144535048123">
        <ele>0</ele>
        <time>2017-07-07T15:50:39Z</time>
      </trkpt>
      <trkpt lat="59.295476450883" lon="18.144523732558">
        <ele>0</ele>
        <time>2017-07-07T15:50:40Z</time>
      </trkpt>
      <trkpt lat="59.295410820606" lon="18.144514763925">
        <ele>0</ele>
        <time>2017-07-07T15:50:41Z</time>
      </trkpt>
      <trkpt lat="59.295344771234" lon="18.144489115311">
        <ele>0</ele>
        <time>2017-07-07T15:50:42Z</time>
      </trkpt>
      <trkpt lat="59.295276877844" lon="18.144489450587">
        <ele>0</ele>
        <time>2017-07-07T15:50:43Z</time>
      </trkpt>
      <trkpt lat="59.295156849036" lon="18.144449552743">
        <ele>0</ele>
        <time>2017-07-07T15:50:45Z</time>
      </trkpt>
      <trkpt lat="59.295082333945" lon="18.144429184726">
        <ele>0</ele>
        <time>2017-07-07T15:50:46Z</time>
      </trkpt>
      <trkpt lat="59.294742783176" lon="18.144348550848">
        <ele>0</ele>
        <time>2017-07-07T15:50:51Z</time>
      </trkpt>
      <trkpt lat="59.294613282821" lon="18.144379563878">
        <ele>0</ele>
        <time>2017-07-07T15:50:53Z</time>
      </trkpt>
      <trkpt lat="59.294544132146" lon="18.144413678211">
        <ele>0</ele>
        <time>2017-07-07T15:50:54Z</time>
      </trkpt>
      <trkpt lat="59.294480597344" lon="18.144482912705">
        <ele>0</ele>
        <time>2017-07-07T15:50:55Z</time>
      </trkpt>
      <trkpt lat="59.29434682222" lon="18.144618950942">
        <ele>0</ele>
        <time>2017-07-07T15:50:57Z</time>
      </trkpt>
      <trkpt lat="59.29387240668" lon="18.144997812822">
        <ele>0</ele>
        <time>2017-07-07T15:51:04Z</time>
      </trkpt>
      <trkpt lat="59.293755730632" lon="18.145085906591">
        <ele>0</ele>
        <time>2017-07-07T15:51:06Z</time>
      </trkpt>
      <trkpt lat="59.293700410092" lon="18.145123960417">
        <ele>0</ele>
        <time>2017-07-07T15:51:07Z</time>
      </trkpt>
      <trkpt lat="59.293647855579" lon="18.145161176053">
        <ele>0</ele>
        <time>2017-07-07T15:51:08Z</time>
      </trkpt>
      <trkpt lat="59.293592786496" lon="18.145203420829">
        <ele>0.2</ele>
        <time>2017-07-07T15:51:09Z</time>
      </trkpt>
      <trkpt lat="59.293479547027" lon="18.145293945349">
        <ele>0.6</ele>
        <time>2017-07-07T15:51:11Z</time>
      </trkpt>
      <trkpt lat="59.293429758541" lon="18.145343147102">
        <ele>1</ele>
        <time>2017-07-07T15:51:12Z</time>
      </trkpt>
      <trkpt lat="59.29338709467" lon="18.145390923932">
        <ele>1.4</ele>
        <time>2017-07-07T15:51:13Z</time>
      </trkpt>
      <trkpt lat="59.293343341152" lon="18.145450016327">
        <ele>1.8</ele>
        <time>2017-07-07T15:51:14Z</time>
      </trkpt>
      <trkpt lat="59.293303862403" lon="18.145525788703">
        <ele>2.2</ele>
        <time>2017-07-07T15:51:15Z</time>
      </trkpt>
      <trkpt lat="59.293170254917" lon="18.145753524926">
        <ele>2.6</ele>
        <time>2017-07-07T15:51:18Z</time>
      </trkpt>
      <trkpt lat="59.293121053164" lon="18.145830470768">
        <ele>3</ele>
        <time>2017-07-07T15:51:19Z</time>
      </trkpt>
      <trkpt lat="59.293077718741" lon="18.145898699434">
        <ele>3.4</ele>
        <time>2017-07-07T15:51:20Z</time>
      </trkpt>
      <trkpt lat="59.293035809241" lon="18.145987296117">
        <ele>4</ele>
        <time>2017-07-07T15:51:21Z</time>
      </trkpt>
      <trkpt lat="59.292989960248" lon="18.14607337823">
        <ele>4.4</ele>
        <time>2017-07-07T15:51:22Z</time>
      </trkpt>
      <trkpt lat="59.292949140395" lon="18.146177565247">
        <ele>4.8</ele>
        <time>2017-07-07T15:51:23Z</time>
      </trkpt>
      <trkpt lat="59.292911421845" lon="18.146282841911">
        <ele>5.2</ele>
        <time>2017-07-07T15:51:24Z</time>
      </trkpt>
      <trkpt lat="59.292878145702" lon="18.146390381688">
        <ele>5.8</ele>
        <time>2017-07-07T15:51:25Z</time>
      </trkpt>
      <trkpt lat="59.29284310936" lon="18.146500352216">
        <ele>6.2</ele>
        <time>2017-07-07T15:51:26Z</time>
      </trkpt>
      <trkpt lat="59.29281293452" lon="18.146608227269">
        <ele>6.6</ele>
        <time>2017-07-07T15:51:27Z</time>
      </trkpt>
      <trkpt lat="59.292763565129" lon="18.146824564108">
        <ele>6.6</ele>
        <time>2017-07-07T15:51:29Z</time>
      </trkpt>
      <trkpt lat="59.292724337837" lon="18.147041906775">
        <ele>7</ele>
        <time>2017-07-07T15:51:31Z</time>
      </trkpt>
      <trkpt lat="59.292710591521" lon="18.147148776">
        <ele>7.4</ele>
        <time>2017-07-07T15:51:32Z</time>
      </trkpt>
      <trkpt lat="59.292701958164" lon="18.147257824519">
        <ele>8.2</ele>
        <time>2017-07-07T15:51:33Z</time>
      </trkpt>
      <trkpt lat="59.292687792753" lon="18.14738933653">
        <ele>8.6</ele>
        <time>2017-07-07T15:51:34Z</time>
      </trkpt>
      <trkpt lat="59.292670190763" lon="18.147518166333">
        <ele>8.6</ele>
        <time>2017-07-07T15:51:35Z</time>
      </trkpt>
      <trkpt lat="59.292644374511" lon="18.147642050815">
        <ele>8.6</ele>
        <time>2017-07-07T15:51:36Z</time>
      </trkpt>
      <trkpt lat="59.29254890467" lon="18.148127446644">
        <ele>8.6</ele>
        <time>2017-07-07T15:51:40Z</time>
      </trkpt>
      <trkpt lat="59.292421080695" lon="18.148849631148">
        <ele>9</ele>
        <time>2017-07-07T15:51:46Z</time>
      </trkpt>
      <trkpt lat="59.292399120117" lon="18.148971420155">
        <ele>9.4</ele>
        <time>2017-07-07T15:51:47Z</time>
      </trkpt>
      <trkpt lat="59.292377243358" lon="18.149094298809">
        <ele>10</ele>
        <time>2017-07-07T15:51:48Z</time>
      </trkpt>
      <trkpt lat="59.29235528278" lon="18.149211477771">
        <ele>10.4</ele>
        <time>2017-07-07T15:51:49Z</time>
      </trkpt>
      <trkpt lat="59.292331478184" lon="18.149328405276">
        <ele>10.8</ele>
        <time>2017-07-07T15:51:50Z</time>
      </trkpt>
      <trkpt lat="59.292255119075" lon="18.149676505583">
        <ele>10.8</ele>
        <time>2017-07-07T15:51:53Z</time>
      </trkpt>
      <trkpt lat="59.29221865781" lon="18.149776669288">
        <ele>10.8</ele>
        <time>2017-07-07T15:51:54Z</time>
      </trkpt>
      <trkpt lat="59.29192948226" lon="18.150508409158">
        <ele>10.8</ele>
        <time>2017-07-07T15:52:01Z</time>
      </trkpt>
      <trkpt lat="59.291671906473" lon="18.151063877671">
        <ele>10.8</ele>
        <time>2017-07-07T15:52:06Z</time>
      </trkpt>
      <trkpt lat="59.291558750823" lon="18.151321118182">
        <ele>10.4</ele>
        <time>2017-07-07T15:52:08Z</time>
      </trkpt>
      <trkpt lat="59.29149613803" lon="18.151450199442">
        <ele>10</ele>
        <time>2017-07-07T15:52:09Z</time>
      </trkpt>
      <trkpt lat="59.291431094486" lon="18.151584812756">
        <ele>9.6</ele>
        <time>2017-07-07T15:52:10Z</time>
      </trkpt>
      <trkpt lat="59.291361692354" lon="18.151729819626">
        <ele>9.2</ele>
        <time>2017-07-07T15:52:11Z</time>
      </trkpt>
      <trkpt lat="59.291284327417" lon="18.151861666913">
        <ele>8.6</ele>
        <time>2017-07-07T15:52:12Z</time>
      </trkpt>
      <trkpt lat="59.291202100978" lon="18.151978678237">
        <ele>8.2</ele>
        <time>2017-07-07T15:52:13Z</time>
      </trkpt>
      <trkpt lat="59.291117527607" lon="18.152092923534">
        <ele>7.8</ele>
        <time>2017-07-07T15:52:14Z</time>
      </trkpt>
      <trkpt lat="59.291038570109" lon="18.152222507708">
        <ele>7</ele>
        <time>2017-07-07T15:52:15Z</time>
      </trkpt>
      <trkpt lat="59.290965144665" lon="18.152374974469">
        <ele>6.2</ele>
        <time>2017-07-07T15:52:16Z</time>
      </trkpt>
      <trkpt lat="59.290895658714" lon="18.152532135094">
        <ele>5.2</ele>
        <time>2017-07-07T15:52:17Z</time>
      </trkpt>
      <trkpt lat="59.290823239098" lon="18.15269424104">
        <ele>4.2</ele>
        <time>2017-07-07T15:52:18Z</time>
      </trkpt>
      <trkpt lat="59.29075014893" lon="18.152852826588">
        <ele>3.2</ele>
        <time>2017-07-07T15:52:19Z</time>
      </trkpt>
      <trkpt lat="59.290678399866" lon="18.153024320262">
        <ele>2.2</ele>
        <time>2017-07-07T15:52:20Z</time>
      </trkpt>
      <trkpt lat="59.290602208395" lon="18.153204279655">
        <ele>1.2</ele>
        <time>2017-07-07T15:52:21Z</time>
      </trkpt>
      <trkpt lat="59.290528699132" lon="18.153400499934">
        <ele>0</ele>
        <time>2017-07-07T15:52:22Z</time>
      </trkpt>
      <trkpt lat="59.290457788258" lon="18.153598899507">
        <ele>0</ele>
        <time>2017-07-07T15:52:23Z</time>
      </trkpt>
      <trkpt lat="59.290389559592" lon="18.153785312963">
        <ele>0</ele>
        <time>2017-07-07T15:52:24Z</time>
      </trkpt>
      <trkpt lat="59.290333819957" lon="18.153958985931">
        <ele>0</ele>
        <time>2017-07-07T15:52:25Z</time>
      </trkpt>
      <trkpt lat="59.290272464449" lon="18.154132407442">
        <ele>0</ele>
        <time>2017-07-07T15:52:26Z</time>
      </trkpt>
      <trkpt lat="59.290209264923" lon="18.154289568067">
        <ele>0</ele>
        <time>2017-07-07T15:52:27Z</time>
      </trkpt>
      <trkpt lat="59.290103736802" lon="18.15474110102">
        <ele>0</ele>
        <time>2017-07-07T15:52:30Z</time>
      </trkpt>
      <trkpt lat="59.29012318281" lon="18.155071515518">
        <ele>0</ele>
        <time>2017-07-07T15:52:32Z</time>
      </trkpt>
      <trkpt lat="59.290048919176" lon="18.155340323051">
        <ele>0</ele>
        <time>2017-07-07T15:52:34Z</time>
      </trkpt>
      <trkpt lat="59.290005333296" lon="18.155458424022">
        <ele>0</ele>
        <time>2017-07-07T15:52:35Z</time>
      </trkpt>
      <trkpt lat="59.289807520456" lon="18.156007522291">
        <ele>0</ele>
        <time>2017-07-07T15:52:39Z</time>
      </trkpt>
      <trkpt lat="59.289609623797" lon="18.156312204356">
        <ele>0</ele>
        <time>2017-07-07T15:52:42Z</time>
      </trkpt>
      <trkpt lat="59.289378367176" lon="18.156735406487">
        <ele>0</ele>
        <time>2017-07-07T15:52:46Z</time>
      </trkpt>
      <trkpt lat="59.289229336994" lon="18.157118291679">
        <ele>0</ele>
        <time>2017-07-07T15:52:49Z</time>
      </trkpt>
      <trkpt lat="59.289120539932" lon="18.157403946831">
        <ele>0</ele>
        <time>2017-07-07T15:52:51Z</time>
      </trkpt>
      <trkpt lat="59.288964217497" lon="18.157856820888">
        <ele>0</ele>
        <time>2017-07-07T15:52:54Z</time>
      </trkpt>
      <trkpt lat="59.288904622188" lon="18.15799998374">
        <ele>0</ele>
        <time>2017-07-07T15:52:55Z</time>
      </trkpt>
      <trkpt lat="59.288799094067" lon="18.158270467653">
        <ele>0</ele>
        <time>2017-07-07T15:52:57Z</time>
      </trkpt>
      <trkpt lat="59.288750981961" lon="18.158599205771">
        <ele>0</ele>
        <time>2017-07-07T15:52:59Z</time>
      </trkpt>
      <trkpt lat="59.288690464643" lon="18.158917717971">
        <ele>0</ele>
        <time>2017-07-07T15:53:01Z</time>
      </trkpt>
      <trkpt lat="59.288634138275" lon="18.159055767864">
        <ele>0</ele>
        <time>2017-07-07T15:53:02Z</time>
      </trkpt>
      <trkpt lat="59.288484018446" lon="18.159488692999">
        <ele>0</ele>
        <time>2017-07-07T15:53:05Z</time>
      </trkpt>
      <trkpt lat="59.288470439768" lon="18.159653229696">
        <ele>0</ele>
        <time>2017-07-07T15:53:06Z</time>
      </trkpt>
      <trkpt lat="59.288506398119" lon="18.160273490296">
        <ele>0</ele>
        <time>2017-07-07T15:53:10Z</time>
      </trkpt>
      <trkpt lat="59.288525927946" lon="18.160428136351">
        <ele>0</ele>
        <time>2017-07-07T15:53:11Z</time>
      </trkpt>
      <trkpt lat="59.288532382009" lon="18.160564593683">
        <ele>0</ele>
        <time>2017-07-07T15:53:12Z</time>
      </trkpt>
      <trkpt lat="59.288529029249" lon="18.160701721567">
        <ele>0</ele>
        <time>2017-07-07T15:53:13Z</time>
      </trkpt>
      <trkpt lat="59.28851972534" lon="18.160829880818">
        <ele>0</ele>
        <time>2017-07-07T15:53:14Z</time>
      </trkpt>
      <trkpt lat="59.288508409775" lon="18.160954016757">
        <ele>0</ele>
        <time>2017-07-07T15:53:15Z</time>
      </trkpt>
      <trkpt lat="59.288493657631" lon="18.161070022253">
        <ele>0</ele>
        <time>2017-07-07T15:53:16Z</time>
      </trkpt>
      <trkpt lat="59.28848033041" lon="18.161189129052">
        <ele>0</ele>
        <time>2017-07-07T15:53:17Z</time>
      </trkpt>
      <trkpt lat="59.288466751732" lon="18.161303961082">
        <ele>0.6</ele>
        <time>2017-07-07T15:53:18Z</time>
      </trkpt>
      <trkpt lat="59.288454597977" lon="18.161420804768">
        <ele>1</ele>
        <time>2017-07-07T15:53:19Z</time>
      </trkpt>
      <trkpt lat="59.288442695679" lon="18.161536810264">
        <ele>1.6</ele>
        <time>2017-07-07T15:53:20Z</time>
      </trkpt>
      <trkpt lat="59.288430374286" lon="18.161657761081">
        <ele>2</ele>
        <time>2017-07-07T15:53:21Z</time>
      </trkpt>
      <trkpt lat="59.28841662797" lon="18.161775107681">
        <ele>2.4</ele>
        <time>2017-07-07T15:53:22Z</time>
      </trkpt>
      <trkpt lat="59.288399947989" lon="18.161899411258">
        <ele>3</ele>
        <time>2017-07-07T15:53:23Z</time>
      </trkpt>
      <trkpt lat="59.288384441474" lon="18.162032851106">
        <ele>3.4</ele>
        <time>2017-07-07T15:53:24Z</time>
      </trkpt>
      <trkpt lat="59.288348483123" lon="18.162325295597">
        <ele>3.4</ele>
        <time>2017-07-07T15:53:26Z</time>
      </trkpt>
      <trkpt lat="59.288237339129" lon="18.163271528288">
        <ele>3.4</ele>
        <time>2017-07-07T15:53:32Z</time>
      </trkpt>
      <trkpt lat="59.288168020816" lon="18.163787434233">
        <ele>3</ele>
        <time>2017-07-07T15:53:35Z</time>
      </trkpt>
      <trkpt lat="59.288141869288" lon="18.163957167708">
        <ele>2.2</ele>
        <time>2017-07-07T15:53:36Z</time>
      </trkpt>
      <trkpt lat="59.288115466303" lon="18.16412966721">
        <ele>1.8</ele>
        <time>2017-07-07T15:53:37Z</time>
      </trkpt>
      <trkpt lat="59.288091074974" lon="18.164304094549">
        <ele>1.4</ele>
        <time>2017-07-07T15:53:38Z</time>
      </trkpt>
      <trkpt lat="59.287943218258" lon="18.165321154295">
        <ele>1.4</ele>
        <time>2017-07-07T15:53:44Z</time>
      </trkpt>
      <trkpt lat="59.28786174619" lon="18.165891039676">
        <ele>1.4</ele>
        <time>2017-07-07T15:53:48Z</time>
      </trkpt>
      <trkpt lat="59.287842886915" lon="18.166058929133">
        <ele>1.4</ele>
        <time>2017-07-07T15:53:49Z</time>
      </trkpt>
      <trkpt lat="59.287805419822" lon="18.166390768554">
        <ele>1.8</ele>
        <time>2017-07-07T15:53:51Z</time>
      </trkpt>
      <trkpt lat="59.287792427877" lon="18.166555724346">
        <ele>2.2</ele>
        <time>2017-07-07T15:53:52Z</time>
      </trkpt>
      <trkpt lat="59.287776418448" lon="18.16672721802">
        <ele>2.6</ele>
        <time>2017-07-07T15:53:53Z</time>
      </trkpt>
      <trkpt lat="59.287762672132" lon="18.166899717522">
        <ele>3</ele>
        <time>2017-07-07T15:53:54Z</time>
      </trkpt>
      <trkpt lat="59.287748674359" lon="18.16707506687">
        <ele>3.4</ele>
        <time>2017-07-07T15:53:55Z</time>
      </trkpt>
      <trkpt lat="59.287645157894" lon="18.167846788403">
        <ele>3.4</ele>
        <time>2017-07-07T15:54:00Z</time>
      </trkpt>
      <trkpt lat="59.287458744438" lon="18.168762008064">
        <ele>3.4</ele>
        <time>2017-07-07T15:54:06Z</time>
      </trkpt>
      <trkpt lat="59.287238468106" lon="18.169687034548">
        <ele>3.4</ele>
        <time>2017-07-07T15:54:12Z</time>
      </trkpt>
      <trkpt lat="59.287083654413" lon="18.170541317796">
        <ele>3.4</ele>
        <time>2017-07-07T15:54:17Z</time>
      </trkpt>
      <trkpt lat="59.286997991395" lon="18.171027216539">
        <ele>3</ele>
        <time>2017-07-07T15:54:20Z</time>
      </trkpt>
      <trkpt lat="59.286968487107" lon="18.171183622793">
        <ele>2.6</ele>
        <time>2017-07-07T15:54:21Z</time>
      </trkpt>
      <trkpt lat="59.286941329751" lon="18.171339693771">
        <ele>2.2</ele>
        <time>2017-07-07T15:54:22Z</time>
      </trkpt>
      <trkpt lat="59.286913418024" lon="18.171492914903">
        <ele>1.8</ele>
        <time>2017-07-07T15:54:23Z</time>
      </trkpt>
      <trkpt lat="59.286884751926" lon="18.171643872922">
        <ele>1.4</ele>
        <time>2017-07-07T15:54:24Z</time>
      </trkpt>
      <trkpt lat="59.286858013665" lon="18.171791729638">
        <ele>1.4</ele>
        <time>2017-07-07T15:54:25Z</time>
      </trkpt>
      <trkpt lat="59.286714683175" lon="18.172665458894">
        <ele>1.8</ele>
        <time>2017-07-07T15:54:31Z</time>
      </trkpt>
      <trkpt lat="59.286693644606" lon="18.172800491303">
        <ele>2.2</ele>
        <time>2017-07-07T15:54:32Z</time>
      </trkpt>
      <trkpt lat="59.28666816363" lon="18.172941139585">
        <ele>2.6</ele>
        <time>2017-07-07T15:54:33Z</time>
      </trkpt>
      <trkpt lat="59.286647711794" lon="18.173076004356">
        <ele>3</ele>
        <time>2017-07-07T15:54:34Z</time>
      </trkpt>
      <trkpt lat="59.286623404284" lon="18.173207181091">
        <ele>3.4</ele>
        <time>2017-07-07T15:54:35Z</time>
      </trkpt>
      <trkpt lat="59.286553080143" lon="18.173595011604">
        <ele>3.8</ele>
        <time>2017-07-07T15:54:38Z</time>
      </trkpt>
      <trkpt lat="59.286534304687" lon="18.173724931054">
        <ele>4.2</ele>
        <time>2017-07-07T15:54:39Z</time>
      </trkpt>
      <trkpt lat="59.28651645124" lon="18.173859125273">
        <ele>4.8</ele>
        <time>2017-07-07T15:54:40Z</time>
      </trkpt>
      <trkpt lat="59.28649214373" lon="18.174002539582">
        <ele>5.2</ele>
        <time>2017-07-07T15:54:41Z</time>
      </trkpt>
      <trkpt lat="59.286472446265" lon="18.174139248371">
        <ele>5.6</ele>
        <time>2017-07-07T15:54:42Z</time>
      </trkpt>
      <trkpt lat="59.286409079101" lon="18.174558259552">
        <ele>5.6</ele>
        <time>2017-07-07T15:54:45Z</time>
      </trkpt>
      <trkpt lat="59.286281841859" lon="18.175409357678">
        <ele>5.6</ele>
        <time>2017-07-07T15:54:51Z</time>
      </trkpt>
      <trkpt lat="59.286118562447" lon="18.176306388616">
        <ele>5.6</ele>
        <time>2017-07-07T15:54:57Z</time>
      </trkpt>
      <trkpt lat="59.285959809261" lon="18.17716855085">
        <ele>5</ele>
        <time>2017-07-07T15:55:02Z</time>
      </trkpt>
      <trkpt lat="59.285916055743" lon="18.177348007329">
        <ele>4.6</ele>
        <time>2017-07-07T15:55:03Z</time>
      </trkpt>
      <trkpt lat="59.285867608361" lon="18.177539785201">
        <ele>4.2</ele>
        <time>2017-07-07T15:55:04Z</time>
      </trkpt>
      <trkpt lat="59.285821340273" lon="18.177713122893">
        <ele>3.6</ele>
        <time>2017-07-07T15:55:05Z</time>
      </trkpt>
      <trkpt lat="59.285775156004" lon="18.17788771787">
        <ele>3</ele>
        <time>2017-07-07T15:55:06Z</time>
      </trkpt>
      <trkpt lat="59.285722517672" lon="18.178036412776">
        <ele>2.2</ele>
        <time>2017-07-07T15:55:07Z</time>
      </trkpt>
      <trkpt lat="59.285671388082" lon="18.178192064659">
        <ele>1.6</ele>
        <time>2017-07-07T15:55:08Z</time>
      </trkpt>
      <trkpt lat="59.2856145588" lon="18.178328521991">
        <ele>0.8</ele>
        <time>2017-07-07T15:55:09Z</time>
      </trkpt>
      <trkpt lat="59.285556807509" lon="18.178459028174">
        <ele>0.2</ele>
        <time>2017-07-07T15:55:10Z</time>
      </trkpt>
      <trkpt lat="59.285494613811" lon="18.17859515023">
        <ele>0</ele>
        <time>2017-07-07T15:55:11Z</time>
      </trkpt>
      <trkpt lat="59.285432336294" lon="18.178722136015">
        <ele>0</ele>
        <time>2017-07-07T15:55:12Z</time>
      </trkpt>
      <trkpt lat="59.285177275077" lon="18.179191019501">
        <ele>0</ele>
        <time>2017-07-07T15:55:16Z</time>
      </trkpt>
      <trkpt lat="59.284909305734" lon="18.179504251104">
        <ele>0</ele>
        <time>2017-07-07T15:55:20Z</time>
      </trkpt>
      <trkpt lat="59.28470596084" lon="18.179717905735">
        <ele>0</ele>
        <time>2017-07-07T15:55:23Z</time>
      </trkpt>
      <trkpt lat="59.284634295595" lon="18.179774735017">
        <ele>0</ele>
        <time>2017-07-07T15:55:24Z</time>
      </trkpt>
      <trkpt lat="59.284563049445" lon="18.179846064986">
        <ele>0</ele>
        <time>2017-07-07T15:55:25Z</time>
      </trkpt>
      <trkpt lat="59.284492976761" lon="18.17993709242">
        <ele>0</ele>
        <time>2017-07-07T15:55:26Z</time>
      </trkpt>
      <trkpt lat="59.28442265262" lon="18.18001839685">
        <ele>0.4</ele>
        <time>2017-07-07T15:55:27Z</time>
      </trkpt>
      <trkpt lat="59.284350819737" lon="18.180073298295">
        <ele>0.8</ele>
        <time>2017-07-07T15:55:28Z</time>
      </trkpt>
      <trkpt lat="59.284201202822" lon="18.180237080621">
        <ele>0.8</ele>
        <time>2017-07-07T15:55:30Z</time>
      </trkpt>
      <trkpt lat="59.28405301083" lon="18.180363395854">
        <ele>0.8</ele>
        <time>2017-07-07T15:55:32Z</time>
      </trkpt>
      <trkpt lat="59.283744976005" lon="18.18069816894">
        <ele>0.8</ele>
        <time>2017-07-07T15:55:36Z</time>
      </trkpt>
      <trkpt lat="59.283581864231" lon="18.180839068679">
        <ele>0.8</ele>
        <time>2017-07-07T15:55:38Z</time>
      </trkpt>
      <trkpt lat="59.283427050538" lon="18.181006036127">
        <ele>0.8</ele>
        <time>2017-07-07T15:55:40Z</time>
      </trkpt>
      <trkpt lat="59.283102251913" lon="18.18134441343">
        <ele>0.4</ele>
        <time>2017-07-07T15:55:44Z</time>
      </trkpt>
      <trkpt lat="59.283023797329" lon="18.181426723688">
        <ele>0</ele>
        <time>2017-07-07T15:55:45Z</time>
      </trkpt>
      <trkpt lat="59.282946013297" lon="18.18151624238">
        <ele>0</ele>
        <time>2017-07-07T15:55:46Z</time>
      </trkpt>
      <trkpt lat="59.282868061627" lon="18.181599893742">
        <ele>0</ele>
        <time>2017-07-07T15:55:47Z</time>
      </trkpt>
      <trkpt lat="59.282787846844" lon="18.181682706914">
        <ele>0</ele>
        <time>2017-07-07T15:55:48Z</time>
      </trkpt>
      <trkpt lat="59.282705033672" lon="18.181761245317">
        <ele>0</ele>
        <time>2017-07-07T15:55:49Z</time>
      </trkpt>
      <trkpt lat="59.282559859164" lon="18.181962243279">
        <ele>0</ele>
        <time>2017-07-07T15:55:51Z</time>
      </trkpt>
      <trkpt lat="59.28241434938" lon="18.182152512409">
        <ele>0</ele>
        <time>2017-07-07T15:55:53Z</time>
      </trkpt>
      <trkpt lat="59.282025764496" lon="18.182509916625">
        <ele>0</ele>
        <time>2017-07-07T15:55:58Z</time>
      </trkpt>
      <trkpt lat="59.281785623061" lon="18.182654420581">
        <ele>0</ele>
        <time>2017-07-07T15:56:01Z</time>
      </trkpt>
      <trkpt lat="59.281698870396" lon="18.182699934298">
        <ele>0</ele>
        <time>2017-07-07T15:56:02Z</time>
      </trkpt>
      <trkpt lat="59.281435427279" lon="18.182816526527">
        <ele>0</ele>
        <time>2017-07-07T15:56:05Z</time>
      </trkpt>
      <trkpt lat="59.281263682148" lon="18.182833625603">
        <ele>0</ele>
        <time>2017-07-07T15:56:07Z</time>
      </trkpt>
      <trkpt lat="59.281183383546" lon="18.182842426598">
        <ele>0</ele>
        <time>2017-07-07T15:56:08Z</time>
      </trkpt>
      <trkpt lat="59.281103001125" lon="18.182833457965">
        <ele>0</ele>
        <time>2017-07-07T15:56:09Z</time>
      </trkpt>
      <trkpt lat="59.281025720007" lon="18.182824405513">
        <ele>0.2</ele>
        <time>2017-07-07T15:56:10Z</time>
      </trkpt>
      <trkpt lat="59.280950785821" lon="18.182806971161">
        <ele>0.6</ele>
        <time>2017-07-07T15:56:11Z</time>
      </trkpt>
      <trkpt lat="59.280880629318" lon="18.182783669479">
        <ele>1.2</ele>
        <time>2017-07-07T15:56:12Z</time>
      </trkpt>
      <trkpt lat="59.280812316833" lon="18.182753913734">
        <ele>1.8</ele>
        <time>2017-07-07T15:56:13Z</time>
      </trkpt>
      <trkpt lat="59.280751128963" lon="18.18272575055">
        <ele>2.4</ele>
        <time>2017-07-07T15:56:14Z</time>
      </trkpt>
      <trkpt lat="59.280689438179" lon="18.18269222295">
        <ele>3</ele>
        <time>2017-07-07T15:56:15Z</time>
      </trkpt>
      <trkpt lat="59.280632860354" lon="18.182654085305">
        <ele>3.6</ele>
        <time>2017-07-07T15:56:16Z</time>
      </trkpt>
      <trkpt lat="59.280582149859" lon="18.18261008033">
        <ele>4</ele>
        <time>2017-07-07T15:56:17Z</time>
      </trkpt>
      <trkpt lat="59.280528757156" lon="18.182566410631">
        <ele>4.4</ele>
        <time>2017-07-07T15:56:18Z</time>
      </trkpt>
      <trkpt lat="59.280478298118" lon="18.182530117004">
        <ele>4.8</ele>
        <time>2017-07-07T15:56:19Z</time>
      </trkpt>
      <trkpt lat="59.280427084709" lon="18.18249189554">
        <ele>5.2</ele>
        <time>2017-07-07T15:56:20Z</time>
      </trkpt>
      <trkpt lat="59.280377631499" lon="18.182444453986">
        <ele>5.8</ele>
        <time>2017-07-07T15:56:21Z</time>
      </trkpt>
      <trkpt lat="59.280288783359" lon="18.182341356616">
        <ele>5.8</ele>
        <time>2017-07-07T15:56:23Z</time>
      </trkpt>
      <trkpt lat="59.280245784212" lon="18.182286455171">
        <ele>6.2</ele>
        <time>2017-07-07T15:56:24Z</time>
      </trkpt>
      <trkpt lat="59.28020068959" lon="18.182236415228">
        <ele>6.6</ele>
        <time>2017-07-07T15:56:25Z</time>
      </trkpt>
      <trkpt lat="59.280158612452" lon="18.18218176524">
        <ele>7</ele>
        <time>2017-07-07T15:56:26Z</time>
      </trkpt>
      <trkpt lat="59.280121312997" lon="18.182122086112">
        <ele>7.6</ele>
        <time>2017-07-07T15:56:27Z</time>
      </trkpt>
      <trkpt lat="59.280086947207" lon="18.182056372016">
        <ele>8</ele>
        <time>2017-07-07T15:56:28Z</time>
      </trkpt>
      <trkpt lat="59.280013186487" lon="18.181913292983">
        <ele>8</ele>
        <time>2017-07-07T15:56:30Z</time>
      </trkpt>
      <trkpt lat="59.279931211505" lon="18.181795694926">
        <ele>8</ele>
        <time>2017-07-07T15:56:32Z</time>
      </trkpt>
      <trkpt lat="59.27984026789" lon="18.181642725251">
        <ele>8</ele>
        <time>2017-07-07T15:56:34Z</time>
      </trkpt>
      <trkpt lat="59.279659386488" lon="18.181320273558">
        <ele>8</ele>
        <time>2017-07-07T15:56:38Z</time>
      </trkpt>
      <trkpt lat="59.279400553416" lon="18.180821131413">
        <ele>8</ele>
        <time>2017-07-07T15:56:43Z</time>
      </trkpt>
      <trkpt lat="59.279073491678" lon="18.18021620969">
        <ele>8</ele>
        <time>2017-07-07T15:56:49Z</time>
      </trkpt>
      <trkpt lat="59.278819101013" lon="18.179651856363">
        <ele>7.2</ele>
        <time>2017-07-07T15:56:54Z</time>
      </trkpt>
      <trkpt lat="59.278763529016" lon="18.179536940514">
        <ele>6.8</ele>
        <time>2017-07-07T15:56:55Z</time>
      </trkpt>
      <trkpt lat="59.278709298123" lon="18.179429903651">
        <ele>6.2</ele>
        <time>2017-07-07T15:56:56Z</time>
      </trkpt>
      <trkpt lat="59.278651043918" lon="18.179327812109">
        <ele>5.8</ele>
        <time>2017-07-07T15:56:57Z</time>
      </trkpt>
      <trkpt lat="59.278373854485" lon="18.178799249495">
        <ele>5.8</ele>
        <time>2017-07-07T15:57:02Z</time>
      </trkpt>
      <trkpt lat="59.277962219376" lon="18.178019481338">
        <ele>5.8</ele>
        <time>2017-07-07T15:57:09Z</time>
      </trkpt>
      <trkpt lat="59.277574221225" lon="18.177354293754">
        <ele>5.4</ele>
        <time>2017-07-07T15:57:15Z</time>
      </trkpt>
      <trkpt lat="59.277507920396" lon="18.177243485036">
        <ele>5</ele>
        <time>2017-07-07T15:57:16Z</time>
      </trkpt>
      <trkpt lat="59.277442038662" lon="18.17713167049">
        <ele>4.6</ele>
        <time>2017-07-07T15:57:17Z</time>
      </trkpt>
      <trkpt lat="59.277370373417" lon="18.177024130713">
        <ele>3.6</ele>
        <time>2017-07-07T15:57:18Z</time>
      </trkpt>
      <trkpt lat="59.277001485998" lon="18.176572513941">
        <ele>3.6</ele>
        <time>2017-07-07T15:57:23Z</time>
      </trkpt>
      <trkpt lat="59.276514581427" lon="18.176109665423">
        <ele>3.6</ele>
        <time>2017-07-07T15:57:29Z</time>
      </trkpt>
      <trkpt lat="59.276432690264" lon="18.176060547489">
        <ele>3.6</ele>
        <time>2017-07-07T15:57:30Z</time>
      </trkpt>
      <trkpt lat="59.276273350345" lon="18.175943619984">
        <ele>3.2</ele>
        <time>2017-07-07T15:57:32Z</time>
      </trkpt>
      <trkpt lat="59.276192381191" lon="18.175872457653">
        <ele>2.8</ele>
        <time>2017-07-07T15:57:33Z</time>
      </trkpt>
      <trkpt lat="59.276113507512" lon="18.175803726073">
        <ele>2.4</ele>
        <time>2017-07-07T15:57:34Z</time>
      </trkpt>
      <trkpt lat="59.276034130919" lon="18.17574949518">
        <ele>2</ele>
        <time>2017-07-07T15:57:35Z</time>
      </trkpt>
      <trkpt lat="59.275954502869" lon="18.175696940667">
        <ele>1.6</ele>
        <time>2017-07-07T15:57:36Z</time>
      </trkpt>
      <trkpt lat="59.275434489793" lon="18.175327634153">
        <ele>1.6</ele>
        <time>2017-07-07T15:57:43Z</time>
      </trkpt>
      <trkpt lat="59.275363076005" lon="18.175299890064">
        <ele>1.6</ele>
        <time>2017-07-07T15:57:44Z</time>
      </trkpt>
      <trkpt lat="59.275133328126" lon="18.175287065757">
        <ele>1.6</ele>
        <time>2017-07-07T15:57:47Z</time>
      </trkpt>
      <trkpt lat="59.275050598773" lon="18.17531028362">
        <ele>1.6</ele>
        <time>2017-07-07T15:57:48Z</time>
      </trkpt>
      <trkpt lat="59.274814732107" lon="18.175364011599">
        <ele>1.6</ele>
        <time>2017-07-07T15:57:51Z</time>
      </trkpt>
      <trkpt lat="59.274583307848" lon="18.175452608282">
        <ele>1.6</ele>
        <time>2017-07-07T15:57:54Z</time>
      </trkpt>
      <trkpt lat="59.274428661793" lon="18.175507342089">
        <ele>1.6</ele>
        <time>2017-07-07T15:57:56Z</time>
      </trkpt>
      <trkpt lat="59.274026414412" lon="18.175682356161">
        <ele>1.6</ele>
        <time>2017-07-07T15:58:01Z</time>
      </trkpt>
      <trkpt lat="59.27351528615" lon="18.175927023822">
        <ele>1.6</ele>
        <time>2017-07-07T15:58:07Z</time>
      </trkpt>
      <trkpt lat="59.273428365847" lon="18.175966251114">
        <ele>0.8</ele>
        <time>2017-07-07T15:58:08Z</time>
      </trkpt>
      <trkpt lat="59.273341948458" lon="18.175995587764">
        <ele>0.4</ele>
        <time>2017-07-07T15:58:09Z</time>
      </trkpt>
      <trkpt lat="59.273258129458" lon="18.176047304087">
        <ele>0</ele>
        <time>2017-07-07T15:58:10Z</time>
      </trkpt>
      <trkpt lat="59.273170622422" lon="18.176104384826">
        <ele>0</ele>
        <time>2017-07-07T15:58:11Z</time>
      </trkpt>
      <trkpt lat="59.273086719603" lon="18.176165740334">
        <ele>0</ele>
        <time>2017-07-07T15:58:12Z</time>
      </trkpt>
      <trkpt lat="59.272522031" lon="18.17664300572">
        <ele>0</ele>
        <time>2017-07-07T15:58:19Z</time>
      </trkpt>
      <trkpt lat="59.271991540549" lon="18.177277599369">
        <ele>0</ele>
        <time>2017-07-07T15:58:26Z</time>
      </trkpt>
      <trkpt lat="59.27149776282" lon="18.177680852578">
        <ele>0</ele>
        <time>2017-07-07T15:58:32Z</time>
      </trkpt>
      <trkpt lat="59.271057964527" lon="18.177826110905">
        <ele>0</ele>
        <time>2017-07-07T15:58:37Z</time>
      </trkpt>
      <trkpt lat="59.270606180117" lon="18.177768359614">
        <ele>0</ele>
        <time>2017-07-07T15:58:42Z</time>
      </trkpt>
      <trkpt lat="59.270167806747" lon="18.177633159567">
        <ele>0</ele>
        <time>2017-07-07T15:58:47Z</time>
      </trkpt>
      <trkpt lat="59.269575290236" lon="18.177492762742">
        <ele>0</ele>
        <time>2017-07-07T15:58:54Z</time>
      </trkpt>
      <trkpt lat="59.269495494548" lon="18.177465856843">
        <ele>0.4</ele>
        <time>2017-07-07T15:58:55Z</time>
      </trkpt>
      <trkpt lat="59.269417542878" lon="18.177444902093">
        <ele>0.8</ele>
        <time>2017-07-07T15:58:56Z</time>
      </trkpt>
      <trkpt lat="59.269332634231" lon="18.177423109153">
        <ele>1.2</ele>
        <time>2017-07-07T15:58:57Z</time>
      </trkpt>
      <trkpt lat="59.26925225181" lon="18.177406512991">
        <ele>1.6</ele>
        <time>2017-07-07T15:58:58Z</time>
      </trkpt>
      <trkpt lat="59.26901252947" lon="18.177330572977">
        <ele>1.6</ele>
        <time>2017-07-07T15:59:01Z</time>
      </trkpt>
      <trkpt lat="59.26848530796" lon="18.177148099014">
        <ele>1.6</ele>
        <time>2017-07-07T15:59:08Z</time>
      </trkpt>
      <trkpt lat="59.268145924829" lon="18.17699001638">
        <ele>2</ele>
        <time>2017-07-07T15:59:13Z</time>
      </trkpt>
      <trkpt lat="59.268082222389" lon="18.1769212848">
        <ele>2.6</ele>
        <time>2017-07-07T15:59:14Z</time>
      </trkpt>
      <trkpt lat="59.268012065886" lon="18.176871328676">
        <ele>3</ele>
        <time>2017-07-07T15:59:15Z</time>
      </trkpt>
      <trkpt lat="59.267936712605" lon="18.176872418323">
        <ele>3.4</ele>
        <time>2017-07-07T15:59:16Z</time>
      </trkpt>
      <trkpt lat="59.267860185858" lon="18.176881135499">
        <ele>4</ele>
        <time>2017-07-07T15:59:17Z</time>
      </trkpt>
      <trkpt lat="59.267710904219" lon="18.176818857982">
        <ele>4</ele>
        <time>2017-07-07T15:59:19Z</time>
      </trkpt>
      <trkpt lat="59.267557096354" lon="18.176764627089">
        <ele>4</ele>
        <time>2017-07-07T15:59:21Z</time>
      </trkpt>
      <trkpt lat="59.267331707063" lon="18.176713162223">
        <ele>4.4</ele>
        <time>2017-07-07T15:59:24Z</time>
      </trkpt>
      <trkpt lat="59.267257862524" lon="18.176702181934">
        <ele>5</ele>
        <time>2017-07-07T15:59:25Z</time>
      </trkpt>
      <trkpt lat="59.267182090148" lon="18.17669664988">
        <ele>5.4</ele>
        <time>2017-07-07T15:59:26Z</time>
      </trkpt>
      <trkpt lat="59.267103551745" lon="18.176696146966">
        <ele>6</ele>
        <time>2017-07-07T15:59:27Z</time>
      </trkpt>
      <trkpt lat="59.267026773541" lon="18.176695224957">
        <ele>6.4</ele>
        <time>2017-07-07T15:59:28Z</time>
      </trkpt>
      <trkpt lat="59.2666714648" lon="18.17673855938">
        <ele>6.4</ele>
        <time>2017-07-07T15:59:33Z</time>
      </trkpt>
      <trkpt lat="59.266604074324" lon="18.176765884374">
        <ele>6.4</ele>
        <time>2017-07-07T15:59:34Z</time>
      </trkpt>
      <trkpt lat="59.26640240581" lon="18.176823803303">
        <ele>7</ele>
        <time>2017-07-07T15:59:37Z</time>
      </trkpt>
      <trkpt lat="59.266335266791" lon="18.176861857129">
        <ele>7.4</ele>
        <time>2017-07-07T15:59:38Z</time>
      </trkpt>
      <trkpt lat="59.2662775155" lon="18.176904604819">
        <ele>7.8</ele>
        <time>2017-07-07T15:59:39Z</time>
      </trkpt>
      <trkpt lat="59.266214902707" lon="18.176949196527">
        <ele>8.4</ele>
        <time>2017-07-07T15:59:40Z</time>
      </trkpt>
      <trkpt lat="59.266153714837" lon="18.176994626425">
        <ele>8.8</ele>
        <time>2017-07-07T15:59:41Z</time>
      </trkpt>
      <trkpt lat="59.265846518202" lon="18.177178022397">
        <ele>8.8</ele>
        <time>2017-07-07T15:59:46Z</time>
      </trkpt>
      <trkpt lat="59.265596318487" lon="18.177424534076">
        <ele>8.8</ele>
        <time>2017-07-07T15:59:50Z</time>
      </trkpt>
      <trkpt lat="59.265534795341" lon="18.177491337819">
        <ele>8.8</ele>
        <time>2017-07-07T15:59:51Z</time>
      </trkpt>
      <trkpt lat="59.265112012305" lon="18.178007998135">
        <ele>8.8</ele>
        <time>2017-07-07T15:59:57Z</time>
      </trkpt>
      <trkpt lat="59.264867344644" lon="18.178288456509">
        <ele>8.4</ele>
        <time>2017-07-07T16:00:00Z</time>
      </trkpt>
      <trkpt lat="59.264778915599" lon="18.178392392069">
        <ele>8</ele>
        <time>2017-07-07T16:00:01Z</time>
      </trkpt>
      <trkpt lat="59.264693504038" lon="18.178498255466">
        <ele>7.2</ele>
        <time>2017-07-07T16:00:02Z</time>
      </trkpt>
      <trkpt lat="59.26460281188" lon="18.178601688112">
        <ele>6.6</ele>
        <time>2017-07-07T16:00:03Z</time>
      </trkpt>
      <trkpt lat="59.264510694799" lon="18.178713418839">
        <ele>6</ele>
        <time>2017-07-07T16:00:04Z</time>
      </trkpt>
      <trkpt lat="59.264407429791" lon="18.178824562833">
        <ele>5.2</ele>
        <time>2017-07-07T16:00:05Z</time>
      </trkpt>
      <trkpt lat="59.264316486176" lon="18.178948614953">
        <ele>4.6</ele>
        <time>2017-07-07T16:00:06Z</time>
      </trkpt>
      <trkpt lat="59.264220764878" lon="18.179066380648">
        <ele>3.8</ele>
        <time>2017-07-07T16:00:07Z</time>
      </trkpt>
      <trkpt lat="59.264122864286" lon="18.179185571266">
        <ele>2.8</ele>
        <time>2017-07-07T16:00:08Z</time>
      </trkpt>
      <trkpt lat="59.264032675042" lon="18.179314484888">
        <ele>2</ele>
        <time>2017-07-07T16:00:09Z</time>
      </trkpt>
      <trkpt lat="59.263942485798" lon="18.179443649967">
        <ele>1.2</ele>
        <time>2017-07-07T16:00:10Z</time>
      </trkpt>
      <trkpt lat="59.26385263183" lon="18.179578766195">
        <ele>0.4</ele>
        <time>2017-07-07T16:00:11Z</time>
      </trkpt>
      <trkpt lat="59.263755485609" lon="18.179715223527">
        <ele>0</ele>
        <time>2017-07-07T16:00:12Z</time>
      </trkpt>
      <trkpt lat="59.263664374356" lon="18.179841957855">
        <ele>0</ele>
        <time>2017-07-07T16:00:13Z</time>
      </trkpt>
      <trkpt lat="59.263575358578" lon="18.17997648735">
        <ele>0</ele>
        <time>2017-07-07T16:00:14Z</time>
      </trkpt>
      <trkpt lat="59.263483409135" lon="18.180109508103">
        <ele>0</ele>
        <time>2017-07-07T16:00:15Z</time>
      </trkpt>
      <trkpt lat="59.263390286226" lon="18.180235907155">
        <ele>0</ele>
        <time>2017-07-07T16:00:16Z</time>
      </trkpt>
      <trkpt lat="59.263298169145" lon="18.180370269012">
        <ele>0</ele>
        <time>2017-07-07T16:00:17Z</time>
      </trkpt>
      <trkpt lat="59.263207393168" lon="18.180502703032">
        <ele>0</ele>
        <time>2017-07-07T16:00:18Z</time>
      </trkpt>
      <trkpt lat="59.263122987435" lon="18.180627341885">
        <ele>0</ele>
        <time>2017-07-07T16:00:19Z</time>
      </trkpt>
      <trkpt lat="59.263036653865" lon="18.180761536104">
        <ele>0</ele>
        <time>2017-07-07T16:00:20Z</time>
      </trkpt>
      <trkpt lat="59.262656869976" lon="18.181355477538">
        <ele>0</ele>
        <time>2017-07-07T16:00:25Z</time>
      </trkpt>
      <trkpt lat="59.26223492513" lon="18.182019240199">
        <ele>0</ele>
        <time>2017-07-07T16:00:31Z</time>
      </trkpt>
      <trkpt lat="59.261874587249" lon="18.182704041429">
        <ele>0</ele>
        <time>2017-07-07T16:00:37Z</time>
      </trkpt>
      <trkpt lat="59.26182421203" lon="18.182818705821">
        <ele>0</ele>
        <time>2017-07-07T16:00:38Z</time>
      </trkpt>
      <trkpt lat="59.261779201227" lon="18.182941081561">
        <ele>0</ele>
        <time>2017-07-07T16:00:39Z</time>
      </trkpt>
      <trkpt lat="59.261732430225" lon="18.18307611397">
        <ele>0</ele>
        <time>2017-07-07T16:00:40Z</time>
      </trkpt>
      <trkpt lat="59.261688676707" lon="18.183218187175">
        <ele>0</ele>
        <time>2017-07-07T16:00:41Z</time>
      </trkpt>
      <trkpt lat="59.261650119967" lon="18.183357159077">
        <ele>0</ele>
        <time>2017-07-07T16:00:42Z</time>
      </trkpt>
      <trkpt lat="59.261438896087" lon="18.184045648343">
        <ele>0</ele>
        <time>2017-07-07T16:00:47Z</time>
      </trkpt>
      <trkpt lat="59.261394052922" lon="18.184180345476">
        <ele>0</ele>
        <time>2017-07-07T16:00:48Z</time>
      </trkpt>
      <trkpt lat="59.261238233401" lon="18.184533810199">
        <ele>0</ele>
        <time>2017-07-07T16:00:51Z</time>
      </trkpt>
      <trkpt lat="59.261172351667" lon="18.184619473217">
        <ele>0</ele>
        <time>2017-07-07T16:00:52Z</time>
      </trkpt>
      <trkpt lat="59.260956433923" lon="18.184696167602">
        <ele>0</ele>
        <time>2017-07-07T16:00:55Z</time>
      </trkpt>
      <trkpt lat="59.260892396207" lon="18.184768084304">
        <ele>0</ele>
        <time>2017-07-07T16:00:56Z</time>
      </trkpt>
      <trkpt lat="59.260869094525" lon="18.184906637111">
        <ele>0</ele>
        <time>2017-07-07T16:00:57Z</time>
      </trkpt>
      <trkpt lat="59.260961882158" lon="18.185121800484">
        <ele>0</ele>
        <time>2017-07-07T16:00:59Z</time>
      </trkpt>
      <trkpt lat="59.261013849938" lon="18.185226825691">
        <ele>0</ele>
        <time>2017-07-07T16:01:00Z</time>
      </trkpt>
      <trkpt lat="59.261038073629" lon="18.18534341792">
        <ele>0</ele>
        <time>2017-07-07T16:01:01Z</time>
      </trkpt>
      <trkpt lat="59.261063889881" lon="18.185463027633">
        <ele>0</ele>
        <time>2017-07-07T16:01:02Z</time>
      </trkpt>
      <trkpt lat="59.261110325607" lon="18.18571557428">
        <ele>0</ele>
        <time>2017-07-07T16:01:04Z</time>
      </trkpt>
      <trkpt lat="59.261168412174" lon="18.186139195506">
        <ele>0</ele>
        <time>2017-07-07T16:01:07Z</time>
      </trkpt>
      <trkpt lat="59.261230186777" lon="18.186700112254">
        <ele>0</ele>
        <time>2017-07-07T16:01:11Z</time>
      </trkpt>
      <trkpt lat="59.261164221224" lon="18.186955424928">
        <ele>0</ele>
        <time>2017-07-07T16:01:13Z</time>
      </trkpt>
      <trkpt lat="59.261028602082" lon="18.18709272045">
        <ele>0</ele>
        <time>2017-07-07T16:01:15Z</time>
      </trkpt>
      <trkpt lat="59.26089298294" lon="18.18719414144">
        <ele>0</ele>
        <time>2017-07-07T16:01:17Z</time>
      </trkpt>
      <trkpt lat="59.260764572232" lon="18.187263459753">
        <ele>0</ele>
        <time>2017-07-07T16:01:19Z</time>
      </trkpt>
      <trkpt lat="59.26069097915" lon="18.187286677616">
        <ele>0</ele>
        <time>2017-07-07T16:01:20Z</time>
      </trkpt>
      <trkpt lat="59.260373221321" lon="18.18744224568">
        <ele>0</ele>
        <time>2017-07-07T16:01:25Z</time>
      </trkpt>
      <trkpt lat="59.260243469509" lon="18.187499158781">
        <ele>0</ele>
        <time>2017-07-07T16:01:27Z</time>
      </trkpt>
      <trkpt lat="59.260177923051" lon="18.187552467665">
        <ele>0</ele>
        <time>2017-07-07T16:01:28Z</time>
      </trkpt>
      <trkpt lat="59.260124865624" lon="18.187604435445">
        <ele>0</ele>
        <time>2017-07-07T16:01:29Z</time>
      </trkpt>
      <trkpt lat="59.260069377446" lon="18.187661516184">
        <ele>0</ele>
        <time>2017-07-07T16:01:30Z</time>
      </trkpt>
      <trkpt lat="59.260009279223" lon="18.187718429285">
        <ele>0</ele>
        <time>2017-07-07T16:01:31Z</time>
      </trkpt>
      <trkpt lat="59.25970778228" lon="18.18802562592">
        <ele>0</ele>
        <time>2017-07-07T16:01:36Z</time>
      </trkpt>
      <trkpt lat="59.259397149066" lon="18.18839359133">
        <ele>0</ele>
        <time>2017-07-07T16:01:41Z</time>
      </trkpt>
      <trkpt lat="59.259084671834" lon="18.188877897512">
        <ele>0</ele>
        <time>2017-07-07T16:01:46Z</time>
      </trkpt>
      <trkpt lat="59.258728441084" lon="18.189476365172">
        <ele>0</ele>
        <time>2017-07-07T16:01:52Z</time>
      </trkpt>
      <trkpt lat="59.258353937792" lon="18.190140211652">
        <ele>0</ele>
        <time>2017-07-07T16:01:59Z</time>
      </trkpt>
      <trkpt lat="59.258181019195" lon="18.190522258654">
        <ele>0</ele>
        <time>2017-07-07T16:02:03Z</time>
      </trkpt>
      <trkpt lat="59.258143049188" lon="18.19062736768">
        <ele>0</ele>
        <time>2017-07-07T16:02:04Z</time>
      </trkpt>
      <trkpt lat="59.257885054306" lon="18.1912794795">
        <ele>0</ele>
        <time>2017-07-07T16:02:10Z</time>
      </trkpt>
      <trkpt lat="59.257725043835" lon="18.191710476798">
        <ele>0.4</ele>
        <time>2017-07-07T16:02:14Z</time>
      </trkpt>
      <trkpt lat="59.257686151819" lon="18.191803851164">
        <ele>1.2</ele>
        <time>2017-07-07T16:02:15Z</time>
      </trkpt>
      <trkpt lat="59.257645667242" lon="18.191905355973">
        <ele>1.6</ele>
        <time>2017-07-07T16:02:16Z</time>
      </trkpt>
      <trkpt lat="59.25760643995" lon="18.192009962085">
        <ele>2</ele>
        <time>2017-07-07T16:02:17Z</time>
      </trkpt>
      <trkpt lat="59.25753184104" lon="18.192220599232">
        <ele>2.6</ele>
        <time>2017-07-07T16:02:19Z</time>
      </trkpt>
      <trkpt lat="59.257492194653" lon="18.192330485941">
        <ele>3</ele>
        <time>2017-07-07T16:02:20Z</time>
      </trkpt>
      <trkpt lat="59.257452296809" lon="18.192433164216">
        <ele>3.4</ele>
        <time>2017-07-07T16:02:21Z</time>
      </trkpt>
      <trkpt lat="59.257415416449" lon="18.192529304609">
        <ele>3.8</ele>
        <time>2017-07-07T16:02:22Z</time>
      </trkpt>
      <trkpt lat="59.257368813085" lon="18.19262309807">
        <ele>4.2</ele>
        <time>2017-07-07T16:02:23Z</time>
      </trkpt>
      <trkpt lat="59.257332184182" lon="18.192731978951">
        <ele>4.2</ele>
        <time>2017-07-07T16:02:24Z</time>
      </trkpt>
      <trkpt lat="59.257109644737" lon="18.193371685559">
        <ele>4.2</ele>
        <time>2017-07-07T16:02:30Z</time>
      </trkpt>
      <trkpt lat="59.256932619009" lon="18.193963447699">
        <ele>4.2</ele>
        <time>2017-07-07T16:02:35Z</time>
      </trkpt>
      <trkpt lat="59.256894481364" lon="18.194105688542">
        <ele>4.2</ele>
        <time>2017-07-07T16:02:36Z</time>
      </trkpt>
      <trkpt lat="59.256698596361" lon="18.195083856272">
        <ele>4.2</ele>
        <time>2017-07-07T16:02:43Z</time>
      </trkpt>
      <trkpt lat="59.256530874542" lon="18.196100496923">
        <ele>4.2</ele>
        <time>2017-07-07T16:02:50Z</time>
      </trkpt>
      <trkpt lat="59.256514865113" lon="18.196259920661">
        <ele>4.2</ele>
        <time>2017-07-07T16:02:51Z</time>
      </trkpt>
      <trkpt lat="59.256472117423" lon="18.196468546152">
        <ele>4.2</ele>
        <time>2017-07-07T16:02:53Z</time>
      </trkpt>
      <trkpt lat="59.256444876248" lon="18.196579019594">
        <ele>4.2</ele>
        <time>2017-07-07T16:02:54Z</time>
      </trkpt>
      <trkpt lat="59.256425346421" lon="18.196709190501">
        <ele>4.2</ele>
        <time>2017-07-07T16:02:55Z</time>
      </trkpt>
      <trkpt lat="59.256357369212" lon="18.197102133973">
        <ele>4.2</ele>
        <time>2017-07-07T16:02:58Z</time>
      </trkpt>
      <trkpt lat="59.256256199679" lon="18.197512679435">
        <ele>4.6</ele>
        <time>2017-07-07T16:03:02Z</time>
      </trkpt>
      <trkpt lat="59.256236250757" lon="18.197593816227">
        <ele>5.2</ele>
        <time>2017-07-07T16:03:03Z</time>
      </trkpt>
      <trkpt lat="59.256220157509" lon="18.197670007698">
        <ele>6</ele>
        <time>2017-07-07T16:03:04Z</time>
      </trkpt>
      <trkpt lat="59.256200040949" lon="18.197765812815">
        <ele>6.6</ele>
        <time>2017-07-07T16:03:05Z</time>
      </trkpt>
      <trkpt lat="59.256186126995" lon="18.197879555198">
        <ele>6.6</ele>
        <time>2017-07-07T16:03:06Z</time>
      </trkpt>
      <trkpt lat="59.256181181674" lon="18.198019784385">
        <ele>6.6</ele>
        <time>2017-07-07T16:03:07Z</time>
      </trkpt>
      <trkpt lat="59.256066349644" lon="18.198406273794">
        <ele>6.6</ele>
        <time>2017-07-07T16:03:10Z</time>
      </trkpt>
      <trkpt lat="59.256036258623" lon="18.198536109425">
        <ele>6.6</ele>
        <time>2017-07-07T16:03:11Z</time>
      </trkpt>
      <trkpt lat="59.255918912023" lon="18.199097864363">
        <ele>6.6</ele>
        <time>2017-07-07T16:03:15Z</time>
      </trkpt>
      <trkpt lat="59.255779856302" lon="18.199763135766">
        <ele>6.6</ele>
        <time>2017-07-07T16:03:20Z</time>
      </trkpt>
      <trkpt lat="59.255746747797" lon="18.199889786275">
        <ele>7</ele>
        <time>2017-07-07T16:03:21Z</time>
      </trkpt>
      <trkpt lat="59.255716824414" lon="18.200020543915">
        <ele>7.4</ele>
        <time>2017-07-07T16:03:22Z</time>
      </trkpt>
      <trkpt lat="59.255677178027" lon="18.200127496959">
        <ele>7.8</ele>
        <time>2017-07-07T16:03:23Z</time>
      </trkpt>
      <trkpt lat="59.255619762012" lon="18.200219865497">
        <ele>8.2</ele>
        <time>2017-07-07T16:03:24Z</time>
      </trkpt>
      <trkpt lat="59.255564190015" lon="18.200304606506">
        <ele>8.8</ele>
        <time>2017-07-07T16:03:25Z</time>
      </trkpt>
      <trkpt lat="59.255360761302" lon="18.200603253603">
        <ele>8.8</ele>
        <time>2017-07-07T16:03:29Z</time>
      </trkpt>
      <trkpt lat="59.25494686308" lon="18.201218401244">
        <ele>9.2</ele>
        <time>2017-07-07T16:03:37Z</time>
      </trkpt>
      <trkpt lat="59.254893721834" lon="18.201288557747">
        <ele>9.6</ele>
        <time>2017-07-07T16:03:38Z</time>
      </trkpt>
      <trkpt lat="59.254834294163" lon="18.201330048152">
        <ele>10</ele>
        <time>2017-07-07T16:03:39Z</time>
      </trkpt>
      <trkpt lat="59.254768747705" lon="18.201314541637">
        <ele>10.4</ele>
        <time>2017-07-07T16:03:40Z</time>
      </trkpt>
      <trkpt lat="59.254710409681" lon="18.201263495866">
        <ele>10.8</ele>
        <time>2017-07-07T16:03:41Z</time>
      </trkpt>
      <trkpt lat="59.254610329795" lon="18.201130056018">
        <ele>10.8</ele>
        <time>2017-07-07T16:03:43Z</time>
      </trkpt>
      <trkpt lat="59.254561463318" lon="18.20108211155">
        <ele>11.2</ele>
        <time>2017-07-07T16:03:44Z</time>
      </trkpt>
      <trkpt lat="59.254514524678" lon="18.201021175137">
        <ele>11.6</ele>
        <time>2017-07-07T16:03:45Z</time>
      </trkpt>
      <trkpt lat="59.254468927142" lon="18.20097063228">
        <ele>12</ele>
        <time>2017-07-07T16:03:46Z</time>
      </trkpt>
      <trkpt lat="59.254425760357" lon="18.200920759975">
        <ele>12.4</ele>
        <time>2017-07-07T16:03:47Z</time>
      </trkpt>
      <trkpt lat="59.254381252468" lon="18.200877174095">
        <ele>12.8</ele>
        <time>2017-07-07T16:03:48Z</time>
      </trkpt>
      <trkpt lat="59.254257367986" lon="18.200715990158">
        <ele>12.8</ele>
        <time>2017-07-07T16:03:51Z</time>
      </trkpt>
      <trkpt lat="59.254216296676" lon="18.200662765093">
        <ele>13.2</ele>
        <time>2017-07-07T16:03:52Z</time>
      </trkpt>
      <trkpt lat="59.254172962253" lon="18.200610797313">
        <ele>14.2</ele>
        <time>2017-07-07T16:03:53Z</time>
      </trkpt>
      <trkpt lat="59.2541321424" lon="18.200559751542">
        <ele>14.6</ele>
        <time>2017-07-07T16:03:54Z</time>
      </trkpt>
      <trkpt lat="59.254090065262" lon="18.200508538133">
        <ele>15.2</ele>
        <time>2017-07-07T16:03:55Z</time>
      </trkpt>
      <trkpt lat="59.253943046736" lon="18.200308126904">
        <ele>15.2</ele>
        <time>2017-07-07T16:03:59Z</time>
      </trkpt>
      <trkpt lat="59.253896108096" lon="18.200265211576">
        <ele>15.6</ele>
        <time>2017-07-07T16:04:00Z</time>
      </trkpt>
      <trkpt lat="59.253857467537" lon="18.200209220484">
        <ele>16</ele>
        <time>2017-07-07T16:04:01Z</time>
      </trkpt>
      <trkpt lat="59.253814719847" lon="18.200158342351">
        <ele>16.4</ele>
        <time>2017-07-07T16:04:02Z</time>
      </trkpt>
      <trkpt lat="59.253773145623" lon="18.200105787838">
        <ele>16.8</ele>
        <time>2017-07-07T16:04:03Z</time>
      </trkpt>
      <trkpt lat="59.253735343254" lon="18.200053484782">
        <ele>17.2</ele>
        <time>2017-07-07T16:04:04Z</time>
      </trkpt>
      <trkpt lat="59.253691086822" lon="18.19999917007">
        <ele>17.2</ele>
        <time>2017-07-07T16:04:05Z</time>
      </trkpt>
      <trkpt lat="59.253432169931" lon="18.199693649815">
        <ele>17.2</ele>
        <time>2017-07-07T16:04:11Z</time>
      </trkpt>
      <trkpt lat="59.253391266259" lon="18.199653416695">
        <ele>17.8</ele>
        <time>2017-07-07T16:04:12Z</time>
      </trkpt>
      <trkpt lat="59.253347428922" lon="18.19960605896">
        <ele>18.2</ele>
        <time>2017-07-07T16:04:13Z</time>
      </trkpt>
      <trkpt lat="59.253303759223" lon="18.199560629062">
        <ele>18.6</ele>
        <time>2017-07-07T16:04:14Z</time>
      </trkpt>
      <trkpt lat="59.253247349036" lon="18.199525508901">
        <ele>19</ele>
        <time>2017-07-07T16:04:15Z</time>
      </trkpt>
      <trkpt lat="59.253197644369" lon="18.199483767039">
        <ele>19.4</ele>
        <time>2017-07-07T16:04:16Z</time>
      </trkpt>
      <trkpt lat="59.253147520607" lon="18.199464237212">
        <ele>19.4</ele>
        <time>2017-07-07T16:04:17Z</time>
      </trkpt>
      <trkpt lat="59.252999496253" lon="18.199410090138">
        <ele>19.8</ele>
        <time>2017-07-07T16:04:20Z</time>
      </trkpt>
      <trkpt lat="59.252951635604" lon="18.199395337994">
        <ele>20.2</ele>
        <time>2017-07-07T16:04:21Z</time>
      </trkpt>
      <trkpt lat="59.252902014756" lon="18.199388716293">
        <ele>20.8</ele>
        <time>2017-07-07T16:04:22Z</time>
      </trkpt>
      <trkpt lat="59.252855998125" lon="18.199397768745">
        <ele>21.2</ele>
        <time>2017-07-07T16:04:23Z</time>
      </trkpt>
      <trkpt lat="59.252812998978" lon="18.199412856165">
        <ele>21.6</ele>
        <time>2017-07-07T16:04:24Z</time>
      </trkpt>
      <trkpt lat="59.252594566664" lon="18.199496004613">
        <ele>22</ele>
        <time>2017-07-07T16:04:29Z</time>
      </trkpt>
      <trkpt lat="59.252546035463" lon="18.199500866115">
        <ele>22.4</ele>
        <time>2017-07-07T16:04:30Z</time>
      </trkpt>
      <trkpt lat="59.252502449583" lon="18.19953062186">
        <ele>22.8</ele>
        <time>2017-07-07T16:04:31Z</time>
      </trkpt>
      <trkpt lat="59.252463641386" lon="18.199579153061">
        <ele>23.4</ele>
        <time>2017-07-07T16:04:32Z</time>
      </trkpt>
      <trkpt lat="59.252419804049" lon="18.199603209114">
        <ele>23.8</ele>
        <time>2017-07-07T16:04:33Z</time>
      </trkpt>
      <trkpt lat="59.252201539373" lon="18.199743857396">
        <ele>23.8</ele>
        <time>2017-07-07T16:04:38Z</time>
      </trkpt>
      <trkpt lat="59.252155103647" lon="18.199773110227">
        <ele>23.8</ele>
        <time>2017-07-07T16:04:39Z</time>
      </trkpt>
      <trkpt lat="59.25181706162" lon="18.20000252283">
        <ele>23.8</ele>
        <time>2017-07-07T16:04:46Z</time>
      </trkpt>
      <trkpt lat="59.251492179176" lon="18.200191869951">
        <ele>23.8</ele>
        <time>2017-07-07T16:04:52Z</time>
      </trkpt>
      <trkpt lat="59.251170649492" lon="18.200394544293">
        <ele>23.8</ele>
        <time>2017-07-07T16:04:57Z</time>
      </trkpt>
      <trkpt lat="59.250665472379" lon="18.200767874119">
        <ele>23.8</ele>
        <time>2017-07-07T16:05:04Z</time>
      </trkpt>
      <trkpt lat="59.250595651152" lon="18.200819506623">
        <ele>23.4</ele>
        <time>2017-07-07T16:05:05Z</time>
      </trkpt>
      <trkpt lat="59.250531864893" lon="18.200879772484">
        <ele>23</ele>
        <time>2017-07-07T16:05:06Z</time>
      </trkpt>
      <trkpt lat="59.250458690906" lon="18.200925789115">
        <ele>22.2</ele>
        <time>2017-07-07T16:05:07Z</time>
      </trkpt>
      <trkpt lat="59.250381745064" lon="18.200974571773">
        <ele>21.8</ele>
        <time>2017-07-07T16:05:08Z</time>
      </trkpt>
      <trkpt lat="59.25030329048" lon="18.201009943391">
        <ele>21.8</ele>
        <time>2017-07-07T16:05:09Z</time>
      </trkpt>
      <trkpt lat="59.249951669775" lon="18.201163248342">
        <ele>21.8</ele>
        <time>2017-07-07T16:05:14Z</time>
      </trkpt>
      <trkpt lat="59.249885536584" lon="18.201167690749">
        <ele>21.8</ele>
        <time>2017-07-07T16:05:15Z</time>
      </trkpt>
      <trkpt lat="59.249744804483" lon="18.201174396269">
        <ele>21.8</ele>
        <time>2017-07-07T16:05:17Z</time>
      </trkpt>
      <trkpt lat="59.249531652766" lon="18.201182610531">
        <ele>21.8</ele>
        <time>2017-07-07T16:05:20Z</time>
      </trkpt>
      <trkpt lat="59.24925220022" lon="18.201102898662">
        <ele>21.8</ele>
        <time>2017-07-07T16:05:24Z</time>
      </trkpt>
      <trkpt lat="59.249192185816" lon="18.201056882031">
        <ele>21.8</ele>
        <time>2017-07-07T16:05:25Z</time>
      </trkpt>
      <trkpt lat="59.249051788991" lon="18.201002315862">
        <ele>21.8</ele>
        <time>2017-07-07T16:05:27Z</time>
      </trkpt>
      <trkpt lat="59.248926731043" lon="18.200915395559">
        <ele>22.2</ele>
        <time>2017-07-07T16:05:29Z</time>
      </trkpt>
      <trkpt lat="59.248866046087" lon="18.200851106386">
        <ele>22.6</ele>
        <time>2017-07-07T16:05:30Z</time>
      </trkpt>
      <trkpt lat="59.248799912896" lon="18.200785811385">
        <ele>23</ele>
        <time>2017-07-07T16:05:31Z</time>
      </trkpt>
      <trkpt lat="59.248744089442" lon="18.200713643226">
        <ele>24</ele>
        <time>2017-07-07T16:05:32Z</time>
      </trkpt>
      <trkpt lat="59.248649625429" lon="18.200487751021">
        <ele>24</ele>
        <time>2017-07-07T16:05:34Z</time>
      </trkpt>
      <trkpt lat="59.248329520668" lon="18.199658613473">
        <ele>24</ele>
        <time>2017-07-07T16:05:41Z</time>
      </trkpt>
      <trkpt lat="59.248289622824" lon="18.199526347091">
        <ele>24</ele>
        <time>2017-07-07T16:05:42Z</time>
      </trkpt>
      <trkpt lat="59.24810387992" lon="18.199011363155">
        <ele>24</ele>
        <time>2017-07-07T16:05:46Z</time>
      </trkpt>
      <trkpt lat="59.247784278073" lon="18.198129754913">
        <ele>24</ele>
        <time>2017-07-07T16:05:53Z</time>
      </trkpt>
      <trkpt lat="59.247739937822" lon="18.198007379173">
        <ele>24</ele>
        <time>2017-07-07T16:05:54Z</time>
      </trkpt>
      <trkpt lat="59.247459814724" lon="18.197175056503">
        <ele>24</ele>
        <time>2017-07-07T16:06:01Z</time>
      </trkpt>
      <trkpt lat="59.247356968811" lon="18.19680063703">
        <ele>24</ele>
        <time>2017-07-07T16:06:04Z</time>
      </trkpt>
      <trkpt lat="59.247326374876" lon="18.196513640774">
        <ele>24</ele>
        <time>2017-07-07T16:06:06Z</time>
      </trkpt>
      <trkpt lat="59.247320423727" lon="18.19621055127">
        <ele>24</ele>
        <time>2017-07-07T16:06:08Z</time>
      </trkpt>
      <trkpt lat="59.24729586476" lon="18.195630104695">
        <ele>24</ele>
        <time>2017-07-07T16:06:12Z</time>
      </trkpt>
      <trkpt lat="59.24726988087" lon="18.194665515643">
        <ele>24</ele>
        <time>2017-07-07T16:06:18Z</time>
      </trkpt>
      <trkpt lat="59.247260409323" lon="18.194302327916">
        <ele>23.6</ele>
        <time>2017-07-07T16:06:20Z</time>
      </trkpt>
      <trkpt lat="59.247252195061" lon="18.194115411546">
        <ele>22.6</ele>
        <time>2017-07-07T16:06:21Z</time>
      </trkpt>
      <trkpt lat="59.247251021595" lon="18.193923717493">
        <ele>22.2</ele>
        <time>2017-07-07T16:06:22Z</time>
      </trkpt>
      <trkpt lat="59.247294775113" lon="18.193725904653">
        <ele>21.8</ele>
        <time>2017-07-07T16:06:23Z</time>
      </trkpt>
      <trkpt lat="59.247422179993" lon="18.193424240072">
        <ele>21.8</ele>
        <time>2017-07-07T16:06:25Z</time>
      </trkpt>
      <trkpt lat="59.24750708864" lon="18.193328770231">
        <ele>21.2</ele>
        <time>2017-07-07T16:06:26Z</time>
      </trkpt>
      <trkpt lat="59.247503819699" lon="18.19315283415">
        <ele>20.8</ele>
        <time>2017-07-07T16:06:27Z</time>
      </trkpt>
      <trkpt lat="59.247491582125" lon="18.192989638557">
        <ele>20.4</ele>
        <time>2017-07-07T16:06:28Z</time>
      </trkpt>
      <trkpt lat="59.247405080917" lon="18.192877824011">
        <ele>20</ele>
        <time>2017-07-07T16:06:29Z</time>
      </trkpt>
      <trkpt lat="59.247308018515" lon="18.192879416572">
        <ele>19.6</ele>
        <time>2017-07-07T16:06:30Z</time>
      </trkpt>
      <trkpt lat="59.247138787954" lon="18.192921326072">
        <ele>19.6</ele>
        <time>2017-07-07T16:06:32Z</time>
      </trkpt>
      <trkpt lat="59.246986656469" lon="18.192879751848">
        <ele>19.6</ele>
        <time>2017-07-07T16:06:34Z</time>
      </trkpt>
      <trkpt lat="59.246916248509" lon="18.192869358292">
        <ele>19.6</ele>
        <time>2017-07-07T16:06:35Z</time>
      </trkpt>
      <trkpt lat="59.24684408035" lon="18.192882517875">
        <ele>19.6</ele>
        <time>2017-07-07T16:06:36Z</time>
      </trkpt>
      <trkpt lat="59.246587761848" lon="18.193044959097">
        <ele>19.6</ele>
        <time>2017-07-07T16:06:40Z</time>
      </trkpt>
      <trkpt lat="59.246527495987" lon="18.193061722897">
        <ele>19.6</ele>
        <time>2017-07-07T16:06:41Z</time>
      </trkpt>
      <trkpt lat="59.246416771088" lon="18.193129867744">
        <ele>20</ele>
        <time>2017-07-07T16:06:43Z</time>
      </trkpt>
      <trkpt lat="59.246359019797" lon="18.193198515505">
        <ele>20.4</ele>
        <time>2017-07-07T16:06:44Z</time>
      </trkpt>
      <trkpt lat="59.246304453628" lon="18.193256937348">
        <ele>20.8</ele>
        <time>2017-07-07T16:06:45Z</time>
      </trkpt>
      <trkpt lat="59.24624728907" lon="18.193310497689">
        <ele>21.2</ele>
        <time>2017-07-07T16:06:46Z</time>
      </trkpt>
      <trkpt lat="59.246192052349" lon="18.193373613396">
        <ele>22</ele>
        <time>2017-07-07T16:06:47Z</time>
      </trkpt>
      <trkpt lat="59.2461358098" lon="18.193428431022">
        <ele>22.4</ele>
        <time>2017-07-07T16:06:48Z</time>
      </trkpt>
      <trkpt lat="59.246079818708" lon="18.193476459309">
        <ele>22.8</ele>
        <time>2017-07-07T16:06:49Z</time>
      </trkpt>
      <trkpt lat="59.246023408521" lon="18.193518536447">
        <ele>23.2</ele>
        <time>2017-07-07T16:06:50Z</time>
      </trkpt>
      <trkpt lat="59.245975883148" lon="18.193592129529">
        <ele>23.6</ele>
        <time>2017-07-07T16:06:51Z</time>
      </trkpt>
      <trkpt lat="59.245868343371" lon="18.193723892997">
        <ele>23.6</ele>
        <time>2017-07-07T16:06:53Z</time>
      </trkpt>
      <trkpt lat="59.245757534653" lon="18.193834701715">
        <ele>23.6</ele>
        <time>2017-07-07T16:06:55Z</time>
      </trkpt>
      <trkpt lat="59.245648737591" lon="18.193965459355">
        <ele>24</ele>
        <time>2017-07-07T16:06:57Z</time>
      </trkpt>
      <trkpt lat="59.245587968816" lon="18.194001669163">
        <ele>24.4</ele>
        <time>2017-07-07T16:06:58Z</time>
      </trkpt>
      <trkpt lat="59.245526529489" lon="18.194073669684">
        <ele>25</ele>
        <time>2017-07-07T16:06:59Z</time>
      </trkpt>
      <trkpt lat="59.245475651356" lon="18.194150196431">
        <ele>25.4</ele>
        <time>2017-07-07T16:07:00Z</time>
      </trkpt>
      <trkpt lat="59.245411865097" lon="18.194218760373">
        <ele>25.8</ele>
        <time>2017-07-07T16:07:01Z</time>
      </trkpt>
      <trkpt lat="59.245357801842" lon="18.194271566343">
        <ele>25.8</ele>
        <time>2017-07-07T16:07:02Z</time>
      </trkpt>
      <trkpt lat="59.245305414967" lon="18.194324791408">
        <ele>25.8</ele>
        <time>2017-07-07T16:07:03Z</time>
      </trkpt>
      <trkpt lat="59.24498329855" lon="18.194649338576">
        <ele>26.2</ele>
        <time>2017-07-07T16:07:09Z</time>
      </trkpt>
      <trkpt lat="59.244929822028" lon="18.19470935298">
        <ele>26.6</ele>
        <time>2017-07-07T16:07:10Z</time>
      </trkpt>
      <trkpt lat="59.24487265747" lon="18.194763248597">
        <ele>27</ele>
        <time>2017-07-07T16:07:11Z</time>
      </trkpt>
      <trkpt lat="59.244811050505" lon="18.194809265228">
        <ele>28</ele>
        <time>2017-07-07T16:07:12Z</time>
      </trkpt>
      <trkpt lat="59.24468825567" lon="18.194890653477">
        <ele>28</ele>
        <time>2017-07-07T16:07:14Z</time>
      </trkpt>
      <trkpt lat="59.244300676614" lon="18.195166753263">
        <ele>28</ele>
        <time>2017-07-07T16:07:20Z</time>
      </trkpt>
      <trkpt lat="59.244156088839" lon="18.195227857314">
        <ele>27.6</ele>
        <time>2017-07-07T16:07:22Z</time>
      </trkpt>
      <trkpt lat="59.244078975359" lon="18.195249482616">
        <ele>27.2</ele>
        <time>2017-07-07T16:07:23Z</time>
      </trkpt>
      <trkpt lat="59.243998676757" lon="18.195281417655">
        <ele>26.6</ele>
        <time>2017-07-07T16:07:24Z</time>
      </trkpt>
      <trkpt lat="59.243920976544" lon="18.195314358522">
        <ele>26.2</ele>
        <time>2017-07-07T16:07:25Z</time>
      </trkpt>
      <trkpt lat="59.243842689598" lon="18.195343108439">
        <ele>25.8</ele>
        <time>2017-07-07T16:07:26Z</time>
      </trkpt>
      <trkpt lat="59.243764654109" lon="18.195372193632">
        <ele>25.8</ele>
        <time>2017-07-07T16:07:27Z</time>
      </trkpt>
      <trkpt lat="59.243229637432" lon="18.19543522552">
        <ele>25.8</ele>
        <time>2017-07-07T16:07:34Z</time>
      </trkpt>
      <trkpt lat="59.242924787729" lon="18.19543774009">
        <ele>25.4</ele>
        <time>2017-07-07T16:07:38Z</time>
      </trkpt>
      <trkpt lat="59.24285094319" lon="18.195413264942">
        <ele>25</ele>
        <time>2017-07-07T16:07:39Z</time>
      </trkpt>
      <trkpt lat="59.242784139447" lon="18.195361045705">
        <ele>24.6</ele>
        <time>2017-07-07T16:07:40Z</time>
      </trkpt>
      <trkpt lat="59.242723119215" lon="18.195289045184">
        <ele>24.2</ele>
        <time>2017-07-07T16:07:41Z</time>
      </trkpt>
      <trkpt lat="59.242662518078" lon="18.19520975241">
        <ele>23.6</ele>
        <time>2017-07-07T16:07:42Z</time>
      </trkpt>
      <trkpt lat="59.242594540869" lon="18.19515359368">
        <ele>23.6</ele>
        <time>2017-07-07T16:07:43Z</time>
      </trkpt>
      <trkpt lat="59.242448528171" lon="18.195189552031">
        <ele>23.6</ele>
        <time>2017-07-07T16:07:45Z</time>
      </trkpt>
      <trkpt lat="59.242380634781" lon="18.195248392969">
        <ele>23.6</ele>
        <time>2017-07-07T16:07:46Z</time>
      </trkpt>
      <trkpt lat="59.242308550441" lon="18.195277394343">
        <ele>23.6</ele>
        <time>2017-07-07T16:07:47Z</time>
      </trkpt>
      <trkpt lat="59.242157257146" lon="18.195284435139">
        <ele>23.6</ele>
        <time>2017-07-07T16:07:49Z</time>
      </trkpt>
      <trkpt lat="59.241708406401" lon="18.195234646653">
        <ele>23.6</ele>
        <time>2017-07-07T16:07:55Z</time>
      </trkpt>
      <trkpt lat="59.241563650988" lon="18.195198101569">
        <ele>23.6</ele>
        <time>2017-07-07T16:07:57Z</time>
      </trkpt>
      <trkpt lat="59.241263243692" lon="18.195170525118">
        <ele>24.6</ele>
        <time>2017-07-07T16:08:01Z</time>
      </trkpt>
      <trkpt lat="59.241188560963" lon="18.19515694644">
        <ele>25</ele>
        <time>2017-07-07T16:08:02Z</time>
      </trkpt>
      <trkpt lat="59.24111253713" lon="18.195137165156">
        <ele>25.4</ele>
        <time>2017-07-07T16:08:03Z</time>
      </trkpt>
      <trkpt lat="59.241037770582" lon="18.195124508487">
        <ele>25.8</ele>
        <time>2017-07-07T16:08:04Z</time>
      </trkpt>
      <trkpt lat="59.240880107043" lon="18.195098524597">
        <ele>25.8</ele>
        <time>2017-07-07T16:08:06Z</time>
      </trkpt>
      <trkpt lat="59.24071942602" lon="18.195075306734">
        <ele>25.2</ele>
        <time>2017-07-07T16:08:08Z</time>
      </trkpt>
      <trkpt lat="59.24063812159" lon="18.195061476599">
        <ele>24.8</ele>
        <time>2017-07-07T16:08:09Z</time>
      </trkpt>
      <trkpt lat="59.240556649522" lon="18.195052088871">
        <ele>24.2</ele>
        <time>2017-07-07T16:08:10Z</time>
      </trkpt>
      <trkpt lat="59.24047467454" lon="18.195044126066">
        <ele>23.8</ele>
        <time>2017-07-07T16:08:11Z</time>
      </trkpt>
      <trkpt lat="59.240394795033" lon="18.195031301759">
        <ele>23.2</ele>
        <time>2017-07-07T16:08:12Z</time>
      </trkpt>
      <trkpt lat="59.240230090698" lon="18.19500439586">
        <ele>23.2</ele>
        <time>2017-07-07T16:08:14Z</time>
      </trkpt>
      <trkpt lat="59.239728266345" lon="18.194943124171">
        <ele>22.8</ele>
        <time>2017-07-07T16:08:20Z</time>
      </trkpt>
      <trkpt lat="59.239641010766" lon="18.194926360371">
        <ele>22.4</ele>
        <time>2017-07-07T16:08:21Z</time>
      </trkpt>
      <trkpt lat="59.239553336092" lon="18.194908674562">
        <ele>22</ele>
        <time>2017-07-07T16:08:22Z</time>
      </trkpt>
      <trkpt lat="59.239466248151" lon="18.194888055088">
        <ele>21.6</ele>
        <time>2017-07-07T16:08:23Z</time>
      </trkpt>
      <trkpt lat="59.239377567649" lon="18.194873889677">
        <ele>21.2</ele>
        <time>2017-07-07T16:08:24Z</time>
      </trkpt>
      <trkpt lat="59.239114627446" lon="18.1948334051">
        <ele>21.2</ele>
        <time>2017-07-07T16:08:27Z</time>
      </trkpt>
      <trkpt lat="59.238939864831" lon="18.194814797282">
        <ele>20.6</ele>
        <time>2017-07-07T16:08:29Z</time>
      </trkpt>
      <trkpt lat="59.238850429958" lon="18.194804990459">
        <ele>20.2</ele>
        <time>2017-07-07T16:08:30Z</time>
      </trkpt>
      <trkpt lat="59.238761581818" lon="18.194790238315">
        <ele>19.6</ele>
        <time>2017-07-07T16:08:31Z</time>
      </trkpt>
      <trkpt lat="59.238668123633" lon="18.19477556999">
        <ele>19.2</ele>
        <time>2017-07-07T16:08:32Z</time>
      </trkpt>
      <trkpt lat="59.238578940217" lon="18.194766266081">
        <ele>18.6</ele>
        <time>2017-07-07T16:08:33Z</time>
      </trkpt>
      <trkpt lat="59.238220613992" lon="18.194713124835">
        <ele>18.2</ele>
        <time>2017-07-07T16:08:37Z</time>
      </trkpt>
      <trkpt lat="59.238134364241" lon="18.19470097108">
        <ele>17.8</ele>
        <time>2017-07-07T16:08:38Z</time>
      </trkpt>
      <trkpt lat="59.238047527757" lon="18.194691080438">
        <ele>17.2</ele>
        <time>2017-07-07T16:08:39Z</time>
      </trkpt>
      <trkpt lat="59.237957338513" lon="18.194677166484">
        <ele>16.8</ele>
        <time>2017-07-07T16:08:40Z</time>
      </trkpt>
      <trkpt lat="59.237868993287" lon="18.194655792639">
        <ele>16.2</ele>
        <time>2017-07-07T16:08:41Z</time>
      </trkpt>
      <trkpt lat="59.237781150975" lon="18.19463643045">
        <ele>15.8</ele>
        <time>2017-07-07T16:08:42Z</time>
      </trkpt>
      <trkpt lat="59.237691297007" lon="18.194625617799">
        <ele>15.2</ele>
        <time>2017-07-07T16:08:43Z</time>
      </trkpt>
      <trkpt lat="59.237601610677" lon="18.194614134596">
        <ele>14.6</ele>
        <time>2017-07-07T16:08:44Z</time>
      </trkpt>
      <trkpt lat="59.237511086157" lon="18.194601897022">
        <ele>14.2</ele>
        <time>2017-07-07T16:08:45Z</time>
      </trkpt>
      <trkpt lat="59.237064749982" lon="18.194518580936">
        <ele>13.6</ele>
        <time>2017-07-07T16:08:50Z</time>
      </trkpt>
      <trkpt lat="59.236979254602" lon="18.194509444665">
        <ele>12.4</ele>
        <time>2017-07-07T16:08:51Z</time>
      </trkpt>
      <trkpt lat="59.236895519421" lon="18.194491926494">
        <ele>11.8</ele>
        <time>2017-07-07T16:08:52Z</time>
      </trkpt>
      <trkpt lat="59.236814047353" lon="18.194470720287">
        <ele>11.2</ele>
        <time>2017-07-07T16:08:53Z</time>
      </trkpt>
      <trkpt lat="59.236388665928" lon="18.194374579894">
        <ele>11.2</ele>
        <time>2017-07-07T16:08:58Z</time>
      </trkpt>
      <trkpt lat="59.236032351359" lon="18.194339208276">
        <ele>10.8</ele>
        <time>2017-07-07T16:09:02Z</time>
      </trkpt>
      <trkpt lat="59.235945682513" lon="18.194325713417">
        <ele>10.4</ele>
        <time>2017-07-07T16:09:03Z</time>
      </trkpt>
      <trkpt lat="59.2358596004" lon="18.194314481671">
        <ele>10</ele>
        <time>2017-07-07T16:09:04Z</time>
      </trkpt>
      <trkpt lat="59.235774188839" lon="18.194303920477">
        <ele>9.6</ele>
        <time>2017-07-07T16:09:05Z</time>
      </trkpt>
      <trkpt lat="59.235686011251" lon="18.19429361074">
        <ele>9.2</ele>
        <time>2017-07-07T16:09:06Z</time>
      </trkpt>
      <trkpt lat="59.23551175155" lon="18.194270811972">
        <ele>9.2</ele>
        <time>2017-07-07T16:09:08Z</time>
      </trkpt>
      <trkpt lat="59.235164154157" lon="18.194204175867">
        <ele>9.2</ele>
        <time>2017-07-07T16:09:12Z</time>
      </trkpt>
      <trkpt lat="59.235078072044" lon="18.194195207234">
        <ele>9.2</ele>
        <time>2017-07-07T16:09:13Z</time>
      </trkpt>
      <trkpt lat="59.234548587421" lon="18.194084566154">
        <ele>9.2</ele>
        <time>2017-07-07T16:09:19Z</time>
      </trkpt>
      <trkpt lat="59.234461415661" lon="18.194083308869">
        <ele>9.2</ele>
        <time>2017-07-07T16:09:20Z</time>
      </trkpt>
      <trkpt lat="59.234376087919" lon="18.194085823439">
        <ele>8.6</ele>
        <time>2017-07-07T16:09:21Z</time>
      </trkpt>
      <trkpt lat="59.234294280575" lon="18.19406562306">
        <ele>8.2</ele>
        <time>2017-07-07T16:09:22Z</time>
      </trkpt>
      <trkpt lat="59.234218508199" lon="18.194018768239">
        <ele>7.8</ele>
        <time>2017-07-07T16:09:23Z</time>
      </trkpt>
      <trkpt lat="59.234146423859" lon="18.193953473238">
        <ele>7.4</ele>
        <time>2017-07-07T16:09:24Z</time>
      </trkpt>
      <trkpt lat="59.234078279012" lon="18.193873845188">
        <ele>7</ele>
        <time>2017-07-07T16:09:25Z</time>
      </trkpt>
      <trkpt lat="59.233959758946" lon="18.193674272149">
        <ele>7</ele>
        <time>2017-07-07T16:09:27Z</time>
      </trkpt>
      <trkpt lat="59.233907372071" lon="18.193560026852">
        <ele>7</ele>
        <time>2017-07-07T16:09:28Z</time>
      </trkpt>
      <trkpt lat="59.233716600027" lon="18.193125592975">
        <ele>7</ele>
        <time>2017-07-07T16:09:32Z</time>
      </trkpt>
      <trkpt lat="59.233625572593" lon="18.193130370658">
        <ele>7</ele>
        <time>2017-07-07T16:09:34Z</time>
      </trkpt>
      <trkpt lat="59.233602690006" lon="18.193172280158">
        <ele>7.4</ele>
        <time>2017-07-07T16:09:35Z</time>
      </trkpt>
      <trkpt lat="59.233583411636" lon="18.193212597097">
        <ele>7.8</ele>
        <time>2017-07-07T16:09:36Z</time>
      </trkpt>
      <trkpt lat="59.233564552361" lon="18.193261547393">
        <ele>8.2</ele>
        <time>2017-07-07T16:09:37Z</time>
      </trkpt>
      <trkpt lat="59.233536472996" lon="18.193312676983">
        <ele>8.8</ele>
        <time>2017-07-07T16:09:38Z</time>
      </trkpt>
      <trkpt lat="59.23349422822" lon="18.193361794917">
        <ele>9.2</ele>
        <time>2017-07-07T16:09:39Z</time>
      </trkpt>
      <trkpt lat="59.233322734546" lon="18.193525493424">
        <ele>9.2</ele>
        <time>2017-07-07T16:09:42Z</time>
      </trkpt>
      <trkpt lat="59.233063817655" lon="18.193799246278">
        <ele>8.8</ele>
        <time>2017-07-07T16:09:46Z</time>
      </trkpt>
      <trkpt lat="59.232988715831" lon="18.19388708859">
        <ele>8.2</ele>
        <time>2017-07-07T16:09:47Z</time>
      </trkpt>
      <trkpt lat="59.232915290387" lon="18.193975852911">
        <ele>7.8</ele>
        <time>2017-07-07T16:09:48Z</time>
      </trkpt>
      <trkpt lat="59.232840272382" lon="18.194067634716">
        <ele>7.4</ele>
        <time>2017-07-07T16:09:49Z</time>
      </trkpt>
      <trkpt lat="59.232765170558" lon="18.194157572503">
        <ele>6.8</ele>
        <time>2017-07-07T16:09:50Z</time>
      </trkpt>
      <trkpt lat="59.232688811449" lon="18.194248599937">
        <ele>6.4</ele>
        <time>2017-07-07T16:09:51Z</time>
      </trkpt>
      <trkpt lat="59.232610859779" lon="18.194333424765">
        <ele>5.8</ele>
        <time>2017-07-07T16:09:52Z</time>
      </trkpt>
      <trkpt lat="59.232528130426" lon="18.194406095838">
        <ele>5.4</ele>
        <time>2017-07-07T16:09:53Z</time>
      </trkpt>
      <trkpt lat="59.232442132132" lon="18.194467199889">
        <ele>4.8</ele>
        <time>2017-07-07T16:09:54Z</time>
      </trkpt>
      <trkpt lat="59.232348590128" lon="18.194519754402">
        <ele>4.2</ele>
        <time>2017-07-07T16:09:55Z</time>
      </trkpt>
      <trkpt lat="59.232259658169" lon="18.194575661675">
        <ele>3.6</ele>
        <time>2017-07-07T16:09:56Z</time>
      </trkpt>
      <trkpt lat="59.232174414246" lon="18.194650009128">
        <ele>3</ele>
        <time>2017-07-07T16:09:57Z</time>
      </trkpt>
      <trkpt lat="59.232088667409" lon="18.194733744309">
        <ele>2.4</ele>
        <time>2017-07-07T16:09:58Z</time>
      </trkpt>
      <trkpt lat="59.23200141183" lon="18.194829717064">
        <ele>2</ele>
        <time>2017-07-07T16:09:59Z</time>
      </trkpt>
      <trkpt lat="59.231915664993" lon="18.194932227701">
        <ele>1.6</ele>
        <time>2017-07-07T16:10:00Z</time>
      </trkpt>
      <trkpt lat="59.231824805197" lon="18.195035911804">
        <ele>0.8</ele>
        <time>2017-07-07T16:10:01Z</time>
      </trkpt>
      <trkpt lat="59.231725228225" lon="18.195142864848">
        <ele>0.2</ele>
        <time>2017-07-07T16:10:02Z</time>
      </trkpt>
      <trkpt lat="59.23162590271" lon="18.195241100716">
        <ele>0</ele>
        <time>2017-07-07T16:10:03Z</time>
      </trkpt>
      <trkpt lat="59.231527499204" lon="18.19534218643">
        <ele>0</ele>
        <time>2017-07-07T16:10:04Z</time>
      </trkpt>
      <trkpt lat="59.231426916404" lon="18.19545198932">
        <ele>0</ele>
        <time>2017-07-07T16:10:05Z</time>
      </trkpt>
      <trkpt lat="59.231335553694" lon="18.195557265984">
        <ele>0</ele>
        <time>2017-07-07T16:10:06Z</time>
      </trkpt>
      <trkpt lat="59.231238994206" lon="18.195674696403">
        <ele>0</ele>
        <time>2017-07-07T16:10:07Z</time>
      </trkpt>
      <trkpt lat="59.231142602356" lon="18.195798916161">
        <ele>0</ele>
        <time>2017-07-07T16:10:08Z</time>
      </trkpt>
      <trkpt lat="59.231046545782" lon="18.195927494507">
        <ele>0</ele>
        <time>2017-07-07T16:10:09Z</time>
      </trkpt>
      <trkpt lat="59.230949148104" lon="18.196066801685">
        <ele>0</ele>
        <time>2017-07-07T16:10:10Z</time>
      </trkpt>
      <trkpt lat="59.230857533937" lon="18.196205270673">
        <ele>0</ele>
        <time>2017-07-07T16:10:11Z</time>
      </trkpt>
      <trkpt lat="59.230768015245" lon="18.196342314738">
        <ele>0</ele>
        <time>2017-07-07T16:10:12Z</time>
      </trkpt>
      <trkpt lat="59.230680508209" lon="18.19648296302">
        <ele>0</ele>
        <time>2017-07-07T16:10:13Z</time>
      </trkpt>
      <trkpt lat="59.230600293426" lon="18.196624198035">
        <ele>0</ele>
        <time>2017-07-07T16:10:14Z</time>
      </trkpt>
      <trkpt lat="59.230520413919" lon="18.196770713647">
        <ele>0</ele>
        <time>2017-07-07T16:10:15Z</time>
      </trkpt>
      <trkpt lat="59.230446234104" lon="18.196915971974">
        <ele>0</ele>
        <time>2017-07-07T16:10:16Z</time>
      </trkpt>
      <trkpt lat="59.230370210271" lon="18.197067265269">
        <ele>0</ele>
        <time>2017-07-07T16:10:17Z</time>
      </trkpt>
      <trkpt lat="59.230301394872" lon="18.19720883556">
        <ele>0</ele>
        <time>2017-07-07T16:10:18Z</time>
      </trkpt>
      <trkpt lat="59.230145994446" lon="18.197506979743">
        <ele>0</ele>
        <time>2017-07-07T16:10:20Z</time>
      </trkpt>
      <trkpt lat="59.229776185018" lon="18.198254729042">
        <ele>0</ele>
        <time>2017-07-07T16:10:26Z</time>
      </trkpt>
      <trkpt lat="59.229388438324" lon="18.198973057872">
        <ele>0</ele>
        <time>2017-07-07T16:10:32Z</time>
      </trkpt>
      <trkpt lat="59.229142597197" lon="18.199454095113">
        <ele>0</ele>
        <time>2017-07-07T16:10:36Z</time>
      </trkpt>
      <trkpt lat="59.22907696692" lon="18.199535315724">
        <ele>0</ele>
        <time>2017-07-07T16:10:37Z</time>
      </trkpt>
      <trkpt lat="59.228842441358" lon="18.199780234842">
        <ele>0</ele>
        <time>2017-07-07T16:10:40Z</time>
      </trkpt>
      <trkpt lat="59.228764405869" lon="18.199840835979">
        <ele>0</ele>
        <time>2017-07-07T16:10:41Z</time>
      </trkpt>
      <trkpt lat="59.228316477133" lon="18.200202766421">
        <ele>0</ele>
        <time>2017-07-07T16:10:47Z</time>
      </trkpt>
      <trkpt lat="59.228107600185" lon="18.200331847681">
        <ele>0</ele>
        <time>2017-07-07T16:10:50Z</time>
      </trkpt>
      <trkpt lat="59.228017830036" lon="18.200417091604">
        <ele>0</ele>
        <time>2017-07-07T16:10:52Z</time>
      </trkpt>
      <trkpt lat="59.227993941621" lon="18.200454810154">
        <ele>0</ele>
        <time>2017-07-07T16:10:54Z</time>
      </trkpt>
      <trkpt lat="59.227976674907" lon="18.200473920886">
        <ele>0</ele>
        <time>2017-07-07T16:11:03Z</time>
      </trkpt>
      <trkpt lat="59.227843402697" lon="18.200526307761">
        <ele>0</ele>
        <time>2017-07-07T16:11:07Z</time>
      </trkpt>
      <trkpt lat="59.227726056097" lon="18.200492444885">
        <ele>0</ele>
        <time>2017-07-07T16:11:10Z</time>
      </trkpt>
      <trkpt lat="59.227563866332" lon="18.20056494832">
        <ele>0</ele>
        <time>2017-07-07T16:11:13Z</time>
      </trkpt>
      <trkpt lat="59.227507288507" lon="18.200590680753">
        <ele>0</ele>
        <time>2017-07-07T16:11:14Z</time>
      </trkpt>
      <trkpt lat="59.227449453397" lon="18.20061440153">
        <ele>0</ele>
        <time>2017-07-07T16:11:15Z</time>
      </trkpt>
      <trkpt lat="59.227394384314" lon="18.20064289999">
        <ele>0</ele>
        <time>2017-07-07T16:11:16Z</time>
      </trkpt>
      <trkpt lat="59.227336130109" lon="18.200672655735">
        <ele>0</ele>
        <time>2017-07-07T16:11:17Z</time>
      </trkpt>
      <trkpt lat="59.227277289171" lon="18.200689335716">
        <ele>0</ele>
        <time>2017-07-07T16:11:18Z</time>
      </trkpt>
      <trkpt lat="59.2272178615" lon="18.200708865543">
        <ele>0</ele>
        <time>2017-07-07T16:11:19Z</time>
      </trkpt>
      <trkpt lat="59.227050139681" lon="18.200782710082">
        <ele>0</ele>
        <time>2017-07-07T16:11:22Z</time>
      </trkpt>
      <trkpt lat="59.226940588248" lon="18.200822440288">
        <ele>0</ele>
        <time>2017-07-07T16:11:24Z</time>
      </trkpt>
      <trkpt lat="59.226837993792" lon="18.200875497715">
        <ele>0</ele>
        <time>2017-07-07T16:11:26Z</time>
      </trkpt>
      <trkpt lat="59.226789965505" lon="18.200891088049">
        <ele>0</ele>
        <time>2017-07-07T16:11:27Z</time>
      </trkpt>
      <trkpt lat="59.226744703245" lon="18.200904499089">
        <ele>0</ele>
        <time>2017-07-07T16:11:28Z</time>
      </trkpt>
      <trkpt lat="59.226697932243" lon="18.200914641188">
        <ele>0</ele>
        <time>2017-07-07T16:11:29Z</time>
      </trkpt>
      <trkpt lat="59.226647557024" lon="18.200923190726">
        <ele>0</ele>
        <time>2017-07-07T16:11:30Z</time>
      </trkpt>
      <trkpt lat="59.226441865198" lon="18.200994269238">
        <ele>0</ele>
        <time>2017-07-07T16:11:34Z</time>
      </trkpt>
      <trkpt lat="59.22639392073" lon="18.20101589454">
        <ele>0</ele>
        <time>2017-07-07T16:11:35Z</time>
      </trkpt>
      <trkpt lat="59.226345054253" lon="18.201032742159">
        <ele>0</ele>
        <time>2017-07-07T16:11:36Z</time>
      </trkpt>
      <trkpt lat="59.226295517224" lon="18.201055624746">
        <ele>0</ele>
        <time>2017-07-07T16:11:37Z</time>
      </trkpt>
      <trkpt lat="59.226245728738" lon="18.20108378793">
        <ele>0</ele>
        <time>2017-07-07T16:11:38Z</time>
      </trkpt>
      <trkpt lat="59.226195353519" lon="18.201115890607">
        <ele>0</ele>
        <time>2017-07-07T16:11:39Z</time>
      </trkpt>
      <trkpt lat="59.225933502963" lon="18.201242457297">
        <ele>0</ele>
        <time>2017-07-07T16:11:44Z</time>
      </trkpt>
      <trkpt lat="59.225686656008" lon="18.201432223513">
        <ele>0</ele>
        <time>2017-07-07T16:11:49Z</time>
      </trkpt>
      <trkpt lat="59.225469732436" lon="18.201582594799">
        <ele>0</ele>
        <time>2017-07-07T16:11:53Z</time>
      </trkpt>
      <trkpt lat="59.225414998629" lon="18.201628443792">
        <ele>0</ele>
        <time>2017-07-07T16:11:54Z</time>
      </trkpt>
      <trkpt lat="59.225361522107" lon="18.201667838722">
        <ele>0</ele>
        <time>2017-07-07T16:11:55Z</time>
      </trkpt>
      <trkpt lat="59.225306620662" lon="18.201705473453">
        <ele>0</ele>
        <time>2017-07-07T16:11:56Z</time>
      </trkpt>
      <trkpt lat="59.225253395597" lon="18.201748053505">
        <ele>0</ele>
        <time>2017-07-07T16:11:57Z</time>
      </trkpt>
      <trkpt lat="59.224878976124" lon="18.202101266771">
        <ele>0</ele>
        <time>2017-07-07T16:12:04Z</time>
      </trkpt>
      <trkpt lat="59.224788283966" lon="18.202240909225">
        <ele>0</ele>
        <time>2017-07-07T16:12:06Z</time>
      </trkpt>
      <trkpt lat="59.224677726705" lon="18.202319028533">
        <ele>0</ele>
        <time>2017-07-07T16:12:08Z</time>
      </trkpt>
      <trkpt lat="59.224369105147" lon="18.202446433413">
        <ele>0</ele>
        <time>2017-07-07T16:12:13Z</time>
      </trkpt>
      <trkpt lat="59.224304061603" lon="18.202452049286">
        <ele>0</ele>
        <time>2017-07-07T16:12:14Z</time>
      </trkpt>
      <trkpt lat="59.224113038102" lon="18.202433525287">
        <ele>0</ele>
        <time>2017-07-07T16:12:17Z</time>
      </trkpt>
      <trkpt lat="59.224049922395" lon="18.202441320454">
        <ele>0</ele>
        <time>2017-07-07T16:12:18Z</time>
      </trkpt>
      <trkpt lat="59.223536614839" lon="18.202456491693">
        <ele>0</ele>
        <time>2017-07-07T16:12:26Z</time>
      </trkpt>
      <trkpt lat="59.223348525003" lon="18.202474680416">
        <ele>0</ele>
        <time>2017-07-07T16:12:29Z</time>
      </trkpt>
      <trkpt lat="59.223290857531" lon="18.202528659852">
        <ele>0</ele>
        <time>2017-07-07T16:12:30Z</time>
      </trkpt>
      <trkpt lat="59.2231274943" lon="18.202666206831">
        <ele>0</ele>
        <time>2017-07-07T16:12:33Z</time>
      </trkpt>
      <trkpt lat="59.223069156276" lon="18.202665368641">
        <ele>0</ele>
        <time>2017-07-07T16:12:34Z</time>
      </trkpt>
      <trkpt lat="59.222894896575" lon="18.202607114436">
        <ele>0</ele>
        <time>2017-07-07T16:12:37Z</time>
      </trkpt>
      <trkpt lat="59.222845275727" lon="18.202541819435">
        <ele>0</ele>
        <time>2017-07-07T16:12:38Z</time>
      </trkpt>
      <trkpt lat="59.222639500082" lon="18.202268569495">
        <ele>0</ele>
        <time>2017-07-07T16:12:42Z</time>
      </trkpt>
      <trkpt lat="59.222436071369" lon="18.202256080464">
        <ele>0</ele>
        <time>2017-07-07T16:12:45Z</time>
      </trkpt>
      <trkpt lat="59.222367758884" lon="18.202260858147">
        <ele>0</ele>
        <time>2017-07-07T16:12:46Z</time>
      </trkpt>
      <trkpt lat="59.221871382766" lon="18.202377282738">
        <ele>0</ele>
        <time>2017-07-07T16:12:53Z</time>
      </trkpt>
      <trkpt lat="59.221363858721" lon="18.202580292356">
        <ele>0</ele>
        <time>2017-07-07T16:13:00Z</time>
      </trkpt>
      <trkpt lat="59.220830350786" lon="18.202824540922">
        <ele>0</ele>
        <time>2017-07-07T16:13:07Z</time>
      </trkpt>
      <trkpt lat="59.220751058012" lon="18.202859493445">
        <ele>0</ele>
        <time>2017-07-07T16:13:08Z</time>
      </trkpt>
      <trkpt lat="59.220193494024" lon="18.203134335946">
        <ele>0</ele>
        <time>2017-07-07T16:13:15Z</time>
      </trkpt>
      <trkpt lat="59.219857296015" lon="18.203266183233">
        <ele>0</ele>
        <time>2017-07-07T16:13:19Z</time>
      </trkpt>
      <trkpt lat="59.219774399024" lon="18.203304237059">
        <ele>0</ele>
        <time>2017-07-07T16:13:20Z</time>
      </trkpt>
      <trkpt lat="59.219690496205" lon="18.203342207066">
        <ele>0</ele>
        <time>2017-07-07T16:13:21Z</time>
      </trkpt>
      <trkpt lat="59.219606090472" lon="18.203382272548">
        <ele>0</ele>
        <time>2017-07-07T16:13:22Z</time>
      </trkpt>
      <trkpt lat="59.219243573297" lon="18.203539768449">
        <ele>0</ele>
        <time>2017-07-07T16:13:26Z</time>
      </trkpt>
      <trkpt lat="59.219151372397" lon="18.203580001569">
        <ele>0</ele>
        <time>2017-07-07T16:13:27Z</time>
      </trkpt>
      <trkpt lat="59.219059590592" lon="18.203617468662">
        <ele>0</ele>
        <time>2017-07-07T16:13:28Z</time>
      </trkpt>
      <trkpt lat="59.218968563158" lon="18.203657534144">
        <ele>0</ele>
        <time>2017-07-07T16:13:29Z</time>
      </trkpt>
      <trkpt lat="59.218878373914" lon="18.203699024549">
        <ele>0</ele>
        <time>2017-07-07T16:13:30Z</time>
      </trkpt>
      <trkpt lat="59.218787011204" lon="18.203739760583">
        <ele>0</ele>
        <time>2017-07-07T16:13:31Z</time>
      </trkpt>
      <trkpt lat="59.218689110612" lon="18.203783430282">
        <ele>0</ele>
        <time>2017-07-07T16:13:32Z</time>
      </trkpt>
      <trkpt lat="59.218594311323" lon="18.203824753049">
        <ele>0</ele>
        <time>2017-07-07T16:13:33Z</time>
      </trkpt>
      <trkpt lat="59.21849984731" lon="18.203870182947">
        <ele>0</ele>
        <time>2017-07-07T16:13:34Z</time>
      </trkpt>
      <trkpt lat="59.218406556763" lon="18.203916283397">
        <ele>0</ele>
        <time>2017-07-07T16:13:35Z</time>
      </trkpt>
      <trkpt lat="59.218314355863" lon="18.203966490978">
        <ele>0</ele>
        <time>2017-07-07T16:13:36Z</time>
      </trkpt>
      <trkpt lat="59.218224334257" lon="18.204024661364">
        <ele>0</ele>
        <time>2017-07-07T16:13:37Z</time>
      </trkpt>
      <trkpt lat="59.218135067022" lon="18.204088866718">
        <ele>0</ele>
        <time>2017-07-07T16:13:38Z</time>
      </trkpt>
      <trkpt lat="59.218049906918" lon="18.204146953285">
        <ele>0</ele>
        <time>2017-07-07T16:13:39Z</time>
      </trkpt>
      <trkpt lat="59.217960388226" lon="18.204208057336">
        <ele>0</ele>
        <time>2017-07-07T16:13:40Z</time>
      </trkpt>
      <trkpt lat="59.217875731036" lon="18.204269077568">
        <ele>0</ele>
        <time>2017-07-07T16:13:41Z</time>
      </trkpt>
      <trkpt lat="59.217789984199" lon="18.204336384225">
        <ele>0</ele>
        <time>2017-07-07T16:13:42Z</time>
      </trkpt>
      <trkpt lat="59.217703147715" lon="18.204406959823">
        <ele>0</ele>
        <time>2017-07-07T16:13:43Z</time>
      </trkpt>
      <trkpt lat="59.217614467213" lon="18.204483738027">
        <ele>0</ele>
        <time>2017-07-07T16:13:44Z</time>
      </trkpt>
      <trkpt lat="59.217527379272" lon="18.20456730557">
        <ele>0</ele>
        <time>2017-07-07T16:13:45Z</time>
      </trkpt>
      <trkpt lat="59.217439034046" lon="18.204653136226">
        <ele>0</ele>
        <time>2017-07-07T16:13:46Z</time>
      </trkpt>
      <trkpt lat="59.216926480861" lon="18.205183794315">
        <ele>0</ele>
        <time>2017-07-07T16:13:52Z</time>
      </trkpt>
      <trkpt lat="59.216762698535" lon="18.205361155319">
        <ele>0</ele>
        <time>2017-07-07T16:13:54Z</time>
      </trkpt>
      <trkpt lat="59.216276296878" lon="18.205886448992">
        <ele>0</ele>
        <time>2017-07-07T16:14:00Z</time>
      </trkpt>
      <trkpt lat="59.216196920285" lon="18.205974710399">
        <ele>0</ele>
        <time>2017-07-07T16:14:01Z</time>
      </trkpt>
      <trkpt lat="59.215649917491" lon="18.206552893861">
        <ele>0</ele>
        <time>2017-07-07T16:14:08Z</time>
      </trkpt>
      <trkpt lat="59.215209616284" lon="18.207033512007">
        <ele>0</ele>
        <time>2017-07-07T16:14:14Z</time>
      </trkpt>
      <trkpt lat="59.214745510481" lon="18.207576910584">
        <ele>0</ele>
        <time>2017-07-07T16:14:21Z</time>
      </trkpt>
      <trkpt lat="59.214441415149" lon="18.207948815487">
        <ele>0</ele>
        <time>2017-07-07T16:14:26Z</time>
      </trkpt>
      <trkpt lat="59.21439271631" lon="18.208019055809">
        <ele>0</ele>
        <time>2017-07-07T16:14:27Z</time>
      </trkpt>
      <trkpt lat="59.214352064095" lon="18.20809105633">
        <ele>0</ele>
        <time>2017-07-07T16:14:28Z</time>
      </trkpt>
      <trkpt lat="59.214313758812" lon="18.208131373269">
        <ele>0</ele>
        <time>2017-07-07T16:14:29Z</time>
      </trkpt>
      <trkpt lat="59.214290960044" lon="18.208146963603">
        <ele>0</ele>
        <time>2017-07-07T16:14:30Z</time>
      </trkpt>
      <trkpt lat="59.214280231212" lon="18.208151908924">
        <ele>0</ele>
        <time>2017-07-07T16:14:31Z</time>
      </trkpt>
      <trkpt lat="59.214278471013" lon="18.208158027711">
        <ele>0</ele>
        <time>2017-07-07T16:14:32Z</time>
      </trkpt>
      <trkpt lat="59.21427536971" lon="18.208165822878">
        <ele>0</ele>
        <time>2017-07-07T16:14:48Z</time>
      </trkpt>
      <trkpt lat="59.21414880302" lon="18.208257939959">
        <ele>0</ele>
        <time>2017-07-07T16:14:52Z</time>
      </trkpt>
      <trkpt lat="59.214055596292" lon="18.208307225531">
        <ele>0</ele>
        <time>2017-07-07T16:14:54Z</time>
      </trkpt>
      <trkpt lat="59.213943195013" lon="18.208350224678">
        <ele>0</ele>
        <time>2017-07-07T16:14:56Z</time>
      </trkpt>
      <trkpt lat="59.213652343083" lon="18.208532028089">
        <ele>0</ele>
        <time>2017-07-07T16:15:01Z</time>
      </trkpt>
      <trkpt lat="59.213392168907" lon="18.20860151404">
        <ele>0</ele>
        <time>2017-07-07T16:15:05Z</time>
      </trkpt>
      <trkpt lat="59.213325029888" lon="18.208609728302">
        <ele>0</ele>
        <time>2017-07-07T16:15:06Z</time>
      </trkpt>
      <trkpt lat="59.213258058507" lon="18.208617858745">
        <ele>0</ele>
        <time>2017-07-07T16:15:07Z</time>
      </trkpt>
      <trkpt lat="59.213190081298" lon="18.208630599233">
        <ele>0</ele>
        <time>2017-07-07T16:15:08Z</time>
      </trkpt>
      <trkpt lat="59.213123193736" lon="18.208645351377">
        <ele>0</ele>
        <time>2017-07-07T16:15:09Z</time>
      </trkpt>
      <trkpt lat="59.21262329722" lon="18.208736546449">
        <ele>0</ele>
        <time>2017-07-07T16:15:16Z</time>
      </trkpt>
      <trkpt lat="59.212086352706" lon="18.208728667463">
        <ele>0</ele>
        <time>2017-07-07T16:15:23Z</time>
      </trkpt>
      <trkpt lat="59.211930030271" lon="18.208725649979">
        <ele>0</ele>
        <time>2017-07-07T16:15:25Z</time>
      </trkpt>
      <trkpt lat="59.211855934275" lon="18.208733780422">
        <ele>0</ele>
        <time>2017-07-07T16:15:26Z</time>
      </trkpt>
      <trkpt lat="59.211780832451" lon="18.208729840929">
        <ele>0</ele>
        <time>2017-07-07T16:15:27Z</time>
      </trkpt>
      <trkpt lat="59.211704054247" lon="18.208719950287">
        <ele>0</ele>
        <time>2017-07-07T16:15:28Z</time>
      </trkpt>
      <trkpt lat="59.211627611319" lon="18.20871131693">
        <ele>0</ele>
        <time>2017-07-07T16:15:29Z</time>
      </trkpt>
      <trkpt lat="59.211319492675" lon="18.208672341095">
        <ele>0</ele>
        <time>2017-07-07T16:15:33Z</time>
      </trkpt>
      <trkpt lat="59.211168031742" lon="18.208657924227">
        <ele>0</ele>
        <time>2017-07-07T16:15:35Z</time>
      </trkpt>
      <trkpt lat="59.210948258324" lon="18.208659181512">
        <ele>0</ele>
        <time>2017-07-07T16:15:38Z</time>
      </trkpt>
      <trkpt lat="59.210876676898" lon="18.20869455313">
        <ele>0</ele>
        <time>2017-07-07T16:15:39Z</time>
      </trkpt>
      <trkpt lat="59.21080526311" lon="18.208699246994">
        <ele>0</ele>
        <time>2017-07-07T16:15:40Z</time>
      </trkpt>
      <trkpt lat="59.210657825489" lon="18.208688266705">
        <ele>0</ele>
        <time>2017-07-07T16:15:42Z</time>
      </trkpt>
      <trkpt lat="59.210238143756" lon="18.208597406909">
        <ele>0</ele>
        <time>2017-07-07T16:15:48Z</time>
      </trkpt>
      <trkpt lat="59.210123730821" lon="18.208554240124">
        <ele>0</ele>
        <time>2017-07-07T16:15:50Z</time>
      </trkpt>
      <trkpt lat="59.210041420563" lon="18.208422309018">
        <ele>0</ele>
        <time>2017-07-07T16:15:52Z</time>
      </trkpt>
      <trkpt lat="59.209874620753" lon="18.208326420082">
        <ele>0</ele>
        <time>2017-07-07T16:15:55Z</time>
      </trkpt>
      <trkpt lat="59.209722489268" lon="18.208262969099">
        <ele>0</ele>
        <time>2017-07-07T16:15:58Z</time>
      </trkpt>
      <trkpt lat="59.209622660839" lon="18.20823187225">
        <ele>0</ele>
        <time>2017-07-07T16:16:00Z</time>
      </trkpt>
      <trkpt lat="59.209568178489" lon="18.208216701011">
        <ele>0</ele>
        <time>2017-07-07T16:16:01Z</time>
      </trkpt>
      <trkpt lat="59.209511852121" lon="18.208186274714">
        <ele>0</ele>
        <time>2017-07-07T16:16:02Z</time>
      </trkpt>
      <trkpt lat="59.209448736414" lon="18.208144532852">
        <ele>0</ele>
        <time>2017-07-07T16:16:03Z</time>
      </trkpt>
      <trkpt lat="59.209377657902" lon="18.208110167062">
        <ele>0</ele>
        <time>2017-07-07T16:16:04Z</time>
      </trkpt>
      <trkpt lat="59.209309513055" lon="18.208076974738">
        <ele>0</ele>
        <time>2017-07-07T16:16:05Z</time>
      </trkpt>
      <trkpt lat="59.209117483726" lon="18.207980918164">
        <ele>0</ele>
        <time>2017-07-07T16:16:08Z</time>
      </trkpt>
      <trkpt lat="59.208588585836" lon="18.20762250812">
        <ele>0</ele>
        <time>2017-07-07T16:16:16Z</time>
      </trkpt>
      <trkpt lat="59.208114002658" lon="18.20725286633">
        <ele>0</ele>
        <time>2017-07-07T16:16:24Z</time>
      </trkpt>
      <trkpt lat="59.2080568381" lon="18.207202826387">
        <ele>0</ele>
        <time>2017-07-07T16:16:25Z</time>
      </trkpt>
      <trkpt lat="59.208003445397" lon="18.20715898905">
        <ele>0</ele>
        <time>2017-07-07T16:16:26Z</time>
      </trkpt>
      <trkpt lat="59.207951729074" lon="18.207119677939">
        <ele>0</ele>
        <time>2017-07-07T16:16:27Z</time>
      </trkpt>
      <trkpt lat="59.20790009657" lon="18.207074499498">
        <ele>0</ele>
        <time>2017-07-07T16:16:28Z</time>
      </trkpt>
      <trkpt lat="59.207847542057" lon="18.207028147591">
        <ele>0</ele>
        <time>2017-07-07T16:16:29Z</time>
      </trkpt>
      <trkpt lat="59.207681496618" lon="18.206883643635">
        <ele>0</ele>
        <time>2017-07-07T16:16:32Z</time>
      </trkpt>
      <trkpt lat="59.207564401475" lon="18.206778199333">
        <ele>0</ele>
        <time>2017-07-07T16:16:34Z</time>
      </trkpt>
      <trkpt lat="59.207507069279" lon="18.206718017291">
        <ele>0</ele>
        <time>2017-07-07T16:16:35Z</time>
      </trkpt>
      <trkpt lat="59.207448731255" lon="18.206659092534">
        <ele>0</ele>
        <time>2017-07-07T16:16:36Z</time>
      </trkpt>
      <trkpt lat="59.207393410715" lon="18.206596898836">
        <ele>0</ele>
        <time>2017-07-07T16:16:37Z</time>
      </trkpt>
      <trkpt lat="59.207338006356" lon="18.206539734278">
        <ele>0</ele>
        <time>2017-07-07T16:16:38Z</time>
      </trkpt>
      <trkpt lat="59.207122926802" lon="18.206308980571">
        <ele>0</ele>
        <time>2017-07-07T16:16:42Z</time>
      </trkpt>
      <trkpt lat="59.207070623746" lon="18.206248798529">
        <ele>0</ele>
        <time>2017-07-07T16:16:43Z</time>
      </trkpt>
      <trkpt lat="59.207016476672" lon="18.20618752684">
        <ele>0</ele>
        <time>2017-07-07T16:16:44Z</time>
      </trkpt>
      <trkpt lat="59.206966688186" lon="18.206131703386">
        <ele>0</ele>
        <time>2017-07-07T16:16:45Z</time>
      </trkpt>
      <trkpt lat="59.20691773789" lon="18.206075293199">
        <ele>0</ele>
        <time>2017-07-07T16:16:46Z</time>
      </trkpt>
      <trkpt lat="59.206762505102" lon="18.205895333806">
        <ele>0</ele>
        <time>2017-07-07T16:16:49Z</time>
      </trkpt>
      <trkpt lat="59.20671070496" lon="18.20582961971">
        <ele>0</ele>
        <time>2017-07-07T16:16:50Z</time>
      </trkpt>
      <trkpt lat="59.206659072456" lon="18.20576088813">
        <ele>0</ele>
        <time>2017-07-07T16:16:51Z</time>
      </trkpt>
      <trkpt lat="59.20660928397" lon="18.205692491826">
        <ele>0</ele>
        <time>2017-07-07T16:16:52Z</time>
      </trkpt>
      <trkpt lat="59.206560082217" lon="18.205626693911">
        <ele>0</ele>
        <time>2017-07-07T16:16:53Z</time>
      </trkpt>
      <trkpt lat="59.206310301597" lon="18.205283036011">
        <ele>0</ele>
        <time>2017-07-07T16:16:58Z</time>
      </trkpt>
      <trkpt lat="59.206263279138" lon="18.205213382422">
        <ele>0</ele>
        <time>2017-07-07T16:16:59Z</time>
      </trkpt>
      <trkpt lat="59.206216424317" lon="18.205142471548">
        <ele>0</ele>
        <time>2017-07-07T16:17:00Z</time>
      </trkpt>
      <trkpt lat="59.206166132917" lon="18.205069716656">
        <ele>0</ele>
        <time>2017-07-07T16:17:01Z</time>
      </trkpt>
      <trkpt lat="59.206116763526" lon="18.204997716135">
        <ele>0</ele>
        <time>2017-07-07T16:17:02Z</time>
      </trkpt>
      <trkpt lat="59.205978378357" lon="18.204796466716">
        <ele>0</ele>
        <time>2017-07-07T16:17:05Z</time>
      </trkpt>
      <trkpt lat="59.205689454264" lon="18.204307969584">
        <ele>0</ele>
        <time>2017-07-07T16:17:11Z</time>
      </trkpt>
      <trkpt lat="59.205390388072" lon="18.203734731443">
        <ele>0</ele>
        <time>2017-07-07T16:17:17Z</time>
      </trkpt>
      <trkpt lat="59.205085873645" lon="18.203042973236">
        <ele>0</ele>
        <time>2017-07-07T16:17:23Z</time>
      </trkpt>
      <trkpt lat="59.205033151494" lon="18.20291774765">
        <ele>0</ele>
        <time>2017-07-07T16:17:24Z</time>
      </trkpt>
      <trkpt lat="59.20497900442" lon="18.202789839856">
        <ele>0</ele>
        <time>2017-07-07T16:17:25Z</time>
      </trkpt>
      <trkpt lat="59.204928461563" lon="18.202658914578">
        <ele>0</ele>
        <time>2017-07-07T16:17:26Z</time>
      </trkpt>
      <trkpt lat="59.204881942018" lon="18.202521870513">
        <ele>0</ele>
        <time>2017-07-07T16:17:27Z</time>
      </trkpt>
      <trkpt lat="59.204831315342" lon="18.202378540023">
        <ele>0</ele>
        <time>2017-07-07T16:17:28Z</time>
      </trkpt>
      <trkpt lat="59.204781443037" lon="18.202244094347">
        <ele>0</ele>
        <time>2017-07-07T16:17:29Z</time>
      </trkpt>
      <trkpt lat="59.204733330931" lon="18.202114677811">
        <ele>0</ele>
        <time>2017-07-07T16:17:30Z</time>
      </trkpt>
      <trkpt lat="59.204686224653" lon="18.201983333438">
        <ele>0</ele>
        <time>2017-07-07T16:17:31Z</time>
      </trkpt>
      <trkpt lat="59.204592431192" lon="18.201701785417">
        <ele>0</ele>
        <time>2017-07-07T16:17:33Z</time>
      </trkpt>
      <trkpt lat="59.204399144578" lon="18.201208762059">
        <ele>0</ele>
        <time>2017-07-07T16:17:37Z</time>
      </trkpt>
      <trkpt lat="59.204340890373" lon="18.201114130408">
        <ele>0</ele>
        <time>2017-07-07T16:17:38Z</time>
      </trkpt>
      <trkpt lat="59.204279534865" lon="18.201030059951">
        <ele>0</ele>
        <time>2017-07-07T16:17:39Z</time>
      </trkpt>
      <trkpt lat="59.204223124678" lon="18.200976164334">
        <ele>0</ele>
        <time>2017-07-07T16:17:40Z</time>
      </trkpt>
      <trkpt lat="59.204184567938" lon="18.200929896246">
        <ele>0</ele>
        <time>2017-07-07T16:17:41Z</time>
      </trkpt>
      <trkpt lat="59.20415757822" lon="18.200870636213">
        <ele>0</ele>
        <time>2017-07-07T16:17:42Z</time>
      </trkpt>
      <trkpt lat="59.204139054221" lon="18.200803748651">
        <ele>0</ele>
        <time>2017-07-07T16:17:43Z</time>
      </trkpt>
      <trkpt lat="59.204129415036" lon="18.200709284638">
        <ele>0</ele>
        <time>2017-07-07T16:17:44Z</time>
      </trkpt>
      <trkpt lat="59.204180041712" lon="18.200376271751">
        <ele>0</ele>
        <time>2017-07-07T16:17:47Z</time>
      </trkpt>
      <trkpt lat="59.204141820248" lon="18.200160856921">
        <ele>0</ele>
        <time>2017-07-07T16:17:49Z</time>
      </trkpt>
      <trkpt lat="59.204101335671" lon="18.200047701271">
        <ele>0</ele>
        <time>2017-07-07T16:17:50Z</time>
      </trkpt>
      <trkpt lat="59.204053055927" lon="18.199940915865">
        <ele>0</ele>
        <time>2017-07-07T16:17:51Z</time>
      </trkpt>
      <trkpt lat="59.203953730412" lon="18.199705049199">
        <ele>0</ele>
        <time>2017-07-07T16:17:53Z</time>
      </trkpt>
      <trkpt lat="59.203755582296" lon="18.19896735818">
        <ele>0</ele>
        <time>2017-07-07T16:17:58Z</time>
      </trkpt>
      <trkpt lat="59.203501610726" lon="18.19807636221">
        <ele>0</ele>
        <time>2017-07-07T16:18:04Z</time>
      </trkpt>
      <trkpt lat="59.203457521932" lon="18.197931690616">
        <ele>0</ele>
        <time>2017-07-07T16:18:05Z</time>
      </trkpt>
      <trkpt lat="59.203413516957" lon="18.197787857212">
        <ele>0</ele>
        <time>2017-07-07T16:18:06Z</time>
      </trkpt>
      <trkpt lat="59.20336967962" lon="18.197643688532">
        <ele>0</ele>
        <time>2017-07-07T16:18:07Z</time>
      </trkpt>
      <trkpt lat="59.203323998265" lon="18.197500106585">
        <ele>0</ele>
        <time>2017-07-07T16:18:08Z</time>
      </trkpt>
      <trkpt lat="59.203130963108" lon="18.196901555106">
        <ele>0</ele>
        <time>2017-07-07T16:18:12Z</time>
      </trkpt>
      <trkpt lat="59.203024932073" lon="18.196595951032">
        <ele>0</ele>
        <time>2017-07-07T16:18:14Z</time>
      </trkpt>
      <trkpt lat="59.202967935153" lon="18.196439125683">
        <ele>0</ele>
        <time>2017-07-07T16:18:15Z</time>
      </trkpt>
      <trkpt lat="59.202910183862" lon="18.196283222343">
        <ele>0</ele>
        <time>2017-07-07T16:18:16Z</time>
      </trkpt>
      <trkpt lat="59.202848995992" lon="18.196122457501">
        <ele>0</ele>
        <time>2017-07-07T16:18:17Z</time>
      </trkpt>
      <trkpt lat="59.202722932216" lon="18.195795060487">
        <ele>0</ele>
        <time>2017-07-07T16:18:19Z</time>
      </trkpt>
      <trkpt lat="59.202663001631" lon="18.195630691428">
        <ele>0</ele>
        <time>2017-07-07T16:18:20Z</time>
      </trkpt>
      <trkpt lat="59.202600388838" lon="18.19547126769">
        <ele>0</ele>
        <time>2017-07-07T16:18:21Z</time>
      </trkpt>
      <trkpt lat="59.202541883176" lon="18.195317376006">
        <ele>0</ele>
        <time>2017-07-07T16:18:22Z</time>
      </trkpt>
      <trkpt lat="59.202483377514" lon="18.195164993064">
        <ele>0</ele>
        <time>2017-07-07T16:18:23Z</time>
      </trkpt>
      <trkpt lat="59.202362845792" lon="18.194872548573">
        <ele>0</ele>
        <time>2017-07-07T16:18:25Z</time>
      </trkpt>
      <trkpt lat="59.202031676923" lon="18.194103509248">
        <ele>0</ele>
        <time>2017-07-07T16:18:31Z</time>
      </trkpt>
      <trkpt lat="59.201814753351" lon="18.193668237181">
        <ele>0</ele>
        <time>2017-07-07T16:18:35Z</time>
      </trkpt>
      <trkpt lat="59.201700256597" lon="18.193447122659">
        <ele>0</ele>
        <time>2017-07-07T16:18:37Z</time>
      </trkpt>
      <trkpt lat="59.201646780075" lon="18.193338325597">
        <ele>0</ele>
        <time>2017-07-07T16:18:38Z</time>
      </trkpt>
      <trkpt lat="59.201586178938" lon="18.193231372553">
        <ele>0</ele>
        <time>2017-07-07T16:18:39Z</time>
      </trkpt>
      <trkpt lat="59.201525326344" lon="18.193116875799">
        <ele>0</ele>
        <time>2017-07-07T16:18:40Z</time>
      </trkpt>
      <trkpt lat="59.201472268917" lon="18.192993242774">
        <ele>0</ele>
        <time>2017-07-07T16:18:41Z</time>
      </trkpt>
      <trkpt lat="59.201420133499" lon="18.192890145404">
        <ele>0</ele>
        <time>2017-07-07T16:18:42Z</time>
      </trkpt>
      <trkpt lat="59.201361292561" lon="18.192782689446">
        <ele>0</ele>
        <time>2017-07-07T16:18:43Z</time>
      </trkpt>
      <trkpt lat="59.201298344492" lon="18.192671293995">
        <ele>0</ele>
        <time>2017-07-07T16:18:44Z</time>
      </trkpt>
      <trkpt lat="59.201242269581" lon="18.192553947395">
        <ele>0</ele>
        <time>2017-07-07T16:18:45Z</time>
      </trkpt>
      <trkpt lat="59.2011836801" lon="18.192444647419">
        <ele>0</ele>
        <time>2017-07-07T16:18:46Z</time>
      </trkpt>
      <trkpt lat="59.201117966004" lon="18.192334006339">
        <ele>0</ele>
        <time>2017-07-07T16:18:47Z</time>
      </trkpt>
      <trkpt lat="59.201060130894" lon="18.192222946164">
        <ele>0</ele>
        <time>2017-07-07T16:18:48Z</time>
      </trkpt>
      <trkpt lat="59.201005648544" lon="18.192105515745">
        <ele>0</ele>
        <time>2017-07-07T16:18:49Z</time>
      </trkpt>
      <trkpt lat="59.200879920044" lon="18.191878869169">
        <ele>0</ele>
        <time>2017-07-07T16:18:51Z</time>
      </trkpt>
      <trkpt lat="59.200822001115" lon="18.191756912524">
        <ele>0</ele>
        <time>2017-07-07T16:18:52Z</time>
      </trkpt>
      <trkpt lat="59.20076542329" lon="18.191642080494">
        <ele>0</ele>
        <time>2017-07-07T16:18:53Z</time>
      </trkpt>
      <trkpt lat="59.20071010275" lon="18.191532277604">
        <ele>0</ele>
        <time>2017-07-07T16:18:54Z</time>
      </trkpt>
      <trkpt lat="59.200655033667" lon="18.191429012596">
        <ele>0</ele>
        <time>2017-07-07T16:18:55Z</time>
      </trkpt>
      <trkpt lat="59.200596779462" lon="18.191323316837">
        <ele>0</ele>
        <time>2017-07-07T16:18:56Z</time>
      </trkpt>
      <trkpt lat="59.200446994909" lon="18.191034057468">
        <ele>0</ele>
        <time>2017-07-07T16:18:59Z</time>
      </trkpt>
      <trkpt lat="59.200395697681" lon="18.190940096369">
        <ele>0</ele>
        <time>2017-07-07T16:19:00Z</time>
      </trkpt>
      <trkpt lat="59.200344065177" lon="18.190844207433">
        <ele>0</ele>
        <time>2017-07-07T16:19:01Z</time>
      </trkpt>
      <trkpt lat="59.200294025234" lon="18.190749575782">
        <ele>0</ele>
        <time>2017-07-07T16:19:02Z</time>
      </trkpt>
      <trkpt lat="59.200240883988" lon="18.190655447045">
        <ele>0</ele>
        <time>2017-07-07T16:19:03Z</time>
      </trkpt>
      <trkpt lat="59.200186485457" lon="18.190577411556">
        <ele>0</ele>
        <time>2017-07-07T16:19:04Z</time>
      </trkpt>
      <trkpt lat="59.200065702278" lon="18.19045637692">
        <ele>0</ele>
        <time>2017-07-07T16:19:06Z</time>
      </trkpt>
      <trkpt lat="59.199864955773" lon="18.190314806629">
        <ele>0</ele>
        <time>2017-07-07T16:19:09Z</time>
      </trkpt>
      <trkpt lat="59.199715841772" lon="18.190286308169">
        <ele>0</ele>
        <time>2017-07-07T16:19:11Z</time>
      </trkpt>
      <trkpt lat="59.199275372927" lon="18.190289996205">
        <ele>0</ele>
        <time>2017-07-07T16:19:17Z</time>
      </trkpt>
      <trkpt lat="59.199065071056" lon="18.190296198811">
        <ele>0</ele>
        <time>2017-07-07T16:19:20Z</time>
      </trkpt>
      <trkpt lat="59.198867174397" lon="18.190295779716">
        <ele>0</ele>
        <time>2017-07-07T16:19:23Z</time>
      </trkpt>
      <trkpt lat="59.198604653289" lon="18.190288319825">
        <ele>0</ele>
        <time>2017-07-07T16:19:27Z</time>
      </trkpt>
      <trkpt lat="59.198538017184" lon="18.190291756404">
        <ele>0</ele>
        <time>2017-07-07T16:19:28Z</time>
      </trkpt>
      <trkpt lat="59.198228892712" lon="18.190267281256">
        <ele>0</ele>
        <time>2017-07-07T16:19:33Z</time>
      </trkpt>
      <trkpt lat="59.198167118109" lon="18.19025437313">
        <ele>0</ele>
        <time>2017-07-07T16:19:34Z</time>
      </trkpt>
      <trkpt lat="59.198104086221" lon="18.190243057565">
        <ele>0</ele>
        <time>2017-07-07T16:19:35Z</time>
      </trkpt>
      <trkpt lat="59.198042311618" lon="18.190226126127">
        <ele>0</ele>
        <time>2017-07-07T16:19:36Z</time>
      </trkpt>
      <trkpt lat="59.197980704653" lon="18.190208356499">
        <ele>0</ele>
        <time>2017-07-07T16:19:37Z</time>
      </trkpt>
      <trkpt lat="59.197803008373" lon="18.190139792557">
        <ele>0</ele>
        <time>2017-07-07T16:19:40Z</time>
      </trkpt>
      <trkpt lat="59.197743329245" lon="18.190110372088">
        <ele>0</ele>
        <time>2017-07-07T16:19:41Z</time>
      </trkpt>
      <trkpt lat="59.197678704796" lon="18.190074832832">
        <ele>0</ele>
        <time>2017-07-07T16:19:42Z</time>
      </trkpt>
      <trkpt lat="59.197616846374" lon="18.190034515893">
        <ele>0</ele>
        <time>2017-07-07T16:19:43Z</time>
      </trkpt>
      <trkpt lat="59.197554485038" lon="18.189998892818">
        <ele>0</ele>
        <time>2017-07-07T16:19:44Z</time>
      </trkpt>
      <trkpt lat="59.197305794065" lon="18.189835110492">
        <ele>0</ele>
        <time>2017-07-07T16:19:48Z</time>
      </trkpt>
      <trkpt lat="59.197241253435" lon="18.1897958832">
        <ele>0</ele>
        <time>2017-07-07T16:19:49Z</time>
      </trkpt>
      <trkpt lat="59.197182831592" lon="18.18975732646">
        <ele>0</ele>
        <time>2017-07-07T16:19:50Z</time>
      </trkpt>
      <trkpt lat="59.197129187432" lon="18.189722625394">
        <ele>0</ele>
        <time>2017-07-07T16:19:51Z</time>
      </trkpt>
      <trkpt lat="59.197076046186" lon="18.189682140817">
        <ele>0</ele>
        <time>2017-07-07T16:19:52Z</time>
      </trkpt>
      <trkpt lat="59.197022485845" lon="18.189640315136">
        <ele>0</ele>
        <time>2017-07-07T16:19:53Z</time>
      </trkpt>
      <trkpt lat="59.196865073763" lon="18.189525650744">
        <ele>0</ele>
        <time>2017-07-07T16:19:56Z</time>
      </trkpt>
      <trkpt lat="59.196809585585" lon="18.189501343234">
        <ele>0.2</ele>
        <time>2017-07-07T16:19:57Z</time>
      </trkpt>
      <trkpt lat="59.196754851778" lon="18.189485333805">
        <ele>0.6</ele>
        <time>2017-07-07T16:19:58Z</time>
      </trkpt>
      <trkpt lat="59.196698357772" lon="18.189480472303">
        <ele>1.2</ele>
        <time>2017-07-07T16:19:59Z</time>
      </trkpt>
      <trkpt lat="59.196590901814" lon="18.18948156195">
        <ele>1.2</ele>
        <time>2017-07-07T16:20:01Z</time>
      </trkpt>
      <trkpt lat="59.196393088974" lon="18.189512072066">
        <ele>1.6</ele>
        <time>2017-07-07T16:20:05Z</time>
      </trkpt>
      <trkpt lat="59.19634229466" lon="18.189530847522">
        <ele>2</ele>
        <time>2017-07-07T16:20:06Z</time>
      </trkpt>
      <trkpt lat="59.196290243061" lon="18.189555406489">
        <ele>2.6</ele>
        <time>2017-07-07T16:20:07Z</time>
      </trkpt>
      <trkpt lat="59.19623500634" lon="18.189581474198">
        <ele>3</ele>
        <time>2017-07-07T16:20:08Z</time>
      </trkpt>
      <trkpt lat="59.196178679972" lon="18.189606368441">
        <ele>3.4</ele>
        <time>2017-07-07T16:20:09Z</time>
      </trkpt>
      <trkpt lat="59.196123275613" lon="18.189634866901">
        <ele>3.4</ele>
        <time>2017-07-07T16:20:10Z</time>
      </trkpt>
      <trkpt lat="59.195949351188" lon="18.189682140817">
        <ele>3.4</ele>
        <time>2017-07-07T16:20:13Z</time>
      </trkpt>
      <trkpt lat="59.195820605204" lon="18.189694210753">
        <ele>3.4</ele>
        <time>2017-07-07T16:20:15Z</time>
      </trkpt>
      <trkpt lat="59.195435624537" lon="18.189686499405">
        <ele>2.6</ele>
        <time>2017-07-07T16:20:20Z</time>
      </trkpt>
      <trkpt lat="59.195356499401" lon="18.189677363134">
        <ele>2.2</ele>
        <time>2017-07-07T16:20:21Z</time>
      </trkpt>
      <trkpt lat="59.195276536075" lon="18.189670070881">
        <ele>1.8</ele>
        <time>2017-07-07T16:20:22Z</time>
      </trkpt>
      <trkpt lat="59.195194393455" lon="18.189660515515">
        <ele>1.4</ele>
        <time>2017-07-07T16:20:23Z</time>
      </trkpt>
      <trkpt lat="59.195026168722" lon="18.189649367588">
        <ele>1</ele>
        <time>2017-07-07T16:20:25Z</time>
      </trkpt>
      <trkpt lat="59.194941176256" lon="18.189648026484">
        <ele>0.6</ele>
        <time>2017-07-07T16:20:26Z</time>
      </trkpt>
      <trkpt lat="59.194854758867" lon="18.189642829706">
        <ele>0.2</ele>
        <time>2017-07-07T16:20:27Z</time>
      </trkpt>
      <trkpt lat="59.194771442781" lon="18.189631681779">
        <ele>0</ele>
        <time>2017-07-07T16:20:28Z</time>
      </trkpt>
      <trkpt lat="59.194688042876" lon="18.189622713146">
        <ele>0</ele>
        <time>2017-07-07T16:20:29Z</time>
      </trkpt>
      <trkpt lat="59.194604559152" lon="18.189612654866">
        <ele>0</ele>
        <time>2017-07-07T16:20:30Z</time>
      </trkpt>
      <trkpt lat="59.194523841455" lon="18.189606955174">
        <ele>0</ele>
        <time>2017-07-07T16:20:31Z</time>
      </trkpt>
      <trkpt lat="59.194441698835" lon="18.189595723428">
        <ele>0</ele>
        <time>2017-07-07T16:20:32Z</time>
      </trkpt>
      <trkpt lat="59.194359304758" lon="18.189586670976">
        <ele>0</ele>
        <time>2017-07-07T16:20:33Z</time>
      </trkpt>
      <trkpt lat="59.194041798386" lon="18.189440239183">
        <ele>0</ele>
        <time>2017-07-07T16:20:37Z</time>
      </trkpt>
      <trkpt lat="59.193677018098" lon="18.189159529352">
        <ele>0</ele>
        <time>2017-07-07T16:20:42Z</time>
      </trkpt>
      <trkpt lat="59.193298575313" lon="18.188834060175">
        <ele>0</ele>
        <time>2017-07-07T16:20:48Z</time>
      </trkpt>
      <trkpt lat="59.193242165126" lon="18.188768178441">
        <ele>0</ele>
        <time>2017-07-07T16:20:49Z</time>
      </trkpt>
      <trkpt lat="59.193188940061" lon="18.188692741341">
        <ele>0</ele>
        <time>2017-07-07T16:20:50Z</time>
      </trkpt>
      <trkpt lat="59.193139403032" lon="18.188607245961">
        <ele>0</ele>
        <time>2017-07-07T16:20:51Z</time>
      </trkpt>
      <trkpt lat="59.193093134944" lon="18.18851009974">
        <ele>0</ele>
        <time>2017-07-07T16:20:52Z</time>
      </trkpt>
      <trkpt lat="59.193045190476" lon="18.18841119332">
        <ele>0</ele>
        <time>2017-07-07T16:20:53Z</time>
      </trkpt>
      <trkpt lat="59.192955755603" lon="18.188193766834">
        <ele>0</ele>
        <time>2017-07-07T16:20:55Z</time>
      </trkpt>
      <trkpt lat="59.19283866046" lon="18.187826555795">
        <ele>0</ele>
        <time>2017-07-07T16:20:58Z</time>
      </trkpt>
      <trkpt lat="59.192700275291" lon="18.187214341819">
        <ele>0</ele>
        <time>2017-07-07T16:21:03Z</time>
      </trkpt>
      <trkpt lat="59.192671106279" lon="18.187097917228">
        <ele>0</ele>
        <time>2017-07-07T16:21:04Z</time>
      </trkpt>
      <trkpt lat="59.19263917124" lon="18.186974200384">
        <ele>0.6</ele>
        <time>2017-07-07T16:21:05Z</time>
      </trkpt>
      <trkpt lat="59.192610253685" lon="18.18685467449">
        <ele>1</ele>
        <time>2017-07-07T16:21:06Z</time>
      </trkpt>
      <trkpt lat="59.192580078845" lon="18.1867364897">
        <ele>1.6</ele>
        <time>2017-07-07T16:21:07Z</time>
      </trkpt>
      <trkpt lat="59.192476310923" lon="18.186381851511">
        <ele>1.6</ele>
        <time>2017-07-07T16:21:10Z</time>
      </trkpt>
      <trkpt lat="59.192201971336" lon="18.18564851908">
        <ele>1.6</ele>
        <time>2017-07-07T16:21:16Z</time>
      </trkpt>
      <trkpt lat="59.191841465817" lon="18.184833295486">
        <ele>1.6</ele>
        <time>2017-07-07T16:21:23Z</time>
      </trkpt>
      <trkpt lat="59.191733004031" lon="18.184599859571">
        <ele>1.6</ele>
        <time>2017-07-07T16:21:25Z</time>
      </trkpt>
      <trkpt lat="59.19163418143" lon="18.184348905485">
        <ele>1.6</ele>
        <time>2017-07-07T16:21:27Z</time>
      </trkpt>
      <trkpt lat="59.191410636157" lon="18.183694446733">
        <ele>1.6</ele>
        <time>2017-07-07T16:21:32Z</time>
      </trkpt>
      <trkpt lat="59.191207877996" lon="18.18311634709">
        <ele>1</ele>
        <time>2017-07-07T16:21:36Z</time>
      </trkpt>
      <trkpt lat="59.191155826397" lon="18.182968909469">
        <ele>0.6</ele>
        <time>2017-07-07T16:21:37Z</time>
      </trkpt>
      <trkpt lat="59.19110444535" lon="18.182813509043">
        <ele>0.2</ele>
        <time>2017-07-07T16:21:38Z</time>
      </trkpt>
      <trkpt lat="59.191050968828" lon="18.182656432237">
        <ele>0</ele>
        <time>2017-07-07T16:21:39Z</time>
      </trkpt>
      <trkpt lat="59.190995145374" lon="18.182489800065">
        <ele>0</ele>
        <time>2017-07-07T16:21:40Z</time>
      </trkpt>
      <trkpt lat="59.190938399911" lon="18.18231503745">
        <ele>0</ele>
        <time>2017-07-07T16:21:41Z</time>
      </trkpt>
      <trkpt lat="59.190878050231" lon="18.182138933731">
        <ele>0</ele>
        <time>2017-07-07T16:21:42Z</time>
      </trkpt>
      <trkpt lat="59.19081359342" lon="18.181953190827">
        <ele>0</ele>
        <time>2017-07-07T16:21:43Z</time>
      </trkpt>
      <trkpt lat="59.190748801333" lon="18.181771303597">
        <ele>0</ele>
        <time>2017-07-07T16:21:44Z</time>
      </trkpt>
      <trkpt lat="59.190683003418" lon="18.181589332548">
        <ele>0</ele>
        <time>2017-07-07T16:21:45Z</time>
      </trkpt>
      <trkpt lat="59.190615193847" lon="18.181406355671">
        <ele>0</ele>
        <time>2017-07-07T16:21:46Z</time>
      </trkpt>
      <trkpt lat="59.190549395932" lon="18.181226396278">
        <ele>0</ele>
        <time>2017-07-07T16:21:47Z</time>
      </trkpt>
      <trkpt lat="59.190482005456" lon="18.181053812957">
        <ele>0</ele>
        <time>2017-07-07T16:21:48Z</time>
      </trkpt>
      <trkpt lat="59.190414279704" lon="18.180891874649">
        <ele>0</ele>
        <time>2017-07-07T16:21:49Z</time>
      </trkpt>
      <trkpt lat="59.190342698278" lon="18.180736474223">
        <ele>0</ele>
        <time>2017-07-07T16:21:50Z</time>
      </trkpt>
      <trkpt lat="59.190271619766" lon="18.18060429166">
        <ele>0</ele>
        <time>2017-07-07T16:21:51Z</time>
      </trkpt>
      <trkpt lat="59.190204899842" lon="18.180485855413">
        <ele>0</ele>
        <time>2017-07-07T16:21:52Z</time>
      </trkpt>
      <trkpt lat="59.19014974694" lon="18.18039306778">
        <ele>0</ele>
        <time>2017-07-07T16:21:53Z</time>
      </trkpt>
      <trkpt lat="59.19011202839" lon="18.180324922933">
        <ele>0</ele>
        <time>2017-07-07T16:21:54Z</time>
      </trkpt>
      <trkpt lat="59.190087637061" lon="18.18028745584">
        <ele>0</ele>
        <time>2017-07-07T16:21:55Z</time>
      </trkpt>
      <trkpt lat="59.190064922112" lon="18.180262980692">
        <ele>0</ele>
        <time>2017-07-07T16:21:56Z</time>
      </trkpt>
      <trkpt lat="59.190034579634" lon="18.180243199408">
        <ele>0</ele>
        <time>2017-07-07T16:21:57Z</time>
      </trkpt>
      <trkpt lat="59.190004320975" lon="18.180238589363">
        <ele>0</ele>
        <time>2017-07-07T16:21:58Z</time>
      </trkpt>
      <trkpt lat="59.189973307945" lon="18.18025895738">
        <ele>0</ele>
        <time>2017-07-07T16:21:59Z</time>
      </trkpt>
      <trkpt lat="59.189935337938" lon="18.180290473324">
        <ele>0</ele>
        <time>2017-07-07T16:22:00Z</time>
      </trkpt>
      <trkpt lat="59.189898792854" lon="18.18034529095">
        <ele>0</ele>
        <time>2017-07-07T16:22:01Z</time>
      </trkpt>
      <trkpt lat="59.189867193091" lon="18.180423577896">
        <ele>0</ele>
        <time>2017-07-07T16:22:02Z</time>
      </trkpt>
      <trkpt lat="59.189840035735" lon="18.180503038308">
        <ele>0</ele>
        <time>2017-07-07T16:22:03Z</time>
      </trkpt>
      <trkpt lat="59.189774321639" lon="18.180653577232">
        <ele>0</ele>
        <time>2017-07-07T16:22:05Z</time>
      </trkpt>
      <trkpt lat="59.189679606169" lon="18.180883995663">
        <ele>0</ele>
        <time>2017-07-07T16:22:08Z</time>
      </trkpt>
      <trkpt lat="59.189646749121" lon="18.180959097487">
        <ele>0</ele>
        <time>2017-07-07T16:22:09Z</time>
      </trkpt>
      <trkpt lat="59.18962001086" lon="18.181034199311">
        <ele>0</ele>
        <time>2017-07-07T16:22:10Z</time>
      </trkpt>
      <trkpt lat="59.189590338934" lon="18.181105864556">
        <ele>0</ele>
        <time>2017-07-07T16:22:11Z</time>
      </trkpt>
      <trkpt lat="59.189560918465" lon="18.181179541457">
        <ele>0</ele>
        <time>2017-07-07T16:22:12Z</time>
      </trkpt>
      <trkpt lat="59.189529653978" lon="18.181250703788">
        <ele>0</ele>
        <time>2017-07-07T16:22:13Z</time>
      </trkpt>
      <trkpt lat="59.189466202995" lon="18.181370062044">
        <ele>0</ele>
        <time>2017-07-07T16:22:15Z</time>
      </trkpt>
      <trkpt lat="59.189442398399" lon="18.181423957661">
        <ele>0</ele>
        <time>2017-07-07T16:22:16Z</time>
      </trkpt>
      <trkpt lat="59.189419012898" lon="18.1814726565">
        <ele>0</ele>
        <time>2017-07-07T16:22:17Z</time>
      </trkpt>
      <trkpt lat="59.189389676248" lon="18.18152713885">
        <ele>0</ele>
        <time>2017-07-07T16:22:18Z</time>
      </trkpt>
      <trkpt lat="59.189358998494" lon="18.181583632856">
        <ele>0</ele>
        <time>2017-07-07T16:22:19Z</time>
      </trkpt>
      <trkpt lat="59.18933418807" lon="18.181635935912">
        <ele>0</ele>
        <time>2017-07-07T16:22:20Z</time>
      </trkpt>
      <trkpt lat="59.189309964379" lon="18.181675079385">
        <ele>0</ele>
        <time>2017-07-07T16:22:21Z</time>
      </trkpt>
      <trkpt lat="59.189274844218" lon="18.181732160124">
        <ele>0</ele>
        <time>2017-07-07T16:22:22Z</time>
      </trkpt>
      <trkpt lat="59.189235114012" lon="18.181795108193">
        <ele>0</ele>
        <time>2017-07-07T16:22:23Z</time>
      </trkpt>
      <trkpt lat="59.189198485109" lon="18.181866521981">
        <ele>0</ele>
        <time>2017-07-07T16:22:24Z</time>
      </trkpt>
      <trkpt lat="59.189157832894" lon="18.181948161687">
        <ele>0</ele>
        <time>2017-07-07T16:22:25Z</time>
      </trkpt>
      <trkpt lat="59.1891137441" lon="18.182016222715">
        <ele>0</ele>
        <time>2017-07-07T16:22:26Z</time>
      </trkpt>
      <trkpt lat="59.189071331686" lon="18.182086965951">
        <ele>0</ele>
        <time>2017-07-07T16:22:27Z</time>
      </trkpt>
      <trkpt lat="59.189024476865" lon="18.182157290092">
        <ele>0</ele>
        <time>2017-07-07T16:22:28Z</time>
      </trkpt>
      <trkpt lat="59.18897795732" lon="18.182225937853">
        <ele>0</ele>
        <time>2017-07-07T16:22:29Z</time>
      </trkpt>
      <trkpt lat="59.188940071132" lon="18.182295591442">
        <ele>0</ele>
        <time>2017-07-07T16:22:30Z</time>
      </trkpt>
      <trkpt lat="59.188907716998" lon="18.182364155384">
        <ele>0</ele>
        <time>2017-07-07T16:22:31Z</time>
      </trkpt>
      <trkpt lat="59.188872177742" lon="18.18242903129">
        <ele>0</ele>
        <time>2017-07-07T16:22:32Z</time>
      </trkpt>
      <trkpt lat="59.188834710649" lon="18.18249105735">
        <ele>0</ele>
        <time>2017-07-07T16:22:33Z</time>
      </trkpt>
      <trkpt lat="59.188795148081" lon="18.182546629347">
        <ele>0</ele>
        <time>2017-07-07T16:22:34Z</time>
      </trkpt>
      <trkpt lat="59.188757178074" lon="18.182606308475">
        <ele>0.2</ele>
        <time>2017-07-07T16:22:35Z</time>
      </trkpt>
      <trkpt lat="59.18868375263" lon="18.182722565428">
        <ele>0.6</ele>
        <time>2017-07-07T16:22:37Z</time>
      </trkpt>
      <trkpt lat="59.188640753483" lon="18.182776963959">
        <ele>1</ele>
        <time>2017-07-07T16:22:38Z</time>
      </trkpt>
      <trkpt lat="59.188594736852" lon="18.1828389062">
        <ele>1.4</ele>
        <time>2017-07-07T16:22:39Z</time>
      </trkpt>
      <trkpt lat="59.188552575895" lon="18.182899758794">
        <ele>1.8</ele>
        <time>2017-07-07T16:22:40Z</time>
      </trkpt>
      <trkpt lat="59.188509912024" lon="18.182954324963">
        <ele>2.2</ele>
        <time>2017-07-07T16:22:41Z</time>
      </trkpt>
      <trkpt lat="59.188376220719" lon="18.183110312122">
        <ele>2.2</ele>
        <time>2017-07-07T16:22:44Z</time>
      </trkpt>
      <trkpt lat="59.188332299563" lon="18.183163621006">
        <ele>2.2</ele>
        <time>2017-07-07T16:22:45Z</time>
      </trkpt>
      <trkpt lat="59.188035747941" lon="18.183472913116">
        <ele>2.2</ele>
        <time>2017-07-07T16:22:51Z</time>
      </trkpt>
      <trkpt lat="59.187982439057" lon="18.183532676063">
        <ele>2.2</ele>
        <time>2017-07-07T16:22:52Z</time>
      </trkpt>
      <trkpt lat="59.187877665307" lon="18.183633091225">
        <ele>2.6</ele>
        <time>2017-07-07T16:22:54Z</time>
      </trkpt>
      <trkpt lat="59.187822428586" lon="18.183686735385">
        <ele>3</ele>
        <time>2017-07-07T16:22:55Z</time>
      </trkpt>
      <trkpt lat="59.187766353675" lon="18.183751108377">
        <ele>3.4</ele>
        <time>2017-07-07T16:22:56Z</time>
      </trkpt>
      <trkpt lat="59.187706171633" lon="18.183815313731">
        <ele>3.8</ele>
        <time>2017-07-07T16:22:57Z</time>
      </trkpt>
      <trkpt lat="59.187646492505" lon="18.183874741402">
        <ele>4.2</ele>
        <time>2017-07-07T16:22:58Z</time>
      </trkpt>
      <trkpt lat="59.187459576135" lon="18.184051431854">
        <ele>4.2</ele>
        <time>2017-07-07T16:23:01Z</time>
      </trkpt>
      <trkpt lat="59.187128407266" lon="18.184251759264">
        <ele>4.2</ele>
        <time>2017-07-07T16:23:06Z</time>
      </trkpt>
      <trkpt lat="59.187062609351" lon="18.184262236639">
        <ele>4.2</ele>
        <time>2017-07-07T16:23:07Z</time>
      </trkpt>
      <trkpt lat="59.186637395564" lon="18.184253938558">
        <ele>4.2</ele>
        <time>2017-07-07T16:23:13Z</time>
      </trkpt>
      <trkpt lat="59.18629910208" lon="18.184046654171">
        <ele>4.2</ele>
        <time>2017-07-07T16:23:18Z</time>
      </trkpt>
      <trkpt lat="59.186170272277" lon="18.183925368078">
        <ele>4.8</ele>
        <time>2017-07-07T16:23:20Z</time>
      </trkpt>
      <trkpt lat="59.18610631838" lon="18.183859234887">
        <ele>5.2</ele>
        <time>2017-07-07T16:23:21Z</time>
      </trkpt>
      <trkpt lat="59.186048399451" lon="18.183785893262">
        <ele>5.6</ele>
        <time>2017-07-07T16:23:22Z</time>
      </trkpt>
      <trkpt lat="59.185992492178" lon="18.18371146199">
        <ele>6</ele>
        <time>2017-07-07T16:23:23Z</time>
      </trkpt>
      <trkpt lat="59.185935411439" lon="18.183639461469">
        <ele>6.4</ele>
        <time>2017-07-07T16:23:24Z</time>
      </trkpt>
      <trkpt lat="59.185820160314" lon="18.183490766563">
        <ele>6.4</ele>
        <time>2017-07-07T16:23:26Z</time>
      </trkpt>
      <trkpt lat="59.185704909189" lon="18.183338718897">
        <ele>6.4</ele>
        <time>2017-07-07T16:23:28Z</time>
      </trkpt>
      <trkpt lat="59.185370806655" lon="18.182891879808">
        <ele>6.4</ele>
        <time>2017-07-07T16:23:34Z</time>
      </trkpt>
      <trkpt lat="59.184900833522" lon="18.182267512077">
        <ele>6.4</ele>
        <time>2017-07-07T16:23:42Z</time>
      </trkpt>
      <trkpt lat="59.184481235608" lon="18.181753785426">
        <ele>7</ele>
        <time>2017-07-07T16:23:49Z</time>
      </trkpt>
      <trkpt lat="59.184421891756" lon="18.181681868724">
        <ele>7.4</ele>
        <time>2017-07-07T16:23:50Z</time>
      </trkpt>
      <trkpt lat="59.184362631723" lon="18.181601318665">
        <ele>7.8</ele>
        <time>2017-07-07T16:23:51Z</time>
      </trkpt>
      <trkpt lat="59.18429918074" lon="18.181540130795">
        <ele>8.2</ele>
        <time>2017-07-07T16:23:52Z</time>
      </trkpt>
      <trkpt lat="59.1842438602" lon="18.181492186327">
        <ele>8.6</ele>
        <time>2017-07-07T16:23:53Z</time>
      </trkpt>
      <trkpt lat="59.184187114737" lon="18.181442314022">
        <ele>8.6</ele>
        <time>2017-07-07T16:23:54Z</time>
      </trkpt>
      <trkpt lat="59.183867345252" lon="18.181236538377">
        <ele>8.6</ele>
        <time>2017-07-07T16:23:59Z</time>
      </trkpt>
      <trkpt lat="59.183668694222" lon="18.181124891469">
        <ele>8.6</ele>
        <time>2017-07-07T16:24:02Z</time>
      </trkpt>
      <trkpt lat="59.183393767902" lon="18.181017686968">
        <ele>8.6</ele>
        <time>2017-07-07T16:24:06Z</time>
      </trkpt>
      <trkpt lat="59.183319085173" lon="18.181004862661">
        <ele>8.6</ele>
        <time>2017-07-07T16:24:07Z</time>
      </trkpt>
      <trkpt lat="59.182792869491" lon="18.180930766665">
        <ele>8.6</ele>
        <time>2017-07-07T16:24:14Z</time>
      </trkpt>
      <trkpt lat="59.182360531089" lon="18.180881564912">
        <ele>8.2</ele>
        <time>2017-07-07T16:24:20Z</time>
      </trkpt>
      <trkpt lat="59.182287692378" lon="18.180881397274">
        <ele>7.8</ele>
        <time>2017-07-07T16:24:21Z</time>
      </trkpt>
      <trkpt lat="59.182214518391" lon="18.180865220207">
        <ele>7.4</ele>
        <time>2017-07-07T16:24:22Z</time>
      </trkpt>
      <trkpt lat="59.182142266413" lon="18.180857844135">
        <ele>7</ele>
        <time>2017-07-07T16:24:23Z</time>
      </trkpt>
      <trkpt lat="59.182068840969" lon="18.180850468063">
        <ele>6.6</ele>
        <time>2017-07-07T16:24:24Z</time>
      </trkpt>
      <trkpt lat="59.181772289347" lon="18.180810654038">
        <ele>6.6</ele>
        <time>2017-07-07T16:24:28Z</time>
      </trkpt>
      <trkpt lat="59.181551845377" lon="18.180797997369">
        <ele>7</ele>
        <time>2017-07-07T16:24:31Z</time>
      </trkpt>
      <trkpt lat="59.181476659734" lon="18.180793974057">
        <ele>7.6</ele>
        <time>2017-07-07T16:24:32Z</time>
      </trkpt>
      <trkpt lat="59.181401977005" lon="18.180785927433">
        <ele>8</ele>
        <time>2017-07-07T16:24:33Z</time>
      </trkpt>
      <trkpt lat="59.181326623724" lon="18.180774695687">
        <ele>8.4</ele>
        <time>2017-07-07T16:24:34Z</time>
      </trkpt>
      <trkpt lat="59.181251018986" lon="18.180758434801">
        <ele>9</ele>
        <time>2017-07-07T16:24:35Z</time>
      </trkpt>
      <trkpt lat="59.180780123844" lon="18.18058166053">
        <ele>9</ele>
        <time>2017-07-07T16:24:42Z</time>
      </trkpt>
      <trkpt lat="59.18071256573" lon="18.180494153494">
        <ele>9</ele>
        <time>2017-07-07T16:24:45Z</time>
      </trkpt>
      <trkpt lat="59.180626651255" lon="18.180366580976">
        <ele>9</ele>
        <time>2017-07-07T16:24:48Z</time>
      </trkpt>
      <trkpt lat="59.180594464759" lon="18.180304638735">
        <ele>9</ele>
        <time>2017-07-07T16:24:49Z</time>
      </trkpt>
      <trkpt lat="59.180548867223" lon="18.18025225186">
        <ele>9</ele>
        <time>2017-07-07T16:24:50Z</time>
      </trkpt>
      <trkpt lat="59.180436298306" lon="18.180238086449">
        <ele>9</ele>
        <time>2017-07-07T16:24:52Z</time>
      </trkpt>
      <trkpt lat="59.180355580609" lon="18.180385775527">
        <ele>9</ele>
        <time>2017-07-07T16:24:54Z</time>
      </trkpt>
      <trkpt lat="59.180196156871" lon="18.180737815327">
        <ele>9</ele>
        <time>2017-07-07T16:24:58Z</time>
      </trkpt>
      <trkpt lat="59.180104207428" lon="18.180877290143">
        <ele>9</ele>
        <time>2017-07-07T16:25:00Z</time>
      </trkpt>
      <trkpt lat="59.179934976867" lon="18.181059512649">
        <ele>9</ele>
        <time>2017-07-07T16:25:03Z</time>
      </trkpt>
      <trkpt lat="59.17987186116" lon="18.181103769081">
        <ele>9</ele>
        <time>2017-07-07T16:25:04Z</time>
      </trkpt>
      <trkpt lat="59.179660972556" lon="18.181208542831">
        <ele>9</ele>
        <time>2017-07-07T16:25:07Z</time>
      </trkpt>
      <trkpt lat="59.179135762702" lon="18.181491012861">
        <ele>9</ele>
        <time>2017-07-07T16:25:14Z</time>
      </trkpt>
      <trkpt lat="59.178618348015" lon="18.181815811486">
        <ele>9</ele>
        <time>2017-07-07T16:25:21Z</time>
      </trkpt>
      <trkpt lat="59.178094982179" lon="18.182183693077">
        <ele>9</ele>
        <time>2017-07-07T16:25:28Z</time>
      </trkpt>
      <trkpt lat="59.177635654059" lon="18.182490722074">
        <ele>9</ele>
        <time>2017-07-07T16:25:34Z</time>
      </trkpt>
      <trkpt lat="59.17738159867" lon="18.182591472512">
        <ele>8.6</ele>
        <time>2017-07-07T16:25:37Z</time>
      </trkpt>
      <trkpt lat="59.177299372231" lon="18.182616450574">
        <ele>8.2</ele>
        <time>2017-07-07T16:25:38Z</time>
      </trkpt>
      <trkpt lat="59.17721479886" lon="18.182649307622">
        <ele>7.4</ele>
        <time>2017-07-07T16:25:39Z</time>
      </trkpt>
      <trkpt lat="59.177128213833" lon="18.182677554625">
        <ele>7</ele>
        <time>2017-07-07T16:25:40Z</time>
      </trkpt>
      <trkpt lat="59.176625718928" lon="18.182850054127">
        <ele>7</ele>
        <time>2017-07-07T16:25:46Z</time>
      </trkpt>
      <trkpt lat="59.176320031035" lon="18.182990115676">
        <ele>7</ele>
        <time>2017-07-07T16:25:50Z</time>
      </trkpt>
      <trkpt lat="59.176183489884" lon="18.183131518329">
        <ele>7</ele>
        <time>2017-07-07T16:25:52Z</time>
      </trkpt>
      <trkpt lat="59.175972768918" lon="18.183540303592">
        <ele>7.4</ele>
        <time>2017-07-07T16:25:56Z</time>
      </trkpt>
      <trkpt lat="59.175924992088" lon="18.183648933016">
        <ele>7.8</ele>
        <time>2017-07-07T16:25:57Z</time>
      </trkpt>
      <trkpt lat="59.175875790335" lon="18.183750270187">
        <ele>8.2</ele>
        <time>2017-07-07T16:25:58Z</time>
      </trkpt>
      <trkpt lat="59.175823654917" lon="18.183867030054">
        <ele>8.6</ele>
        <time>2017-07-07T16:25:59Z</time>
      </trkpt>
      <trkpt lat="59.175773195879" lon="18.183975156564">
        <ele>9</ele>
        <time>2017-07-07T16:26:00Z</time>
      </trkpt>
      <trkpt lat="59.175661716609" lon="18.184187386272">
        <ele>9</ele>
        <time>2017-07-07T16:26:02Z</time>
      </trkpt>
      <trkpt lat="59.175456862973" lon="18.184588963101">
        <ele>9</ele>
        <time>2017-07-07T16:26:06Z</time>
      </trkpt>
      <trkpt lat="59.175132231986" lon="18.185270914485">
        <ele>8.6</ele>
        <time>2017-07-07T16:26:12Z</time>
      </trkpt>
      <trkpt lat="59.175078755464" lon="18.185386836162">
        <ele>8.2</ele>
        <time>2017-07-07T16:26:13Z</time>
      </trkpt>
      <trkpt lat="59.175021423268" lon="18.185495800862">
        <ele>7.8</ele>
        <time>2017-07-07T16:26:14Z</time>
      </trkpt>
      <trkpt lat="59.174961241226" lon="18.185606274304">
        <ele>7.4</ele>
        <time>2017-07-07T16:26:15Z</time>
      </trkpt>
      <trkpt lat="59.174902819383" lon="18.185713981719">
        <ele>7</ele>
        <time>2017-07-07T16:26:16Z</time>
      </trkpt>
      <trkpt lat="59.174787316801" lon="18.185901903917">
        <ele>7</ele>
        <time>2017-07-07T16:26:18Z</time>
      </trkpt>
      <trkpt lat="59.174726967121" lon="18.185979017397">
        <ele>7</ele>
        <time>2017-07-07T16:26:19Z</time>
      </trkpt>
      <trkpt lat="59.174525969159" lon="18.186182529929">
        <ele>7</ele>
        <time>2017-07-07T16:26:22Z</time>
      </trkpt>
      <trkpt lat="59.174452627534" lon="18.186198958453">
        <ele>7</ele>
        <time>2017-07-07T16:26:23Z</time>
      </trkpt>
      <trkpt lat="59.174384063592" lon="18.186136010384">
        <ele>7</ele>
        <time>2017-07-07T16:26:24Z</time>
      </trkpt>
      <trkpt lat="59.174310554329" lon="18.185864436824">
        <ele>7</ele>
        <time>2017-07-07T16:26:26Z</time>
      </trkpt>
      <trkpt lat="59.17428281024" lon="18.185713814081">
        <ele>7</ele>
        <time>2017-07-07T16:26:27Z</time>
      </trkpt>
      <trkpt lat="59.17426772282" lon="18.185547014271">
        <ele>7</ele>
        <time>2017-07-07T16:26:28Z</time>
      </trkpt>
      <trkpt lat="59.174222963474" lon="18.18520511657">
        <ele>7</ele>
        <time>2017-07-07T16:26:30Z</time>
      </trkpt>
      <trkpt lat="59.174099833363" lon="18.184282437018">
        <ele>7</ele>
        <time>2017-07-07T16:26:36Z</time>
      </trkpt>
      <trkpt lat="59.173993886147" lon="18.183536196461">
        <ele>7</ele>
        <time>2017-07-07T16:26:41Z</time>
      </trkpt>
      <trkpt lat="59.173976284157" lon="18.183395129084">
        <ele>7.4</ele>
        <time>2017-07-07T16:26:42Z</time>
      </trkpt>
      <trkpt lat="59.173961196737" lon="18.183259761399">
        <ele>8</ele>
        <time>2017-07-07T16:26:43Z</time>
      </trkpt>
      <trkpt lat="59.173946109317" lon="18.183118610203">
        <ele>8.4</ele>
        <time>2017-07-07T16:26:44Z</time>
      </trkpt>
      <trkpt lat="59.17392657949" lon="18.182983242518">
        <ele>9</ele>
        <time>2017-07-07T16:26:45Z</time>
      </trkpt>
      <trkpt lat="59.173911911165" lon="18.182845779358">
        <ele>9.4</ele>
        <time>2017-07-07T16:26:46Z</time>
      </trkpt>
      <trkpt lat="59.173898164849" lon="18.182705047257">
        <ele>9.4</ele>
        <time>2017-07-07T16:26:47Z</time>
      </trkpt>
      <trkpt lat="59.17386036248" lon="18.181869036551">
        <ele>9.4</ele>
        <time>2017-07-07T16:26:53Z</time>
      </trkpt>
      <trkpt lat="59.17386958257" lon="18.181450528284">
        <ele>9.8</ele>
        <time>2017-07-07T16:26:56Z</time>
      </trkpt>
      <trkpt lat="59.173879305574" lon="18.181312394572">
        <ele>10.2</ele>
        <time>2017-07-07T16:26:57Z</time>
      </trkpt>
      <trkpt lat="59.173887603655" lon="18.181176440154">
        <ele>10.6</ele>
        <time>2017-07-07T16:26:58Z</time>
      </trkpt>
      <trkpt lat="59.173896069374" lon="18.181046772161">
        <ele>11</ele>
        <time>2017-07-07T16:26:59Z</time>
      </trkpt>
      <trkpt lat="59.173906546749" lon="18.180919032005">
        <ele>11.6</ele>
        <time>2017-07-07T16:27:00Z</time>
      </trkpt>
      <trkpt lat="59.17390981569" lon="18.180809480572">
        <ele>11.6</ele>
        <time>2017-07-07T16:27:01Z</time>
      </trkpt>
      <trkpt lat="59.173908642224" lon="18.180602699099">
        <ele>11.6</ele>
        <time>2017-07-07T16:27:03Z</time>
      </trkpt>
      <trkpt lat="59.173910486242" lon="18.180390804667">
        <ele>11.6</ele>
        <time>2017-07-07T16:27:05Z</time>
      </trkpt>
      <trkpt lat="59.173837396074" lon="18.180198272424">
        <ele>11.6</ele>
        <time>2017-07-07T16:27:07Z</time>
      </trkpt>
      <trkpt lat="59.173694317041" lon="18.180122248591">
        <ele>11.6</ele>
        <time>2017-07-07T16:27:09Z</time>
      </trkpt>
      <trkpt lat="59.17355023218" lon="18.180089307724">
        <ele>11.6</ele>
        <time>2017-07-07T16:27:11Z</time>
      </trkpt>
      <trkpt lat="59.173252171816" lon="18.180019989411">
        <ele>11.6</ele>
        <time>2017-07-07T16:27:15Z</time>
      </trkpt>
      <trkpt lat="59.173171202662" lon="18.180001381593">
        <ele>11.2</ele>
        <time>2017-07-07T16:27:16Z</time>
      </trkpt>
      <trkpt lat="59.173096100838" lon="18.179982187042">
        <ele>10.6</ele>
        <time>2017-07-07T16:27:17Z</time>
      </trkpt>
      <trkpt lat="59.173020999014" lon="18.179967602536">
        <ele>9.8</ele>
        <time>2017-07-07T16:27:18Z</time>
      </trkpt>
      <trkpt lat="59.172944639905" lon="18.179949497632">
        <ele>9.4</ele>
        <time>2017-07-07T16:27:19Z</time>
      </trkpt>
      <trkpt lat="59.172727045781" lon="18.179893757997">
        <ele>9.4</ele>
        <time>2017-07-07T16:27:22Z</time>
      </trkpt>
      <trkpt lat="59.172444408113" lon="18.179832905403">
        <ele>9.4</ele>
        <time>2017-07-07T16:27:26Z</time>
      </trkpt>
      <trkpt lat="59.172375508895" lon="18.179842209312">
        <ele>9.4</ele>
        <time>2017-07-07T16:27:27Z</time>
      </trkpt>
      <trkpt lat="59.172235782622" lon="18.179810190454">
        <ele>10</ele>
        <time>2017-07-07T16:27:29Z</time>
      </trkpt>
      <trkpt lat="59.172165039386" lon="18.179792672283">
        <ele>10.4</ele>
        <time>2017-07-07T16:27:30Z</time>
      </trkpt>
      <trkpt lat="59.172088680277" lon="18.179768113316">
        <ele>11</ele>
        <time>2017-07-07T16:27:31Z</time>
      </trkpt>
      <trkpt lat="59.172014165186" lon="18.179740201589">
        <ele>11.4</ele>
        <time>2017-07-07T16:27:32Z</time>
      </trkpt>
      <trkpt lat="59.171938141353" lon="18.179717151364">
        <ele>12</ele>
        <time>2017-07-07T16:27:33Z</time>
      </trkpt>
      <trkpt lat="59.171777963244" lon="18.179680522461">
        <ele>11.6</ele>
        <time>2017-07-07T16:27:35Z</time>
      </trkpt>
      <trkpt lat="59.171696910271" lon="18.179659148616">
        <ele>11.2</ele>
        <time>2017-07-07T16:27:36Z</time>
      </trkpt>
      <trkpt lat="59.171614600013" lon="18.179632913269">
        <ele>10.8</ele>
        <time>2017-07-07T16:27:37Z</time>
      </trkpt>
      <trkpt lat="59.171529188452" lon="18.179599134212">
        <ele>10.4</ele>
        <time>2017-07-07T16:27:38Z</time>
      </trkpt>
      <trkpt lat="59.17144721347" lon="18.179556889436">
        <ele>10</ele>
        <time>2017-07-07T16:27:39Z</time>
      </trkpt>
      <trkpt lat="59.171112188927" lon="18.179433256411">
        <ele>10</ele>
        <time>2017-07-07T16:27:43Z</time>
      </trkpt>
      <trkpt lat="59.170851679475" lon="18.179343737719">
        <ele>9.4</ele>
        <time>2017-07-07T16:27:46Z</time>
      </trkpt>
      <trkpt lat="59.170770877959" lon="18.179302163495">
        <ele>8.8</ele>
        <time>2017-07-07T16:27:47Z</time>
      </trkpt>
      <trkpt lat="59.170686304588" lon="18.179278358899">
        <ele>8.2</ele>
        <time>2017-07-07T16:27:48Z</time>
      </trkpt>
      <trkpt lat="59.170602485588" lon="18.179244328385">
        <ele>7.8</ele>
        <time>2017-07-07T16:27:49Z</time>
      </trkpt>
      <trkpt lat="59.170516319656" lon="18.179219182685">
        <ele>7.2</ele>
        <time>2017-07-07T16:27:50Z</time>
      </trkpt>
      <trkpt lat="59.170263186276" lon="18.179128574346">
        <ele>7.2</ele>
        <time>2017-07-07T16:27:53Z</time>
      </trkpt>
      <trkpt lat="59.170015752588" lon="18.179017514171">
        <ele>6.8</ele>
        <time>2017-07-07T16:27:56Z</time>
      </trkpt>
      <trkpt lat="59.169934699615" lon="18.178978538336">
        <ele>6.2</ele>
        <time>2017-07-07T16:27:57Z</time>
      </trkpt>
      <trkpt lat="59.169853562823" lon="18.178941406519">
        <ele>5.8</ele>
        <time>2017-07-07T16:27:58Z</time>
      </trkpt>
      <trkpt lat="59.169767564529" lon="18.178906202539">
        <ele>5</ele>
        <time>2017-07-07T16:27:59Z</time>
      </trkpt>
      <trkpt lat="59.169678884027" lon="18.178859431537">
        <ele>4.4</ele>
        <time>2017-07-07T16:28:00Z</time>
      </trkpt>
      <trkpt lat="59.169594059199" lon="18.178824898109">
        <ele>3.8</ele>
        <time>2017-07-07T16:28:01Z</time>
      </trkpt>
      <trkpt lat="59.169508899095" lon="18.178790029405">
        <ele>3.2</ele>
        <time>2017-07-07T16:28:02Z</time>
      </trkpt>
      <trkpt lat="59.169425666828" lon="18.178740240919">
        <ele>2.6</ele>
        <time>2017-07-07T16:28:03Z</time>
      </trkpt>
      <trkpt lat="59.169340590543" lon="18.178692799365">
        <ele>2.6</ele>
        <time>2017-07-07T16:28:04Z</time>
      </trkpt>
      <trkpt lat="59.168814207223" lon="18.178412760086">
        <ele>2.6</ele>
        <time>2017-07-07T16:28:10Z</time>
      </trkpt>
      <trkpt lat="59.168645395757" lon="18.178299436798">
        <ele>2.6</ele>
        <time>2017-07-07T16:28:12Z</time>
      </trkpt>
      <trkpt lat="59.168211967708" lon="18.177906074231">
        <ele>2.6</ele>
        <time>2017-07-07T16:28:18Z</time>
      </trkpt>
      <trkpt lat="59.167833441104" lon="18.177501060823">
        <ele>2.6</ele>
        <time>2017-07-07T16:28:24Z</time>
      </trkpt>
      <trkpt lat="59.16772397349" lon="18.177343564922">
        <ele>3</ele>
        <time>2017-07-07T16:28:26Z</time>
      </trkpt>
      <trkpt lat="59.167670077873" lon="18.177267289632">
        <ele>3.4</ele>
        <time>2017-07-07T16:28:27Z</time>
      </trkpt>
      <trkpt lat="59.167614757333" lon="18.177194367102">
        <ele>4</ele>
        <time>2017-07-07T16:28:28Z</time>
      </trkpt>
      <trkpt lat="59.167561448449" lon="18.177119516735">
        <ele>4.4</ele>
        <time>2017-07-07T16:28:29Z</time>
      </trkpt>
      <trkpt lat="59.167511240868" lon="18.177043576721">
        <ele>4.8</ele>
        <time>2017-07-07T16:28:30Z</time>
      </trkpt>
      <trkpt lat="59.167461200925" lon="18.176967133793">
        <ele>5.4</ele>
        <time>2017-07-07T16:28:31Z</time>
      </trkpt>
      <trkpt lat="59.167411747715" lon="18.176891696693">
        <ele>6.4</ele>
        <time>2017-07-07T16:28:32Z</time>
      </trkpt>
      <trkpt lat="59.167361288677" lon="18.176819947629">
        <ele>6.8</ele>
        <time>2017-07-07T16:28:33Z</time>
      </trkpt>
      <trkpt lat="59.167319882091" lon="18.176732524412">
        <ele>7.4</ele>
        <time>2017-07-07T16:28:34Z</time>
      </trkpt>
      <trkpt lat="59.167274871288" lon="18.176655913846">
        <ele>7.8</ele>
        <time>2017-07-07T16:28:35Z</time>
      </trkpt>
      <trkpt lat="59.167228854657" lon="18.176577375443">
        <ele>8.2</ele>
        <time>2017-07-07T16:28:36Z</time>
      </trkpt>
      <trkpt lat="59.16718417913" lon="18.176494059357">
        <ele>8.8</ele>
        <time>2017-07-07T16:28:37Z</time>
      </trkpt>
      <trkpt lat="59.167141515259" lon="18.176403031923">
        <ele>9.2</ele>
        <time>2017-07-07T16:28:38Z</time>
      </trkpt>
      <trkpt lat="59.167099857216" lon="18.176303119675">
        <ele>9.6</ele>
        <time>2017-07-07T16:28:39Z</time>
      </trkpt>
      <trkpt lat="59.167058366811" lon="18.176206057273">
        <ele>10.2</ele>
        <time>2017-07-07T16:28:40Z</time>
      </trkpt>
      <trkpt lat="59.167019390976" lon="18.176108408138">
        <ele>10.6</ele>
        <time>2017-07-07T16:28:41Z</time>
      </trkpt>
      <trkpt lat="59.166982678254" lon="18.176009501718">
        <ele>11</ele>
        <time>2017-07-07T16:28:42Z</time>
      </trkpt>
      <trkpt lat="59.166948815378" lon="18.175902967769">
        <ele>11.4</ele>
        <time>2017-07-07T16:28:43Z</time>
      </trkpt>
      <trkpt lat="59.166833731891" lon="18.175460906363">
        <ele>12</ele>
        <time>2017-07-07T16:28:47Z</time>
      </trkpt>
      <trkpt lat="59.166816046082" lon="18.175342805392">
        <ele>12.4</ele>
        <time>2017-07-07T16:28:48Z</time>
      </trkpt>
      <trkpt lat="59.166793414952" lon="18.175234343606">
        <ele>12.8</ele>
        <time>2017-07-07T16:28:49Z</time>
      </trkpt>
      <trkpt lat="59.16677262784" lon="18.175113225151">
        <ele>13.4</ele>
        <time>2017-07-07T16:28:50Z</time>
      </trkpt>
      <trkpt lat="59.166757624239" lon="18.174986071728">
        <ele>13.8</ele>
        <time>2017-07-07T16:28:51Z</time>
      </trkpt>
      <trkpt lat="59.166745889579" lon="18.174862438703">
        <ele>14.2</ele>
        <time>2017-07-07T16:28:52Z</time>
      </trkpt>
      <trkpt lat="59.16673826205" lon="18.174736207289">
        <ele>14.6</ele>
        <time>2017-07-07T16:28:53Z</time>
      </trkpt>
      <trkpt lat="59.166734322557" lon="18.174610143513">
        <ele>15</ele>
        <time>2017-07-07T16:28:54Z</time>
      </trkpt>
      <trkpt lat="59.166727868494" lon="18.174485169384">
        <ele>15.6</ele>
        <time>2017-07-07T16:28:55Z</time>
      </trkpt>
      <trkpt lat="59.166723845182" lon="18.174362877463">
        <ele>16</ele>
        <time>2017-07-07T16:28:56Z</time>
      </trkpt>
      <trkpt lat="59.166726108295" lon="18.174122065476">
        <ele>16</ele>
        <time>2017-07-07T16:28:58Z</time>
      </trkpt>
      <trkpt lat="59.166728958141" lon="18.174002958677">
        <ele>16</ele>
        <time>2017-07-07T16:28:59Z</time>
      </trkpt>
      <trkpt lat="59.166743039733" lon="18.17376214669">
        <ele>16.4</ele>
        <time>2017-07-07T16:29:01Z</time>
      </trkpt>
      <trkpt lat="59.166754942031" lon="18.173648320488">
        <ele>16.8</ele>
        <time>2017-07-07T16:29:02Z</time>
      </trkpt>
      <trkpt lat="59.166770532365" lon="18.173534745743">
        <ele>17.2</ele>
        <time>2017-07-07T16:29:03Z</time>
      </trkpt>
      <trkpt lat="59.166784613957" lon="18.173421925369">
        <ele>17.6</ele>
        <time>2017-07-07T16:29:04Z</time>
      </trkpt>
      <trkpt lat="59.166803054137" lon="18.173311368108">
        <ele>18</ele>
        <time>2017-07-07T16:29:05Z</time>
      </trkpt>
      <trkpt lat="59.166818057738" lon="18.173201732856">
        <ele>18</ele>
        <time>2017-07-07T16:29:06Z</time>
      </trkpt>
      <trkpt lat="59.16696960249" lon="18.172270839042">
        <ele>18</ele>
        <time>2017-07-07T16:29:14Z</time>
      </trkpt>
      <trkpt lat="59.167115782826" lon="18.17136240872">
        <ele>18</ele>
        <time>2017-07-07T16:29:21Z</time>
      </trkpt>
      <trkpt lat="59.167220808033" lon="18.17068682758">
        <ele>17.6</ele>
        <time>2017-07-07T16:29:26Z</time>
      </trkpt>
      <trkpt lat="59.167239918765" lon="18.170547771859">
        <ele>17.2</ele>
        <time>2017-07-07T16:29:27Z</time>
      </trkpt>
      <trkpt lat="59.167256514927" lon="18.170401088609">
        <ele>16.8</ele>
        <time>2017-07-07T16:29:28Z</time>
      </trkpt>
      <trkpt lat="59.167267243759" lon="18.170250298228">
        <ele>16.4</ele>
        <time>2017-07-07T16:29:29Z</time>
      </trkpt>
      <trkpt lat="59.167277804953" lon="18.170102273874">
        <ele>16</ele>
        <time>2017-07-07T16:29:30Z</time>
      </trkpt>
      <trkpt lat="59.167305297585" lon="18.169491736278">
        <ele>16</ele>
        <time>2017-07-07T16:29:34Z</time>
      </trkpt>
      <trkpt lat="59.167260957334" lon="18.168710878474">
        <ele>16</ele>
        <time>2017-07-07T16:29:39Z</time>
      </trkpt>
      <trkpt lat="59.167169846081" lon="18.167732040192">
        <ele>16</ele>
        <time>2017-07-07T16:29:46Z</time>
      </trkpt>
      <trkpt lat="59.167163559656" lon="18.167597091602">
        <ele>16.4</ele>
        <time>2017-07-07T16:29:47Z</time>
      </trkpt>
      <trkpt lat="59.167155848308" lon="18.167455521311">
        <ele>16.8</ele>
        <time>2017-07-07T16:29:48Z</time>
      </trkpt>
      <trkpt lat="59.167145203295" lon="18.167311184993">
        <ele>17.4</ele>
        <time>2017-07-07T16:29:49Z</time>
      </trkpt>
      <trkpt lat="59.167130032056" lon="18.167171542539">
        <ele>17.8</ele>
        <time>2017-07-07T16:29:50Z</time>
      </trkpt>
      <trkpt lat="59.167111843333" lon="18.167029469334">
        <ele>18.2</ele>
        <time>2017-07-07T16:29:51Z</time>
      </trkpt>
      <trkpt lat="59.167090972402" lon="18.166892173812">
        <ele>18.2</ele>
        <time>2017-07-07T16:29:52Z</time>
      </trkpt>
      <trkpt lat="59.167040178088" lon="18.166302171871">
        <ele>18.2</ele>
        <time>2017-07-07T16:29:56Z</time>
      </trkpt>
      <trkpt lat="59.166979576951" lon="18.165397597223">
        <ele>18.2</ele>
        <time>2017-07-07T16:30:02Z</time>
      </trkpt>
      <trkpt lat="59.166936158709" lon="18.164595868488">
        <ele>17.8</ele>
        <time>2017-07-07T16:30:07Z</time>
      </trkpt>
      <trkpt lat="59.166937415994" lon="18.164421944063">
        <ele>17.4</ele>
        <time>2017-07-07T16:30:08Z</time>
      </trkpt>
      <trkpt lat="59.166938421822" lon="18.164240475928">
        <ele>17</ele>
        <time>2017-07-07T16:30:09Z</time>
      </trkpt>
      <trkpt lat="59.166942612772" lon="18.164070574815">
        <ele>16.2</ele>
        <time>2017-07-07T16:30:10Z</time>
      </trkpt>
      <trkpt lat="59.166953090147" lon="18.163736639919">
        <ele>15.6</ele>
        <time>2017-07-07T16:30:12Z</time>
      </trkpt>
      <trkpt lat="59.166953006328" lon="18.163582832054">
        <ele>15.2</ele>
        <time>2017-07-07T16:30:13Z</time>
      </trkpt>
      <trkpt lat="59.166953006328" lon="18.163436148804">
        <ele>14.8</ele>
        <time>2017-07-07T16:30:14Z</time>
      </trkpt>
      <trkpt lat="59.166955437079" lon="18.163317880195">
        <ele>14.2</ele>
        <time>2017-07-07T16:30:15Z</time>
      </trkpt>
      <trkpt lat="59.166961304409" lon="18.163238000688">
        <ele>13.8</ele>
        <time>2017-07-07T16:30:16Z</time>
      </trkpt>
      <trkpt lat="59.16695870602" lon="18.163200785052">
        <ele>13.8</ele>
        <time>2017-07-07T16:30:17Z</time>
      </trkpt>
      <trkpt lat="59.166960130943" lon="18.163205311278">
        <ele>13.8</ele>
        <time>2017-07-07T16:30:18Z</time>
      </trkpt>
      <trkpt lat="59.166954431251" lon="18.163129957997">
        <ele>15.8</ele>
        <time>2017-07-07T16:31:19Z</time>
      </trkpt>
      <trkpt lat="59.166954263613" lon="18.163072961077">
        <ele>15.8</ele>
        <time>2017-07-07T16:31:20Z</time>
      </trkpt>
      <trkpt lat="59.166934147053" lon="18.162920913411">
        <ele>15.8</ele>
        <time>2017-07-07T16:31:22Z</time>
      </trkpt>
      <trkpt lat="59.16690422367" lon="18.162835669488">
        <ele>15.8</ele>
        <time>2017-07-07T16:31:23Z</time>
      </trkpt>
      <trkpt lat="59.166810094933" lon="18.162703570744">
        <ele>15.4</ele>
        <time>2017-07-07T16:31:25Z</time>
      </trkpt>
      <trkpt lat="59.16674748214" lon="18.162681358709">
        <ele>15</ele>
        <time>2017-07-07T16:31:26Z</time>
      </trkpt>
      <trkpt lat="59.166676068352" lon="18.162666690384">
        <ele>14.6</ele>
        <time>2017-07-07T16:31:27Z</time>
      </trkpt>
      <trkpt lat="59.166597362311" lon="18.162659062855">
        <ele>14</ele>
        <time>2017-07-07T16:31:28Z</time>
      </trkpt>
      <trkpt lat="59.166514130044" lon="18.162647076738">
        <ele>13.4</ele>
        <time>2017-07-07T16:31:29Z</time>
      </trkpt>
      <trkpt lat="59.166432741795" lon="18.162639784485">
        <ele>12.8</ele>
        <time>2017-07-07T16:31:30Z</time>
      </trkpt>
      <trkpt lat="59.16634934189" lon="18.162626289626">
        <ele>12.2</ele>
        <time>2017-07-07T16:31:31Z</time>
      </trkpt>
      <trkpt lat="59.166261415759" lon="18.162617656269">
        <ele>11.6</ele>
        <time>2017-07-07T16:31:32Z</time>
      </trkpt>
      <trkpt lat="59.165910297968" lon="18.162580524452">
        <ele>11.6</ele>
        <time>2017-07-07T16:31:36Z</time>
      </trkpt>
      <trkpt lat="59.165293054852" lon="18.162506009361">
        <ele>11.6</ele>
        <time>2017-07-07T16:31:43Z</time>
      </trkpt>
      <trkpt lat="59.165205799273" lon="18.162494442339">
        <ele>11.6</ele>
        <time>2017-07-07T16:31:44Z</time>
      </trkpt>
      <trkpt lat="59.165119381884" lon="18.16248178567">
        <ele>11.2</ele>
        <time>2017-07-07T16:31:45Z</time>
      </trkpt>
      <trkpt lat="59.165034724694" lon="18.162466195336">
        <ele>10.8</ele>
        <time>2017-07-07T16:31:46Z</time>
      </trkpt>
      <trkpt lat="59.164944200174" lon="18.162452784296">
        <ele>10.4</ele>
        <time>2017-07-07T16:31:47Z</time>
      </trkpt>
      <trkpt lat="59.164857698966" lon="18.162441971645">
        <ele>10</ele>
        <time>2017-07-07T16:31:48Z</time>
      </trkpt>
      <trkpt lat="59.164772455043" lon="18.162432081003">
        <ele>9.6</ele>
        <time>2017-07-07T16:31:49Z</time>
      </trkpt>
      <trkpt lat="59.164443716925" lon="18.162382124879">
        <ele>9.6</ele>
        <time>2017-07-07T16:31:53Z</time>
      </trkpt>
      <trkpt lat="59.163967373548" lon="18.162313896213">
        <ele>9.6</ele>
        <time>2017-07-07T16:31:59Z</time>
      </trkpt>
      <trkpt lat="59.163512990749" lon="18.162325547054">
        <ele>9.6</ele>
        <time>2017-07-07T16:32:05Z</time>
      </trkpt>
      <trkpt lat="59.163365050214" lon="18.16239209934">
        <ele>9.6</ele>
        <time>2017-07-07T16:32:07Z</time>
      </trkpt>
      <trkpt lat="59.163213840738" lon="18.162531825613">
        <ele>9.6</ele>
        <time>2017-07-07T16:32:09Z</time>
      </trkpt>
      <trkpt lat="59.162964395394" lon="18.163004732411">
        <ele>9</ele>
        <time>2017-07-07T16:32:13Z</time>
      </trkpt>
      <trkpt lat="59.162915445098" lon="18.163156780077">
        <ele>8</ele>
        <time>2017-07-07T16:32:14Z</time>
      </trkpt>
      <trkpt lat="59.162873535598" lon="18.163329363398">
        <ele>7.2</ele>
        <time>2017-07-07T16:32:15Z</time>
      </trkpt>
      <trkpt lat="59.162846210604" lon="18.16351695032">
        <ele>6.4</ele>
        <time>2017-07-07T16:32:16Z</time>
      </trkpt>
      <trkpt lat="59.162807318588" lon="18.163719624662">
        <ele>5.8</ele>
        <time>2017-07-07T16:32:17Z</time>
      </trkpt>
      <trkpt lat="59.162793236996" lon="18.163930261809">
        <ele>5</ele>
        <time>2017-07-07T16:32:18Z</time>
      </trkpt>
      <trkpt lat="59.162783178716" lon="18.164135283083">
        <ele>4.6</ele>
        <time>2017-07-07T16:32:19Z</time>
      </trkpt>
      <trkpt lat="59.162783765449" lon="18.164348602438">
        <ele>4.2</ele>
        <time>2017-07-07T16:32:20Z</time>
      </trkpt>
      <trkpt lat="59.162800110154" lon="18.164567789123">
        <ele>3.4</ele>
        <time>2017-07-07T16:32:21Z</time>
      </trkpt>
      <trkpt lat="59.162817293049" lon="18.164786053799">
        <ele>2.6</ele>
        <time>2017-07-07T16:32:22Z</time>
      </trkpt>
      <trkpt lat="59.162839588903" lon="18.165014376755">
        <ele>1.8</ele>
        <time>2017-07-07T16:32:23Z</time>
      </trkpt>
      <trkpt lat="59.162862722947" lon="18.165241861521">
        <ele>1</ele>
        <time>2017-07-07T16:32:24Z</time>
      </trkpt>
      <trkpt lat="59.162885437896" lon="18.165490971589">
        <ele>0.2</ele>
        <time>2017-07-07T16:32:25Z</time>
      </trkpt>
      <trkpt lat="59.162907230836" lon="18.165732454128">
        <ele>0</ele>
        <time>2017-07-07T16:32:26Z</time>
      </trkpt>
      <trkpt lat="59.162929023776" lon="18.165962285826">
        <ele>0</ele>
        <time>2017-07-07T16:32:27Z</time>
      </trkpt>
      <trkpt lat="59.162952409277" lon="18.166188010393">
        <ele>0</ele>
        <time>2017-07-07T16:32:28Z</time>
      </trkpt>
      <trkpt lat="59.162973699303" lon="18.16640619125">
        <ele>0</ele>
        <time>2017-07-07T16:32:29Z</time>
      </trkpt>
      <trkpt lat="59.163000689021" lon="18.166639627165">
        <ele>0</ele>
        <time>2017-07-07T16:32:30Z</time>
      </trkpt>
      <trkpt lat="59.163027259644" lon="18.166872057252">
        <ele>0</ele>
        <time>2017-07-07T16:32:31Z</time>
      </trkpt>
      <trkpt lat="59.163057853579" lon="18.167108091556">
        <ele>0</ele>
        <time>2017-07-07T16:32:32Z</time>
      </trkpt>
      <trkpt lat="59.163095153034" lon="18.167347394801">
        <ele>0</ele>
        <time>2017-07-07T16:32:33Z</time>
      </trkpt>
      <trkpt lat="59.163135553792" lon="18.167577813232">
        <ele>0</ele>
        <time>2017-07-07T16:32:34Z</time>
      </trkpt>
      <trkpt lat="59.163175032541" lon="18.167815272459">
        <ele>0</ele>
        <time>2017-07-07T16:32:35Z</time>
      </trkpt>
      <trkpt lat="59.163385250593" lon="18.168704256773">
        <ele>0</ele>
        <time>2017-07-07T16:32:39Z</time>
      </trkpt>
      <trkpt lat="59.163701332042" lon="18.169767668426">
        <ele>0</ele>
        <time>2017-07-07T16:32:44Z</time>
      </trkpt>
      <trkpt lat="59.163762100817" lon="18.169978808487">
        <ele>0</ele>
        <time>2017-07-07T16:32:45Z</time>
      </trkpt>
      <trkpt lat="59.164083379044" lon="18.171022606494">
        <ele>0</ele>
        <time>2017-07-07T16:32:50Z</time>
      </trkpt>
      <trkpt lat="59.164142974353" lon="18.17123081289">
        <ele>0</ele>
        <time>2017-07-07T16:32:51Z</time>
      </trkpt>
      <trkpt lat="59.164474813774" lon="18.172163299265">
        <ele>0</ele>
        <time>2017-07-07T16:32:56Z</time>
      </trkpt>
      <trkpt lat="59.164552765444" lon="18.172316604216">
        <ele>0</ele>
        <time>2017-07-07T16:32:57Z</time>
      </trkpt>
      <trkpt lat="59.164707998232" lon="18.172616424779">
        <ele>0</ele>
        <time>2017-07-07T16:32:59Z</time>
      </trkpt>
      <trkpt lat="59.164777484183" lon="18.172773585404">
        <ele>0</ele>
        <time>2017-07-07T16:33:00Z</time>
      </trkpt>
      <trkpt lat="59.164890220738" lon="18.173105508644">
        <ele>0</ele>
        <time>2017-07-07T16:33:02Z</time>
      </trkpt>
      <trkpt lat="59.164992647556" lon="18.173442712481">
        <ele>0</ele>
        <time>2017-07-07T16:33:04Z</time>
      </trkpt>
      <trkpt lat="59.165253743741" lon="18.174433788337">
        <ele>0</ele>
        <time>2017-07-07T16:33:10Z</time>
      </trkpt>
      <trkpt lat="59.165286014056" lon="18.174606120201">
        <ele>0</ele>
        <time>2017-07-07T16:33:11Z</time>
      </trkpt>
      <trkpt lat="59.165393134738" lon="18.175620078644">
        <ele>0</ele>
        <time>2017-07-07T16:33:17Z</time>
      </trkpt>
      <trkpt lat="59.165426410881" lon="18.176404624484">
        <ele>0</ele>
        <time>2017-07-07T16:33:21Z</time>
      </trkpt>
      <trkpt lat="59.165439402826" lon="18.176604951894">
        <ele>0</ele>
        <time>2017-07-07T16:33:22Z</time>
      </trkpt>
      <trkpt lat="59.165450718391" lon="18.176824976769">
        <ele>0</ele>
        <time>2017-07-07T16:33:23Z</time>
      </trkpt>
      <trkpt lat="59.165463291241" lon="18.177009965302">
        <ele>0</ele>
        <time>2017-07-07T16:33:24Z</time>
      </trkpt>
      <trkpt lat="59.16547930067" lon="18.177209873617">
        <ele>0</ele>
        <time>2017-07-07T16:33:25Z</time>
      </trkpt>
      <trkpt lat="59.165499752506" lon="18.177410033389">
        <ele>0</ele>
        <time>2017-07-07T16:33:26Z</time>
      </trkpt>
      <trkpt lat="59.165523221826" lon="18.177621341088">
        <ele>0</ele>
        <time>2017-07-07T16:33:27Z</time>
      </trkpt>
      <trkpt lat="59.165546691146" lon="18.177823763973">
        <ele>0</ele>
        <time>2017-07-07T16:33:28Z</time>
      </trkpt>
      <trkpt lat="59.165596311994" lon="18.178232130141">
        <ele>0</ele>
        <time>2017-07-07T16:33:30Z</time>
      </trkpt>
      <trkpt lat="59.165618272572" lon="18.178438660157">
        <ele>0</ele>
        <time>2017-07-07T16:33:31Z</time>
      </trkpt>
      <trkpt lat="59.165616009459" lon="18.178650303132">
        <ele>0</ele>
        <time>2017-07-07T16:33:32Z</time>
      </trkpt>
      <trkpt lat="59.16559832365" lon="18.178864712134">
        <ele>0</ele>
        <time>2017-07-07T16:33:33Z</time>
      </trkpt>
      <trkpt lat="59.165551217372" lon="18.179068392304">
        <ele>0</ele>
        <time>2017-07-07T16:33:34Z</time>
      </trkpt>
      <trkpt lat="59.16548852076" lon="18.179243154919">
        <ele>0</ele>
        <time>2017-07-07T16:33:35Z</time>
      </trkpt>
      <trkpt lat="59.165415682049" lon="18.179386820685">
        <ele>0</ele>
        <time>2017-07-07T16:33:36Z</time>
      </trkpt>
      <trkpt lat="59.165327336823" lon="18.179513555013">
        <ele>0</ele>
        <time>2017-07-07T16:33:37Z</time>
      </trkpt>
      <trkpt lat="59.165244439832" lon="18.179655628218">
        <ele>0</ele>
        <time>2017-07-07T16:33:38Z</time>
      </trkpt>
      <trkpt lat="59.164820399511" lon="18.180420644231">
        <ele>0</ele>
        <time>2017-07-07T16:33:43Z</time>
      </trkpt>
      <trkpt lat="59.164743788945" lon="18.180569003861">
        <ele>0</ele>
        <time>2017-07-07T16:33:44Z</time>
      </trkpt>
      <trkpt lat="59.164662652153" lon="18.180716106206">
        <ele>0</ele>
        <time>2017-07-07T16:33:45Z</time>
      </trkpt>
      <trkpt lat="59.164581347723" lon="18.180854491375">
        <ele>0</ele>
        <time>2017-07-07T16:33:46Z</time>
      </trkpt>
      <trkpt lat="59.164498115456" lon="18.180984746101">
        <ele>0</ele>
        <time>2017-07-07T16:33:47Z</time>
      </trkpt>
      <trkpt lat="59.164307008136" lon="18.181209297202">
        <ele>0</ele>
        <time>2017-07-07T16:33:49Z</time>
      </trkpt>
      <trkpt lat="59.163932421025" lon="18.181513141077">
        <ele>0</ele>
        <time>2017-07-07T16:33:53Z</time>
      </trkpt>
      <trkpt lat="59.163561857226" lon="18.181699973628">
        <ele>0</ele>
        <time>2017-07-07T16:33:57Z</time>
      </trkpt>
      <trkpt lat="59.163167069736" lon="18.18184229829">
        <ele>0</ele>
        <time>2017-07-07T16:34:02Z</time>
      </trkpt>
      <trkpt lat="59.163089704799" lon="18.18187582589">
        <ele>0</ele>
        <time>2017-07-07T16:34:03Z</time>
      </trkpt>
      <trkpt lat="59.163013010414" lon="18.181908012386">
        <ele>0</ele>
        <time>2017-07-07T16:34:04Z</time>
      </trkpt>
      <trkpt lat="59.162930448699" lon="18.181939444511">
        <ele>0</ele>
        <time>2017-07-07T16:34:05Z</time>
      </trkpt>
      <trkpt lat="59.162851491201" lon="18.181978336527">
        <ele>0</ele>
        <time>2017-07-07T16:34:06Z</time>
      </trkpt>
      <trkpt lat="59.162618893476" lon="18.182056455835">
        <ele>0</ele>
        <time>2017-07-07T16:34:09Z</time>
      </trkpt>
      <trkpt lat="59.162180771563" lon="18.182101466638">
        <ele>0</ele>
        <time>2017-07-07T16:34:14Z</time>
      </trkpt>
      <trkpt lat="59.161649023827" lon="18.181990574101">
        <ele>0</ele>
        <time>2017-07-07T16:34:20Z</time>
      </trkpt>
      <trkpt lat="59.161120628851" lon="18.181766190638">
        <ele>0</ele>
        <time>2017-07-07T16:34:26Z</time>
      </trkpt>
      <trkpt lat="59.160584522527" lon="18.181497969838">
        <ele>0</ele>
        <time>2017-07-07T16:34:32Z</time>
      </trkpt>
      <trkpt lat="59.160326024731" lon="18.181379533591">
        <ele>0</ele>
        <time>2017-07-07T16:34:35Z</time>
      </trkpt>
      <trkpt lat="59.16023977498" lon="18.181347179457">
        <ele>0</ele>
        <time>2017-07-07T16:34:36Z</time>
      </trkpt>
      <trkpt lat="59.160160817482" lon="18.181300240817">
        <ele>0</ele>
        <time>2017-07-07T16:34:37Z</time>
      </trkpt>
      <trkpt lat="59.160074232455" lon="18.181267635226">
        <ele>0</ele>
        <time>2017-07-07T16:34:38Z</time>
      </trkpt>
      <trkpt lat="59.159992006016" lon="18.181225641907">
        <ele>0</ele>
        <time>2017-07-07T16:34:39Z</time>
      </trkpt>
      <trkpt lat="59.159909276663" lon="18.181188090995">
        <ele>0</ele>
        <time>2017-07-07T16:34:40Z</time>
      </trkpt>
      <trkpt lat="59.159826463491" lon="18.181147522599">
        <ele>0</ele>
        <time>2017-07-07T16:34:41Z</time>
      </trkpt>
      <trkpt lat="59.159737447713" lon="18.181104104357">
        <ele>0</ele>
        <time>2017-07-07T16:34:42Z</time>
      </trkpt>
      <trkpt lat="59.159483476143" lon="18.180986087205">
        <ele>0</ele>
        <time>2017-07-07T16:34:45Z</time>
      </trkpt>
      <trkpt lat="59.158947621276" lon="18.180744688485">
        <ele>0</ele>
        <time>2017-07-07T16:34:51Z</time>
      </trkpt>
      <trkpt lat="59.158589546508" lon="18.180581995806">
        <ele>0</ele>
        <time>2017-07-07T16:34:55Z</time>
      </trkpt>
      <trkpt lat="59.158498602893" lon="18.18053975103">
        <ele>0</ele>
        <time>2017-07-07T16:34:56Z</time>
      </trkpt>
      <trkpt lat="59.158410257667" lon="18.180483508481">
        <ele>0</ele>
        <time>2017-07-07T16:34:57Z</time>
      </trkpt>
      <trkpt lat="59.158323169726" lon="18.180444532646">
        <ele>0</ele>
        <time>2017-07-07T16:34:58Z</time>
      </trkpt>
      <trkpt lat="59.158237506708" lon="18.180403796612">
        <ele>0</ele>
        <time>2017-07-07T16:34:59Z</time>
      </trkpt>
      <trkpt lat="59.157877420284" lon="18.180266249633">
        <ele>0</ele>
        <time>2017-07-07T16:35:03Z</time>
      </trkpt>
      <trkpt lat="59.157352461887" lon="18.180104227506">
        <ele>0</ele>
        <time>2017-07-07T16:35:09Z</time>
      </trkpt>
      <trkpt lat="59.157264451937" lon="18.18009970128">
        <ele>0</ele>
        <time>2017-07-07T16:35:10Z</time>
      </trkpt>
      <trkpt lat="59.157183315145" lon="18.18007790834">
        <ele>0</ele>
        <time>2017-07-07T16:35:11Z</time>
      </trkpt>
      <trkpt lat="59.157101759258" lon="18.180073968847">
        <ele>0</ele>
        <time>2017-07-07T16:35:12Z</time>
      </trkpt>
      <trkpt lat="59.157012492023" lon="18.180063994386">
        <ele>0</ele>
        <time>2017-07-07T16:35:13Z</time>
      </trkpt>
      <trkpt lat="59.156923140969" lon="18.180062653282">
        <ele>0</ele>
        <time>2017-07-07T16:35:14Z</time>
      </trkpt>
      <trkpt lat="59.156470266912" lon="18.180058127056">
        <ele>0</ele>
        <time>2017-07-07T16:35:19Z</time>
      </trkpt>
      <trkpt lat="59.155901135902" lon="18.180043123455">
        <ele>0</ele>
        <time>2017-07-07T16:35:25Z</time>
      </trkpt>
      <trkpt lat="59.155811365753" lon="18.180039267781">
        <ele>0</ele>
        <time>2017-07-07T16:35:26Z</time>
      </trkpt>
      <trkpt lat="59.155721679423" lon="18.180036920849">
        <ele>0</ele>
        <time>2017-07-07T16:35:27Z</time>
      </trkpt>
      <trkpt lat="59.15562889179" lon="18.180028874225">
        <ele>0</ele>
        <time>2017-07-07T16:35:28Z</time>
      </trkpt>
      <trkpt lat="59.155540295107" lon="18.180027868397">
        <ele>0</ele>
        <time>2017-07-07T16:35:29Z</time>
      </trkpt>
      <trkpt lat="59.155454212994" lon="18.180033651908">
        <ele>0</ele>
        <time>2017-07-07T16:35:30Z</time>
      </trkpt>
      <trkpt lat="59.155284730976" lon="18.180026862569">
        <ele>0</ele>
        <time>2017-07-07T16:35:32Z</time>
      </trkpt>
      <trkpt lat="59.155202839813" lon="18.180026359655">
        <ele>0</ele>
        <time>2017-07-07T16:35:33Z</time>
      </trkpt>
      <trkpt lat="59.15472197021" lon="18.180005153448">
        <ele>0</ele>
        <time>2017-07-07T16:35:39Z</time>
      </trkpt>
      <trkpt lat="59.15457025782" lon="18.179987802915">
        <ele>0</ele>
        <time>2017-07-07T16:35:41Z</time>
      </trkpt>
      <trkpt lat="59.154415276489" lon="18.179986713268">
        <ele>0</ele>
        <time>2017-07-07T16:35:43Z</time>
      </trkpt>
      <trkpt lat="59.153991487625" lon="18.179926279769">
        <ele>0</ele>
        <time>2017-07-07T16:35:49Z</time>
      </trkpt>
      <trkpt lat="59.153884786038" lon="18.179643055368">
        <ele>0</ele>
        <time>2017-07-07T16:35:52Z</time>
      </trkpt>
      <trkpt lat="59.153869028066" lon="18.179587148095">
        <ele>0</ele>
        <time>2017-07-07T16:35:53Z</time>
      </trkpt>
      <trkpt lat="59.153867603143" lon="18.179570300476">
        <ele>0</ele>
        <time>2017-07-07T16:35:54Z</time>
      </trkpt>
      <trkpt lat="59.153863747469" lon="18.179547585527">
        <ele>0</ele>
        <time>2017-07-07T16:35:55Z</time>
      </trkpt>
      <trkpt lat="59.15385863451" lon="18.179528390976">
        <ele>0</ele>
        <time>2017-07-07T16:35:56Z</time>
      </trkpt>
      <trkpt lat="59.153854527379" lon="18.179514393203">
        <ele>0</ele>
        <time>2017-07-07T16:35:58Z</time>
      </trkpt>
      <trkpt lat="59.153839104683" lon="18.179458318292">
        <ele>0</ele>
        <time>2017-07-07T16:36:02Z</time>
      </trkpt>
      <trkpt lat="59.153816976467" lon="18.179409954729">
        <ele>0</ele>
        <time>2017-07-07T16:36:03Z</time>
      </trkpt>
      <trkpt lat="59.153743299566" lon="18.179389502893">
        <ele>0</ele>
        <time>2017-07-07T16:36:05Z</time>
      </trkpt>
      <trkpt lat="59.153691080329" lon="18.179408278349">
        <ele>0</ele>
        <time>2017-07-07T16:36:06Z</time>
      </trkpt>
      <trkpt lat="59.153437779311" lon="18.179489750417">
        <ele>0</ele>
        <time>2017-07-07T16:36:10Z</time>
      </trkpt>
      <trkpt lat="59.153006614375" lon="18.17953811398">
        <ele>0</ele>
        <time>2017-07-07T16:36:16Z</time>
      </trkpt>
      <trkpt lat="59.152702686681" lon="18.179534258306">
        <ele>0</ele>
        <time>2017-07-07T16:36:20Z</time>
      </trkpt>
      <trkpt lat="59.152623813002" lon="18.179529983537">
        <ele>0</ele>
        <time>2017-07-07T16:36:21Z</time>
      </trkpt>
      <trkpt lat="59.152541335106" lon="18.179525289673">
        <ele>0</ele>
        <time>2017-07-07T16:36:22Z</time>
      </trkpt>
      <trkpt lat="59.152459360124" lon="18.179512381547">
        <ele>0</ele>
        <time>2017-07-07T16:36:23Z</time>
      </trkpt>
      <trkpt lat="59.152375205848" lon="18.179493941367">
        <ele>0</ele>
        <time>2017-07-07T16:36:24Z</time>
      </trkpt>
      <trkpt lat="59.151792831436" lon="18.179446835089">
        <ele>0</ele>
        <time>2017-07-07T16:36:31Z</time>
      </trkpt>
      <trkpt lat="59.151625361074" lon="18.179434513696">
        <ele>0</ele>
        <time>2017-07-07T16:36:33Z</time>
      </trkpt>
      <trkpt lat="59.151542380264" lon="18.179431496212">
        <ele>0</ele>
        <time>2017-07-07T16:36:34Z</time>
      </trkpt>
      <trkpt lat="59.151455627599" lon="18.179427640538">
        <ele>0</ele>
        <time>2017-07-07T16:36:35Z</time>
      </trkpt>
      <trkpt lat="59.151363594337" lon="18.179425377425">
        <ele>0</ele>
        <time>2017-07-07T16:36:36Z</time>
      </trkpt>
      <trkpt lat="59.15127700931" lon="18.179429819832">
        <ele>0</ele>
        <time>2017-07-07T16:36:37Z</time>
      </trkpt>
      <trkpt lat="59.150736209122" lon="18.179468628029">
        <ele>0</ele>
        <time>2017-07-07T16:36:43Z</time>
      </trkpt>
      <trkpt lat="59.150102453663" lon="18.179499976335">
        <ele>0</ele>
        <time>2017-07-07T16:36:50Z</time>
      </trkpt>
      <trkpt lat="59.149730716398" lon="18.179549932459">
        <ele>0</ele>
        <time>2017-07-07T16:36:53Z</time>
      </trkpt>
      <trkpt lat="59.149545979322" lon="18.179624279912">
        <ele>0</ele>
        <time>2017-07-07T16:36:56Z</time>
      </trkpt>
      <trkpt lat="59.149177678636" lon="18.179771549895">
        <ele>0</ele>
        <time>2017-07-07T16:37:00Z</time>
      </trkpt>
      <trkpt lat="59.149089752505" lon="18.179793594292">
        <ele>0</ele>
        <time>2017-07-07T16:37:01Z</time>
      </trkpt>
      <trkpt lat="59.148999227985" lon="18.179826954254">
        <ele>0</ele>
        <time>2017-07-07T16:37:02Z</time>
      </trkpt>
      <trkpt lat="59.148911134216" lon="18.179867438831">
        <ele>0</ele>
        <time>2017-07-07T16:37:03Z</time>
      </trkpt>
      <trkpt lat="59.148828488682" lon="18.179901301707">
        <ele>0</ele>
        <time>2017-07-07T16:37:04Z</time>
      </trkpt>
      <trkpt lat="59.148299171697" lon="18.180121829496">
        <ele>0</ele>
        <time>2017-07-07T16:37:10Z</time>
      </trkpt>
      <trkpt lat="59.147697351277" lon="18.180364485501">
        <ele>0</ele>
        <time>2017-07-07T16:37:17Z</time>
      </trkpt>
      <trkpt lat="59.147318740854" lon="18.180534302795">
        <ele>0</ele>
        <time>2017-07-07T16:37:22Z</time>
      </trkpt>
      <trkpt lat="59.147125370421" lon="18.180615523406">
        <ele>0</ele>
        <time>2017-07-07T16:37:25Z</time>
      </trkpt>
      <trkpt lat="59.147055800651" lon="18.180651397938">
        <ele>0</ele>
        <time>2017-07-07T16:37:26Z</time>
      </trkpt>
      <trkpt lat="59.146792860448" lon="18.180810989314">
        <ele>0</ele>
        <time>2017-07-07T16:37:30Z</time>
      </trkpt>
      <trkpt lat="59.146655564926" lon="18.180919199643">
        <ele>0</ele>
        <time>2017-07-07T16:37:32Z</time>
      </trkpt>
      <trkpt lat="59.14658733626" lon="18.180970999785">
        <ele>0</ele>
        <time>2017-07-07T16:37:33Z</time>
      </trkpt>
      <trkpt lat="59.14651609011" lon="18.181023721936">
        <ele>0</ele>
        <time>2017-07-07T16:37:34Z</time>
      </trkpt>
      <trkpt lat="59.146446185064" lon="18.181093543163">
        <ele>0</ele>
        <time>2017-07-07T16:37:35Z</time>
      </trkpt>
      <trkpt lat="59.146227249836" lon="18.181277106773">
        <ele>0</ele>
        <time>2017-07-07T16:37:38Z</time>
      </trkpt>
      <trkpt lat="59.145758198712" lon="18.181663428544">
        <ele>0</ele>
        <time>2017-07-07T16:37:44Z</time>
      </trkpt>
      <trkpt lat="59.145674631169" lon="18.181731238115">
        <ele>0</ele>
        <time>2017-07-07T16:37:45Z</time>
      </trkpt>
      <trkpt lat="59.145583939011" lon="18.181810195613">
        <ele>0</ele>
        <time>2017-07-07T16:37:46Z</time>
      </trkpt>
      <trkpt lat="59.145507663721" lon="18.181876747899">
        <ele>0</ele>
        <time>2017-07-07T16:37:47Z</time>
      </trkpt>
      <trkpt lat="59.145410685138" lon="18.181949083696">
        <ele>0</ele>
        <time>2017-07-07T16:37:48Z</time>
      </trkpt>
      <trkpt lat="59.145309850881" lon="18.182015887439">
        <ele>0</ele>
        <time>2017-07-07T16:37:49Z</time>
      </trkpt>
      <trkpt lat="59.145002989522" lon="18.182185620914">
        <ele>0</ele>
        <time>2017-07-07T16:37:52Z</time>
      </trkpt>
      <trkpt lat="59.144900730342" lon="18.18223624759">
        <ele>0</ele>
        <time>2017-07-07T16:37:53Z</time>
      </trkpt>
      <trkpt lat="59.144799057895" lon="18.182291903406">
        <ele>0</ele>
        <time>2017-07-07T16:37:54Z</time>
      </trkpt>
      <trkpt lat="59.144705264434" lon="18.182340853702">
        <ele>0</ele>
        <time>2017-07-07T16:37:55Z</time>
      </trkpt>
      <trkpt lat="59.144604513996" lon="18.18238125446">
        <ele>0</ele>
        <time>2017-07-07T16:37:56Z</time>
      </trkpt>
      <trkpt lat="59.144411311201" lon="18.182454512266">
        <ele>0</ele>
        <time>2017-07-07T16:37:58Z</time>
      </trkpt>
      <trkpt lat="59.144311231315" lon="18.182504887485">
        <ele>0</ele>
        <time>2017-07-07T16:37:59Z</time>
      </trkpt>
      <trkpt lat="59.144216515845" lon="18.182552161401">
        <ele>0</ele>
        <time>2017-07-07T16:38:00Z</time>
      </trkpt>
      <trkpt lat="59.144117693244" lon="18.182587784476">
        <ele>0</ele>
        <time>2017-07-07T16:38:01Z</time>
      </trkpt>
      <trkpt lat="59.143519644679" lon="18.182857597837">
        <ele>0</ele>
        <time>2017-07-07T16:38:07Z</time>
      </trkpt>
      <trkpt lat="59.143420905897" lon="18.182906548133">
        <ele>0</ele>
        <time>2017-07-07T16:38:08Z</time>
      </trkpt>
      <trkpt lat="59.143042295474" lon="18.183077957988">
        <ele>0</ele>
        <time>2017-07-07T16:38:12Z</time>
      </trkpt>
      <trkpt lat="59.142953028239" lon="18.183140403143">
        <ele>0</ele>
        <time>2017-07-07T16:38:13Z</time>
      </trkpt>
      <trkpt lat="59.142431674059" lon="18.183551116243">
        <ele>0</ele>
        <time>2017-07-07T16:38:19Z</time>
      </trkpt>
      <trkpt lat="59.141956755605" lon="18.183968367225">
        <ele>0</ele>
        <time>2017-07-07T16:38:25Z</time>
      </trkpt>
      <trkpt lat="59.141564650323" lon="18.184366758932">
        <ele>0</ele>
        <time>2017-07-07T16:38:30Z</time>
      </trkpt>
      <trkpt lat="59.141184698796" lon="18.1847751251">
        <ele>0</ele>
        <time>2017-07-07T16:38:35Z</time>
      </trkpt>
      <trkpt lat="59.141098532864" lon="18.184854920788">
        <ele>0</ele>
        <time>2017-07-07T16:38:36Z</time>
      </trkpt>
      <trkpt lat="59.141018318081" lon="18.184950139172">
        <ele>0</ele>
        <time>2017-07-07T16:38:37Z</time>
      </trkpt>
      <trkpt lat="59.140936510737" lon="18.185024570444">
        <ele>0</ele>
        <time>2017-07-07T16:38:38Z</time>
      </trkpt>
      <trkpt lat="59.140853027013" lon="18.185099253173">
        <ele>0</ele>
        <time>2017-07-07T16:38:39Z</time>
      </trkpt>
      <trkpt lat="59.140768202185" lon="18.185174271178">
        <ele>0</ele>
        <time>2017-07-07T16:38:40Z</time>
      </trkpt>
      <trkpt lat="59.140681700977" lon="18.185251803753">
        <ele>0</ele>
        <time>2017-07-07T16:38:41Z</time>
      </trkpt>
      <trkpt lat="59.140595702683" lon="18.185332772907">
        <ele>0</ele>
        <time>2017-07-07T16:38:42Z</time>
      </trkpt>
      <trkpt lat="59.140512051321" lon="18.18541047312">
        <ele>0</ele>
        <time>2017-07-07T16:38:43Z</time>
      </trkpt>
      <trkpt lat="59.140027828958" lon="18.185811463216">
        <ele>0</ele>
        <time>2017-07-07T16:38:49Z</time>
      </trkpt>
      <trkpt lat="59.139528602994" lon="18.186124024267">
        <ele>0</ele>
        <time>2017-07-07T16:38:55Z</time>
      </trkpt>
      <trkpt lat="59.139024850804" lon="18.186410769066">
        <ele>0</ele>
        <time>2017-07-07T16:39:01Z</time>
      </trkpt>
      <trkpt lat="59.138671134624" lon="18.186618640186">
        <ele>0</ele>
        <time>2017-07-07T16:39:06Z</time>
      </trkpt>
      <trkpt lat="59.138612461324" lon="18.186651664872">
        <ele>0</ele>
        <time>2017-07-07T16:39:07Z</time>
      </trkpt>
      <trkpt lat="59.13855747606" lon="18.186684438101">
        <ele>0</ele>
        <time>2017-07-07T16:39:08Z</time>
      </trkpt>
      <trkpt lat="59.138506262651" lon="18.186715032036">
        <ele>0</ele>
        <time>2017-07-07T16:39:09Z</time>
      </trkpt>
      <trkpt lat="59.138456306527" lon="18.186741602659">
        <ele>0</ele>
        <time>2017-07-07T16:39:10Z</time>
      </trkpt>
      <trkpt lat="59.138406685679" lon="18.186769598205">
        <ele>0</ele>
        <time>2017-07-07T16:39:11Z</time>
      </trkpt>
      <trkpt lat="59.138364357084" lon="18.186783595978">
        <ele>0</ele>
        <time>2017-07-07T16:39:12Z</time>
      </trkpt>
      <trkpt lat="59.138349772578" lon="18.186797342294">
        <ele>0</ele>
        <time>2017-07-07T16:39:13Z</time>
      </trkpt>
      <trkpt lat="59.138342647963" lon="18.186814357551">
        <ele>0</ele>
        <time>2017-07-07T16:39:14Z</time>
      </trkpt>
      <trkpt lat="59.138332170588" lon="18.186824332012">
        <ele>0</ele>
        <time>2017-07-07T16:39:15Z</time>
      </trkpt>
      <trkpt lat="59.138310126191" lon="18.186840006165">
        <ele>0</ele>
        <time>2017-07-07T16:39:16Z</time>
      </trkpt>
      <trkpt lat="59.138292859477" lon="18.186851657006">
        <ele>0</ele>
        <time>2017-07-07T16:39:17Z</time>
      </trkpt>
      <trkpt lat="59.138263941922" lon="18.186871605928">
        <ele>0</ele>
        <time>2017-07-07T16:39:18Z</time>
      </trkpt>
      <trkpt lat="59.138226223372" lon="18.186886693348">
        <ele>0</ele>
        <time>2017-07-07T16:39:19Z</time>
      </trkpt>
      <trkpt lat="59.138019274261" lon="18.187018708273">
        <ele>0</ele>
        <time>2017-07-07T16:39:25Z</time>
      </trkpt>
      <trkpt lat="59.13794978831" lon="18.18706003104">
        <ele>0</ele>
        <time>2017-07-07T16:39:27Z</time>
      </trkpt>
      <trkpt lat="59.137915506339" lon="18.187068580578">
        <ele>0</ele>
        <time>2017-07-07T16:39:28Z</time>
      </trkpt>
      <trkpt lat="59.137874435029" lon="18.187078638858">
        <ele>0</ele>
        <time>2017-07-07T16:39:29Z</time>
      </trkpt>
      <trkpt lat="59.137830597692" lon="18.187101437626">
        <ele>0</ele>
        <time>2017-07-07T16:39:30Z</time>
      </trkpt>
      <trkpt lat="59.137789023468" lon="18.187116273589">
        <ele>0</ele>
        <time>2017-07-07T16:39:31Z</time>
      </trkpt>
      <trkpt lat="59.137581068529" lon="18.187232111447">
        <ele>0</ele>
        <time>2017-07-07T16:39:35Z</time>
      </trkpt>
      <trkpt lat="59.137529352206" lon="18.187264717038">
        <ele>0</ele>
        <time>2017-07-07T16:39:36Z</time>
      </trkpt>
      <trkpt lat="59.137470511268" lon="18.187300507751">
        <ele>0</ele>
        <time>2017-07-07T16:39:37Z</time>
      </trkpt>
      <trkpt lat="59.137413514348" lon="18.187330179677">
        <ele>0</ele>
        <time>2017-07-07T16:39:38Z</time>
      </trkpt>
      <trkpt lat="59.137357439437" lon="18.187357169395">
        <ele>0</ele>
        <time>2017-07-07T16:39:39Z</time>
      </trkpt>
      <trkpt lat="59.137138252752" lon="18.187483149352">
        <ele>0</ele>
        <time>2017-07-07T16:39:43Z</time>
      </trkpt>
      <trkpt lat="59.137087206981" lon="18.187511647812">
        <ele>0</ele>
        <time>2017-07-07T16:39:44Z</time>
      </trkpt>
      <trkpt lat="59.137030461518" lon="18.187546600335">
        <ele>0</ele>
        <time>2017-07-07T16:39:45Z</time>
      </trkpt>
      <trkpt lat="59.136977236453" lon="18.187582726324">
        <ele>0</ele>
        <time>2017-07-07T16:39:46Z</time>
      </trkpt>
      <trkpt lat="59.136921580637" lon="18.187615918648">
        <ele>0</ele>
        <time>2017-07-07T16:39:47Z</time>
      </trkpt>
      <trkpt lat="59.136864918993" lon="18.187644081832">
        <ele>0</ele>
        <time>2017-07-07T16:39:48Z</time>
      </trkpt>
      <trkpt lat="59.136576246357" lon="18.187795878041">
        <ele>0</ele>
        <time>2017-07-07T16:39:53Z</time>
      </trkpt>
      <trkpt lat="59.136168047827" lon="18.188029481594">
        <ele>0</ele>
        <time>2017-07-07T16:40:00Z</time>
      </trkpt>
      <trkpt lat="59.135995213049" lon="18.18813207605">
        <ele>0</ele>
        <time>2017-07-07T16:40:03Z</time>
      </trkpt>
      <trkpt lat="59.135936288292" lon="18.188165100736">
        <ele>0</ele>
        <time>2017-07-07T16:40:04Z</time>
      </trkpt>
      <trkpt lat="59.135878537001" lon="18.188197957784">
        <ele>0</ele>
        <time>2017-07-07T16:40:05Z</time>
      </trkpt>
      <trkpt lat="59.135821288624" lon="18.188235005782">
        <ele>0</ele>
        <time>2017-07-07T16:40:06Z</time>
      </trkpt>
      <trkpt lat="59.135703942024" lon="18.188307425398">
        <ele>0</ele>
        <time>2017-07-07T16:40:08Z</time>
      </trkpt>
      <trkpt lat="59.135507051193" lon="18.188416138641">
        <ele>0</ele>
        <time>2017-07-07T16:40:11Z</time>
      </trkpt>
      <trkpt lat="59.135438822527" lon="18.188456958494">
        <ele>0</ele>
        <time>2017-07-07T16:40:12Z</time>
      </trkpt>
      <trkpt lat="59.135365899997" lon="18.18849752689">
        <ele>0</ele>
        <time>2017-07-07T16:40:13Z</time>
      </trkpt>
      <trkpt lat="59.135292306915" lon="18.188537173277">
        <ele>0</ele>
        <time>2017-07-07T16:40:14Z</time>
      </trkpt>
      <trkpt lat="59.135214187607" lon="18.188579082777">
        <ele>0</ele>
        <time>2017-07-07T16:40:15Z</time>
      </trkpt>
      <trkpt lat="59.134988295402" lon="18.188718222317">
        <ele>0</ele>
        <time>2017-07-07T16:40:18Z</time>
      </trkpt>
      <trkpt lat="59.134910427551" lon="18.188764238948">
        <ele>0</ele>
        <time>2017-07-07T16:40:19Z</time>
      </trkpt>
      <trkpt lat="59.134833816985" lon="18.188810255579">
        <ele>0</ele>
        <time>2017-07-07T16:40:20Z</time>
      </trkpt>
      <trkpt lat="59.134753183107" lon="18.188859205875">
        <ele>0</ele>
        <time>2017-07-07T16:40:21Z</time>
      </trkpt>
      <trkpt lat="59.134671208125" lon="18.18890907818">
        <ele>0</ele>
        <time>2017-07-07T16:40:22Z</time>
      </trkpt>
      <trkpt lat="59.134194278015" lon="18.18919573916">
        <ele>0</ele>
        <time>2017-07-07T16:40:28Z</time>
      </trkpt>
      <trkpt lat="59.134108782635" lon="18.189241169058">
        <ele>0</ele>
        <time>2017-07-07T16:40:29Z</time>
      </trkpt>
      <trkpt lat="59.134029825137" lon="18.189289532621">
        <ele>0</ele>
        <time>2017-07-07T16:40:30Z</time>
      </trkpt>
      <trkpt lat="59.133951789648" lon="18.189335800709">
        <ele>0</ele>
        <time>2017-07-07T16:40:31Z</time>
      </trkpt>
      <trkpt lat="59.13363310981" lon="18.189516430654">
        <ele>0</ele>
        <time>2017-07-07T16:40:35Z</time>
      </trkpt>
      <trkpt lat="59.13314025409" lon="18.189794374458">
        <ele>0</ele>
        <time>2017-07-07T16:40:41Z</time>
      </trkpt>
      <trkpt lat="59.133054004339" lon="18.189836870691">
        <ele>0</ele>
        <time>2017-07-07T16:40:42Z</time>
      </trkpt>
      <trkpt lat="59.13296674876" lon="18.189882635865">
        <ele>0</ele>
        <time>2017-07-07T16:40:43Z</time>
      </trkpt>
      <trkpt lat="59.132880079914" lon="18.189932675808">
        <ele>0</ele>
        <time>2017-07-07T16:40:44Z</time>
      </trkpt>
      <trkpt lat="59.13279240524" lon="18.189986403787">
        <ele>0</ele>
        <time>2017-07-07T16:40:45Z</time>
      </trkpt>
      <trkpt lat="59.13271361538" lon="18.190039293576">
        <ele>0</ele>
        <time>2017-07-07T16:40:46Z</time>
      </trkpt>
      <trkpt lat="59.132630299294" lon="18.190085729302">
        <ele>0</ele>
        <time>2017-07-07T16:40:47Z</time>
      </trkpt>
      <trkpt lat="59.132548324312" lon="18.190144654059">
        <ele>0</ele>
        <time>2017-07-07T16:40:48Z</time>
      </trkpt>
      <trkpt lat="59.132468193348" lon="18.190206931576">
        <ele>0</ele>
        <time>2017-07-07T16:40:49Z</time>
      </trkpt>
      <trkpt lat="59.132389403488" lon="18.190282452495">
        <ele>0</ele>
        <time>2017-07-07T16:40:50Z</time>
      </trkpt>
      <trkpt lat="59.13208497288" lon="18.190637677417">
        <ele>0</ele>
        <time>2017-07-07T16:40:54Z</time>
      </trkpt>
      <trkpt lat="59.131934853051" lon="18.190815541335">
        <ele>0</ele>
        <time>2017-07-07T16:40:56Z</time>
      </trkpt>
      <trkpt lat="59.131861930521" lon="18.190910592081">
        <ele>0</ele>
        <time>2017-07-07T16:40:57Z</time>
      </trkpt>
      <trkpt lat="59.131793366579" lon="18.191011426338">
        <ele>0</ele>
        <time>2017-07-07T16:40:58Z</time>
      </trkpt>
      <trkpt lat="59.131726898112" lon="18.191117457373">
        <ele>0</ele>
        <time>2017-07-07T16:40:59Z</time>
      </trkpt>
      <trkpt lat="59.131654813772" lon="18.191196750147">
        <ele>0</ele>
        <time>2017-07-07T16:41:00Z</time>
      </trkpt>
      <trkpt lat="59.131580047224" lon="18.191292722902">
        <ele>0</ele>
        <time>2017-07-07T16:41:01Z</time>
      </trkpt>
      <trkpt lat="59.131216272764" lon="18.191747776253">
        <ele>0</ele>
        <time>2017-07-07T16:41:06Z</time>
      </trkpt>
      <trkpt lat="59.131141673854" lon="18.191846012121">
        <ele>0</ele>
        <time>2017-07-07T16:41:07Z</time>
      </trkpt>
      <trkpt lat="59.131075624482" lon="18.191932848605">
        <ele>0</ele>
        <time>2017-07-07T16:41:08Z</time>
      </trkpt>
      <trkpt lat="59.131007647273" lon="18.192021612926">
        <ele>0</ele>
        <time>2017-07-07T16:41:09Z</time>
      </trkpt>
      <trkpt lat="59.130944363928" lon="18.19210844941">
        <ele>0</ele>
        <time>2017-07-07T16:41:10Z</time>
      </trkpt>
      <trkpt lat="59.130479336116" lon="18.192673473289">
        <ele>0</ele>
        <time>2017-07-07T16:41:17Z</time>
      </trkpt>
      <trkpt lat="59.130064264428" lon="18.193211255993">
        <ele>0</ele>
        <time>2017-07-07T16:41:23Z</time>
      </trkpt>
      <trkpt lat="59.129917581178" lon="18.19336824898">
        <ele>0</ele>
        <time>2017-07-07T16:41:25Z</time>
      </trkpt>
      <trkpt lat="59.129849101055" lon="18.193457683853">
        <ele>0</ele>
        <time>2017-07-07T16:41:26Z</time>
      </trkpt>
      <trkpt lat="59.129782800226" lon="18.193550052391">
        <ele>0</ele>
        <time>2017-07-07T16:41:27Z</time>
      </trkpt>
      <trkpt lat="59.129720271252" lon="18.193638649074">
        <ele>0</ele>
        <time>2017-07-07T16:41:28Z</time>
      </trkpt>
      <trkpt lat="59.129653048414" lon="18.193724228273">
        <ele>0</ele>
        <time>2017-07-07T16:41:29Z</time>
      </trkpt>
      <trkpt lat="59.12957375564" lon="18.19375716914">
        <ele>0</ele>
        <time>2017-07-07T16:41:30Z</time>
      </trkpt>
      <trkpt lat="59.129489266088" lon="18.193701932419">
        <ele>0</ele>
        <time>2017-07-07T16:41:31Z</time>
      </trkpt>
      <trkpt lat="59.129427240028" lon="18.193381324744">
        <ele>0</ele>
        <time>2017-07-07T16:41:33Z</time>
      </trkpt>
      <trkpt lat="59.129379463198" lon="18.193062812544">
        <ele>0</ele>
        <time>2017-07-07T16:41:35Z</time>
      </trkpt>
      <trkpt lat="59.129282819891" lon="18.192575907973">
        <ele>0</ele>
        <time>2017-07-07T16:41:38Z</time>
      </trkpt>
      <trkpt lat="59.12908592906" lon="18.191425156922">
        <ele>0</ele>
        <time>2017-07-07T16:41:45Z</time>
      </trkpt>
      <trkpt lat="59.128911669359" lon="18.190510440175">
        <ele>0</ele>
        <time>2017-07-07T16:41:51Z</time>
      </trkpt>
      <trkpt lat="59.128718047469" lon="18.189453566404">
        <ele>0</ele>
        <time>2017-07-07T16:41:58Z</time>
      </trkpt>
      <trkpt lat="59.128533478031" lon="18.188400799764">
        <ele>0</ele>
        <time>2017-07-07T16:42:05Z</time>
      </trkpt>
      <trkpt lat="59.128343963272" lon="18.187379297611">
        <ele>0</ele>
        <time>2017-07-07T16:42:12Z</time>
      </trkpt>
      <trkpt lat="59.128319069029" lon="18.187234206922">
        <ele>0</ele>
        <time>2017-07-07T16:42:13Z</time>
      </trkpt>
      <trkpt lat="59.128126452967" lon="18.186180937368">
        <ele>0</ele>
        <time>2017-07-07T16:42:20Z</time>
      </trkpt>
      <trkpt lat="59.128038610655" lon="18.185722447438">
        <ele>0</ele>
        <time>2017-07-07T16:42:23Z</time>
      </trkpt>
      <trkpt lat="59.127845994593" lon="18.184652497903">
        <ele>0</ele>
        <time>2017-07-07T16:42:30Z</time>
      </trkpt>
      <trkpt lat="59.127817579952" lon="18.184496762201">
        <ele>0</ele>
        <time>2017-07-07T16:42:31Z</time>
      </trkpt>
      <trkpt lat="59.127658659128" lon="18.183559581962">
        <ele>0</ele>
        <time>2017-07-07T16:42:37Z</time>
      </trkpt>
      <trkpt lat="59.127539217053" lon="18.182446046547">
        <ele>0</ele>
        <time>2017-07-07T16:42:44Z</time>
      </trkpt>
      <trkpt lat="59.127440645909" lon="18.181318261902">
        <ele>0</ele>
        <time>2017-07-07T16:42:51Z</time>
      </trkpt>
      <trkpt lat="59.127334866331" lon="18.180202128098">
        <ele>0</ele>
        <time>2017-07-07T16:42:58Z</time>
      </trkpt>
      <trkpt lat="59.127221543043" lon="18.179108625424">
        <ele>0</ele>
        <time>2017-07-07T16:43:05Z</time>
      </trkpt>
      <trkpt lat="59.127054407957" lon="18.17803523931">
        <ele>0</ele>
        <time>2017-07-07T16:43:12Z</time>
      </trkpt>
      <trkpt lat="59.126866485759" lon="18.176972833485">
        <ele>0</ele>
        <time>2017-07-07T16:43:19Z</time>
      </trkpt>
      <trkpt lat="59.126818960386" lon="18.176681813917">
        <ele>0</ele>
        <time>2017-07-07T16:43:21Z</time>
      </trkpt>
      <trkpt lat="59.126764813312" lon="18.176393476557">
        <ele>0</ele>
        <time>2017-07-07T16:43:23Z</time>
      </trkpt>
      <trkpt lat="59.126738913241" lon="18.176251151895">
        <ele>0</ele>
        <time>2017-07-07T16:43:24Z</time>
      </trkpt>
      <trkpt lat="59.126713767541" lon="18.17610991688">
        <ele>0</ele>
        <time>2017-07-07T16:43:25Z</time>
      </trkpt>
      <trkpt lat="59.126689795307" lon="18.175968598046">
        <ele>0</ele>
        <time>2017-07-07T16:43:26Z</time>
      </trkpt>
      <trkpt lat="59.126662805589" lon="18.175830883429">
        <ele>0</ele>
        <time>2017-07-07T16:43:27Z</time>
      </trkpt>
      <trkpt lat="59.126587452308" lon="18.175403071253">
        <ele>0</ele>
        <time>2017-07-07T16:43:30Z</time>
      </trkpt>
      <trkpt lat="59.126387124898" lon="18.174299929394">
        <ele>0</ele>
        <time>2017-07-07T16:43:38Z</time>
      </trkpt>
      <trkpt lat="59.126361141008" lon="18.17416783065">
        <ele>0</ele>
        <time>2017-07-07T16:43:39Z</time>
      </trkpt>
      <trkpt lat="59.126338677516" lon="18.174033804069">
        <ele>0</ele>
        <time>2017-07-07T16:43:40Z</time>
      </trkpt>
      <trkpt lat="59.126317136033" lon="18.173898687841">
        <ele>0</ele>
        <time>2017-07-07T16:43:41Z</time>
      </trkpt>
      <trkpt lat="59.126295091636" lon="18.173763152518">
        <ele>0</ele>
        <time>2017-07-07T16:43:42Z</time>
      </trkpt>
      <trkpt lat="59.126271789954" lon="18.173637088742">
        <ele>0</ele>
        <time>2017-07-07T16:43:43Z</time>
      </trkpt>
      <trkpt lat="59.126172799715" lon="18.173113052354">
        <ele>0</ele>
        <time>2017-07-07T16:43:47Z</time>
      </trkpt>
      <trkpt lat="59.126147737834" lon="18.172995538116">
        <ele>0</ele>
        <time>2017-07-07T16:43:48Z</time>
      </trkpt>
      <trkpt lat="59.126124687609" lon="18.172879029706">
        <ele>0</ele>
        <time>2017-07-07T16:43:49Z</time>
      </trkpt>
      <trkpt lat="59.126106247429" lon="18.172761264011">
        <ele>0</ele>
        <time>2017-07-07T16:43:50Z</time>
      </trkpt>
      <trkpt lat="59.126093087846" lon="18.172643582135">
        <ele>0</ele>
        <time>2017-07-07T16:43:51Z</time>
      </trkpt>
      <trkpt lat="59.126075737313" lon="18.172515674341">
        <ele>0</ele>
        <time>2017-07-07T16:43:52Z</time>
      </trkpt>
      <trkpt lat="59.12605000488" lon="18.172383575597">
        <ele>0</ele>
        <time>2017-07-07T16:43:53Z</time>
      </trkpt>
      <trkpt lat="59.126024188628" lon="18.172262373323">
        <ele>0</ele>
        <time>2017-07-07T16:43:54Z</time>
      </trkpt>
      <trkpt lat="59.126000048756" lon="18.172139075574">
        <ele>0</ele>
        <time>2017-07-07T16:43:55Z</time>
      </trkpt>
      <trkpt lat="59.125977166169" lon="18.172014269083">
        <ele>0</ele>
        <time>2017-07-07T16:43:56Z</time>
      </trkpt>
      <trkpt lat="59.125952355745" lon="18.17188543928">
        <ele>0</ele>
        <time>2017-07-07T16:43:57Z</time>
      </trkpt>
      <trkpt lat="59.125850012746" lon="18.171335419002">
        <ele>0</ele>
        <time>2017-07-07T16:44:01Z</time>
      </trkpt>
      <trkpt lat="59.125661671453" lon="18.17033730235">
        <ele>0</ele>
        <time>2017-07-07T16:44:08Z</time>
      </trkpt>
      <trkpt lat="59.12546243369" lon="18.169342538458">
        <ele>0</ele>
        <time>2017-07-07T16:44:15Z</time>
      </trkpt>
      <trkpt lat="59.125433432316" lon="18.169196022846">
        <ele>0</ele>
        <time>2017-07-07T16:44:16Z</time>
      </trkpt>
      <trkpt lat="59.125213407441" lon="18.168088773856">
        <ele>0</ele>
        <time>2017-07-07T16:44:24Z</time>
      </trkpt>
      <trkpt lat="59.125050295667" lon="18.167235580255">
        <ele>0</ele>
        <time>2017-07-07T16:44:30Z</time>
      </trkpt>
      <trkpt lat="59.124908809195" lon="18.166470228966">
        <ele>0</ele>
        <time>2017-07-07T16:44:35Z</time>
      </trkpt>
      <trkpt lat="59.124882657667" lon="18.166316169644">
        <ele>0</ele>
        <time>2017-07-07T16:44:36Z</time>
      </trkpt>
      <trkpt lat="59.1248580987" lon="18.166162194141">
        <ele>0</ele>
        <time>2017-07-07T16:44:37Z</time>
      </trkpt>
      <trkpt lat="59.124834797018" lon="18.166007045172">
        <ele>0</ele>
        <time>2017-07-07T16:44:38Z</time>
      </trkpt>
      <trkpt lat="59.124812920259" lon="18.165840748276">
        <ele>0</ele>
        <time>2017-07-07T16:44:39Z</time>
      </trkpt>
      <trkpt lat="59.124742679937" lon="18.16521596145">
        <ele>0</ele>
        <time>2017-07-07T16:44:43Z</time>
      </trkpt>
      <trkpt lat="59.124630027201" lon="18.164084991683">
        <ele>0</ele>
        <time>2017-07-07T16:44:50Z</time>
      </trkpt>
      <trkpt lat="59.124555428291" lon="18.163268091709">
        <ele>0</ele>
        <time>2017-07-07T16:44:55Z</time>
      </trkpt>
      <trkpt lat="59.124447888514" lon="18.16223954876">
        <ele>0</ele>
        <time>2017-07-07T16:45:01Z</time>
      </trkpt>
      <trkpt lat="59.124429364515" lon="18.162059002634">
        <ele>0</ele>
        <time>2017-07-07T16:45:02Z</time>
      </trkpt>
      <trkpt lat="59.124409583231" lon="18.161874768472">
        <ele>0</ele>
        <time>2017-07-07T16:45:03Z</time>
      </trkpt>
      <trkpt lat="59.124389299033" lon="18.161691288681">
        <ele>0</ele>
        <time>2017-07-07T16:45:04Z</time>
      </trkpt>
      <trkpt lat="59.124366667903" lon="18.16150864708">
        <ele>0</ele>
        <time>2017-07-07T16:45:05Z</time>
      </trkpt>
      <trkpt lat="59.124339929642" lon="18.161327765678">
        <ele>0</ele>
        <time>2017-07-07T16:45:06Z</time>
      </trkpt>
      <trkpt lat="59.124312772286" lon="18.161144453525">
        <ele>0</ele>
        <time>2017-07-07T16:45:07Z</time>
      </trkpt>
      <trkpt lat="59.124280250514" lon="18.160948652341">
        <ele>0</ele>
        <time>2017-07-07T16:45:08Z</time>
      </trkpt>
      <trkpt lat="59.124244292163" lon="18.160761065419">
        <ele>0</ele>
        <time>2017-07-07T16:45:09Z</time>
      </trkpt>
      <trkpt lat="59.124205735423" lon="18.160573646135">
        <ele>0</ele>
        <time>2017-07-07T16:45:10Z</time>
      </trkpt>
      <trkpt lat="59.124124933907" lon="18.160205010173">
        <ele>0</ele>
        <time>2017-07-07T16:45:12Z</time>
      </trkpt>
      <trkpt lat="59.124084197873" lon="18.160021614201">
        <ele>0</ele>
        <time>2017-07-07T16:45:13Z</time>
      </trkpt>
      <trkpt lat="59.124042875106" lon="18.159842660636">
        <ele>0</ele>
        <time>2017-07-07T16:45:14Z</time>
      </trkpt>
      <trkpt lat="59.12400146852" lon="18.159664964356">
        <ele>0</ele>
        <time>2017-07-07T16:45:15Z</time>
      </trkpt>
      <trkpt lat="59.123957631183" lon="18.159478969995">
        <ele>0</ele>
        <time>2017-07-07T16:45:16Z</time>
      </trkpt>
      <trkpt lat="59.123705084536" lon="18.158464089543">
        <ele>0</ele>
        <time>2017-07-07T16:45:22Z</time>
      </trkpt>
      <trkpt lat="59.123460500694" lon="18.157448789996">
        <ele>0</ele>
        <time>2017-07-07T16:45:28Z</time>
      </trkpt>
      <trkpt lat="59.123323791905" lon="18.156933303146">
        <ele>0</ele>
        <time>2017-07-07T16:45:31Z</time>
      </trkpt>
      <trkpt lat="59.123146849996" lon="18.156256297083">
        <ele>0</ele>
        <time>2017-07-07T16:45:35Z</time>
      </trkpt>
      <trkpt lat="59.123102342107" lon="18.156090000187">
        <ele>0</ele>
        <time>2017-07-07T16:45:36Z</time>
      </trkpt>
      <trkpt lat="59.123057750399" lon="18.155923870929">
        <ele>0</ele>
        <time>2017-07-07T16:45:37Z</time>
      </trkpt>
      <trkpt lat="59.123011985225" lon="18.155746426106">
        <ele>0</ele>
        <time>2017-07-07T16:45:38Z</time>
      </trkpt>
      <trkpt lat="59.122969153716" lon="18.155579542477">
        <ele>0</ele>
        <time>2017-07-07T16:45:39Z</time>
      </trkpt>
      <trkpt lat="59.122705794418" lon="18.154635321442">
        <ele>0</ele>
        <time>2017-07-07T16:45:45Z</time>
      </trkpt>
      <trkpt lat="59.122424078759" lon="18.153632510926">
        <ele>0</ele>
        <time>2017-07-07T16:45:52Z</time>
      </trkpt>
      <trkpt lat="59.12219852183" lon="18.152674292118">
        <ele>0</ele>
        <time>2017-07-07T16:45:59Z</time>
      </trkpt>
      <trkpt lat="59.122169855732" lon="18.15253749951">
        <ele>0</ele>
        <time>2017-07-07T16:46:00Z</time>
      </trkpt>
      <trkpt lat="59.121955027635" lon="18.151479200816">
        <ele>0</ele>
        <time>2017-07-07T16:46:08Z</time>
      </trkpt>
      <trkpt lat="59.121767775989" lon="18.150526849338">
        <ele>0</ele>
        <time>2017-07-07T16:46:15Z</time>
      </trkpt>
      <trkpt lat="59.121740283357" lon="18.150385530504">
        <ele>0</ele>
        <time>2017-07-07T16:46:16Z</time>
      </trkpt>
      <trkpt lat="59.121712874544" lon="18.150251252466">
        <ele>0</ele>
        <time>2017-07-07T16:46:17Z</time>
      </trkpt>
      <trkpt lat="59.121688315577" lon="18.150121081559">
        <ele>0</ele>
        <time>2017-07-07T16:46:18Z</time>
      </trkpt>
      <trkpt lat="59.121665516809" lon="18.14999694562">
        <ele>0</ele>
        <time>2017-07-07T16:46:19Z</time>
      </trkpt>
      <trkpt lat="59.121647160448" lon="18.149874737518">
        <ele>0</ele>
        <time>2017-07-07T16:46:20Z</time>
      </trkpt>
      <trkpt lat="59.121628971725" lon="18.149757558556">
        <ele>0</ele>
        <time>2017-07-07T16:46:21Z</time>
      </trkpt>
      <trkpt lat="59.12159083408" lon="18.149513729085">
        <ele>0</ele>
        <time>2017-07-07T16:46:23Z</time>
      </trkpt>
      <trkpt lat="59.121561748887" lon="18.149267385044">
        <ele>0</ele>
        <time>2017-07-07T16:46:25Z</time>
      </trkpt>
      <trkpt lat="59.121544817449" lon="18.149154145575">
        <ele>0</ele>
        <time>2017-07-07T16:46:26Z</time>
      </trkpt>
      <trkpt lat="59.121519504111" lon="18.148924397696">
        <ele>0</ele>
        <time>2017-07-07T16:46:28Z</time>
      </trkpt>
      <trkpt lat="59.121509026736" lon="18.148807973105">
        <ele>0</ele>
        <time>2017-07-07T16:46:29Z</time>
      </trkpt>
      <trkpt lat="59.121493352583" lon="18.148692470523">
        <ele>0</ele>
        <time>2017-07-07T16:46:30Z</time>
      </trkpt>
      <trkpt lat="59.121474241851" lon="18.148576967941">
        <ele>0</ele>
        <time>2017-07-07T16:46:31Z</time>
      </trkpt>
      <trkpt lat="59.121456053128" lon="18.148466829775">
        <ele>0</ele>
        <time>2017-07-07T16:46:32Z</time>
      </trkpt>
      <trkpt lat="59.121444737563" lon="18.148355518143">
        <ele>0</ele>
        <time>2017-07-07T16:46:33Z</time>
      </trkpt>
      <trkpt lat="59.121427806125" lon="18.14812610554">
        <ele>0</ele>
        <time>2017-07-07T16:46:35Z</time>
      </trkpt>
      <trkpt lat="59.121399056208" lon="18.147631908716">
        <ele>0</ele>
        <time>2017-07-07T16:46:39Z</time>
      </trkpt>
      <trkpt lat="59.121398134199" lon="18.147498385049">
        <ele>0</ele>
        <time>2017-07-07T16:46:40Z</time>
      </trkpt>
      <trkpt lat="59.121397296009" lon="18.147372321273">
        <ele>0</ele>
        <time>2017-07-07T16:46:41Z</time>
      </trkpt>
      <trkpt lat="59.12139805038" lon="18.147243575289">
        <ele>0</ele>
        <time>2017-07-07T16:46:42Z</time>
      </trkpt>
      <trkpt lat="59.121434008731" lon="18.146694309382">
        <ele>0</ele>
        <time>2017-07-07T16:46:46Z</time>
      </trkpt>
      <trkpt lat="59.121517492455" lon="18.145639531086">
        <ele>0</ele>
        <time>2017-07-07T16:46:54Z</time>
      </trkpt>
      <trkpt lat="59.121525622898" lon="18.145508773446">
        <ele>0</ele>
        <time>2017-07-07T16:46:55Z</time>
      </trkpt>
      <trkpt lat="59.121587146044" lon="18.144831432107">
        <ele>0</ele>
        <time>2017-07-07T16:47:00Z</time>
      </trkpt>
      <trkpt lat="59.121596785229" lon="18.144696399698">
        <ele>0</ele>
        <time>2017-07-07T16:47:01Z</time>
      </trkpt>
      <trkpt lat="59.121607849337" lon="18.144560780556">
        <ele>0</ele>
        <time>2017-07-07T16:47:02Z</time>
      </trkpt>
      <trkpt lat="59.121620338368" lon="18.144423987948">
        <ele>0</ele>
        <time>2017-07-07T16:47:03Z</time>
      </trkpt>
      <trkpt lat="59.121683537894" lon="18.143588899251">
        <ele>0</ele>
        <time>2017-07-07T16:47:09Z</time>
      </trkpt>
      <trkpt lat="59.1217484138" lon="18.142660436188">
        <ele>0</ele>
        <time>2017-07-07T16:47:16Z</time>
      </trkpt>
      <trkpt lat="59.121788814558" lon="18.142018298829">
        <ele>0</ele>
        <time>2017-07-07T16:47:21Z</time>
      </trkpt>
      <trkpt lat="59.121791748223" lon="18.141892402691">
        <ele>0</ele>
        <time>2017-07-07T16:47:22Z</time>
      </trkpt>
      <trkpt lat="59.121793256965" lon="18.141765416906">
        <ele>0</ele>
        <time>2017-07-07T16:47:23Z</time>
      </trkpt>
      <trkpt lat="59.121796945001" lon="18.141620745312">
        <ele>0</ele>
        <time>2017-07-07T16:47:24Z</time>
      </trkpt>
      <trkpt lat="59.121803818159" lon="18.141487137826">
        <ele>0</ele>
        <time>2017-07-07T16:47:25Z</time>
      </trkpt>
      <trkpt lat="59.121818570303" lon="18.141211624773">
        <ele>0</ele>
        <time>2017-07-07T16:47:27Z</time>
      </trkpt>
      <trkpt lat="59.121823934719" lon="18.141079861305">
        <ele>0</ele>
        <time>2017-07-07T16:47:28Z</time>
      </trkpt>
      <trkpt lat="59.121830975515" lon="18.140958910488">
        <ele>0</ele>
        <time>2017-07-07T16:47:29Z</time>
      </trkpt>
      <trkpt lat="59.121838854501" lon="18.140834355454">
        <ele>0</ele>
        <time>2017-07-07T16:47:30Z</time>
      </trkpt>
      <trkpt lat="59.121872633558" lon="18.140041260076">
        <ele>0</ele>
        <time>2017-07-07T16:47:36Z</time>
      </trkpt>
      <trkpt lat="59.121913872506" lon="18.139182199145">
        <ele>0</ele>
        <time>2017-07-07T16:47:42Z</time>
      </trkpt>
      <trkpt lat="59.121964163906" lon="18.138102861882">
        <ele>0</ele>
        <time>2017-07-07T16:47:49Z</time>
      </trkpt>
      <trkpt lat="59.121971959073" lon="18.137949305474">
        <ele>0</ele>
        <time>2017-07-07T16:47:50Z</time>
      </trkpt>
      <trkpt lat="59.122027614889" lon="18.136883043975">
        <ele>0</ele>
        <time>2017-07-07T16:47:57Z</time>
      </trkpt>
      <trkpt lat="59.122035158599" lon="18.136724039332">
        <ele>0</ele>
        <time>2017-07-07T16:47:58Z</time>
      </trkpt>
      <trkpt lat="59.122099112496" lon="18.135614108134">
        <ele>0</ele>
        <time>2017-07-07T16:48:05Z</time>
      </trkpt>
      <trkpt lat="59.122106823844" lon="18.135459713536">
        <ele>0</ele>
        <time>2017-07-07T16:48:06Z</time>
      </trkpt>
      <trkpt lat="59.122157282882" lon="18.134320780964">
        <ele>0</ele>
        <time>2017-07-07T16:48:13Z</time>
      </trkpt>
      <trkpt lat="59.122162982574" lon="18.134151131308">
        <ele>0</ele>
        <time>2017-07-07T16:48:14Z</time>
      </trkpt>
      <trkpt lat="59.122167927895" lon="18.133982655118">
        <ele>0</ele>
        <time>2017-07-07T16:48:15Z</time>
      </trkpt>
      <trkpt lat="59.122173627587" lon="18.133808311598">
        <ele>0</ele>
        <time>2017-07-07T16:48:16Z</time>
      </trkpt>
      <trkpt lat="59.12217924346" lon="18.13364218234">
        <ele>0</ele>
        <time>2017-07-07T16:48:17Z</time>
      </trkpt>
      <trkpt lat="59.122193827966" lon="18.13295151378">
        <ele>0</ele>
        <time>2017-07-07T16:48:21Z</time>
      </trkpt>
      <trkpt lat="59.122201539314" lon="18.132060266353">
        <ele>0</ele>
        <time>2017-07-07T16:48:26Z</time>
      </trkpt>
      <trkpt lat="59.122205478807" lon="18.131045302082">
        <ele>0</ele>
        <time>2017-07-07T16:48:32Z</time>
      </trkpt>
      <trkpt lat="59.122205059712" lon="18.130713295023">
        <ele>0</ele>
        <time>2017-07-07T16:48:34Z</time>
      </trkpt>
      <trkpt lat="59.122206233178" lon="18.130547165765">
        <ele>0</ele>
        <time>2017-07-07T16:48:35Z</time>
      </trkpt>
      <trkpt lat="59.122207406644" lon="18.130379863041">
        <ele>0</ele>
        <time>2017-07-07T16:48:36Z</time>
      </trkpt>
      <trkpt lat="59.122208747748" lon="18.130213901421">
        <ele>0</ele>
        <time>2017-07-07T16:48:37Z</time>
      </trkpt>
      <trkpt lat="59.12220858011" lon="18.130051292561">
        <ele>0</ele>
        <time>2017-07-07T16:48:38Z</time>
      </trkpt>
      <trkpt lat="59.122206233178" lon="18.129895556859">
        <ele>0</ele>
        <time>2017-07-07T16:48:39Z</time>
      </trkpt>
      <trkpt lat="59.122205311169" lon="18.128763497445">
        <ele>0</ele>
        <time>2017-07-07T16:48:46Z</time>
      </trkpt>
      <trkpt lat="59.122206987549" lon="18.128591333219">
        <ele>0</ele>
        <time>2017-07-07T16:48:47Z</time>
      </trkpt>
      <trkpt lat="59.122207071368" lon="18.128431071291">
        <ele>0</ele>
        <time>2017-07-07T16:48:48Z</time>
      </trkpt>
      <trkpt lat="59.12220774192" lon="18.128267959517">
        <ele>0</ele>
        <time>2017-07-07T16:48:49Z</time>
      </trkpt>
      <trkpt lat="59.122208496291" lon="18.128104177191">
        <ele>0</ele>
        <time>2017-07-07T16:48:50Z</time>
      </trkpt>
      <trkpt lat="59.122211010861" lon="18.127286439027">
        <ele>0</ele>
        <time>2017-07-07T16:48:55Z</time>
      </trkpt>
      <trkpt lat="59.122219979494" lon="18.126112302475">
        <ele>0</ele>
        <time>2017-07-07T16:49:02Z</time>
      </trkpt>
      <trkpt lat="59.122229702498" lon="18.124969598048">
        <ele>0</ele>
        <time>2017-07-07T16:49:09Z</time>
      </trkpt>
      <trkpt lat="59.122231797973" lon="18.12479508689">
        <ele>0</ele>
        <time>2017-07-07T16:49:10Z</time>
      </trkpt>
      <trkpt lat="59.122240850425" lon="18.123634780473">
        <ele>0</ele>
        <time>2017-07-07T16:49:17Z</time>
      </trkpt>
      <trkpt lat="59.122243700271" lon="18.123301767586">
        <ele>0</ele>
        <time>2017-07-07T16:49:19Z</time>
      </trkpt>
      <trkpt lat="59.122252082171" lon="18.122129894147">
        <ele>0</ele>
        <time>2017-07-07T16:49:26Z</time>
      </trkpt>
      <trkpt lat="59.122259290605" lon="18.120988363186">
        <ele>0</ele>
        <time>2017-07-07T16:49:33Z</time>
      </trkpt>
      <trkpt lat="59.122261469899" lon="18.120832208389">
        <ele>0</ele>
        <time>2017-07-07T16:49:34Z</time>
      </trkpt>
      <trkpt lat="59.122276641138" lon="18.119689252505">
        <ele>0</ele>
        <time>2017-07-07T16:49:41Z</time>
      </trkpt>
      <trkpt lat="59.122276641138" lon="18.119526895102">
        <ele>0</ele>
        <time>2017-07-07T16:49:42Z</time>
      </trkpt>
      <trkpt lat="59.122275719129" lon="18.119361687853">
        <ele>0</ele>
        <time>2017-07-07T16:49:43Z</time>
      </trkpt>
      <trkpt lat="59.122277060233" lon="18.119195642414">
        <ele>0</ele>
        <time>2017-07-07T16:49:44Z</time>
      </trkpt>
      <trkpt lat="59.122278066061" lon="18.119030351346">
        <ele>0</ele>
        <time>2017-07-07T16:49:45Z</time>
      </trkpt>
      <trkpt lat="59.122280245355" lon="18.118865647011">
        <ele>0</ele>
        <time>2017-07-07T16:49:46Z</time>
      </trkpt>
      <trkpt lat="59.122288711074" lon="18.117705172956">
        <ele>0</ele>
        <time>2017-07-07T16:49:53Z</time>
      </trkpt>
      <trkpt lat="59.122304385227" lon="18.116699596413">
        <ele>0</ele>
        <time>2017-07-07T16:49:59Z</time>
      </trkpt>
      <trkpt lat="59.122326848719" lon="18.11586836339">
        <ele>0</ele>
        <time>2017-07-07T16:50:04Z</time>
      </trkpt>
      <trkpt lat="59.122335649714" lon="18.114905953632">
        <ele>0</ele>
        <time>2017-07-07T16:50:10Z</time>
      </trkpt>
      <trkpt lat="59.122332296954" lon="18.114461210018">
        <ele>0</ele>
        <time>2017-07-07T16:50:13Z</time>
      </trkpt>
      <trkpt lat="59.122329447108" lon="18.114319220632">
        <ele>0</ele>
        <time>2017-07-07T16:50:14Z</time>
      </trkpt>
      <trkpt lat="59.122327100176" lon="18.114182847119">
        <ele>0</ele>
        <time>2017-07-07T16:50:15Z</time>
      </trkpt>
      <trkpt lat="59.122327100176" lon="18.114052424755">
        <ele>0</ele>
        <time>2017-07-07T16:50:16Z</time>
      </trkpt>
      <trkpt lat="59.122326094348" lon="18.113917476165">
        <ele>0</ele>
        <time>2017-07-07T16:50:17Z</time>
      </trkpt>
      <trkpt lat="59.122325256158" lon="18.11341414307">
        <ele>0</ele>
        <time>2017-07-07T16:50:21Z</time>
      </trkpt>
      <trkpt lat="59.122326513443" lon="18.113290510045">
        <ele>0</ele>
        <time>2017-07-07T16:50:22Z</time>
      </trkpt>
      <trkpt lat="59.122328357461" lon="18.113169140133">
        <ele>0</ele>
        <time>2017-07-07T16:50:23Z</time>
      </trkpt>
      <trkpt lat="59.122330704393" lon="18.113051542076">
        <ele>0</ele>
        <time>2017-07-07T16:50:24Z</time>
      </trkpt>
      <trkpt lat="59.122332548411" lon="18.112927406137">
        <ele>0</ele>
        <time>2017-07-07T16:50:25Z</time>
      </trkpt>
      <trkpt lat="59.122334057153" lon="18.112814418125">
        <ele>0</ele>
        <time>2017-07-07T16:50:26Z</time>
      </trkpt>
      <trkpt lat="59.122337577551" lon="18.112701094837">
        <ele>0</ele>
        <time>2017-07-07T16:50:27Z</time>
      </trkpt>
      <trkpt lat="59.12234017594" lon="18.112592213956">
        <ele>0</ele>
        <time>2017-07-07T16:50:28Z</time>
      </trkpt>
      <trkpt lat="59.122343193424" lon="18.112485680007">
        <ele>0</ele>
        <time>2017-07-07T16:50:29Z</time>
      </trkpt>
      <trkpt lat="59.12234688146" lon="18.112382834094">
        <ele>0</ele>
        <time>2017-07-07T16:50:30Z</time>
      </trkpt>
      <trkpt lat="59.122358448482" lon="18.112078487305">
        <ele>0</ele>
        <time>2017-07-07T16:50:33Z</time>
      </trkpt>
      <trkpt lat="59.122363477622" lon="18.111972875365">
        <ele>0</ele>
        <time>2017-07-07T16:50:34Z</time>
      </trkpt>
      <trkpt lat="59.122370434599" lon="18.11186852071">
        <ele>0</ele>
        <time>2017-07-07T16:50:35Z</time>
      </trkpt>
      <trkpt lat="59.122376134291" lon="18.111772045041">
        <ele>0</ele>
        <time>2017-07-07T16:50:36Z</time>
      </trkpt>
      <trkpt lat="59.12237537992" lon="18.111664421445">
        <ele>0</ele>
        <time>2017-07-07T16:50:37Z</time>
      </trkpt>
      <trkpt lat="59.122378062128" lon="18.111555289107">
        <ele>0</ele>
        <time>2017-07-07T16:50:38Z</time>
      </trkpt>
      <trkpt lat="59.12247512453" lon="18.111253373069">
        <ele>0</ele>
        <time>2017-07-07T16:50:41Z</time>
      </trkpt>
      <trkpt lat="59.122561541919" lon="18.111038461153">
        <ele>0</ele>
        <time>2017-07-07T16:50:43Z</time>
      </trkpt>
      <trkpt lat="59.122585178877" lon="18.110904518391">
        <ele>0</ele>
        <time>2017-07-07T16:50:44Z</time>
      </trkpt>
      <trkpt lat="59.122607390912" lon="18.110774431303">
        <ele>0</ele>
        <time>2017-07-07T16:50:45Z</time>
      </trkpt>
      <trkpt lat="59.122632285155" lon="18.110646691147">
        <ele>0</ele>
        <time>2017-07-07T16:50:46Z</time>
      </trkpt>
      <trkpt lat="59.12266623185" lon="18.110514592403">
        <ele>0</ele>
        <time>2017-07-07T16:50:47Z</time>
      </trkpt>
      <trkpt lat="59.122705542961" lon="18.110395150328">
        <ele>0</ele>
        <time>2017-07-07T16:50:48Z</time>
      </trkpt>
      <trkpt lat="59.122838731352" lon="18.110095665041">
        <ele>0</ele>
        <time>2017-07-07T16:50:51Z</time>
      </trkpt>
      <trkpt lat="59.122938727419" lon="18.109926602118">
        <ele>0</ele>
        <time>2017-07-07T16:50:53Z</time>
      </trkpt>
      <trkpt lat="59.123265202424" lon="18.109456796623">
        <ele>0</ele>
        <time>2017-07-07T16:50:59Z</time>
      </trkpt>
      <trkpt lat="59.123318008394" lon="18.109382030075">
        <ele>0</ele>
        <time>2017-07-07T16:51:00Z</time>
      </trkpt>
      <trkpt lat="59.123370562907" lon="18.109314136685">
        <ele>0</ele>
        <time>2017-07-07T16:51:01Z</time>
      </trkpt>
      <trkpt lat="59.123424709981" lon="18.109244315458">
        <ele>0</ele>
        <time>2017-07-07T16:51:02Z</time>
      </trkpt>
      <trkpt lat="59.123468547318" lon="18.109190419841">
        <ele>0</ele>
        <time>2017-07-07T16:51:03Z</time>
      </trkpt>
      <trkpt lat="59.123499895624" lon="18.109150857273">
        <ele>0</ele>
        <time>2017-07-07T16:51:04Z</time>
      </trkpt>
      <trkpt lat="59.12355555144" lon="18.109072821784">
        <ele>0</ele>
        <time>2017-07-07T16:51:08Z</time>
      </trkpt>
      <trkpt lat="59.123597796216" lon="18.109037198709">
        <ele>0</ele>
        <time>2017-07-07T16:51:11Z</time>
      </trkpt>
      <trkpt lat="59.123635263309" lon="18.109000569806">
        <ele>0</ele>
        <time>2017-07-07T16:51:12Z</time>
      </trkpt>
      <trkpt lat="59.123674742058" lon="18.108947763836">
        <ele>0</ele>
        <time>2017-07-07T16:51:13Z</time>
      </trkpt>
      <trkpt lat="59.123762919646" lon="18.108848438321">
        <ele>0</ele>
        <time>2017-07-07T16:51:15Z</time>
      </trkpt>
      <trkpt lat="59.123979424123" lon="18.10855515564">
        <ele>0</ele>
        <time>2017-07-07T16:51:19Z</time>
      </trkpt>
      <trkpt lat="59.124142116802" lon="18.108324569571">
        <ele>0</ele>
        <time>2017-07-07T16:51:22Z</time>
      </trkpt>
      <trkpt lat="59.124200706283" lon="18.108244270969">
        <ele>0</ele>
        <time>2017-07-07T16:51:23Z</time>
      </trkpt>
      <trkpt lat="59.124268096759" lon="18.10814947168">
        <ele>0</ele>
        <time>2017-07-07T16:51:24Z</time>
      </trkpt>
      <trkpt lat="59.124336995977" lon="18.108051235812">
        <ele>0</ele>
        <time>2017-07-07T16:51:25Z</time>
      </trkpt>
      <trkpt lat="59.124405308462" lon="18.107952748487">
        <ele>0</ele>
        <time>2017-07-07T16:51:26Z</time>
      </trkpt>
      <trkpt lat="59.124731112915" lon="18.107450924134">
        <ele>0</ele>
        <time>2017-07-07T16:51:31Z</time>
      </trkpt>
      <trkpt lat="59.124797832839" lon="18.107359980519">
        <ele>0</ele>
        <time>2017-07-07T16:51:32Z</time>
      </trkpt>
      <trkpt lat="59.124863211659" lon="18.107283202315">
        <ele>0</ele>
        <time>2017-07-07T16:51:33Z</time>
      </trkpt>
      <trkpt lat="59.124936804741" lon="18.107233162372">
        <ele>0</ele>
        <time>2017-07-07T16:51:34Z</time>
      </trkpt>
      <trkpt lat="59.125016768067" lon="18.107213297269">
        <ele>0</ele>
        <time>2017-07-07T16:51:35Z</time>
      </trkpt>
      <trkpt lat="59.125233356363" lon="18.107127215156">
        <ele>0</ele>
        <time>2017-07-07T16:51:38Z</time>
      </trkpt>
      <trkpt lat="59.125279372994" lon="18.1068821284">
        <ele>0</ele>
        <time>2017-07-07T16:51:40Z</time>
      </trkpt>
      <trkpt lat="59.125206701921" lon="18.1066558171">
        <ele>0</ele>
        <time>2017-07-07T16:51:42Z</time>
      </trkpt>
      <trkpt lat="59.125078710308" lon="18.106518605397">
        <ele>0</ele>
        <time>2017-07-07T16:51:44Z</time>
      </trkpt>
      <trkpt lat="59.125018779723" lon="18.106441072822">
        <ele>0</ele>
        <time>2017-07-07T16:51:45Z</time>
      </trkpt>
      <trkpt lat="59.124655591996" lon="18.105882000092">
        <ele>0</ele>
        <time>2017-07-07T16:51:51Z</time>
      </trkpt>
      <trkpt lat="59.124337079796" lon="18.105340110257">
        <ele>0</ele>
        <time>2017-07-07T16:51:56Z</time>
      </trkpt>
      <trkpt lat="59.1242797476" lon="18.105213459748">
        <ele>0</ele>
        <time>2017-07-07T16:51:57Z</time>
      </trkpt>
      <trkpt lat="59.12422358887" lon="18.10508085809">
        <ele>0</ele>
        <time>2017-07-07T16:51:58Z</time>
      </trkpt>
      <trkpt lat="59.124169441796" lon="18.104945825681">
        <ele>0</ele>
        <time>2017-07-07T16:51:59Z</time>
      </trkpt>
      <trkpt lat="59.124119234215" lon="18.104804590666">
        <ele>0</ele>
        <time>2017-07-07T16:52:00Z</time>
      </trkpt>
      <trkpt lat="59.124075313059" lon="18.104649944611">
        <ele>0</ele>
        <time>2017-07-07T16:52:01Z</time>
      </trkpt>
      <trkpt lat="59.124036923957" lon="18.104489850321">
        <ele>0</ele>
        <time>2017-07-07T16:52:02Z</time>
      </trkpt>
      <trkpt lat="59.123998367217" lon="18.104318775742">
        <ele>0</ele>
        <time>2017-07-07T16:52:03Z</time>
      </trkpt>
      <trkpt lat="59.123906585412" lon="18.103837487044">
        <ele>0</ele>
        <time>2017-07-07T16:52:06Z</time>
      </trkpt>
      <trkpt lat="59.123881272074" lon="18.103674207632">
        <ele>0</ele>
        <time>2017-07-07T16:52:07Z</time>
      </trkpt>
      <trkpt lat="59.123854701451" lon="18.103507156365">
        <ele>0</ele>
        <time>2017-07-07T16:52:08Z</time>
      </trkpt>
      <trkpt lat="59.123826957362" lon="18.103334405406">
        <ele>0</ele>
        <time>2017-07-07T16:52:09Z</time>
      </trkpt>
      <trkpt lat="59.123795525237" lon="18.103154865108">
        <ele>0</ele>
        <time>2017-07-07T16:52:10Z</time>
      </trkpt>
      <trkpt lat="59.123690416211" lon="18.102450282594">
        <ele>0</ele>
        <time>2017-07-07T16:52:14Z</time>
      </trkpt>
      <trkpt lat="59.123542475676" lon="18.101501367695">
        <ele>0</ele>
        <time>2017-07-07T16:52:19Z</time>
      </trkpt>
      <trkpt lat="59.123390763286" lon="18.100572317899">
        <ele>0</ele>
        <time>2017-07-07T16:52:24Z</time>
      </trkpt>
      <trkpt lat="59.123174342628" lon="18.099697498996">
        <ele>0</ele>
        <time>2017-07-07T16:52:29Z</time>
      </trkpt>
      <trkpt lat="59.122935793754" lon="18.098784039534">
        <ele>0</ele>
        <time>2017-07-07T16:52:35Z</time>
      </trkpt>
      <trkpt lat="59.12281459148" lon="18.098333763866">
        <ele>0</ele>
        <time>2017-07-07T16:52:39Z</time>
      </trkpt>
      <trkpt lat="59.122790535427" lon="18.098249358133">
        <ele>0</ele>
        <time>2017-07-07T16:52:40Z</time>
      </trkpt>
      <trkpt lat="59.122766982288" lon="18.098168808074">
        <ele>0</ele>
        <time>2017-07-07T16:52:41Z</time>
      </trkpt>
      <trkpt lat="59.122750386126" lon="18.098108039299">
        <ele>0</ele>
        <time>2017-07-07T16:52:42Z</time>
      </trkpt>
      <trkpt lat="59.122738819104" lon="18.09805766408">
        <ele>0</ele>
        <time>2017-07-07T16:52:43Z</time>
      </trkpt>
      <trkpt lat="59.122514435641" lon="18.097234980595">
        <ele>0</ele>
        <time>2017-07-07T16:53:02Z</time>
      </trkpt>
      <trkpt lat="59.122483338792" lon="18.097125764438">
        <ele>0</ele>
        <time>2017-07-07T16:53:03Z</time>
      </trkpt>
      <trkpt lat="59.122350737134" lon="18.09660508081">
        <ele>0</ele>
        <time>2017-07-07T16:53:07Z</time>
      </trkpt>
      <trkpt lat="59.122247639764" lon="18.096164025232">
        <ele>0</ele>
        <time>2017-07-07T16:53:10Z</time>
      </trkpt>
      <trkpt lat="59.122181506573" lon="18.09581299126">
        <ele>0</ele>
        <time>2017-07-07T16:53:12Z</time>
      </trkpt>
      <trkpt lat="59.122148984801" lon="18.095640910853">
        <ele>0</ele>
        <time>2017-07-07T16:53:13Z</time>
      </trkpt>
      <trkpt lat="59.122122162721" lon="18.095471680292">
        <ele>0</ele>
        <time>2017-07-07T16:53:14Z</time>
      </trkpt>
      <trkpt lat="59.122098441944" lon="18.0953067245">
        <ele>0</ele>
        <time>2017-07-07T16:53:15Z</time>
      </trkpt>
      <trkpt lat="59.122076062271" lon="18.09514327745">
        <ele>0</ele>
        <time>2017-07-07T16:53:16Z</time>
      </trkpt>
      <trkpt lat="59.122055610435" lon="18.094976645278">
        <ele>0</ele>
        <time>2017-07-07T16:53:17Z</time>
      </trkpt>
      <trkpt lat="59.122010599632" lon="18.09445763803">
        <ele>0</ele>
        <time>2017-07-07T16:53:20Z</time>
      </trkpt>
      <trkpt lat="59.122005235216" lon="18.094294777713">
        <ele>0</ele>
        <time>2017-07-07T16:53:21Z</time>
      </trkpt>
      <trkpt lat="59.122001379542" lon="18.09413242031">
        <ele>0</ele>
        <time>2017-07-07T16:53:22Z</time>
      </trkpt>
      <trkpt lat="59.121998613515" lon="18.093977941893">
        <ele>0</ele>
        <time>2017-07-07T16:53:23Z</time>
      </trkpt>
      <trkpt lat="59.121997020954" lon="18.093813489015">
        <ele>0</ele>
        <time>2017-07-07T16:53:24Z</time>
      </trkpt>
      <trkpt lat="59.121993249099" lon="18.093322142037">
        <ele>0</ele>
        <time>2017-07-07T16:53:27Z</time>
      </trkpt>
      <trkpt lat="59.121994087289" lon="18.09316682543">
        <ele>0</ele>
        <time>2017-07-07T16:53:28Z</time>
      </trkpt>
      <trkpt lat="59.121994087289" lon="18.093009497167">
        <ele>0</ele>
        <time>2017-07-07T16:53:29Z</time>
      </trkpt>
      <trkpt lat="59.12199484166" lon="18.092846469212">
        <ele>0</ele>
        <time>2017-07-07T16:53:30Z</time>
      </trkpt>
      <trkpt lat="59.121995763669" lon="18.092673299158">
        <ele>0</ele>
        <time>2017-07-07T16:53:31Z</time>
      </trkpt>
      <trkpt lat="59.122001295723" lon="18.09216518838">
        <ele>0</ele>
        <time>2017-07-07T16:53:34Z</time>
      </trkpt>
      <trkpt lat="59.121995093117" lon="18.091669482814">
        <ele>0</ele>
        <time>2017-07-07T16:53:37Z</time>
      </trkpt>
      <trkpt lat="59.121989896339" lon="18.091504107927">
        <ele>0</ele>
        <time>2017-07-07T16:53:38Z</time>
      </trkpt>
      <trkpt lat="59.121982687905" lon="18.091338146307">
        <ele>0</ele>
        <time>2017-07-07T16:53:39Z</time>
      </trkpt>
      <trkpt lat="59.121973383996" lon="18.091163718968">
        <ele>0</ele>
        <time>2017-07-07T16:53:40Z</time>
      </trkpt>
      <trkpt lat="59.121904233321" lon="18.089970220227">
        <ele>0</ele>
        <time>2017-07-07T16:53:47Z</time>
      </trkpt>
      <trkpt lat="59.121850002428" lon="18.089076625868">
        <ele>0</ele>
        <time>2017-07-07T16:53:52Z</time>
      </trkpt>
      <trkpt lat="59.121838183949" lon="18.08889289462">
        <ele>0</ele>
        <time>2017-07-07T16:53:53Z</time>
      </trkpt>
      <trkpt lat="59.121826616927" lon="18.088702793128">
        <ele>0</ele>
        <time>2017-07-07T16:53:54Z</time>
      </trkpt>
      <trkpt lat="59.121815385181" lon="18.088502465718">
        <ele>0</ele>
        <time>2017-07-07T16:53:55Z</time>
      </trkpt>
      <trkpt lat="59.12180541072" lon="18.088312196588">
        <ele>0</ele>
        <time>2017-07-07T16:53:56Z</time>
      </trkpt>
      <trkpt lat="59.121741289185" lon="18.087188351436">
        <ele>0</ele>
        <time>2017-07-07T16:54:02Z</time>
      </trkpt>
      <trkpt lat="59.121730225077" lon="18.087002189437">
        <ele>0</ele>
        <time>2017-07-07T16:54:03Z</time>
      </trkpt>
      <trkpt lat="59.121718071322" lon="18.086808735185">
        <ele>0</ele>
        <time>2017-07-07T16:54:04Z</time>
      </trkpt>
      <trkpt lat="59.121706755757" lon="18.086621902634">
        <ele>0</ele>
        <time>2017-07-07T16:54:05Z</time>
      </trkpt>
      <trkpt lat="59.121695691649" lon="18.086434399531">
        <ele>0</ele>
        <time>2017-07-07T16:54:06Z</time>
      </trkpt>
      <trkpt lat="59.12168554955" lon="18.086247650799">
        <ele>0</ele>
        <time>2017-07-07T16:54:07Z</time>
      </trkpt>
      <trkpt lat="59.121654201244" lon="18.085686650232">
        <ele>0</ele>
        <time>2017-07-07T16:54:10Z</time>
      </trkpt>
      <trkpt lat="59.1216310672" lon="18.085310638198">
        <ele>0</ele>
        <time>2017-07-07T16:54:12Z</time>
      </trkpt>
      <trkpt lat="59.121617237065" lon="18.085121374896">
        <ele>0</ele>
        <time>2017-07-07T16:54:13Z</time>
      </trkpt>
      <trkpt lat="59.121600724722" lon="18.08492574135">
        <ele>0</ele>
        <time>2017-07-07T16:54:14Z</time>
      </trkpt>
      <trkpt lat="59.121581194895" lon="18.084729101976">
        <ele>0</ele>
        <time>2017-07-07T16:54:15Z</time>
      </trkpt>
      <trkpt lat="59.121556552109" lon="18.084527098186">
        <ele>0</ele>
        <time>2017-07-07T16:54:16Z</time>
      </trkpt>
      <trkpt lat="59.121492179117" lon="18.084127700651">
        <ele>0</ele>
        <time>2017-07-07T16:54:18Z</time>
      </trkpt>
      <trkpt lat="59.121449682884" lon="18.083930474544">
        <ele>0</ele>
        <time>2017-07-07T16:54:19Z</time>
      </trkpt>
      <trkpt lat="59.121405007357" lon="18.083747916762">
        <ele>0</ele>
        <time>2017-07-07T16:54:20Z</time>
      </trkpt>
      <trkpt lat="59.121359745097" lon="18.083566700084">
        <ele>0</ele>
        <time>2017-07-07T16:54:21Z</time>
      </trkpt>
      <trkpt lat="59.121312890276" lon="18.083387578881">
        <ele>0</ele>
        <time>2017-07-07T16:54:22Z</time>
      </trkpt>
      <trkpt lat="59.12126729274" lon="18.083213738275">
        <ele>0</ele>
        <time>2017-07-07T16:54:23Z</time>
      </trkpt>
      <trkpt lat="59.121220018824" lon="18.0830356229">
        <ele>0</ele>
        <time>2017-07-07T16:54:24Z</time>
      </trkpt>
      <trkpt lat="59.121075011954" lon="18.08252013605">
        <ele>0</ele>
        <time>2017-07-07T16:54:27Z</time>
      </trkpt>
      <trkpt lat="59.120801510557" lon="18.081570550599">
        <ele>0</ele>
        <time>2017-07-07T16:54:33Z</time>
      </trkpt>
      <trkpt lat="59.120752308804" lon="18.081408528472">
        <ele>0</ele>
        <time>2017-07-07T16:54:34Z</time>
      </trkpt>
      <trkpt lat="59.120663293026" lon="18.081096637973">
        <ele>0</ele>
        <time>2017-07-07T16:54:36Z</time>
      </trkpt>
      <trkpt lat="59.120533289757" lon="18.08062498846">
        <ele>0</ele>
        <time>2017-07-07T16:54:39Z</time>
      </trkpt>
      <trkpt lat="59.120327178836" lon="18.079790905591">
        <ele>0</ele>
        <time>2017-07-07T16:54:44Z</time>
      </trkpt>
      <trkpt lat="59.120292813046" lon="18.079620753021">
        <ele>0</ele>
        <time>2017-07-07T16:54:45Z</time>
      </trkpt>
      <trkpt lat="59.120258531075" lon="18.079450181356">
        <ele>0</ele>
        <time>2017-07-07T16:54:46Z</time>
      </trkpt>
      <trkpt lat="59.120225925484" lon="18.079278184768">
        <ele>0</ele>
        <time>2017-07-07T16:54:47Z</time>
      </trkpt>
      <trkpt lat="59.120195750644" lon="18.079104344162">
        <ele>0</ele>
        <time>2017-07-07T16:54:48Z</time>
      </trkpt>
      <trkpt lat="59.120063987176" lon="18.078237571883">
        <ele>0</ele>
        <time>2017-07-07T16:54:53Z</time>
      </trkpt>
      <trkpt lat="59.119900875402" lon="18.077113139998">
        <ele>0</ele>
        <time>2017-07-07T16:55:00Z</time>
      </trkpt>
      <trkpt lat="59.119815380022" lon="18.076490867742">
        <ele>0</ele>
        <time>2017-07-07T16:55:04Z</time>
      </trkpt>
      <trkpt lat="59.119791743064" lon="18.076341669922">
        <ele>0</ele>
        <time>2017-07-07T16:55:05Z</time>
      </trkpt>
      <trkpt lat="59.119771207409" lon="18.076197501242">
        <ele>0</ele>
        <time>2017-07-07T16:55:06Z</time>
      </trkpt>
      <trkpt lat="59.119751090849" lon="18.076047213775">
        <ele>0</ele>
        <time>2017-07-07T16:55:07Z</time>
      </trkpt>
      <trkpt lat="59.119730974289" lon="18.075894579376">
        <ele>0</ele>
        <time>2017-07-07T16:55:08Z</time>
      </trkpt>
      <trkpt lat="59.119631062041" lon="18.075225871394">
        <ele>0</ele>
        <time>2017-07-07T16:55:13Z</time>
      </trkpt>
      <trkpt lat="59.119611280757" lon="18.075094527021">
        <ele>0</ele>
        <time>2017-07-07T16:55:14Z</time>
      </trkpt>
      <trkpt lat="59.11959342731" lon="18.074962344458">
        <ele>0</ele>
        <time>2017-07-07T16:55:15Z</time>
      </trkpt>
      <trkpt lat="59.119573813664" lon="18.074830497171">
        <ele>0</ele>
        <time>2017-07-07T16:55:16Z</time>
      </trkpt>
      <trkpt lat="59.119552858914" lon="18.074698230789">
        <ele>0</ele>
        <time>2017-07-07T16:55:17Z</time>
      </trkpt>
      <trkpt lat="59.119504076256" lon="18.074297995064">
        <ele>0</ele>
        <time>2017-07-07T16:55:20Z</time>
      </trkpt>
      <trkpt lat="59.119388573674" lon="18.073501044012">
        <ele>0</ele>
        <time>2017-07-07T16:55:26Z</time>
      </trkpt>
      <trkpt lat="59.119368205657" lon="18.073364754318">
        <ele>0</ele>
        <time>2017-07-07T16:55:27Z</time>
      </trkpt>
      <trkpt lat="59.119349430201" lon="18.073227710253">
        <ele>0</ele>
        <time>2017-07-07T16:55:28Z</time>
      </trkpt>
      <trkpt lat="59.11933023565" lon="18.073088486894">
        <ele>0</ele>
        <time>2017-07-07T16:55:29Z</time>
      </trkpt>
      <trkpt lat="59.119312214565" lon="18.072952448657">
        <ele>0</ele>
        <time>2017-07-07T16:55:30Z</time>
      </trkpt>
      <trkpt lat="59.119198975096" lon="18.072177039088">
        <ele>0</ele>
        <time>2017-07-07T16:55:36Z</time>
      </trkpt>
      <trkpt lat="59.119182378934" lon="18.072053741339">
        <ele>0</ele>
        <time>2017-07-07T16:55:37Z</time>
      </trkpt>
      <trkpt lat="59.119167710609" lon="18.071933125798">
        <ele>0</ele>
        <time>2017-07-07T16:55:38Z</time>
      </trkpt>
      <trkpt lat="59.119157987605" lon="18.07180806785">
        <ele>0</ele>
        <time>2017-07-07T16:55:39Z</time>
      </trkpt>
      <trkpt lat="59.119140553253" lon="18.071682087893">
        <ele>0</ele>
        <time>2017-07-07T16:55:40Z</time>
      </trkpt>
      <trkpt lat="59.119108282938" lon="18.071552168443">
        <ele>0</ele>
        <time>2017-07-07T16:55:41Z</time>
      </trkpt>
      <trkpt lat="59.119064697058" lon="18.071295011751">
        <ele>0</ele>
        <time>2017-07-07T16:55:43Z</time>
      </trkpt>
      <trkpt lat="59.119027984336" lon="18.07104363857">
        <ele>0</ele>
        <time>2017-07-07T16:55:45Z</time>
      </trkpt>
      <trkpt lat="59.119004682654" lon="18.070921095192">
        <ele>0</ele>
        <time>2017-07-07T16:55:46Z</time>
      </trkpt>
      <trkpt lat="59.118983308809" lon="18.070798216538">
        <ele>0</ele>
        <time>2017-07-07T16:55:47Z</time>
      </trkpt>
      <trkpt lat="59.11896729938" lon="18.070670895477">
        <ele>0</ele>
        <time>2017-07-07T16:55:48Z</time>
      </trkpt>
      <trkpt lat="59.118950954675" lon="18.070550363755">
        <ele>0</ele>
        <time>2017-07-07T16:55:49Z</time>
      </trkpt>
      <trkpt lat="59.118931508667" lon="18.070432933336">
        <ele>0</ele>
        <time>2017-07-07T16:55:50Z</time>
      </trkpt>
      <trkpt lat="59.118835452093" lon="18.069828765984">
        <ele>0</ele>
        <time>2017-07-07T16:55:55Z</time>
      </trkpt>
      <trkpt lat="59.118812401868" lon="18.069700774371">
        <ele>0</ele>
        <time>2017-07-07T16:55:56Z</time>
      </trkpt>
      <trkpt lat="59.118784657779" lon="18.069566328695">
        <ele>0</ele>
        <time>2017-07-07T16:55:57Z</time>
      </trkpt>
      <trkpt lat="59.118759260622" lon="18.069434900503">
        <ele>0</ele>
        <time>2017-07-07T16:55:58Z</time>
      </trkpt>
      <trkpt lat="59.118731265076" lon="18.069303137035">
        <ele>0</ele>
        <time>2017-07-07T16:55:59Z</time>
      </trkpt>
      <trkpt lat="59.118557843565" lon="18.068515992806">
        <ele>0</ele>
        <time>2017-07-07T16:56:05Z</time>
      </trkpt>
      <trkpt lat="59.118427002106" lon="18.067997404653">
        <ele>0</ele>
        <time>2017-07-07T16:56:09Z</time>
      </trkpt>
      <trkpt lat="59.118356342689" lon="18.067736224649">
        <ele>0</ele>
        <time>2017-07-07T16:56:11Z</time>
      </trkpt>
      <trkpt lat="59.118104969508" lon="18.066858472081">
        <ele>0</ele>
        <time>2017-07-07T16:56:18Z</time>
      </trkpt>
      <trkpt lat="59.118035064462" lon="18.066613720601">
        <ele>0</ele>
        <time>2017-07-07T16:56:20Z</time>
      </trkpt>
      <trkpt lat="59.118000447215" lon="18.066496290182">
        <ele>0</ele>
        <time>2017-07-07T16:56:21Z</time>
      </trkpt>
      <trkpt lat="59.117965578511" lon="18.066381206695">
        <ele>0</ele>
        <time>2017-07-07T16:56:22Z</time>
      </trkpt>
      <trkpt lat="59.117929536341" lon="18.066265033561">
        <ele>0</ele>
        <time>2017-07-07T16:56:23Z</time>
      </trkpt>
      <trkpt lat="59.117894835275" lon="18.066149866255">
        <ele>0</ele>
        <time>2017-07-07T16:56:24Z</time>
      </trkpt>
      <trkpt lat="59.117714959701" lon="18.065507980353">
        <ele>0</ele>
        <time>2017-07-07T16:56:29Z</time>
      </trkpt>
      <trkpt lat="59.117555703601" lon="18.06499190677">
        <ele>0</ele>
        <time>2017-07-07T16:56:33Z</time>
      </trkpt>
      <trkpt lat="59.117473980076" lon="18.064733073698">
        <ele>0</ele>
        <time>2017-07-07T16:56:35Z</time>
      </trkpt>
      <trkpt lat="59.117168124545" lon="18.06377653127">
        <ele>0</ele>
        <time>2017-07-07T16:56:42Z</time>
      </trkpt>
      <trkpt lat="59.11686595705" lon="18.063015035655">
        <ele>0</ele>
        <time>2017-07-07T16:56:48Z</time>
      </trkpt>
      <trkpt lat="59.116462536203" lon="18.06219319036">
        <ele>0</ele>
        <time>2017-07-07T16:56:55Z</time>
      </trkpt>
      <trkpt lat="59.116012428173" lon="18.061472766055">
        <ele>0</ele>
        <time>2017-07-07T16:57:02Z</time>
      </trkpt>
      <trkpt lat="59.115948893371" lon="18.061373272902">
        <ele>0</ele>
        <time>2017-07-07T16:57:03Z</time>
      </trkpt>
      <trkpt lat="59.115751667264" lon="18.061065992448">
        <ele>0</ele>
        <time>2017-07-07T16:57:06Z</time>
      </trkpt>
      <trkpt lat="59.115684444426" lon="18.060967505123">
        <ele>0</ele>
        <time>2017-07-07T16:57:07Z</time>
      </trkpt>
      <trkpt lat="59.115617808321" lon="18.060874214576">
        <ele>0</ele>
        <time>2017-07-07T16:57:08Z</time>
      </trkpt>
      <trkpt lat="59.115545723981" lon="18.060767512989">
        <ele>0</ele>
        <time>2017-07-07T16:57:09Z</time>
      </trkpt>
      <trkpt lat="59.115475148383" lon="18.060670702044">
        <ele>0</ele>
        <time>2017-07-07T16:57:10Z</time>
      </trkpt>
      <trkpt lat="59.114989584916" lon="18.059927646609">
        <ele>0</ele>
        <time>2017-07-07T16:57:17Z</time>
      </trkpt>
      <trkpt lat="59.114533693375" lon="18.059156092714">
        <ele>0</ele>
        <time>2017-07-07T16:57:24Z</time>
      </trkpt>
      <trkpt lat="59.114282823108" lon="18.058547399136">
        <ele>0</ele>
        <time>2017-07-07T16:57:29Z</time>
      </trkpt>
      <trkpt lat="59.113989456608" lon="18.057642573031">
        <ele>0</ele>
        <time>2017-07-07T16:57:36Z</time>
      </trkpt>
      <trkpt lat="59.11370849532" lon="18.056698603453">
        <ele>0</ele>
        <time>2017-07-07T16:57:43Z</time>
      </trkpt>
      <trkpt lat="59.113663400698" lon="18.056566253252">
        <ele>0</ele>
        <time>2017-07-07T16:57:44Z</time>
      </trkpt>
      <trkpt lat="59.113441615624" lon="18.0558866488">
        <ele>0</ele>
        <time>2017-07-07T16:57:49Z</time>
      </trkpt>
      <trkpt lat="59.113285125551" lon="18.055332186115">
        <ele>0</ele>
        <time>2017-07-07T16:57:53Z</time>
      </trkpt>
      <trkpt lat="59.113284538818" lon="18.055171169816">
        <ele>0</ele>
        <time>2017-07-07T16:57:54Z</time>
      </trkpt>
      <trkpt lat="59.113403477979" lon="18.054720558872">
        <ele>0</ele>
        <time>2017-07-07T16:57:57Z</time>
      </trkpt>
      <trkpt lat="59.113541863148" lon="18.054479663066">
        <ele>0</ele>
        <time>2017-07-07T16:57:59Z</time>
      </trkpt>
      <trkpt lat="59.113614701859" lon="18.054352928738">
        <ele>0</ele>
        <time>2017-07-07T16:58:00Z</time>
      </trkpt>
      <trkpt lat="59.11369005514" lon="18.054235582138">
        <ele>0</ele>
        <time>2017-07-07T16:58:01Z</time>
      </trkpt>
      <trkpt lat="59.113770186104" lon="18.054144219428">
        <ele>0</ele>
        <time>2017-07-07T16:58:02Z</time>
      </trkpt>
      <trkpt lat="59.113853083095" lon="18.054060484247">
        <ele>0</ele>
        <time>2017-07-07T16:58:03Z</time>
      </trkpt>
      <trkpt lat="59.114116526212" lon="18.053858396638">
        <ele>0</ele>
        <time>2017-07-07T16:58:06Z</time>
      </trkpt>
      <trkpt lat="59.114209984397" lon="18.053811374179">
        <ele>0</ele>
        <time>2017-07-07T16:58:07Z</time>
      </trkpt>
      <trkpt lat="59.114306376247" lon="18.053769799955">
        <ele>0</ele>
        <time>2017-07-07T16:58:08Z</time>
      </trkpt>
      <trkpt lat="59.114493711712" lon="18.053669887707">
        <ele>0</ele>
        <time>2017-07-07T16:58:10Z</time>
      </trkpt>
      <trkpt lat="59.114682555919" lon="18.053525132294">
        <ele>0</ele>
        <time>2017-07-07T16:58:12Z</time>
      </trkpt>
      <trkpt lat="59.11483921363" lon="18.053276022226">
        <ele>0</ele>
        <time>2017-07-07T16:58:14Z</time>
      </trkpt>
      <trkpt lat="59.114990339287" lon="18.052794230614">
        <ele>0</ele>
        <time>2017-07-07T16:58:17Z</time>
      </trkpt>
      <trkpt lat="59.114999727015" lon="18.05224722782">
        <ele>0</ele>
        <time>2017-07-07T16:58:20Z</time>
      </trkpt>
      <trkpt lat="59.114996960988" lon="18.052057293966">
        <ele>0</ele>
        <time>2017-07-07T16:58:21Z</time>
      </trkpt>
      <trkpt lat="59.115047755302" lon="18.051689412375">
        <ele>0</ele>
        <time>2017-07-07T16:58:23Z</time>
      </trkpt>
      <trkpt lat="59.115162419694" lon="18.05141239058">
        <ele>0</ele>
        <time>2017-07-07T16:58:25Z</time>
      </trkpt>
      <trkpt lat="59.115223691383" lon="18.051282722587">
        <ele>0</ele>
        <time>2017-07-07T16:58:26Z</time>
      </trkpt>
      <trkpt lat="59.115297116827" lon="18.051178703208">
        <ele>0</ele>
        <time>2017-07-07T16:58:27Z</time>
      </trkpt>
      <trkpt lat="59.115372051013" lon="18.051100248624">
        <ele>0</ele>
        <time>2017-07-07T16:58:28Z</time>
      </trkpt>
      <trkpt lat="59.115440028222" lon="18.051028331922">
        <ele>0</ele>
        <time>2017-07-07T16:58:29Z</time>
      </trkpt>
      <trkpt lat="59.115510855277" lon="18.050961947274">
        <ele>0</ele>
        <time>2017-07-07T16:58:30Z</time>
      </trkpt>
      <trkpt lat="59.115579419219" lon="18.050885085251">
        <ele>0</ele>
        <time>2017-07-07T16:58:31Z</time>
      </trkpt>
      <trkpt lat="59.115640104175" lon="18.050800595699">
        <ele>0</ele>
        <time>2017-07-07T16:58:32Z</time>
      </trkpt>
      <trkpt lat="59.115698693656" lon="18.050703030383">
        <ele>0</ele>
        <time>2017-07-07T16:58:33Z</time>
      </trkpt>
      <trkpt lat="59.115747476314" lon="18.050585264688">
        <ele>0</ele>
        <time>2017-07-07T16:58:34Z</time>
      </trkpt>
      <trkpt lat="59.115794582592" lon="18.05043757561">
        <ele>0</ele>
        <time>2017-07-07T16:58:35Z</time>
      </trkpt>
      <trkpt lat="59.115831546771" lon="18.050265914298">
        <ele>0</ele>
        <time>2017-07-07T16:58:36Z</time>
      </trkpt>
      <trkpt lat="59.115852836797" lon="18.049865259478">
        <ele>0</ele>
        <time>2017-07-07T16:58:38Z</time>
      </trkpt>
      <trkpt lat="59.11584001249" lon="18.049666859905">
        <ele>0</ele>
        <time>2017-07-07T16:58:39Z</time>
      </trkpt>
      <trkpt lat="59.115812100763" lon="18.049461335717">
        <ele>0</ele>
        <time>2017-07-07T16:58:40Z</time>
      </trkpt>
      <trkpt lat="59.115764659209" lon="18.049269222569">
        <ele>0</ele>
        <time>2017-07-07T16:58:41Z</time>
      </trkpt>
      <trkpt lat="59.11571679856" lon="18.049104182958">
        <ele>0</ele>
        <time>2017-07-07T16:58:42Z</time>
      </trkpt>
      <trkpt lat="59.115662735305" lon="18.048928330696">
        <ele>0</ele>
        <time>2017-07-07T16:58:43Z</time>
      </trkpt>
      <trkpt lat="59.115608923507" lon="18.048760189782">
        <ele>0</ele>
        <time>2017-07-07T16:58:44Z</time>
      </trkpt>
      <trkpt lat="59.115557626279" lon="18.048595653085">
        <ele>0</ele>
        <time>2017-07-07T16:58:45Z</time>
      </trkpt>
      <trkpt lat="59.115509430354" lon="18.048431703121">
        <ele>0</ele>
        <time>2017-07-07T16:58:46Z</time>
      </trkpt>
      <trkpt lat="59.1154703707" lon="18.048266160596">
        <ele>0</ele>
        <time>2017-07-07T16:58:47Z</time>
      </trkpt>
      <trkpt lat="59.115431311046" lon="18.048080166235">
        <ele>0</ele>
        <time>2017-07-07T16:58:48Z</time>
      </trkpt>
      <trkpt lat="59.11530943822" lon="18.047536013287">
        <ele>0</ele>
        <time>2017-07-07T16:58:51Z</time>
      </trkpt>
      <trkpt lat="59.115058567953" lon="18.046666726438">
        <ele>0</ele>
        <time>2017-07-07T16:58:56Z</time>
      </trkpt>
      <trkpt lat="59.115028225475" lon="18.046474780928">
        <ele>0</ele>
        <time>2017-07-07T16:58:57Z</time>
      </trkpt>
      <trkpt lat="59.115014143883" lon="18.046257605899">
        <ele>0</ele>
        <time>2017-07-07T16:58:58Z</time>
      </trkpt>
      <trkpt lat="59.115013389512" lon="18.046055266833">
        <ele>0</ele>
        <time>2017-07-07T16:58:59Z</time>
      </trkpt>
      <trkpt lat="59.115030572407" lon="18.045847479532">
        <ele>0</ele>
        <time>2017-07-07T16:59:00Z</time>
      </trkpt>
      <trkpt lat="59.115065860206" lon="18.045652013624">
        <ele>0</ele>
        <time>2017-07-07T16:59:01Z</time>
      </trkpt>
      <trkpt lat="59.115168035567" lon="18.045285389318">
        <ele>0</ele>
        <time>2017-07-07T16:59:03Z</time>
      </trkpt>
      <trkpt lat="59.115223439926" lon="18.04510249626">
        <ele>0</ele>
        <time>2017-07-07T16:59:04Z</time>
      </trkpt>
      <trkpt lat="59.115386467881" lon="18.044336977333">
        <ele>0</ele>
        <time>2017-07-07T16:59:08Z</time>
      </trkpt>
      <trkpt lat="59.115399459826" lon="18.044145534737">
        <ele>0</ele>
        <time>2017-07-07T16:59:09Z</time>
      </trkpt>
      <trkpt lat="59.115403064043" lon="18.04394076492">
        <ele>0</ele>
        <time>2017-07-07T16:59:10Z</time>
      </trkpt>
      <trkpt lat="59.115408596097" lon="18.043745382831">
        <ele>0</ele>
        <time>2017-07-07T16:59:11Z</time>
      </trkpt>
      <trkpt lat="59.115403064043" lon="18.043516892237">
        <ele>0</ele>
        <time>2017-07-07T16:59:12Z</time>
      </trkpt>
      <trkpt lat="59.115407757907" lon="18.043301980321">
        <ele>0</ele>
        <time>2017-07-07T16:59:13Z</time>
      </trkpt>
      <trkpt lat="59.115411278305" lon="18.043109028983">
        <ele>0</ele>
        <time>2017-07-07T16:59:14Z</time>
      </trkpt>
      <trkpt lat="59.115415217798" lon="18.041991051161">
        <ele>0</ele>
        <time>2017-07-07T16:59:20Z</time>
      </trkpt>
      <trkpt lat="59.115425862811" lon="18.04128202624">
        <ele>0</ele>
        <time>2017-07-07T16:59:24Z</time>
      </trkpt>
      <trkpt lat="59.115425695173" lon="18.041120423208">
        <ele>0</ele>
        <time>2017-07-07T16:59:25Z</time>
      </trkpt>
      <trkpt lat="59.115423012965" lon="18.040963681678">
        <ele>0</ele>
        <time>2017-07-07T16:59:26Z</time>
      </trkpt>
      <trkpt lat="59.115421001309" lon="18.040813729487">
        <ele>0</ele>
        <time>2017-07-07T16:59:27Z</time>
      </trkpt>
      <trkpt lat="59.115418486739" lon="18.040671656282">
        <ele>0</ele>
        <time>2017-07-07T16:59:28Z</time>
      </trkpt>
      <trkpt lat="59.115406416803" lon="18.040536120959">
        <ele>0</ele>
        <time>2017-07-07T16:59:29Z</time>
      </trkpt>
      <trkpt lat="59.115391413202" lon="18.040395137401">
        <ele>0</ele>
        <time>2017-07-07T16:59:30Z</time>
      </trkpt>
      <trkpt lat="59.115360232534" lon="18.040266559055">
        <ele>0</ele>
        <time>2017-07-07T16:59:31Z</time>
      </trkpt>
      <trkpt lat="59.115322178708" lon="18.040149296274">
        <ele>0</ele>
        <time>2017-07-07T16:59:32Z</time>
      </trkpt>
      <trkpt lat="59.115277084086" lon="18.040056676279">
        <ele>0</ele>
        <time>2017-07-07T16:59:33Z</time>
      </trkpt>
      <trkpt lat="59.115223691383" lon="18.039982328826">
        <ele>0</ele>
        <time>2017-07-07T16:59:34Z</time>
      </trkpt>
      <trkpt lat="59.115165437178" lon="18.039932037426">
        <ele>0</ele>
        <time>2017-07-07T16:59:35Z</time>
      </trkpt>
      <trkpt lat="59.115116235425" lon="18.039866490968">
        <ele>0</ele>
        <time>2017-07-07T16:59:36Z</time>
      </trkpt>
      <trkpt lat="59.11507306864" lon="18.039817959767">
        <ele>0</ele>
        <time>2017-07-07T16:59:37Z</time>
      </trkpt>
      <trkpt lat="59.115030404769" lon="18.039757190992">
        <ele>0</ele>
        <time>2017-07-07T16:59:38Z</time>
      </trkpt>
      <trkpt lat="59.114993608228" lon="18.039674545458">
        <ele>0</ele>
        <time>2017-07-07T16:59:39Z</time>
      </trkpt>
      <trkpt lat="59.114970641822" lon="18.039589804449">
        <ele>0</ele>
        <time>2017-07-07T16:59:40Z</time>
      </trkpt>
      <trkpt lat="59.114952620737" lon="18.039501626861">
        <ele>0</ele>
        <time>2017-07-07T16:59:41Z</time>
      </trkpt>
      <trkpt lat="59.114934096738" lon="18.039425267752">
        <ele>0</ele>
        <time>2017-07-07T16:59:42Z</time>
      </trkpt>
      <trkpt lat="59.114918087309" lon="18.039344382417">
        <ele>0</ele>
        <time>2017-07-07T16:59:43Z</time>
      </trkpt>
      <trkpt lat="59.114904760088" lon="18.039255701915">
        <ele>0</ele>
        <time>2017-07-07T16:59:44Z</time>
      </trkpt>
      <trkpt lat="59.114889756487" lon="18.039165093576">
        <ele>0</ele>
        <time>2017-07-07T16:59:45Z</time>
      </trkpt>
      <trkpt lat="59.114873998515" lon="18.039080184929">
        <ele>0</ele>
        <time>2017-07-07T16:59:46Z</time>
      </trkpt>
      <trkpt lat="59.114861593303" lon="18.038998461404">
        <ele>0</ele>
        <time>2017-07-07T16:59:47Z</time>
      </trkpt>
      <trkpt lat="59.114846086788" lon="18.038911289644">
        <ele>0.2</ele>
        <time>2017-07-07T16:59:48Z</time>
      </trkpt>
      <trkpt lat="59.114835525594" lon="18.038834930535">
        <ele>0.6</ele>
        <time>2017-07-07T16:59:49Z</time>
      </trkpt>
      <trkpt lat="59.114830412635" lon="18.038747842594">
        <ele>1</ele>
        <time>2017-07-07T16:59:50Z</time>
      </trkpt>
      <trkpt lat="59.114825299676" lon="18.038658575359">
        <ele>1.4</ele>
        <time>2017-07-07T16:59:51Z</time>
      </trkpt>
      <trkpt lat="59.114807613867" lon="18.038556483817">
        <ele>2</ele>
        <time>2017-07-07T16:59:52Z</time>
      </trkpt>
      <trkpt lat="59.114776684656" lon="18.038392282396">
        <ele>2</ele>
        <time>2017-07-07T16:59:54Z</time>
      </trkpt>
      <trkpt lat="59.114743324694" lon="18.038190446244">
        <ele>2</ele>
        <time>2017-07-07T16:59:56Z</time>
      </trkpt>
      <trkpt lat="59.114719855374" lon="18.037996489078">
        <ele>2</ele>
        <time>2017-07-07T16:59:58Z</time>
      </trkpt>
      <trkpt lat="59.114717843718" lon="18.037889703672">
        <ele>2</ele>
        <time>2017-07-07T16:59:59Z</time>
      </trkpt>
      <trkpt lat="59.114713233673" lon="18.037778727316">
        <ele>2.4</ele>
        <time>2017-07-07T17:00:00Z</time>
      </trkpt>
      <trkpt lat="59.114705773782" lon="18.037667667141">
        <ele>2.8</ele>
        <time>2017-07-07T17:00:01Z</time>
      </trkpt>
      <trkpt lat="59.114703510669" lon="18.037544117935">
        <ele>3.2</ele>
        <time>2017-07-07T17:00:02Z</time>
      </trkpt>
      <trkpt lat="59.114703259212" lon="18.037420149634">
        <ele>3.6</ele>
        <time>2017-07-07T17:00:03Z</time>
      </trkpt>
      <trkpt lat="59.114701415194" lon="18.037278244067">
        <ele>4</ele>
        <time>2017-07-07T17:00:04Z</time>
      </trkpt>
      <trkpt lat="59.114704767954" lon="18.036946991379">
        <ele>4</ele>
        <time>2017-07-07T17:00:06Z</time>
      </trkpt>
      <trkpt lat="59.114711724931" lon="18.036771474393">
        <ele>3.6</ele>
        <time>2017-07-07T17:00:07Z</time>
      </trkpt>
      <trkpt lat="59.114716418795" lon="18.036593023742">
        <ele>3</ele>
        <time>2017-07-07T17:00:08Z</time>
      </trkpt>
      <trkpt lat="59.114719771555" lon="18.03639956949">
        <ele>2.6</ele>
        <time>2017-07-07T17:00:09Z</time>
      </trkpt>
      <trkpt lat="59.114725135971" lon="18.036197398062">
        <ele>1.8</ele>
        <time>2017-07-07T17:00:10Z</time>
      </trkpt>
      <trkpt lat="59.114729913654" lon="18.035983072879">
        <ele>0.4</ele>
        <time>2017-07-07T17:00:11Z</time>
      </trkpt>
      <trkpt lat="59.114736870631" lon="18.035778722157">
        <ele>0</ele>
        <time>2017-07-07T17:00:12Z</time>
      </trkpt>
      <trkpt lat="59.114746928911" lon="18.035581579869">
        <ele>0</ele>
        <time>2017-07-07T17:00:13Z</time>
      </trkpt>
      <trkpt lat="59.114766710195" lon="18.034980681458">
        <ele>0</ele>
        <time>2017-07-07T17:00:16Z</time>
      </trkpt>
      <trkpt lat="59.11474198359" lon="18.034794519459">
        <ele>0</ele>
        <time>2017-07-07T17:00:17Z</time>
      </trkpt>
      <trkpt lat="59.114696134597" lon="18.034646159829">
        <ele>0</ele>
        <time>2017-07-07T17:00:18Z</time>
      </trkpt>
      <trkpt lat="59.114632767433" lon="18.034523364994">
        <ele>0</ele>
        <time>2017-07-07T17:00:19Z</time>
      </trkpt>
      <trkpt lat="59.114560515455" lon="18.034414484113">
        <ele>0</ele>
        <time>2017-07-07T17:00:20Z</time>
      </trkpt>
      <trkpt lat="59.114486000364" lon="18.03430744725">
        <ele>0</ele>
        <time>2017-07-07T17:00:21Z</time>
      </trkpt>
      <trkpt lat="59.1143388142" lon="18.034094211714">
        <ele>0</ele>
        <time>2017-07-07T17:00:23Z</time>
      </trkpt>
      <trkpt lat="59.114196154262" lon="18.03390679243">
        <ele>0</ele>
        <time>2017-07-07T17:00:25Z</time>
      </trkpt>
      <trkpt lat="59.113993144644" lon="18.033607055686">
        <ele>0</ele>
        <time>2017-07-07T17:00:28Z</time>
      </trkpt>
      <trkpt lat="59.113921982313" lon="18.033503539221">
        <ele>0</ele>
        <time>2017-07-07T17:00:29Z</time>
      </trkpt>
      <trkpt lat="59.113792984872" lon="18.033289465495">
        <ele>0</ele>
        <time>2017-07-07T17:00:31Z</time>
      </trkpt>
      <trkpt lat="59.113741520006" lon="18.033178824415">
        <ele>0</ele>
        <time>2017-07-07T17:00:32Z</time>
      </trkpt>
      <trkpt lat="59.113711512804" lon="18.033065417308">
        <ele>0</ele>
        <time>2017-07-07T17:00:33Z</time>
      </trkpt>
      <trkpt lat="59.113692234434" lon="18.032937760971">
        <ele>0</ele>
        <time>2017-07-07T17:00:34Z</time>
      </trkpt>
      <trkpt lat="59.113696425384" lon="18.032793173196">
        <ele>0</ele>
        <time>2017-07-07T17:00:35Z</time>
      </trkpt>
      <trkpt lat="59.113711764261" lon="18.032644059195">
        <ele>0</ele>
        <time>2017-07-07T17:00:36Z</time>
      </trkpt>
      <trkpt lat="59.113730707355" lon="18.032186323636">
        <ele>0</ele>
        <time>2017-07-07T17:00:39Z</time>
      </trkpt>
      <trkpt lat="59.113726348767" lon="18.032038131644">
        <ele>0</ele>
        <time>2017-07-07T17:00:40Z</time>
      </trkpt>
      <trkpt lat="59.113719559428" lon="18.031876947707">
        <ele>0</ele>
        <time>2017-07-07T17:00:41Z</time>
      </trkpt>
      <trkpt lat="59.113714278831" lon="18.031719619444">
        <ele>0</ele>
        <time>2017-07-07T17:00:42Z</time>
      </trkpt>
      <trkpt lat="59.113706316026" lon="18.0315539931">
        <ele>0</ele>
        <time>2017-07-07T17:00:43Z</time>
      </trkpt>
      <trkpt lat="59.113688546398" lon="18.031219052376">
        <ele>0</ele>
        <time>2017-07-07T17:00:45Z</time>
      </trkpt>
      <trkpt lat="59.113704220551" lon="18.030388657543">
        <ele>0</ele>
        <time>2017-07-07T17:00:50Z</time>
      </trkpt>
      <trkpt lat="59.113713105365" lon="18.030206854132">
        <ele>0</ele>
        <time>2017-07-07T17:00:51Z</time>
      </trkpt>
      <trkpt lat="59.113724923844" lon="18.030020859771">
        <ele>0</ele>
        <time>2017-07-07T17:00:52Z</time>
      </trkpt>
      <trkpt lat="59.1137436993" lon="18.029843750224">
        <ele>0</ele>
        <time>2017-07-07T17:00:53Z</time>
      </trkpt>
      <trkpt lat="59.113767420077" lon="18.029670161075">
        <ele>0</ele>
        <time>2017-07-07T17:00:54Z</time>
      </trkpt>
      <trkpt lat="59.113796421451" lon="18.029496823383">
        <ele>0</ele>
        <time>2017-07-07T17:00:55Z</time>
      </trkpt>
      <trkpt lat="59.11382835649" lon="18.029334130704">
        <ele>0</ele>
        <time>2017-07-07T17:00:56Z</time>
      </trkpt>
      <trkpt lat="59.113864817755" lon="18.029173952595">
        <ele>0</ele>
        <time>2017-07-07T17:00:57Z</time>
      </trkpt>
      <trkpt lat="59.11390630816" lon="18.029023078395">
        <ele>0</ele>
        <time>2017-07-07T17:00:58Z</time>
      </trkpt>
      <trkpt lat="59.11395492318" lon="18.028887040158">
        <ele>0</ele>
        <time>2017-07-07T17:00:59Z</time>
      </trkpt>
      <trkpt lat="59.114204117067" lon="18.028456210498">
        <ele>0</ele>
        <time>2017-07-07T17:01:03Z</time>
      </trkpt>
      <trkpt lat="59.114267400412" lon="18.028367613815">
        <ele>0</ele>
        <time>2017-07-07T17:01:04Z</time>
      </trkpt>
      <trkpt lat="59.114449203823" lon="18.028079108817">
        <ele>0</ele>
        <time>2017-07-07T17:01:07Z</time>
      </trkpt>
      <trkpt lat="59.114557749428" lon="18.0278575752">
        <ele>0</ele>
        <time>2017-07-07T17:01:09Z</time>
      </trkpt>
      <trkpt lat="59.114958404248" lon="18.027103790933">
        <ele>0</ele>
        <time>2017-07-07T17:01:16Z</time>
      </trkpt>
      <trkpt lat="59.11508564149" lon="18.026894243433">
        <ele>0</ele>
        <time>2017-07-07T17:01:18Z</time>
      </trkpt>
      <trkpt lat="59.11515018212" lon="18.026799276506">
        <ele>0</ele>
        <time>2017-07-07T17:01:19Z</time>
      </trkpt>
      <trkpt lat="59.115210280343" lon="18.026701795009">
        <ele>0</ele>
        <time>2017-07-07T17:01:20Z</time>
      </trkpt>
      <trkpt lat="59.115276078258" lon="18.026609258833">
        <ele>0</ele>
        <time>2017-07-07T17:01:21Z</time>
      </trkpt>
      <trkpt lat="59.115337685223" lon="18.026521248883">
        <ele>0</ele>
        <time>2017-07-07T17:01:22Z</time>
      </trkpt>
      <trkpt lat="59.11558687911" lon="18.026164347581">
        <ele>0</ele>
        <time>2017-07-07T17:01:26Z</time>
      </trkpt>
      <trkpt lat="59.115654353405" lon="18.026076505269">
        <ele>0</ele>
        <time>2017-07-07T17:01:27Z</time>
      </trkpt>
      <trkpt lat="59.115723252623" lon="18.025985310197">
        <ele>0</ele>
        <time>2017-07-07T17:01:28Z</time>
      </trkpt>
      <trkpt lat="59.115790810737" lon="18.025899060446">
        <ele>0</ele>
        <time>2017-07-07T17:01:29Z</time>
      </trkpt>
      <trkpt lat="59.116153076455" lon="18.025430512236">
        <ele>0</ele>
        <time>2017-07-07T17:01:34Z</time>
      </trkpt>
      <trkpt lat="59.116499248925" lon="18.024777981321">
        <ele>0</ele>
        <time>2017-07-07T17:01:40Z</time>
      </trkpt>
      <trkpt lat="59.116811977614" lon="18.024004918684">
        <ele>0</ele>
        <time>2017-07-07T17:01:46Z</time>
      </trkpt>
      <trkpt lat="59.117159072093" lon="18.023065726789">
        <ele>0</ele>
        <time>2017-07-07T17:01:53Z</time>
      </trkpt>
      <trkpt lat="59.117205340181" lon="18.022932789855">
        <ele>0</ele>
        <time>2017-07-07T17:01:54Z</time>
      </trkpt>
      <trkpt lat="59.117278262711" lon="18.022650236006">
        <ele>0</ele>
        <time>2017-07-07T17:01:56Z</time>
      </trkpt>
      <trkpt lat="59.117326374817" lon="18.022348403787">
        <ele>0</ele>
        <time>2017-07-07T17:01:58Z</time>
      </trkpt>
      <trkpt lat="59.117419916821" lon="18.021420695095">
        <ele>0</ele>
        <time>2017-07-07T17:02:04Z</time>
      </trkpt>
      <trkpt lat="59.117544471855" lon="18.02053598555">
        <ele>0</ele>
        <time>2017-07-07T17:02:10Z</time>
      </trkpt>
      <trkpt lat="59.117742787609" lon="18.019735849376">
        <ele>0</ele>
        <time>2017-07-07T17:02:16Z</time>
      </trkpt>
      <trkpt lat="59.117946886874" lon="18.019056999295">
        <ele>0</ele>
        <time>2017-07-07T17:02:22Z</time>
      </trkpt>
      <trkpt lat="59.117981001207" lon="18.018952979916">
        <ele>0</ele>
        <time>2017-07-07T17:02:23Z</time>
      </trkpt>
      <trkpt lat="59.118013271522" lon="18.018846026872">
        <ele>0</ele>
        <time>2017-07-07T17:02:24Z</time>
      </trkpt>
      <trkpt lat="59.118042272896" lon="18.018735972525">
        <ele>0</ele>
        <time>2017-07-07T17:02:25Z</time>
      </trkpt>
      <trkpt lat="59.118077225419" lon="18.018615776079">
        <ele>0</ele>
        <time>2017-07-07T17:02:26Z</time>
      </trkpt>
      <trkpt lat="59.118115279245" lon="18.018489377027">
        <ele>0</ele>
        <time>2017-07-07T17:02:27Z</time>
      </trkpt>
      <trkpt lat="59.118340919993" lon="18.017606679138">
        <ele>0</ele>
        <time>2017-07-07T17:02:33Z</time>
      </trkpt>
      <trkpt lat="59.118377465077" lon="18.017453709463">
        <ele>0</ele>
        <time>2017-07-07T17:02:34Z</time>
      </trkpt>
      <trkpt lat="59.118414010161" lon="18.017299482503">
        <ele>0</ele>
        <time>2017-07-07T17:02:35Z</time>
      </trkpt>
      <trkpt lat="59.118451058159" lon="18.017144249715">
        <ele>0</ele>
        <time>2017-07-07T17:02:36Z</time>
      </trkpt>
      <trkpt lat="59.118487267967" lon="18.016994381343">
        <ele>0</ele>
        <time>2017-07-07T17:02:37Z</time>
      </trkpt>
      <trkpt lat="59.118637220158" lon="18.016382586462">
        <ele>0</ele>
        <time>2017-07-07T17:02:41Z</time>
      </trkpt>
      <trkpt lat="59.118837212292" lon="18.015443478386">
        <ele>0</ele>
        <time>2017-07-07T17:02:47Z</time>
      </trkpt>
      <trkpt lat="59.119062266307" lon="18.014361626553">
        <ele>0</ele>
        <time>2017-07-07T17:02:54Z</time>
      </trkpt>
      <trkpt lat="59.119107612386" lon="18.014223241384">
        <ele>0</ele>
        <time>2017-07-07T17:02:55Z</time>
      </trkpt>
      <trkpt lat="59.119288996702" lon="18.01391763731">
        <ele>0</ele>
        <time>2017-07-07T17:02:58Z</time>
      </trkpt>
      <trkpt lat="59.119510530319" lon="18.013860388933">
        <ele>0</ele>
        <time>2017-07-07T17:03:01Z</time>
      </trkpt>
      <trkpt lat="59.119575573863" lon="18.013863238779">
        <ele>0</ele>
        <time>2017-07-07T17:03:02Z</time>
      </trkpt>
      <trkpt lat="59.119637348466" lon="18.013867597367">
        <ele>0</ele>
        <time>2017-07-07T17:03:03Z</time>
      </trkpt>
      <trkpt lat="59.119691914635" lon="18.013855778888">
        <ele>0</ele>
        <time>2017-07-07T17:03:04Z</time>
      </trkpt>
      <trkpt lat="59.119743882415" lon="18.013838344536">
        <ele>0</ele>
        <time>2017-07-07T17:03:05Z</time>
      </trkpt>
      <trkpt lat="59.119790653417" lon="18.013811438637">
        <ele>0</ele>
        <time>2017-07-07T17:03:06Z</time>
      </trkpt>
      <trkpt lat="59.1198373406" lon="18.013780677064">
        <ele>0</ele>
        <time>2017-07-07T17:03:07Z</time>
      </trkpt>
      <trkpt lat="59.119882099946" lon="18.013759051762">
        <ele>0</ele>
        <time>2017-07-07T17:03:08Z</time>
      </trkpt>
      <trkpt lat="59.119932558984" lon="18.013736420632">
        <ele>0</ele>
        <time>2017-07-07T17:03:09Z</time>
      </trkpt>
      <trkpt lat="59.119978072701" lon="18.013704653231">
        <ele>0</ele>
        <time>2017-07-07T17:03:10Z</time>
      </trkpt>
      <trkpt lat="59.120020317477" lon="18.013666767043">
        <ele>0</ele>
        <time>2017-07-07T17:03:11Z</time>
      </trkpt>
      <trkpt lat="59.120062226977" lon="18.013634999642">
        <ele>0</ele>
        <time>2017-07-07T17:03:12Z</time>
      </trkpt>
      <trkpt lat="59.120099442613" lon="18.013607590829">
        <ele>0</ele>
        <time>2017-07-07T17:03:13Z</time>
      </trkpt>
      <trkpt lat="59.120131377652" lon="18.01357900855">
        <ele>0</ele>
        <time>2017-07-07T17:03:14Z</time>
      </trkpt>
      <trkpt lat="59.120163815605" lon="18.013547073511">
        <ele>0</ele>
        <time>2017-07-07T17:03:15Z</time>
      </trkpt>
      <trkpt lat="59.120196253558" lon="18.013515976662">
        <ele>0</ele>
        <time>2017-07-07T17:03:16Z</time>
      </trkpt>
      <trkpt lat="59.12022374619" lon="18.013491166238">
        <ele>0</ele>
        <time>2017-07-07T17:03:17Z</time>
      </trkpt>
      <trkpt lat="59.120259453084" lon="18.013456046077">
        <ele>0</ele>
        <time>2017-07-07T17:03:18Z</time>
      </trkpt>
      <trkpt lat="59.120294657064" lon="18.013432492938">
        <ele>0</ele>
        <time>2017-07-07T17:03:19Z</time>
      </trkpt>
      <trkpt lat="59.120321646782" lon="18.013409610351">
        <ele>0</ele>
        <time>2017-07-07T17:03:20Z</time>
      </trkpt>
      <trkpt lat="59.120355425839" lon="18.013367114118">
        <ele>0</ele>
        <time>2017-07-07T17:03:21Z</time>
      </trkpt>
      <trkpt lat="59.120379984806" lon="18.013334173251">
        <ele>0</ele>
        <time>2017-07-07T17:03:22Z</time>
      </trkpt>
      <trkpt lat="59.1203989279" lon="18.013292934303">
        <ele>0</ele>
        <time>2017-07-07T17:03:23Z</time>
      </trkpt>
      <trkpt lat="59.120427174903" lon="18.013258652332">
        <ele>0</ele>
        <time>2017-07-07T17:03:24Z</time>
      </trkpt>
      <trkpt lat="59.120465815462" lon="18.013155135867">
        <ele>0</ele>
        <time>2017-07-07T17:03:26Z</time>
      </trkpt>
      <trkpt lat="59.120492553723" lon="18.013098474223">
        <ele>0</ele>
        <time>2017-07-07T17:03:27Z</time>
      </trkpt>
      <trkpt lat="59.120522309468" lon="18.013041225846">
        <ele>0</ele>
        <time>2017-07-07T17:03:28Z</time>
      </trkpt>
      <trkpt lat="59.120554998878" lon="18.012961430158">
        <ele>1</ele>
        <time>2017-07-07T17:03:29Z</time>
      </trkpt>
      <trkpt lat="59.12060428445" lon="18.012889261999">
        <ele>1</ele>
        <time>2017-07-07T17:03:30Z</time>
      </trkpt>
      <trkpt lat="59.120655581678" lon="18.012823212627">
        <ele>1</ele>
        <time>2017-07-07T17:03:31Z</time>
      </trkpt>
      <trkpt lat="59.120981050855" lon="18.012441836177">
        <ele>1</ele>
        <time>2017-07-07T17:03:37Z</time>
      </trkpt>
      <trkpt lat="59.121378352915" lon="18.012120977045">
        <ele>1</ele>
        <time>2017-07-07T17:03:44Z</time>
      </trkpt>
      <trkpt lat="59.121436942396" lon="18.012096920992">
        <ele>1.4</ele>
        <time>2017-07-07T17:03:45Z</time>
      </trkpt>
      <trkpt lat="59.121497543533" lon="18.01206104646">
        <ele>1.8</ele>
        <time>2017-07-07T17:03:46Z</time>
      </trkpt>
      <trkpt lat="59.121553618444" lon="18.012028776145">
        <ele>2.2</ele>
        <time>2017-07-07T17:03:47Z</time>
      </trkpt>
      <trkpt lat="59.121613213753" lon="18.012012096164">
        <ele>2.6</ele>
        <time>2017-07-07T17:03:48Z</time>
      </trkpt>
      <trkpt lat="59.121666857913" lon="18.011977981831">
        <ele>3</ele>
        <time>2017-07-07T17:03:49Z</time>
      </trkpt>
      <trkpt lat="59.121718825693" lon="18.011935401779">
        <ele>3</ele>
        <time>2017-07-07T17:03:50Z</time>
      </trkpt>
      <trkpt lat="59.122006743958" lon="18.011929366811">
        <ele>3.4</ele>
        <time>2017-07-07T17:03:55Z</time>
      </trkpt>
      <trkpt lat="59.122062902688" lon="18.011941101471">
        <ele>3.8</ele>
        <time>2017-07-07T17:03:56Z</time>
      </trkpt>
      <trkpt lat="59.122117804133" lon="18.011951662665">
        <ele>4.2</ele>
        <time>2017-07-07T17:03:57Z</time>
      </trkpt>
      <trkpt lat="59.12217421432" lon="18.011960128384">
        <ele>4.6</ele>
        <time>2017-07-07T17:03:58Z</time>
      </trkpt>
      <trkpt lat="59.12222953486" lon="18.011970605759">
        <ele>5</ele>
        <time>2017-07-07T17:03:59Z</time>
      </trkpt>
      <trkpt lat="59.122448973002" lon="18.01197890384">
        <ele>5</ele>
        <time>2017-07-07T17:04:03Z</time>
      </trkpt>
      <trkpt lat="59.12261258769" lon="18.011974293795">
        <ele>5.4</ele>
        <time>2017-07-07T17:04:06Z</time>
      </trkpt>
      <trkpt lat="59.122666902402" lon="18.011966666266">
        <ele>6</ele>
        <time>2017-07-07T17:04:07Z</time>
      </trkpt>
      <trkpt lat="59.122721133295" lon="18.011953171407">
        <ele>6.4</ele>
        <time>2017-07-07T17:04:08Z</time>
      </trkpt>
      <trkpt lat="59.122777124387" lon="18.011942945489">
        <ele>6.8</ele>
        <time>2017-07-07T17:04:09Z</time>
      </trkpt>
      <trkpt lat="59.122830349452" lon="18.011927858069">
        <ele>7.2</ele>
        <time>2017-07-07T17:04:10Z</time>
      </trkpt>
      <trkpt lat="59.122935458478" lon="18.011889720424">
        <ele>7.2</ele>
        <time>2017-07-07T17:04:12Z</time>
      </trkpt>
      <trkpt lat="59.122988012991" lon="18.011862814525">
        <ele>7.6</ele>
        <time>2017-07-07T17:04:13Z</time>
      </trkpt>
      <trkpt lat="59.123040399866" lon="18.011827862002">
        <ele>8.2</ele>
        <time>2017-07-07T17:04:14Z</time>
      </trkpt>
      <trkpt lat="59.123091445637" lon="18.011787712701">
        <ele>8.6</ele>
        <time>2017-07-07T17:04:15Z</time>
      </trkpt>
      <trkpt lat="59.123143329598" lon="18.011740522604">
        <ele>9</ele>
        <time>2017-07-07T17:04:16Z</time>
      </trkpt>
      <trkpt lat="59.123188843315" lon="18.011688806281">
        <ele>9.4</ele>
        <time>2017-07-07T17:04:17Z</time>
      </trkpt>
      <trkpt lat="59.123231423367" lon="18.01162267309">
        <ele>9.4</ele>
        <time>2017-07-07T17:04:18Z</time>
      </trkpt>
      <trkpt lat="59.123309542675" lon="18.011465763922">
        <ele>9.4</ele>
        <time>2017-07-07T17:04:20Z</time>
      </trkpt>
      <trkpt lat="59.123541050753" lon="18.010907194106">
        <ele>9.4</ele>
        <time>2017-07-07T17:04:26Z</time>
      </trkpt>
      <trkpt lat="59.123713466436" lon="18.010434287308">
        <ele>9.4</ele>
        <time>2017-07-07T17:04:30Z</time>
      </trkpt>
      <trkpt lat="59.123773564659" lon="18.010310821921">
        <ele>9.4</ele>
        <time>2017-07-07T17:04:31Z</time>
      </trkpt>
      <trkpt lat="59.123843972619" lon="18.010191715122">
        <ele>9</ele>
        <time>2017-07-07T17:04:32Z</time>
      </trkpt>
      <trkpt lat="59.123911530733" lon="18.010060957482">
        <ele>8.4</ele>
        <time>2017-07-07T17:04:33Z</time>
      </trkpt>
      <trkpt lat="59.123969365843" lon="18.00991444187">
        <ele>8</ele>
        <time>2017-07-07T17:04:34Z</time>
      </trkpt>
      <trkpt lat="59.124022926184" lon="18.009758957625">
        <ele>7.4</ele>
        <time>2017-07-07T17:04:35Z</time>
      </trkpt>
      <trkpt lat="59.124065841512" lon="18.009586625761">
        <ele>6.8</ele>
        <time>2017-07-07T17:04:36Z</time>
      </trkpt>
      <trkpt lat="59.124094088515" lon="18.0094090133">
        <ele>6.2</ele>
        <time>2017-07-07T17:04:37Z</time>
      </trkpt>
      <trkpt lat="59.124104649709" lon="18.009218911808">
        <ele>5.2</ele>
        <time>2017-07-07T17:04:38Z</time>
      </trkpt>
      <trkpt lat="59.124097105999" lon="18.009006263005">
        <ele>4.4</ele>
        <time>2017-07-07T17:04:39Z</time>
      </trkpt>
      <trkpt lat="59.12408947847" lon="18.008791015813">
        <ele>3.6</ele>
        <time>2017-07-07T17:04:40Z</time>
      </trkpt>
      <trkpt lat="59.124102805691" lon="18.008599405579">
        <ele>2.8</ele>
        <time>2017-07-07T17:04:41Z</time>
      </trkpt>
      <trkpt lat="59.124124095717" lon="18.008392707925">
        <ele>2</ele>
        <time>2017-07-07T17:04:42Z</time>
      </trkpt>
      <trkpt lat="59.124166424312" lon="18.008210233962">
        <ele>0.2</ele>
        <time>2017-07-07T17:04:43Z</time>
      </trkpt>
      <trkpt lat="59.12422777982" lon="18.008056090821">
        <ele>0</ele>
        <time>2017-07-07T17:04:44Z</time>
      </trkpt>
      <trkpt lat="59.124421569348" lon="18.007694495655">
        <ele>0</ele>
        <time>2017-07-07T17:04:47Z</time>
      </trkpt>
      <trkpt lat="59.124479572096" lon="18.0075817591">
        <ele>0</ele>
        <time>2017-07-07T17:04:48Z</time>
      </trkpt>
      <trkpt lat="59.124691969442" lon="18.007128801224">
        <ele>0</ele>
        <time>2017-07-07T17:04:52Z</time>
      </trkpt>
      <trkpt lat="59.124730274725" lon="18.007006257846">
        <ele>0</ele>
        <time>2017-07-07T17:04:53Z</time>
      </trkpt>
      <trkpt lat="59.124769837293" lon="18.006892599282">
        <ele>0.2</ele>
        <time>2017-07-07T17:04:54Z</time>
      </trkpt>
      <trkpt lat="59.124796827011" lon="18.006769972085">
        <ele>0.6</ele>
        <time>2017-07-07T17:04:55Z</time>
      </trkpt>
      <trkpt lat="59.124818871408" lon="18.006657906082">
        <ele>1</ele>
        <time>2017-07-07T17:04:56Z</time>
      </trkpt>
      <trkpt lat="59.12483211481" lon="18.006549779572">
        <ele>1.6</ele>
        <time>2017-07-07T17:04:57Z</time>
      </trkpt>
      <trkpt lat="59.124844436203" lon="18.006297065287">
        <ele>2</ele>
        <time>2017-07-07T17:04:59Z</time>
      </trkpt>
      <trkpt lat="59.124851057904" lon="18.006158931575">
        <ele>2.4</ele>
        <time>2017-07-07T17:05:00Z</time>
      </trkpt>
      <trkpt lat="59.124849465343" lon="18.006005375167">
        <ele>2.8</ele>
        <time>2017-07-07T17:05:01Z</time>
      </trkpt>
      <trkpt lat="59.124859355985" lon="18.00584502942">
        <ele>3.4</ele>
        <time>2017-07-07T17:05:02Z</time>
      </trkpt>
      <trkpt lat="59.124867654066" lon="18.005701028378">
        <ele>3.8</ele>
        <time>2017-07-07T17:05:03Z</time>
      </trkpt>
      <trkpt lat="59.124909898842" lon="18.005418306891">
        <ele>3.8</ele>
        <time>2017-07-07T17:05:05Z</time>
      </trkpt>
      <trkpt lat="59.125058258472" lon="18.004895108693">
        <ele>3.8</ele>
        <time>2017-07-07T17:05:09Z</time>
      </trkpt>
      <trkpt lat="59.125149872639" lon="18.004694026912">
        <ele>4.2</ele>
        <time>2017-07-07T17:05:11Z</time>
      </trkpt>
      <trkpt lat="59.125206282826" lon="18.004599143804">
        <ele>4.6</ele>
        <time>2017-07-07T17:05:12Z</time>
      </trkpt>
      <trkpt lat="59.125254059656" lon="18.004522030324">
        <ele>5</ele>
        <time>2017-07-07T17:05:13Z</time>
      </trkpt>
      <trkpt lat="59.125302255581" lon="18.004441144989">
        <ele>5.6</ele>
        <time>2017-07-07T17:05:14Z</time>
      </trkpt>
      <trkpt lat="59.12535346899" lon="18.004373754513">
        <ele>6</ele>
        <time>2017-07-07T17:05:15Z</time>
      </trkpt>
      <trkpt lat="59.125402000191" lon="18.00431868543">
        <ele>6.4</ele>
        <time>2017-07-07T17:05:16Z</time>
      </trkpt>
      <trkpt lat="59.125450279935" lon="18.004266466193">
        <ele>6.8</ele>
        <time>2017-07-07T17:05:17Z</time>
      </trkpt>
      <trkpt lat="59.125489004313" lon="18.004207541436">
        <ele>7.2</ele>
        <time>2017-07-07T17:05:18Z</time>
      </trkpt>
      <trkpt lat="59.125527980148" lon="18.004151215068">
        <ele>7.8</ele>
        <time>2017-07-07T17:05:19Z</time>
      </trkpt>
      <trkpt lat="59.125566788345" lon="18.00410243241">
        <ele>8.4</ele>
        <time>2017-07-07T17:05:20Z</time>
      </trkpt>
      <trkpt lat="59.125597130823" lon="18.004052643924">
        <ele>9</ele>
        <time>2017-07-07T17:05:21Z</time>
      </trkpt>
      <trkpt lat="59.125626635111" lon="18.004000927601">
        <ele>9.6</ele>
        <time>2017-07-07T17:05:22Z</time>
      </trkpt>
      <trkpt lat="59.125666365317" lon="18.003931944564">
        <ele>10</ele>
        <time>2017-07-07T17:05:23Z</time>
      </trkpt>
      <trkpt lat="59.12569796508" lon="18.003870505237">
        <ele>10.6</ele>
        <time>2017-07-07T17:05:24Z</time>
      </trkpt>
      <trkpt lat="59.125732414689" lon="18.003793475576">
        <ele>11</ele>
        <time>2017-07-07T17:05:25Z</time>
      </trkpt>
      <trkpt lat="59.125762338072" lon="18.003711668232">
        <ele>11.6</ele>
        <time>2017-07-07T17:05:26Z</time>
      </trkpt>
      <trkpt lat="59.125802487373" lon="18.003628603603">
        <ele>12</ele>
        <time>2017-07-07T17:05:27Z</time>
      </trkpt>
      <trkpt lat="59.125848420185" lon="18.003536067427">
        <ele>12.6</ele>
        <time>2017-07-07T17:05:28Z</time>
      </trkpt>
      <trkpt lat="59.126097111158" lon="18.003092664917">
        <ele>12.6</ele>
        <time>2017-07-07T17:05:33Z</time>
      </trkpt>
      <trkpt lat="59.12627883075" lon="18.00288621872">
        <ele>12.6</ele>
        <time>2017-07-07T17:05:36Z</time>
      </trkpt>
      <trkpt lat="59.126412186779" lon="18.002806506851">
        <ele>12.6</ele>
        <time>2017-07-07T17:05:38Z</time>
      </trkpt>
      <trkpt lat="59.126853745271" lon="18.002562593561">
        <ele>12.6</ele>
        <time>2017-07-07T17:05:44Z</time>
      </trkpt>
      <trkpt lat="59.127264626009" lon="18.002186749165">
        <ele>12.6</ele>
        <time>2017-07-07T17:05:50Z</time>
      </trkpt>
      <trkpt lat="59.127625885899" lon="18.001669753573">
        <ele>12.6</ele>
        <time>2017-07-07T17:05:56Z</time>
      </trkpt>
      <trkpt lat="59.127868206628" lon="18.001086876247">
        <ele>12.6</ele>
        <time>2017-07-07T17:06:01Z</time>
      </trkpt>
      <trkpt lat="59.127941464434" lon="18.000508692785">
        <ele>12.6</ele>
        <time>2017-07-07T17:06:05Z</time>
      </trkpt>
      <trkpt lat="59.127943224633" lon="18.000358824413">
        <ele>12.6</ele>
        <time>2017-07-07T17:06:06Z</time>
      </trkpt>
      <trkpt lat="59.127933669267" lon="18.000210129507">
        <ele>12.6</ele>
        <time>2017-07-07T17:06:07Z</time>
      </trkpt>
      <trkpt lat="59.127910702861" lon="17.999905447442">
        <ele>12.6</ele>
        <time>2017-07-07T17:06:09Z</time>
      </trkpt>
      <trkpt lat="59.127915732001" lon="17.999741413659">
        <ele>12.6</ele>
        <time>2017-07-07T17:06:10Z</time>
      </trkpt>
      <trkpt lat="59.127939452778" lon="17.999428265875">
        <ele>12.6</ele>
        <time>2017-07-07T17:06:12Z</time>
      </trkpt>
      <trkpt lat="59.127953785827" lon="17.999267081938">
        <ele>12.6</ele>
        <time>2017-07-07T17:06:13Z</time>
      </trkpt>
      <trkpt lat="59.127979266803" lon="17.999113106435">
        <ele>12.6</ele>
        <time>2017-07-07T17:06:14Z</time>
      </trkpt>
      <trkpt lat="59.128085800752" lon="17.998662830767">
        <ele>12.6</ele>
        <time>2017-07-07T17:06:17Z</time>
      </trkpt>
      <trkpt lat="59.12830976512" lon="17.99820073662">
        <ele>12.6</ele>
        <time>2017-07-07T17:06:21Z</time>
      </trkpt>
      <trkpt lat="59.128728441025" lon="17.997519707245">
        <ele>12.6</ele>
        <time>2017-07-07T17:06:28Z</time>
      </trkpt>
      <trkpt lat="59.129009905227" lon="17.996864075027">
        <ele>12.6</ele>
        <time>2017-07-07T17:06:34Z</time>
      </trkpt>
      <trkpt lat="59.129038738963" lon="17.996738430346">
        <ele>12.6</ele>
        <time>2017-07-07T17:06:35Z</time>
      </trkpt>
      <trkpt lat="59.12908425268" lon="17.996317575147">
        <ele>12.6</ele>
        <time>2017-07-07T17:06:38Z</time>
      </trkpt>
      <trkpt lat="59.129096154978" lon="17.996166868585">
        <ele>12.6</ele>
        <time>2017-07-07T17:06:39Z</time>
      </trkpt>
      <trkpt lat="59.129098250453" lon="17.996023454276">
        <ele>12.6</ele>
        <time>2017-07-07T17:06:40Z</time>
      </trkpt>
      <trkpt lat="59.129118367013" lon="17.995581560508">
        <ele>12.6</ele>
        <time>2017-07-07T17:06:43Z</time>
      </trkpt>
      <trkpt lat="59.129229930102" lon="17.994825932223">
        <ele>12.6</ele>
        <time>2017-07-07T17:06:48Z</time>
      </trkpt>
      <trkpt lat="59.129261781322" lon="17.994669274512">
        <ele>12</ele>
        <time>2017-07-07T17:06:49Z</time>
      </trkpt>
      <trkpt lat="59.12928709466" lon="17.994505073091">
        <ele>11.6</ele>
        <time>2017-07-07T17:06:50Z</time>
      </trkpt>
      <trkpt lat="59.129305115745" lon="17.994337854186">
        <ele>11.2</ele>
        <time>2017-07-07T17:06:51Z</time>
      </trkpt>
      <trkpt lat="59.129314503473" lon="17.994163678304">
        <ele>10.8</ele>
        <time>2017-07-07T17:06:52Z</time>
      </trkpt>
      <trkpt lat="59.129316263672" lon="17.993973492993">
        <ele>10.4</ele>
        <time>2017-07-07T17:06:53Z</time>
      </trkpt>
      <trkpt lat="59.129312324179" lon="17.993772075936">
        <ele>10</ele>
        <time>2017-07-07T17:06:54Z</time>
      </trkpt>
      <trkpt lat="59.129302936451" lon="17.993584489014">
        <ele>9.6</ele>
        <time>2017-07-07T17:06:55Z</time>
      </trkpt>
      <trkpt lat="59.129287178479" lon="17.993382569043">
        <ele>8.6</ele>
        <time>2017-07-07T17:06:56Z</time>
      </trkpt>
      <trkpt lat="59.129260524037" lon="17.993157934123">
        <ele>7.8</ele>
        <time>2017-07-07T17:06:57Z</time>
      </trkpt>
      <trkpt lat="59.129238898735" lon="17.992937154877">
        <ele>7</ele>
        <time>2017-07-07T17:06:58Z</time>
      </trkpt>
      <trkpt lat="59.129212747207" lon="17.992717130002">
        <ele>6</ele>
        <time>2017-07-07T17:06:59Z</time>
      </trkpt>
      <trkpt lat="59.129186344222" lon="17.992493249453">
        <ele>5</ele>
        <time>2017-07-07T17:07:00Z</time>
      </trkpt>
      <trkpt lat="59.129179219607" lon="17.992232404725">
        <ele>3.8</ele>
        <time>2017-07-07T17:07:01Z</time>
      </trkpt>
      <trkpt lat="59.129184751661" lon="17.992002992122">
        <ele>2.8</ele>
        <time>2017-07-07T17:07:02Z</time>
      </trkpt>
      <trkpt lat="59.129200174357" lon="17.991780117401">
        <ele>1.6</ele>
        <time>2017-07-07T17:07:03Z</time>
      </trkpt>
      <trkpt lat="59.129224398048" lon="17.991545675658">
        <ele>0.6</ele>
        <time>2017-07-07T17:07:04Z</time>
      </trkpt>
      <trkpt lat="59.129256584544" lon="17.991337469262">
        <ele>0</ele>
        <time>2017-07-07T17:07:05Z</time>
      </trkpt>
      <trkpt lat="59.129288687221" lon="17.991109230125">
        <ele>0</ele>
        <time>2017-07-07T17:07:06Z</time>
      </trkpt>
      <trkpt lat="59.129434783738" lon="17.990486622593">
        <ele>0</ele>
        <time>2017-07-07T17:07:09Z</time>
      </trkpt>
      <trkpt lat="59.129508293001" lon="17.990300292956">
        <ele>0</ele>
        <time>2017-07-07T17:07:10Z</time>
      </trkpt>
      <trkpt lat="59.129584903567" lon="17.990113208948">
        <ele>0</ele>
        <time>2017-07-07T17:07:11Z</time>
      </trkpt>
      <trkpt lat="59.1296693093" lon="17.989970381372">
        <ele>0</ele>
        <time>2017-07-07T17:07:12Z</time>
      </trkpt>
      <trkpt lat="59.129754888499" lon="17.989854627333">
        <ele>0</ele>
        <time>2017-07-07T17:07:13Z</time>
      </trkpt>
      <trkpt lat="59.129931495132" lon="17.989645666566">
        <ele>0</ele>
        <time>2017-07-07T17:07:15Z</time>
      </trkpt>
      <trkpt lat="59.130016990512" lon="17.989568720724">
        <ele>0</ele>
        <time>2017-07-07T17:07:16Z</time>
      </trkpt>
      <trkpt lat="59.130187478358" lon="17.989437208713">
        <ele>0</ele>
        <time>2017-07-07T17:07:18Z</time>
      </trkpt>
      <trkpt lat="59.130272722281" lon="17.989397981421">
        <ele>0</ele>
        <time>2017-07-07T17:07:19Z</time>
      </trkpt>
      <trkpt lat="59.130358385299" lon="17.989398316697">
        <ele>0</ele>
        <time>2017-07-07T17:07:20Z</time>
      </trkpt>
      <trkpt lat="59.130436420788" lon="17.989397478507">
        <ele>0</ele>
        <time>2017-07-07T17:07:21Z</time>
      </trkpt>
      <trkpt lat="59.130509343318" lon="17.989405357493">
        <ele>0</ele>
        <time>2017-07-07T17:07:22Z</time>
      </trkpt>
      <trkpt lat="59.130576901432" lon="17.989413320298">
        <ele>0</ele>
        <time>2017-07-07T17:07:23Z</time>
      </trkpt>
      <trkpt lat="59.130642531709" lon="17.989419941999">
        <ele>0</ele>
        <time>2017-07-07T17:07:24Z</time>
      </trkpt>
      <trkpt lat="59.130704138674" lon="17.989413068841">
        <ele>0.6</ele>
        <time>2017-07-07T17:07:25Z</time>
      </trkpt>
      <trkpt lat="59.130769685132" lon="17.989399322525">
        <ele>1.2</ele>
        <time>2017-07-07T17:07:26Z</time>
      </trkpt>
      <trkpt lat="59.130830453907" lon="17.989380379431">
        <ele>2</ele>
        <time>2017-07-07T17:07:27Z</time>
      </trkpt>
      <trkpt lat="59.130888540474" lon="17.989351880971">
        <ele>2.6</ele>
        <time>2017-07-07T17:07:28Z</time>
      </trkpt>
      <trkpt lat="59.130945956489" lon="17.98930167339">
        <ele>3.2</ele>
        <time>2017-07-07T17:07:29Z</time>
      </trkpt>
      <trkpt lat="59.131001528486" lon="17.989255656759">
        <ele>3.6</ele>
        <time>2017-07-07T17:07:30Z</time>
      </trkpt>
      <trkpt lat="59.131053831542" lon="17.989200084762">
        <ele>4.2</ele>
        <time>2017-07-07T17:07:31Z</time>
      </trkpt>
      <trkpt lat="59.131101692191" lon="17.989133616295">
        <ele>4.8</ele>
        <time>2017-07-07T17:07:32Z</time>
      </trkpt>
      <trkpt lat="59.131186852295" lon="17.988986094855">
        <ele>5.2</ele>
        <time>2017-07-07T17:07:34Z</time>
      </trkpt>
      <trkpt lat="59.131223062103" lon="17.988909232832">
        <ele>6.2</ele>
        <time>2017-07-07T17:07:35Z</time>
      </trkpt>
      <trkpt lat="59.131254997142" lon="17.988824324185">
        <ele>6.6</ele>
        <time>2017-07-07T17:07:36Z</time>
      </trkpt>
      <trkpt lat="59.131286764543" lon="17.988737990615">
        <ele>7</ele>
        <time>2017-07-07T17:07:37Z</time>
      </trkpt>
      <trkpt lat="59.131313921899" lon="17.988646963181">
        <ele>7</ele>
        <time>2017-07-07T17:07:38Z</time>
      </trkpt>
      <trkpt lat="59.13139430432" lon="17.988393410706">
        <ele>7.4</ele>
        <time>2017-07-07T17:07:41Z</time>
      </trkpt>
      <trkpt lat="59.131421796952" lon="17.988304730204">
        <ele>7.8</ele>
        <time>2017-07-07T17:07:42Z</time>
      </trkpt>
      <trkpt lat="59.131447445566" lon="17.988221581756">
        <ele>8.2</ele>
        <time>2017-07-07T17:07:43Z</time>
      </trkpt>
      <trkpt lat="59.13147057961" lon="17.988135415824">
        <ele>8.6</ele>
        <time>2017-07-07T17:07:44Z</time>
      </trkpt>
      <trkpt lat="59.131491785817" lon="17.988045058942">
        <ele>9</ele>
        <time>2017-07-07T17:07:45Z</time>
      </trkpt>
      <trkpt lat="59.13154936947" lon="17.987813299407">
        <ele>9.4</ele>
        <time>2017-07-07T17:07:48Z</time>
      </trkpt>
      <trkpt lat="59.131569234573" lon="17.987735850651">
        <ele>10</ele>
        <time>2017-07-07T17:07:49Z</time>
      </trkpt>
      <trkpt lat="59.131582394156" lon="17.987678853731">
        <ele>10.4</ele>
        <time>2017-07-07T17:07:50Z</time>
      </trkpt>
      <trkpt lat="59.131600750517" lon="17.987608026676">
        <ele>11</ele>
        <time>2017-07-07T17:07:51Z</time>
      </trkpt>
      <trkpt lat="59.131613742462" lon="17.987525632599">
        <ele>11.4</ele>
        <time>2017-07-07T17:07:52Z</time>
      </trkpt>
      <trkpt lat="59.131625812398" lon="17.987449860223">
        <ele>11.8</ele>
        <time>2017-07-07T17:07:53Z</time>
      </trkpt>
      <trkpt lat="59.131635535402" lon="17.987385822507">
        <ele>12.2</ele>
        <time>2017-07-07T17:07:54Z</time>
      </trkpt>
      <trkpt lat="59.131639474895" lon="17.987308960484">
        <ele>12.6</ele>
        <time>2017-07-07T17:07:55Z</time>
      </trkpt>
      <trkpt lat="59.131639223438" lon="17.987208126227">
        <ele>13</ele>
        <time>2017-07-07T17:07:56Z</time>
      </trkpt>
      <trkpt lat="59.131640313085" lon="17.987116679698">
        <ele>13.4</ele>
        <time>2017-07-07T17:07:57Z</time>
      </trkpt>
      <trkpt lat="59.131630590081" lon="17.987027077187">
        <ele>13.4</ele>
        <time>2017-07-07T17:07:58Z</time>
      </trkpt>
      <trkpt lat="59.131590524599" lon="17.986748211374">
        <ele>13.4</ele>
        <time>2017-07-07T17:08:01Z</time>
      </trkpt>
      <trkpt lat="59.131469322325" lon="17.986049244733">
        <ele>13.4</ele>
        <time>2017-07-07T17:08:08Z</time>
      </trkpt>
      <trkpt lat="59.131391873569" lon="17.985576002659">
        <ele>13.4</ele>
        <time>2017-07-07T17:08:12Z</time>
      </trkpt>
      <trkpt lat="59.131355077028" lon="17.985341560916">
        <ele>13.4</ele>
        <time>2017-07-07T17:08:14Z</time>
      </trkpt>
      <trkpt lat="59.131228845614" lon="17.984582328414">
        <ele>13.4</ele>
        <time>2017-07-07T17:08:21Z</time>
      </trkpt>
      <trkpt lat="59.13121576985" lon="17.984473866628">
        <ele>13.8</ele>
        <time>2017-07-07T17:08:22Z</time>
      </trkpt>
      <trkpt lat="59.131207220312" lon="17.984367751774">
        <ele>14.2</ele>
        <time>2017-07-07T17:08:23Z</time>
      </trkpt>
      <trkpt lat="59.131204119009" lon="17.984264654404">
        <ele>14.8</ele>
        <time>2017-07-07T17:08:24Z</time>
      </trkpt>
      <trkpt lat="59.131208477597" lon="17.984164658337">
        <ele>15.6</ele>
        <time>2017-07-07T17:08:25Z</time>
      </trkpt>
      <trkpt lat="59.131216021307" lon="17.984055358361">
        <ele>15.6</ele>
        <time>2017-07-07T17:08:26Z</time>
      </trkpt>
      <trkpt lat="59.131216943316" lon="17.983960642891">
        <ele>16</ele>
        <time>2017-07-07T17:08:27Z</time>
      </trkpt>
      <trkpt lat="59.131226498682" lon="17.983858551349">
        <ele>16.4</ele>
        <time>2017-07-07T17:08:28Z</time>
      </trkpt>
      <trkpt lat="59.131242759568" lon="17.983766098992">
        <ele>16.8</ele>
        <time>2017-07-07T17:08:29Z</time>
      </trkpt>
      <trkpt lat="59.131258768997" lon="17.98367574211">
        <ele>17.4</ele>
        <time>2017-07-07T17:08:30Z</time>
      </trkpt>
      <trkpt lat="59.131284333792" lon="17.983597203707">
        <ele>17.8</ele>
        <time>2017-07-07T17:08:31Z</time>
      </trkpt>
      <trkpt lat="59.131332026803" lon="17.983432247915">
        <ele>18.2</ele>
        <time>2017-07-07T17:08:33Z</time>
      </trkpt>
      <trkpt lat="59.131355160847" lon="17.983340885205">
        <ele>18.6</ele>
        <time>2017-07-07T17:08:34Z</time>
      </trkpt>
      <trkpt lat="59.131381396194" lon="17.983258491128">
        <ele>19</ele>
        <time>2017-07-07T17:08:35Z</time>
      </trkpt>
      <trkpt lat="59.131409727016" lon="17.983182383476">
        <ele>19.6</ele>
        <time>2017-07-07T17:08:36Z</time>
      </trkpt>
      <trkpt lat="59.1314378902" lon="17.98310912567">
        <ele>20</ele>
        <time>2017-07-07T17:08:37Z</time>
      </trkpt>
      <trkpt lat="59.131535204059" lon="17.982791367841">
        <ele>20</ele>
        <time>2017-07-07T17:08:41Z</time>
      </trkpt>
      <trkpt lat="59.131562445234" lon="17.982716936569">
        <ele>20.4</ele>
        <time>2017-07-07T17:08:42Z</time>
      </trkpt>
      <trkpt lat="59.131590859875" lon="17.982642170021">
        <ele>20.8</ele>
        <time>2017-07-07T17:08:43Z</time>
      </trkpt>
      <trkpt lat="59.131617933412" lon="17.982565643274">
        <ele>21.2</ele>
        <time>2017-07-07T17:08:44Z</time>
      </trkpt>
      <trkpt lat="59.131641905646" lon="17.982481740455">
        <ele>21.6</ele>
        <time>2017-07-07T17:08:45Z</time>
      </trkpt>
      <trkpt lat="59.131672415762" lon="17.982411667771">
        <ele>22</ele>
        <time>2017-07-07T17:08:46Z</time>
      </trkpt>
      <trkpt lat="59.131693119055" lon="17.982321981441">
        <ele>22</ele>
        <time>2017-07-07T17:08:47Z</time>
      </trkpt>
      <trkpt lat="59.131764951938" lon="17.982053341546">
        <ele>22.8</ele>
        <time>2017-07-07T17:08:50Z</time>
      </trkpt>
      <trkpt lat="59.131789427086" lon="17.981972288573">
        <ele>23.2</ele>
        <time>2017-07-07T17:08:51Z</time>
      </trkpt>
      <trkpt lat="59.131815578614" lon="17.981901126242">
        <ele>23.6</ele>
        <time>2017-07-07T17:08:52Z</time>
      </trkpt>
      <trkpt lat="59.131838712658" lon="17.98182501859">
        <ele>24</ele>
        <time>2017-07-07T17:08:53Z</time>
      </trkpt>
      <trkpt lat="59.131993107256" lon="17.981381029347">
        <ele>24</ele>
        <time>2017-07-07T17:08:59Z</time>
      </trkpt>
      <trkpt lat="59.132049517443" lon="17.981238369409">
        <ele>24.6</ele>
        <time>2017-07-07T17:09:01Z</time>
      </trkpt>
      <trkpt lat="59.132081117206" lon="17.981165446879">
        <ele>25</ele>
        <time>2017-07-07T17:09:02Z</time>
      </trkpt>
      <trkpt lat="59.132114058073" lon="17.981079364766">
        <ele>25.4</ele>
        <time>2017-07-07T17:09:03Z</time>
      </trkpt>
      <trkpt lat="59.13215370446" lon="17.980997892698">
        <ele>25.8</ele>
        <time>2017-07-07T17:09:04Z</time>
      </trkpt>
      <trkpt lat="59.132198212349" lon="17.980901668486">
        <ele>26.2</ele>
        <time>2017-07-07T17:09:05Z</time>
      </trkpt>
      <trkpt lat="59.132243139333" lon="17.980793961071">
        <ele>26.2</ele>
        <time>2017-07-07T17:09:06Z</time>
      </trkpt>
      <trkpt lat="59.132340453192" lon="17.980547114116">
        <ele>25.6</ele>
        <time>2017-07-07T17:09:08Z</time>
      </trkpt>
      <trkpt lat="59.132390660773" lon="17.980409064223">
        <ele>25.2</ele>
        <time>2017-07-07T17:09:09Z</time>
      </trkpt>
      <trkpt lat="59.132436928861" lon="17.98026598519">
        <ele>24.6</ele>
        <time>2017-07-07T17:09:10Z</time>
      </trkpt>
      <trkpt lat="59.132479928008" lon="17.980109998031">
        <ele>24</ele>
        <time>2017-07-07T17:09:11Z</time>
      </trkpt>
      <trkpt lat="59.132516556911" lon="17.979938169081">
        <ele>23.4</ele>
        <time>2017-07-07T17:09:12Z</time>
      </trkpt>
      <trkpt lat="59.132552850538" lon="17.979761981543">
        <ele>22.6</ele>
        <time>2017-07-07T17:09:13Z</time>
      </trkpt>
      <trkpt lat="59.132587635423" lon="17.979584117625">
        <ele>21.8</ele>
        <time>2017-07-07T17:09:14Z</time>
      </trkpt>
      <trkpt lat="59.132620911566" lon="17.979391836839">
        <ele>19.8</ele>
        <time>2017-07-07T17:09:15Z</time>
      </trkpt>
      <trkpt lat="59.132659719763" lon="17.979165106444">
        <ele>19</ele>
        <time>2017-07-07T17:09:16Z</time>
      </trkpt>
      <trkpt lat="59.132695091381" lon="17.978969975812">
        <ele>18.2</ele>
        <time>2017-07-07T17:09:17Z</time>
      </trkpt>
      <trkpt lat="59.13273121737" lon="17.97874467034">
        <ele>17.2</ele>
        <time>2017-07-07T17:09:18Z</time>
      </trkpt>
      <trkpt lat="59.132768516825" lon="17.978542247455">
        <ele>16.4</ele>
        <time>2017-07-07T17:09:19Z</time>
      </trkpt>
      <trkpt lat="59.132801038597" lon="17.978322390218">
        <ele>15.4</ele>
        <time>2017-07-07T17:09:20Z</time>
      </trkpt>
      <trkpt lat="59.132837583681" lon="17.978119045324">
        <ele>14.4</ele>
        <time>2017-07-07T17:09:21Z</time>
      </trkpt>
      <trkpt lat="59.13287370967" lon="17.977907989082">
        <ele>13.4</ele>
        <time>2017-07-07T17:09:22Z</time>
      </trkpt>
      <trkpt lat="59.132906985813" lon="17.97769609465">
        <ele>12.4</ele>
        <time>2017-07-07T17:09:23Z</time>
      </trkpt>
      <trkpt lat="59.132945123458" lon="17.977468693703">
        <ele>11.4</ele>
        <time>2017-07-07T17:09:24Z</time>
      </trkpt>
      <trkpt lat="59.132979070153" lon="17.977245316068">
        <ele>10.8</ele>
        <time>2017-07-07T17:09:25Z</time>
      </trkpt>
      <trkpt lat="59.133016453427" lon="17.977007521565">
        <ele>10.2</ele>
        <time>2017-07-07T17:09:26Z</time>
      </trkpt>
      <trkpt lat="59.133051741226" lon="17.976796381504">
        <ele>9.6</ele>
        <time>2017-07-07T17:09:27Z</time>
      </trkpt>
      <trkpt lat="59.133083173351" lon="17.976581721045">
        <ele>8.8</ele>
        <time>2017-07-07T17:09:28Z</time>
      </trkpt>
      <trkpt lat="59.133105720662" lon="17.97637091626">
        <ele>8.2</ele>
        <time>2017-07-07T17:09:29Z</time>
      </trkpt>
      <trkpt lat="59.133124747575" lon="17.976161536398">
        <ele>7.8</ele>
        <time>2017-07-07T17:09:30Z</time>
      </trkpt>
      <trkpt lat="59.133133967665" lon="17.975953330002">
        <ele>7.4</ele>
        <time>2017-07-07T17:09:31Z</time>
      </trkpt>
      <trkpt lat="59.133136314597" lon="17.975745291244">
        <ele>7</ele>
        <time>2017-07-07T17:09:32Z</time>
      </trkpt>
      <trkpt lat="59.133127429783" lon="17.975547143128">
        <ele>6.6</ele>
        <time>2017-07-07T17:09:33Z</time>
      </trkpt>
      <trkpt lat="59.133124663756" lon="17.975337511809">
        <ele>6.2</ele>
        <time>2017-07-07T17:09:34Z</time>
      </trkpt>
      <trkpt lat="59.133135895502" lon="17.974730159335">
        <ele>6.2</ele>
        <time>2017-07-07T17:09:37Z</time>
      </trkpt>
      <trkpt lat="59.13315701789" lon="17.974521450025">
        <ele>6.2</ele>
        <time>2017-07-07T17:09:38Z</time>
      </trkpt>
      <trkpt lat="59.133235472474" lon="17.974143342516">
        <ele>5.4</ele>
        <time>2017-07-07T17:09:40Z</time>
      </trkpt>
      <trkpt lat="59.133284171313" lon="17.97396028182">
        <ele>5</ele>
        <time>2017-07-07T17:09:41Z</time>
      </trkpt>
      <trkpt lat="59.133328427745" lon="17.973785686843">
        <ele>4.6</ele>
        <time>2017-07-07T17:09:42Z</time>
      </trkpt>
      <trkpt lat="59.133365391924" lon="17.973595836808">
        <ele>4.2</ele>
        <time>2017-07-07T17:09:43Z</time>
      </trkpt>
      <trkpt lat="59.133411576193" lon="17.973210520865">
        <ele>4.2</ele>
        <time>2017-07-07T17:09:45Z</time>
      </trkpt>
      <trkpt lat="59.133415431867" lon="17.972439553703">
        <ele>4.2</ele>
        <time>2017-07-07T17:09:49Z</time>
      </trkpt>
      <trkpt lat="59.133380982258" lon="17.97208944174">
        <ele>4.2</ele>
        <time>2017-07-07T17:09:51Z</time>
      </trkpt>
      <trkpt lat="59.133321135492" lon="17.971747376401">
        <ele>4.2</ele>
        <time>2017-07-07T17:09:53Z</time>
      </trkpt>
      <trkpt lat="59.133188450015" lon="17.970958807249">
        <ele>4.2</ele>
        <time>2017-07-07T17:09:58Z</time>
      </trkpt>
      <trkpt lat="59.133126507774" lon="17.970583381948">
        <ele>4.6</ele>
        <time>2017-07-07T17:10:01Z</time>
      </trkpt>
      <trkpt lat="59.133104044282" lon="17.97046502952">
        <ele>5</ele>
        <time>2017-07-07T17:10:02Z</time>
      </trkpt>
      <trkpt lat="59.133090968518" lon="17.970375594647">
        <ele>5.4</ele>
        <time>2017-07-07T17:10:03Z</time>
      </trkpt>
      <trkpt lat="59.133075964917" lon="17.970269395974">
        <ele>5.8</ele>
        <time>2017-07-07T17:10:04Z</time>
      </trkpt>
      <trkpt lat="59.133060374583" lon="17.97019094139">
        <ele>6.8</ele>
        <time>2017-07-07T17:10:05Z</time>
      </trkpt>
      <trkpt lat="59.133043694602" lon="17.970124053828">
        <ele>7.4</ele>
        <time>2017-07-07T17:10:06Z</time>
      </trkpt>
      <trkpt lat="59.133027349897" lon="17.970043336131">
        <ele>8</ele>
        <time>2017-07-07T17:10:07Z</time>
      </trkpt>
      <trkpt lat="59.133014357952" lon="17.969965971194">
        <ele>8.6</ele>
        <time>2017-07-07T17:10:08Z</time>
      </trkpt>
      <trkpt lat="59.133002120378" lon="17.969882571289">
        <ele>9.2</ele>
        <time>2017-07-07T17:10:09Z</time>
      </trkpt>
      <trkpt lat="59.132984518388" lon="17.969806547456">
        <ele>9.8</ele>
        <time>2017-07-07T17:10:10Z</time>
      </trkpt>
      <trkpt lat="59.132958785955" lon="17.969714681832">
        <ele>10.6</ele>
        <time>2017-07-07T17:10:11Z</time>
      </trkpt>
      <trkpt lat="59.132905477071" lon="17.969535979724">
        <ele>10.6</ele>
        <time>2017-07-07T17:10:13Z</time>
      </trkpt>
      <trkpt lat="59.132885276692" lon="17.969441012797">
        <ele>11</ele>
        <time>2017-07-07T17:10:14Z</time>
      </trkpt>
      <trkpt lat="59.132875721326" lon="17.969353505761">
        <ele>11.4</ele>
        <time>2017-07-07T17:10:15Z</time>
      </trkpt>
      <trkpt lat="59.13285862225" lon="17.969252252409">
        <ele>12</ele>
        <time>2017-07-07T17:10:16Z</time>
      </trkpt>
      <trkpt lat="59.132832303084" lon="17.969154267998">
        <ele>12.4</ele>
        <time>2017-07-07T17:10:17Z</time>
      </trkpt>
      <trkpt lat="59.13281000723" lon="17.969038765416">
        <ele>12.8</ele>
        <time>2017-07-07T17:10:18Z</time>
      </trkpt>
      <trkpt lat="59.132740940374" lon="17.968706255443">
        <ele>12.8</ele>
        <time>2017-07-07T17:10:21Z</time>
      </trkpt>
      <trkpt lat="59.13260381249" lon="17.967987926613">
        <ele>12.8</ele>
        <time>2017-07-07T17:10:26Z</time>
      </trkpt>
      <trkpt lat="59.13244958553" lon="17.967293150922">
        <ele>12.8</ele>
        <time>2017-07-07T17:10:31Z</time>
      </trkpt>
      <trkpt lat="59.132255041631" lon="17.966505839055">
        <ele>12.8</ele>
        <time>2017-07-07T17:10:37Z</time>
      </trkpt>
      <trkpt lat="59.13219896672" lon="17.966232002382">
        <ele>12.8</ele>
        <time>2017-07-07T17:10:39Z</time>
      </trkpt>
      <trkpt lat="59.132163511283" lon="17.965746774191">
        <ele>12.8</ele>
        <time>2017-07-07T17:10:42Z</time>
      </trkpt>
      <trkpt lat="59.132154207374" lon="17.965407977793">
        <ele>12.4</ele>
        <time>2017-07-07T17:10:44Z</time>
      </trkpt>
      <trkpt lat="59.132158985057" lon="17.965235729748">
        <ele>12</ele>
        <time>2017-07-07T17:10:45Z</time>
      </trkpt>
      <trkpt lat="59.132166780224" lon="17.965065744816">
        <ele>11.6</ele>
        <time>2017-07-07T17:10:46Z</time>
      </trkpt>
      <trkpt lat="59.132173904839" lon="17.964886372156">
        <ele>11.2</ele>
        <time>2017-07-07T17:10:47Z</time>
      </trkpt>
      <trkpt lat="59.132187399698" lon="17.96469073861">
        <ele>10.6</ele>
        <time>2017-07-07T17:10:48Z</time>
      </trkpt>
      <trkpt lat="59.132207180982" lon="17.964505330982">
        <ele>10</ele>
        <time>2017-07-07T17:10:49Z</time>
      </trkpt>
      <trkpt lat="59.132224280058" lon="17.964327886159">
        <ele>9.4</ele>
        <time>2017-07-07T17:10:50Z</time>
      </trkpt>
      <trkpt lat="59.132245318627" lon="17.964144993101">
        <ele>9</ele>
        <time>2017-07-07T17:10:51Z</time>
      </trkpt>
      <trkpt lat="59.132275661105" lon="17.963968973201">
        <ele>8.4</ele>
        <time>2017-07-07T17:10:52Z</time>
      </trkpt>
      <trkpt lat="59.132306757954" lon="17.96379303712">
        <ele>8</ele>
        <time>2017-07-07T17:10:53Z</time>
      </trkpt>
      <trkpt lat="59.132339531183" lon="17.963620705256">
        <ele>7.2</ele>
        <time>2017-07-07T17:10:54Z</time>
      </trkpt>
      <trkpt lat="59.132375321896" lon="17.963435297628">
        <ele>6.8</ele>
        <time>2017-07-07T17:10:55Z</time>
      </trkpt>
      <trkpt lat="59.132409939143" lon="17.963262295212">
        <ele>6.4</ele>
        <time>2017-07-07T17:10:56Z</time>
      </trkpt>
      <trkpt lat="59.132478586904" lon="17.96291126124">
        <ele>6.4</ele>
        <time>2017-07-07T17:10:58Z</time>
      </trkpt>
      <trkpt lat="59.132703808557" lon="17.961963855083">
        <ele>6.4</ele>
        <time>2017-07-07T17:11:04Z</time>
      </trkpt>
      <trkpt lat="59.132765499341" lon="17.96134049318">
        <ele>6.4</ele>
        <time>2017-07-07T17:11:08Z</time>
      </trkpt>
      <trkpt lat="59.132742449116" lon="17.960866496735">
        <ele>6.4</ele>
        <time>2017-07-07T17:11:11Z</time>
      </trkpt>
      <trkpt lat="59.132692828268" lon="17.960579249022">
        <ele>6.4</ele>
        <time>2017-07-07T17:11:13Z</time>
      </trkpt>
      <trkpt lat="59.132547486122" lon="17.960065857647">
        <ele>6.4</ele>
        <time>2017-07-07T17:11:17Z</time>
      </trkpt>
      <trkpt lat="59.132500798939" lon="17.959957228223">
        <ele>6.4</ele>
        <time>2017-07-07T17:11:18Z</time>
      </trkpt>
      <trkpt lat="59.132223022773" lon="17.959456996431">
        <ele>6.4</ele>
        <time>2017-07-07T17:11:23Z</time>
      </trkpt>
      <trkpt lat="59.132110705313" lon="17.9592601056">
        <ele>6.8</ele>
        <time>2017-07-07T17:11:25Z</time>
      </trkpt>
      <trkpt lat="59.132052032013" lon="17.959159019886">
        <ele>7.4</ele>
        <time>2017-07-07T17:11:26Z</time>
      </trkpt>
      <trkpt lat="59.131992269066" lon="17.959050893376">
        <ele>7.8</ele>
        <time>2017-07-07T17:11:27Z</time>
      </trkpt>
      <trkpt lat="59.131933092852" lon="17.958954417707">
        <ele>8.2</ele>
        <time>2017-07-07T17:11:28Z</time>
      </trkpt>
      <trkpt lat="59.131884142556" lon="17.958851739432">
        <ele>8.8</ele>
        <time>2017-07-07T17:11:29Z</time>
      </trkpt>
      <trkpt lat="59.13170192005" lon="17.958402469592">
        <ele>9.2</ele>
        <time>2017-07-07T17:11:33Z</time>
      </trkpt>
      <trkpt lat="59.13166168693" lon="17.958263413871">
        <ele>9.6</ele>
        <time>2017-07-07T17:11:34Z</time>
      </trkpt>
      <trkpt lat="59.131622208181" lon="17.958140199941">
        <ele>10</ele>
        <time>2017-07-07T17:11:35Z</time>
      </trkpt>
      <trkpt lat="59.131595805196" lon="17.958014974355">
        <ele>10.4</ele>
        <time>2017-07-07T17:11:36Z</time>
      </trkpt>
      <trkpt lat="59.131575856274" lon="17.957878265566">
        <ele>10.8</ele>
        <time>2017-07-07T17:11:37Z</time>
      </trkpt>
      <trkpt lat="59.131536461344" lon="17.95760635673">
        <ele>10.8</ele>
        <time>2017-07-07T17:11:39Z</time>
      </trkpt>
      <trkpt lat="59.131399836374" lon="17.956935217997">
        <ele>10.8</ele>
        <time>2017-07-07T17:11:44Z</time>
      </trkpt>
      <trkpt lat="59.131358513607" lon="17.956800185588">
        <ele>10.8</ele>
        <time>2017-07-07T17:11:45Z</time>
      </trkpt>
      <trkpt lat="59.131070260066" lon="17.956078755455">
        <ele>10.8</ele>
        <time>2017-07-07T17:11:51Z</time>
      </trkpt>
      <trkpt lat="59.131028266747" lon="17.955950177109">
        <ele>10.8</ele>
        <time>2017-07-07T17:11:52Z</time>
      </trkpt>
      <trkpt lat="59.130912847984" lon="17.955561005492">
        <ele>10.8</ele>
        <time>2017-07-07T17:11:55Z</time>
      </trkpt>
      <trkpt lat="59.130916619839" lon="17.955085248848">
        <ele>10.8</ele>
        <time>2017-07-07T17:11:58Z</time>
      </trkpt>
      <trkpt lat="59.130962552651" lon="17.954774280358">
        <ele>10.8</ele>
        <time>2017-07-07T17:12:00Z</time>
      </trkpt>
      <trkpt lat="59.131017873191" lon="17.954478399288">
        <ele>10.8</ele>
        <time>2017-07-07T17:12:02Z</time>
      </trkpt>
      <trkpt lat="59.131264217232" lon="17.953610872638">
        <ele>10.8</ele>
        <time>2017-07-07T17:12:08Z</time>
      </trkpt>
      <trkpt lat="59.131570827134" lon="17.952834457241">
        <ele>10.8</ele>
        <time>2017-07-07T17:12:14Z</time>
      </trkpt>
      <trkpt lat="59.131736202021" lon="17.952478645586">
        <ele>11.2</ele>
        <time>2017-07-07T17:12:17Z</time>
      </trkpt>
      <trkpt lat="59.131798982452" lon="17.952378817157">
        <ele>11.6</ele>
        <time>2017-07-07T17:12:18Z</time>
      </trkpt>
      <trkpt lat="59.131866875842" lon="17.952288460275">
        <ele>12</ele>
        <time>2017-07-07T17:12:19Z</time>
      </trkpt>
      <trkpt lat="59.131933931042" lon="17.95217656191">
        <ele>12.4</ele>
        <time>2017-07-07T17:12:20Z</time>
      </trkpt>
      <trkpt lat="59.13199528655" lon="17.952064076812">
        <ele>13</ele>
        <time>2017-07-07T17:12:21Z</time>
      </trkpt>
      <trkpt lat="59.132216820167" lon="17.951574992947">
        <ele>13</ele>
        <time>2017-07-07T17:12:25Z</time>
      </trkpt>
      <trkpt lat="59.132279516779" lon="17.951463346039">
        <ele>13</ele>
        <time>2017-07-07T17:12:26Z</time>
      </trkpt>
      <trkpt lat="59.132477413438" lon="17.951128070039">
        <ele>13</ele>
        <time>2017-07-07T17:12:29Z</time>
      </trkpt>
      <trkpt lat="59.132710178801" lon="17.950647535712">
        <ele>13</ele>
        <time>2017-07-07T17:12:33Z</time>
      </trkpt>
      <trkpt lat="59.132758793821" lon="17.950508647629">
        <ele>13</ele>
        <time>2017-07-07T17:12:34Z</time>
      </trkpt>
      <trkpt lat="59.132968006045" lon="17.949749247489">
        <ele>13</ele>
        <time>2017-07-07T17:12:39Z</time>
      </trkpt>
      <trkpt lat="59.132990469537" lon="17.949243064548">
        <ele>12.4</ele>
        <time>2017-07-07T17:12:42Z</time>
      </trkpt>
      <trkpt lat="59.132977142316" lon="17.949083221715">
        <ele>12</ele>
        <time>2017-07-07T17:12:43Z</time>
      </trkpt>
      <trkpt lat="59.13295836686" lon="17.948921786321">
        <ele>11.6</ele>
        <time>2017-07-07T17:12:44Z</time>
      </trkpt>
      <trkpt lat="59.132926599459" lon="17.948770241569">
        <ele>11.2</ele>
        <time>2017-07-07T17:12:45Z</time>
      </trkpt>
      <trkpt lat="59.132888210357" lon="17.948618193903">
        <ele>10.8</ele>
        <time>2017-07-07T17:12:46Z</time>
      </trkpt>
      <trkpt lat="59.132845714124" lon="17.948477042707">
        <ele>10.8</ele>
        <time>2017-07-07T17:12:47Z</time>
      </trkpt>
      <trkpt lat="59.132751166292" lon="17.948196751971">
        <ele>10.8</ele>
        <time>2017-07-07T17:12:49Z</time>
      </trkpt>
      <trkpt lat="59.132638262099" lon="17.947700459672">
        <ele>10.8</ele>
        <time>2017-07-07T17:12:52Z</time>
      </trkpt>
      <trkpt lat="59.132617894082" lon="17.947333583909">
        <ele>10.4</ele>
        <time>2017-07-07T17:12:54Z</time>
      </trkpt>
      <trkpt lat="59.132624264326" lon="17.947153037783">
        <ele>10</ele>
        <time>2017-07-07T17:12:55Z</time>
      </trkpt>
      <trkpt lat="59.132638848832" lon="17.946972072562">
        <ele>9.6</ele>
        <time>2017-07-07T17:12:56Z</time>
      </trkpt>
      <trkpt lat="59.13266583855" lon="17.946780797604">
        <ele>8.8</ele>
        <time>2017-07-07T17:12:57Z</time>
      </trkpt>
      <trkpt lat="59.132690648974" lon="17.946604610066">
        <ele>8.8</ele>
        <time>2017-07-07T17:12:58Z</time>
      </trkpt>
      <trkpt lat="59.132716381407" lon="17.946429847451">
        <ele>8.8</ele>
        <time>2017-07-07T17:12:59Z</time>
      </trkpt>
      <trkpt lat="59.132825178469" lon="17.945388731652">
        <ele>8.8</ele>
        <time>2017-07-07T17:13:05Z</time>
      </trkpt>
      <trkpt lat="59.132810342506" lon="17.945209023716">
        <ele>8.4</ele>
        <time>2017-07-07T17:13:06Z</time>
      </trkpt>
      <trkpt lat="59.132793075792" lon="17.945025460106">
        <ele>8</ele>
        <time>2017-07-07T17:13:07Z</time>
      </trkpt>
      <trkpt lat="59.132779078019" lon="17.944846506541">
        <ele>7.6</ele>
        <time>2017-07-07T17:13:08Z</time>
      </trkpt>
      <trkpt lat="59.132747645894" lon="17.944663110569">
        <ele>7.2</ele>
        <time>2017-07-07T17:13:09Z</time>
      </trkpt>
      <trkpt lat="59.132729121895" lon="17.944493041818">
        <ele>6.8</ele>
        <time>2017-07-07T17:13:10Z</time>
      </trkpt>
      <trkpt lat="59.132669023672" lon="17.943977135873">
        <ele>6.8</ele>
        <time>2017-07-07T17:13:13Z</time>
      </trkpt>
      <trkpt lat="59.13261219439" lon="17.943075578709">
        <ele>6.8</ele>
        <time>2017-07-07T17:13:18Z</time>
      </trkpt>
      <trkpt lat="59.132604734499" lon="17.942055752936">
        <ele>6.8</ele>
        <time>2017-07-07T17:13:24Z</time>
      </trkpt>
      <trkpt lat="59.132543630448" lon="17.941110106978">
        <ele>6.8</ele>
        <time>2017-07-07T17:13:30Z</time>
      </trkpt>
      <trkpt lat="59.13242779259" lon="17.940245178717">
        <ele>6.8</ele>
        <time>2017-07-07T17:13:36Z</time>
      </trkpt>
      <trkpt lat="59.132403149804" lon="17.940107883195">
        <ele>7.2</ele>
        <time>2017-07-07T17:13:37Z</time>
      </trkpt>
      <trkpt lat="59.132378758475" lon="17.93997083913">
        <ele>7.6</ele>
        <time>2017-07-07T17:13:38Z</time>
      </trkpt>
      <trkpt lat="59.132353277499" lon="17.939832370142">
        <ele>8</ele>
        <time>2017-07-07T17:13:39Z</time>
      </trkpt>
      <trkpt lat="59.132322013012" lon="17.939697505371">
        <ele>8.4</ele>
        <time>2017-07-07T17:13:40Z</time>
      </trkpt>
      <trkpt lat="59.132288904507" lon="17.939566077179">
        <ele>9</ele>
        <time>2017-07-07T17:13:41Z</time>
      </trkpt>
      <trkpt lat="59.132200475462" lon="17.939161315228">
        <ele>9</ele>
        <time>2017-07-07T17:13:44Z</time>
      </trkpt>
      <trkpt lat="59.13206904727" lon="17.938369477135">
        <ele>9</ele>
        <time>2017-07-07T17:13:50Z</time>
      </trkpt>
      <trkpt lat="59.132053373117" lon="17.938229499405">
        <ele>9.4</ele>
        <time>2017-07-07T17:13:51Z</time>
      </trkpt>
      <trkpt lat="59.132038956249" lon="17.938102597439">
        <ele>9.8</ele>
        <time>2017-07-07T17:13:52Z</time>
      </trkpt>
      <trkpt lat="59.132022779182" lon="17.937975360197">
        <ele>10.2</ele>
        <time>2017-07-07T17:13:53Z</time>
      </trkpt>
      <trkpt lat="59.132002746441" lon="17.937847452403">
        <ele>10.6</ele>
        <time>2017-07-07T17:13:54Z</time>
      </trkpt>
      <trkpt lat="59.131979444759" lon="17.937720466618">
        <ele>11</ele>
        <time>2017-07-07T17:13:55Z</time>
      </trkpt>
      <trkpt lat="59.131949353738" lon="17.937595660127">
        <ele>11</ele>
        <time>2017-07-07T17:13:56Z</time>
      </trkpt>
      <trkpt lat="59.131713906167" lon="17.936846318267">
        <ele>11</ele>
        <time>2017-07-07T17:14:02Z</time>
      </trkpt>
      <trkpt lat="59.131422970418" lon="17.935990610096">
        <ele>11</ele>
        <time>2017-07-07T17:14:09Z</time>
      </trkpt>
      <trkpt lat="59.131377875796" lon="17.935889356744">
        <ele>11</ele>
        <time>2017-07-07T17:14:10Z</time>
      </trkpt>
      <trkpt lat="59.131217949144" lon="17.935604372144">
        <ele>11</ele>
        <time>2017-07-07T17:14:13Z</time>
      </trkpt>
      <trkpt lat="59.131154833437" lon="17.935517116565">
        <ele>11</ele>
        <time>2017-07-07T17:14:14Z</time>
      </trkpt>
      <trkpt lat="59.130961043909" lon="17.935290637627">
        <ele>11</ele>
        <time>2017-07-07T17:14:17Z</time>
      </trkpt>
      <trkpt lat="59.130474055519" lon="17.934780263736">
        <ele>11</ele>
        <time>2017-07-07T17:14:24Z</time>
      </trkpt>
      <trkpt lat="59.12998195417" lon="17.934237032797">
        <ele>10.6</ele>
        <time>2017-07-07T17:14:31Z</time>
      </trkpt>
      <trkpt lat="59.129916659169" lon="17.934153381435">
        <ele>10.2</ele>
        <time>2017-07-07T17:14:32Z</time>
      </trkpt>
      <trkpt lat="59.129851867082" lon="17.934062102544">
        <ele>9.8</ele>
        <time>2017-07-07T17:14:33Z</time>
      </trkpt>
      <trkpt lat="59.129790343936" lon="17.933972667671">
        <ele>9.4</ele>
        <time>2017-07-07T17:14:34Z</time>
      </trkpt>
      <trkpt lat="59.129735107215" lon="17.933868564473">
        <ele>9</ele>
        <time>2017-07-07T17:14:35Z</time>
      </trkpt>
      <trkpt lat="59.129630920198" lon="17.93365004834">
        <ele>9</ele>
        <time>2017-07-07T17:14:37Z</time>
      </trkpt>
      <trkpt lat="59.129371416574" lon="17.932974299562">
        <ele>9</ele>
        <time>2017-07-07T17:14:43Z</time>
      </trkpt>
      <trkpt lat="59.129168239318" lon="17.932241553864">
        <ele>9</ele>
        <time>2017-07-07T17:14:49Z</time>
      </trkpt>
      <trkpt lat="59.129090706743" lon="17.931675607976">
        <ele>9</ele>
        <time>2017-07-07T17:14:53Z</time>
      </trkpt>
      <trkpt lat="59.129058855523" lon="17.931239581538">
        <ele>9</ele>
        <time>2017-07-07T17:14:56Z</time>
      </trkpt>
      <trkpt lat="59.129049803071" lon="17.93108937789">
        <ele>9</ele>
        <time>2017-07-07T17:14:57Z</time>
      </trkpt>
      <trkpt lat="59.129019209136" lon="17.93067195927">
        <ele>9.4</ele>
        <time>2017-07-07T17:15:00Z</time>
      </trkpt>
      <trkpt lat="59.129012252159" lon="17.930548996797">
        <ele>10.2</ele>
        <time>2017-07-07T17:15:01Z</time>
      </trkpt>
      <trkpt lat="59.128997500015" lon="17.930420083175">
        <ele>10.6</ele>
        <time>2017-07-07T17:15:02Z</time>
      </trkpt>
      <trkpt lat="59.128980484758" lon="17.930296869245">
        <ele>11</ele>
        <time>2017-07-07T17:15:03Z</time>
      </trkpt>
      <trkpt lat="59.128917201413" lon="17.929949858585">
        <ele>11.4</ele>
        <time>2017-07-07T17:15:06Z</time>
      </trkpt>
      <trkpt lat="59.128900521432" lon="17.929838044039">
        <ele>11.8</ele>
        <time>2017-07-07T17:15:07Z</time>
      </trkpt>
      <trkpt lat="59.12887805794" lon="17.929736623049">
        <ele>12.4</ele>
        <time>2017-07-07T17:15:08Z</time>
      </trkpt>
      <trkpt lat="59.128847380186" lon="17.929654061334">
        <ele>12.8</ele>
        <time>2017-07-07T17:15:09Z</time>
      </trkpt>
      <trkpt lat="59.128823659409" lon="17.929560435511">
        <ele>13.2</ele>
        <time>2017-07-07T17:15:10Z</time>
      </trkpt>
      <trkpt lat="59.128742187341" lon="17.929292885263">
        <ele>14</ele>
        <time>2017-07-07T17:15:13Z</time>
      </trkpt>
      <trkpt lat="59.128709414112" lon="17.929208982444">
        <ele>14.4</ele>
        <time>2017-07-07T17:15:14Z</time>
      </trkpt>
      <trkpt lat="59.128683346403" lon="17.929098425183">
        <ele>14.8</ele>
        <time>2017-07-07T17:15:15Z</time>
      </trkpt>
      <trkpt lat="59.128653674477" lon="17.929008906491">
        <ele>15.2</ele>
        <time>2017-07-07T17:15:16Z</time>
      </trkpt>
      <trkpt lat="59.128502716458" lon="17.928468860674">
        <ele>15.2</ele>
        <time>2017-07-07T17:15:21Z</time>
      </trkpt>
      <trkpt lat="59.128462650976" lon="17.928378000878">
        <ele>15.2</ele>
        <time>2017-07-07T17:15:22Z</time>
      </trkpt>
      <trkpt lat="59.128369528067" lon="17.928060829782">
        <ele>15.2</ele>
        <time>2017-07-07T17:15:25Z</time>
      </trkpt>
      <trkpt lat="59.128160064386" lon="17.927350379938">
        <ele>15.2</ele>
        <time>2017-07-07T17:15:32Z</time>
      </trkpt>
      <trkpt lat="59.128051351143" lon="17.926905887781">
        <ele>15.2</ele>
        <time>2017-07-07T17:15:36Z</time>
      </trkpt>
      <trkpt lat="59.128032659506" lon="17.926782590032">
        <ele>15.2</ele>
        <time>2017-07-07T17:15:37Z</time>
      </trkpt>
      <trkpt lat="59.127990582368" lon="17.92643826158">
        <ele>15.2</ele>
        <time>2017-07-07T17:15:40Z</time>
      </trkpt>
      <trkpt lat="59.12795437256" lon="17.926073313654">
        <ele>15.2</ele>
        <time>2017-07-07T17:15:43Z</time>
      </trkpt>
      <trkpt lat="59.127914223259" lon="17.925275608231">
        <ele>15.2</ele>
        <time>2017-07-07T17:15:49Z</time>
      </trkpt>
      <trkpt lat="59.127896956545" lon="17.924575635762">
        <ele>15.2</ele>
        <time>2017-07-07T17:15:54Z</time>
      </trkpt>
      <trkpt lat="59.127883042591" lon="17.923582296793">
        <ele>15.2</ele>
        <time>2017-07-07T17:16:01Z</time>
      </trkpt>
      <trkpt lat="59.127902069504" lon="17.922931777534">
        <ele>15.2</ele>
        <time>2017-07-07T17:16:06Z</time>
      </trkpt>
      <trkpt lat="59.12790408116" lon="17.922807138681">
        <ele>15.2</ele>
        <time>2017-07-07T17:16:07Z</time>
      </trkpt>
      <trkpt lat="59.127923108073" lon="17.922557693337">
        <ele>15.2</ele>
        <time>2017-07-07T17:16:09Z</time>
      </trkpt>
      <trkpt lat="59.127964179383" lon="17.922433976493">
        <ele>15.2</ele>
        <time>2017-07-07T17:16:10Z</time>
      </trkpt>
      <trkpt lat="59.128131398288" lon="17.922234151997">
        <ele>15.6</ele>
        <time>2017-07-07T17:16:13Z</time>
      </trkpt>
      <trkpt lat="59.128181605869" lon="17.922161480924">
        <ele>16.6</ele>
        <time>2017-07-07T17:16:14Z</time>
      </trkpt>
      <trkpt lat="59.128242542282" lon="17.922097107932">
        <ele>17.2</ele>
        <time>2017-07-07T17:16:15Z</time>
      </trkpt>
      <trkpt lat="59.128297695184" lon="17.922014713855">
        <ele>17.8</ele>
        <time>2017-07-07T17:16:16Z</time>
      </trkpt>
      <trkpt lat="59.128355614113" lon="17.921938438565">
        <ele>18.4</ele>
        <time>2017-07-07T17:16:17Z</time>
      </trkpt>
      <trkpt lat="59.128411353748" lon="17.921849506606">
        <ele>19</ele>
        <time>2017-07-07T17:16:18Z</time>
      </trkpt>
      <trkpt lat="59.12846147751" lon="17.921777170809">
        <ele>19.4</ele>
        <time>2017-07-07T17:16:19Z</time>
      </trkpt>
      <trkpt lat="59.128510511625" lon="17.921694273818">
        <ele>20</ele>
        <time>2017-07-07T17:16:20Z</time>
      </trkpt>
      <trkpt lat="59.128569017287" lon="17.921617327976">
        <ele>20.6</ele>
        <time>2017-07-07T17:16:21Z</time>
      </trkpt>
      <trkpt lat="59.128617213212" lon="17.921526216723">
        <ele>21.2</ele>
        <time>2017-07-07T17:16:22Z</time>
      </trkpt>
      <trkpt lat="59.128671108829" lon="17.92146444212">
        <ele>21.8</ele>
        <time>2017-07-07T17:16:23Z</time>
      </trkpt>
      <trkpt lat="59.128718885659" lon="17.921387580097">
        <ele>22.2</ele>
        <time>2017-07-07T17:16:24Z</time>
      </trkpt>
      <trkpt lat="59.128768087412" lon="17.921312059178">
        <ele>22.8</ele>
        <time>2017-07-07T17:16:25Z</time>
      </trkpt>
      <trkpt lat="59.128825084332" lon="17.921226815255">
        <ele>23.4</ele>
        <time>2017-07-07T17:16:26Z</time>
      </trkpt>
      <trkpt lat="59.128873783171" lon="17.921138889124">
        <ele>24</ele>
        <time>2017-07-07T17:16:27Z</time>
      </trkpt>
      <trkpt lat="59.128930277177" lon="17.921064541671">
        <ele>24.6</ele>
        <time>2017-07-07T17:16:28Z</time>
      </trkpt>
      <trkpt lat="59.128979059835" lon="17.920987595829">
        <ele>25.2</ele>
        <time>2017-07-07T17:16:29Z</time>
      </trkpt>
      <trkpt lat="59.12903563766" lon="17.92090620758">
        <ele>25.6</ele>
        <time>2017-07-07T17:16:30Z</time>
      </trkpt>
      <trkpt lat="59.129089952372" lon="17.920815347784">
        <ele>26</ele>
        <time>2017-07-07T17:16:31Z</time>
      </trkpt>
      <trkpt lat="59.129147619844" lon="17.920731780241">
        <ele>26.4</ele>
        <time>2017-07-07T17:16:32Z</time>
      </trkpt>
      <trkpt lat="59.12920411385" lon="17.920650056716">
        <ele>27</ele>
        <time>2017-07-07T17:16:33Z</time>
      </trkpt>
      <trkpt lat="59.129639385917" lon="17.920089726701">
        <ele>27</ele>
        <time>2017-07-07T17:16:40Z</time>
      </trkpt>
      <trkpt lat="59.130036855615" lon="17.919584633407">
        <ele>27.4</ele>
        <time>2017-07-07T17:16:46Z</time>
      </trkpt>
      <trkpt lat="59.13009510982" lon="17.919490672308">
        <ele>27.8</ele>
        <time>2017-07-07T17:16:47Z</time>
      </trkpt>
      <trkpt lat="59.130154286034" lon="17.919393358449">
        <ele>28.2</ele>
        <time>2017-07-07T17:16:48Z</time>
      </trkpt>
      <trkpt lat="59.130210863859" lon="17.919292775649">
        <ele>28.6</ele>
        <time>2017-07-07T17:16:49Z</time>
      </trkpt>
      <trkpt lat="59.130267944598" lon="17.919189007727">
        <ele>29</ele>
        <time>2017-07-07T17:16:50Z</time>
      </trkpt>
      <trkpt lat="59.130549576438" lon="17.91869757693">
        <ele>29</ele>
        <time>2017-07-07T17:16:55Z</time>
      </trkpt>
      <trkpt lat="59.1309265943" lon="17.918188879419">
        <ele>29</ele>
        <time>2017-07-07T17:17:01Z</time>
      </trkpt>
      <trkpt lat="59.131217362411" lon="17.918079076529">
        <ele>29</ele>
        <time>2017-07-07T17:17:05Z</time>
      </trkpt>
      <trkpt lat="59.131525397236" lon="17.918129116472">
        <ele>29</ele>
        <time>2017-07-07T17:17:09Z</time>
      </trkpt>
      <trkpt lat="59.131974415619" lon="17.918049823698">
        <ele>29</ele>
        <time>2017-07-07T17:17:14Z</time>
      </trkpt>
      <trkpt lat="59.132524938811" lon="17.917978829005">
        <ele>29</ele>
        <time>2017-07-07T17:17:20Z</time>
      </trkpt>
      <trkpt lat="59.132964653285" lon="17.918040519789">
        <ele>29</ele>
        <time>2017-07-07T17:17:25Z</time>
      </trkpt>
      <trkpt lat="59.133416353876" lon="17.917986037439">
        <ele>29</ele>
        <time>2017-07-07T17:17:30Z</time>
      </trkpt>
      <trkpt lat="59.133765795287" lon="17.917956533151">
        <ele>29</ele>
        <time>2017-07-07T17:17:34Z</time>
      </trkpt>
      <trkpt lat="59.133855397798" lon="17.917982097946">
        <ele>29</ele>
        <time>2017-07-07T17:17:35Z</time>
      </trkpt>
      <trkpt lat="59.134128983014" lon="17.918126098988">
        <ele>29</ele>
        <time>2017-07-07T17:17:38Z</time>
      </trkpt>
      <trkpt lat="59.134213640204" lon="17.918203799201">
        <ele>29</ele>
        <time>2017-07-07T17:17:39Z</time>
      </trkpt>
      <trkpt lat="59.134295112272" lon="17.918301196879">
        <ele>29</ele>
        <time>2017-07-07T17:17:40Z</time>
      </trkpt>
      <trkpt lat="59.134515137147" lon="17.9186749458">
        <ele>29</ele>
        <time>2017-07-07T17:17:43Z</time>
      </trkpt>
      <trkpt lat="59.134624185666" lon="17.919006366126">
        <ele>29</ele>
        <time>2017-07-07T17:17:45Z</time>
      </trkpt>
      <trkpt lat="59.134675399075" lon="17.919163526751">
        <ele>29</ele>
        <time>2017-07-07T17:17:46Z</time>
      </trkpt>
      <trkpt lat="59.134983936814" lon="17.91994731822">
        <ele>29</ele>
        <time>2017-07-07T17:17:51Z</time>
      </trkpt>
      <trkpt lat="59.135279817884" lon="17.920521310732">
        <ele>29</ele>
        <time>2017-07-07T17:17:55Z</time>
      </trkpt>
      <trkpt lat="59.135649627312" lon="17.921339635629">
        <ele>29</ele>
        <time>2017-07-07T17:18:00Z</time>
      </trkpt>
      <trkpt lat="59.135982388742" lon="17.922068441834">
        <ele>28.6</ele>
        <time>2017-07-07T17:18:04Z</time>
      </trkpt>
      <trkpt lat="59.136066123923" lon="17.922262985733">
        <ele>28</ele>
        <time>2017-07-07T17:18:05Z</time>
      </trkpt>
      <trkpt lat="59.136151535484" lon="17.922462391134">
        <ele>27.6</ele>
        <time>2017-07-07T17:18:06Z</time>
      </trkpt>
      <trkpt lat="59.13624155709" lon="17.922678644154">
        <ele>26.6</ele>
        <time>2017-07-07T17:18:07Z</time>
      </trkpt>
      <trkpt lat="59.136328980307" lon="17.922877043727">
        <ele>25.8</ele>
        <time>2017-07-07T17:18:08Z</time>
      </trkpt>
      <trkpt lat="59.136417409352" lon="17.923072844911">
        <ele>24.8</ele>
        <time>2017-07-07T17:18:09Z</time>
      </trkpt>
      <trkpt lat="59.136505503121" lon="17.923271412122">
        <ele>23.8</ele>
        <time>2017-07-07T17:18:10Z</time>
      </trkpt>
      <trkpt lat="59.136592674881" lon="17.923465956021">
        <ele>22.6</ele>
        <time>2017-07-07T17:18:11Z</time>
      </trkpt>
      <trkpt lat="59.136677583528" lon="17.92365966173">
        <ele>21.6</ele>
        <time>2017-07-07T17:18:12Z</time>
      </trkpt>
      <trkpt lat="59.136762324537" lon="17.923859570045">
        <ele>20.6</ele>
        <time>2017-07-07T17:18:13Z</time>
      </trkpt>
      <trkpt lat="59.136935997505" lon="17.924260224865">
        <ele>20.2</ele>
        <time>2017-07-07T17:18:15Z</time>
      </trkpt>
      <trkpt lat="59.137021744342" lon="17.92446516232">
        <ele>19.8</ele>
        <time>2017-07-07T17:18:16Z</time>
      </trkpt>
      <trkpt lat="59.137108161731" lon="17.924679068408">
        <ele>19.4</ele>
        <time>2017-07-07T17:18:17Z</time>
      </trkpt>
      <trkpt lat="59.137194076206" lon="17.924890292288">
        <ele>18.6</ele>
        <time>2017-07-07T17:18:18Z</time>
      </trkpt>
      <trkpt lat="59.137282756708" lon="17.92511727414">
        <ele>18.2</ele>
        <time>2017-07-07T17:18:19Z</time>
      </trkpt>
      <trkpt lat="59.137375879617" lon="17.925348949856">
        <ele>17.6</ele>
        <time>2017-07-07T17:18:20Z</time>
      </trkpt>
      <trkpt lat="59.137469673078" lon="17.925589007472">
        <ele>16.8</ele>
        <time>2017-07-07T17:18:21Z</time>
      </trkpt>
      <trkpt lat="59.137562712168" lon="17.925852450589">
        <ele>16</ele>
        <time>2017-07-07T17:18:22Z</time>
      </trkpt>
      <trkpt lat="59.137656086534" lon="17.926102734123">
        <ele>15</ele>
        <time>2017-07-07T17:18:23Z</time>
      </trkpt>
      <trkpt lat="59.137753484212" lon="17.92635528077">
        <ele>13.8</ele>
        <time>2017-07-07T17:18:24Z</time>
      </trkpt>
      <trkpt lat="59.137854821383" lon="17.926600786621">
        <ele>12.8</ele>
        <time>2017-07-07T17:18:25Z</time>
      </trkpt>
      <trkpt lat="59.137964791911" lon="17.926837575296">
        <ele>11.8</ele>
        <time>2017-07-07T17:18:26Z</time>
      </trkpt>
      <trkpt lat="59.138076019724" lon="17.927070173021">
        <ele>10.6</ele>
        <time>2017-07-07T17:18:27Z</time>
      </trkpt>
      <trkpt lat="59.138183978596" lon="17.927301932556">
        <ele>9.4</ele>
        <time>2017-07-07T17:18:28Z</time>
      </trkpt>
      <trkpt lat="59.138298223893" lon="17.927508462572">
        <ele>7.8</ele>
        <time>2017-07-07T17:18:29Z</time>
      </trkpt>
      <trkpt lat="59.138418252701" lon="17.92771398676">
        <ele>6.4</ele>
        <time>2017-07-07T17:18:30Z</time>
      </trkpt>
      <trkpt lat="59.138532833274" lon="17.927912134876">
        <ele>5</ele>
        <time>2017-07-07T17:18:31Z</time>
      </trkpt>
      <trkpt lat="59.138651437159" lon="17.928108522793">
        <ele>3.6</ele>
        <time>2017-07-07T17:18:32Z</time>
      </trkpt>
      <trkpt lat="59.138766604465" lon="17.92830239614">
        <ele>2.2</ele>
        <time>2017-07-07T17:18:33Z</time>
      </trkpt>
      <trkpt lat="59.138984450046" lon="17.928679833097">
        <ele>1.6</ele>
        <time>2017-07-07T17:18:35Z</time>
      </trkpt>
      <trkpt lat="59.139093666203" lon="17.928870940417">
        <ele>1</ele>
        <time>2017-07-07T17:18:36Z</time>
      </trkpt>
      <trkpt lat="59.139198104677" lon="17.929065316678">
        <ele>0.4</ele>
        <time>2017-07-07T17:18:37Z</time>
      </trkpt>
      <trkpt lat="59.13930597973" lon="17.929250053754">
        <ele>0</ele>
        <time>2017-07-07T17:18:38Z</time>
      </trkpt>
      <trkpt lat="59.139405808159" lon="17.929427582396">
        <ele>0</ele>
        <time>2017-07-07T17:18:39Z</time>
      </trkpt>
      <trkpt lat="59.139506893873" lon="17.929597232052">
        <ele>0</ele>
        <time>2017-07-07T17:18:40Z</time>
      </trkpt>
      <trkpt lat="59.139606135569" lon="17.92975665579">
        <ele>0</ele>
        <time>2017-07-07T17:18:41Z</time>
      </trkpt>
      <trkpt lat="59.139706718369" lon="17.929905350696">
        <ele>0</ele>
        <time>2017-07-07T17:18:42Z</time>
      </trkpt>
      <trkpt lat="59.139810318653" lon="17.93003912582">
        <ele>0</ele>
        <time>2017-07-07T17:18:43Z</time>
      </trkpt>
      <trkpt lat="59.140132183613" lon="17.930357051287">
        <ele>0</ele>
        <time>2017-07-07T17:18:46Z</time>
      </trkpt>
      <trkpt lat="59.140238717562" lon="17.930439026269">
        <ele>0</ele>
        <time>2017-07-07T17:18:47Z</time>
      </trkpt>
      <trkpt lat="59.140555637201" lon="17.930697524065">
        <ele>0</ele>
        <time>2017-07-07T17:18:50Z</time>
      </trkpt>
      <trkpt lat="59.14065546563" lon="17.930784528187">
        <ele>0</ele>
        <time>2017-07-07T17:18:51Z</time>
      </trkpt>
      <trkpt lat="59.140751606023" lon="17.930874717431">
        <ele>0</ele>
        <time>2017-07-07T17:18:52Z</time>
      </trkpt>
      <trkpt lat="59.14084824933" lon="17.930976473697">
        <ele>0</ele>
        <time>2017-07-07T17:18:53Z</time>
      </trkpt>
      <trkpt lat="59.140939444402" lon="17.931084851664">
        <ele>0</ele>
        <time>2017-07-07T17:18:54Z</time>
      </trkpt>
      <trkpt lat="59.141181765131" lon="17.931448709943">
        <ele>0</ele>
        <time>2017-07-07T17:18:57Z</time>
      </trkpt>
      <trkpt lat="59.141574540965" lon="17.932294024558">
        <ele>0</ele>
        <time>2017-07-07T17:19:03Z</time>
      </trkpt>
      <trkpt lat="59.141690881737" lon="17.932578170968">
        <ele>0</ele>
        <time>2017-07-07T17:19:05Z</time>
      </trkpt>
      <trkpt lat="59.141753326892" lon="17.932709766798">
        <ele>0</ele>
        <time>2017-07-07T17:19:06Z</time>
      </trkpt>
      <trkpt lat="59.141817616065" lon="17.932831891081">
        <ele>0.6</ele>
        <time>2017-07-07T17:19:07Z</time>
      </trkpt>
      <trkpt lat="59.141885425636" lon="17.932951333156">
        <ele>1</ele>
        <time>2017-07-07T17:19:08Z</time>
      </trkpt>
      <trkpt lat="59.142207290596" lon="17.933344528085">
        <ele>1</ele>
        <time>2017-07-07T17:19:12Z</time>
      </trkpt>
      <trkpt lat="59.142438044303" lon="17.933588609013">
        <ele>1.4</ele>
        <time>2017-07-07T17:19:15Z</time>
      </trkpt>
      <trkpt lat="59.142511637385" lon="17.93366429757">
        <ele>1.8</ele>
        <time>2017-07-07T17:19:16Z</time>
      </trkpt>
      <trkpt lat="59.142585062829" lon="17.933740069946">
        <ele>2.2</ele>
        <time>2017-07-07T17:19:17Z</time>
      </trkpt>
      <trkpt lat="59.142661170481" lon="17.93380846625">
        <ele>2.6</ele>
        <time>2017-07-07T17:19:18Z</time>
      </trkpt>
      <trkpt lat="59.142736188486" lon="17.933873593613">
        <ele>3</ele>
        <time>2017-07-07T17:19:19Z</time>
      </trkpt>
      <trkpt lat="59.142808356645" lon="17.933941151727">
        <ele>3.4</ele>
        <time>2017-07-07T17:19:20Z</time>
      </trkpt>
      <trkpt lat="59.142880692442" lon="17.934006195271">
        <ele>3.8</ele>
        <time>2017-07-07T17:19:21Z</time>
      </trkpt>
      <trkpt lat="59.14295797356" lon="17.934066125856">
        <ele>4.2</ele>
        <time>2017-07-07T17:19:22Z</time>
      </trkpt>
      <trkpt lat="59.143033243022" lon="17.934120943482">
        <ele>4.6</ele>
        <time>2017-07-07T17:19:23Z</time>
      </trkpt>
      <trkpt lat="59.143110943235" lon="17.934174922918">
        <ele>5.2</ele>
        <time>2017-07-07T17:19:24Z</time>
      </trkpt>
      <trkpt lat="59.143188727267" lon="17.934222364472">
        <ele>5.8</ele>
        <time>2017-07-07T17:19:25Z</time>
      </trkpt>
      <trkpt lat="59.143265421652" lon="17.934265615076">
        <ele>6.4</ele>
        <time>2017-07-07T17:19:26Z</time>
      </trkpt>
      <trkpt lat="59.143344295331" lon="17.93429796921">
        <ele>7</ele>
        <time>2017-07-07T17:19:27Z</time>
      </trkpt>
      <trkpt lat="59.143429120159" lon="17.934321773806">
        <ele>7.6</ele>
        <time>2017-07-07T17:19:28Z</time>
      </trkpt>
      <trkpt lat="59.143513358254" lon="17.934341638909">
        <ele>7.6</ele>
        <time>2017-07-07T17:19:29Z</time>
      </trkpt>
      <trkpt lat="59.143982074102" lon="17.934375166509">
        <ele>7.6</ele>
        <time>2017-07-07T17:19:34Z</time>
      </trkpt>
      <trkpt lat="59.144290779479" lon="17.934329652792">
        <ele>7.2</ele>
        <time>2017-07-07T17:19:37Z</time>
      </trkpt>
      <trkpt lat="59.144397061971" lon="17.934301657246">
        <ele>6.8</ele>
        <time>2017-07-07T17:19:38Z</time>
      </trkpt>
      <trkpt lat="59.144497141857" lon="17.934264106334">
        <ele>6.4</ele>
        <time>2017-07-07T17:19:39Z</time>
      </trkpt>
      <trkpt lat="59.144596467372" lon="17.934221945377">
        <ele>6</ele>
        <time>2017-07-07T17:19:40Z</time>
      </trkpt>
      <trkpt lat="59.144698307457" lon="17.934180706429">
        <ele>5.6</ele>
        <time>2017-07-07T17:19:41Z</time>
      </trkpt>
      <trkpt lat="59.144799896085" lon="17.934130079753">
        <ele>5.2</ele>
        <time>2017-07-07T17:19:42Z</time>
      </trkpt>
      <trkpt lat="59.144902490541" lon="17.934075094489">
        <ele>4.6</ele>
        <time>2017-07-07T17:19:43Z</time>
      </trkpt>
      <trkpt lat="59.145007599567" lon="17.934015750637">
        <ele>4.2</ele>
        <time>2017-07-07T17:19:44Z</time>
      </trkpt>
      <trkpt lat="59.145114720249" lon="17.933949198351">
        <ele>3.8</ele>
        <time>2017-07-07T17:19:45Z</time>
      </trkpt>
      <trkpt lat="59.145211195918" lon="17.933885915006">
        <ele>3.4</ele>
        <time>2017-07-07T17:19:46Z</time>
      </trkpt>
      <trkpt lat="59.145611347824" lon="17.93357628762">
        <ele>3.4</ele>
        <time>2017-07-07T17:19:50Z</time>
      </trkpt>
      <trkpt lat="59.14570136943" lon="17.933475285725">
        <ele>3.4</ele>
        <time>2017-07-07T17:19:51Z</time>
      </trkpt>
      <trkpt lat="59.146135719488" lon="17.932829627968">
        <ele>3.4</ele>
        <time>2017-07-07T17:19:56Z</time>
      </trkpt>
      <trkpt lat="59.146549952986" lon="17.932145581109">
        <ele>3.4</ele>
        <time>2017-07-07T17:20:01Z</time>
      </trkpt>
      <trkpt lat="59.146704263765" lon="17.93187057097">
        <ele>3.4</ele>
        <time>2017-07-07T17:20:03Z</time>
      </trkpt>
      <trkpt lat="59.147181110056" lon="17.93112542006">
        <ele>3.4</ele>
        <time>2017-07-07T17:20:09Z</time>
      </trkpt>
      <trkpt lat="59.147530719105" lon="17.930726273982">
        <ele>2.8</ele>
        <time>2017-07-07T17:20:13Z</time>
      </trkpt>
      <trkpt lat="59.147620405435" lon="17.930635414186">
        <ele>2.4</ele>
        <time>2017-07-07T17:20:14Z</time>
      </trkpt>
      <trkpt lat="59.147711935783" lon="17.930548074788">
        <ele>2</ele>
        <time>2017-07-07T17:20:15Z</time>
      </trkpt>
      <trkpt lat="59.147807573262" lon="17.930459645743">
        <ele>1.6</ele>
        <time>2017-07-07T17:20:16Z</time>
      </trkpt>
      <trkpt lat="59.147900025619" lon="17.930382280806">
        <ele>1.2</ele>
        <time>2017-07-07T17:20:17Z</time>
      </trkpt>
      <trkpt lat="59.148176041586" lon="17.930171727478">
        <ele>1.2</ele>
        <time>2017-07-07T17:20:20Z</time>
      </trkpt>
      <trkpt lat="59.14854115715" lon="17.929893196941">
        <ele>1.2</ele>
        <time>2017-07-07T17:20:24Z</time>
      </trkpt>
      <trkpt lat="59.149002413107" lon="17.929610056359">
        <ele>1.2</ele>
        <time>2017-07-07T17:20:29Z</time>
      </trkpt>
      <trkpt lat="59.149093440541" lon="17.929553059439">
        <ele>1.2</ele>
        <time>2017-07-07T17:20:30Z</time>
      </trkpt>
      <trkpt lat="59.149368031585" lon="17.929410650958">
        <ele>1.2</ele>
        <time>2017-07-07T17:20:33Z</time>
      </trkpt>
      <trkpt lat="59.14994931635" lon="17.929175873939">
        <ele>1.2</ele>
        <time>2017-07-07T17:20:39Z</time>
      </trkpt>
      <trkpt lat="59.150527248355" lon="17.928950065553">
        <ele>0.8</ele>
        <time>2017-07-07T17:20:45Z</time>
      </trkpt>
      <trkpt lat="59.150627328241" lon="17.928913939564">
        <ele>0</ele>
        <time>2017-07-07T17:20:46Z</time>
      </trkpt>
      <trkpt lat="59.150719696779" lon="17.928882255982">
        <ele>0</ele>
        <time>2017-07-07T17:20:47Z</time>
      </trkpt>
      <trkpt lat="59.150810891851" lon="17.928848560744">
        <ele>0</ele>
        <time>2017-07-07T17:20:48Z</time>
      </trkpt>
      <trkpt lat="59.151074083511" lon="17.928751582161">
        <ele>0</ele>
        <time>2017-07-07T17:20:51Z</time>
      </trkpt>
      <trkpt lat="59.151424027836" lon="17.928640773443">
        <ele>0</ele>
        <time>2017-07-07T17:20:55Z</time>
      </trkpt>
      <trkpt lat="59.151508014474" lon="17.928612358802">
        <ele>0</ele>
        <time>2017-07-07T17:20:56Z</time>
      </trkpt>
      <trkpt lat="59.151658050484" lon="17.928572963872">
        <ele>0</ele>
        <time>2017-07-07T17:20:58Z</time>
      </trkpt>
      <trkpt lat="59.151731895023" lon="17.928551673846">
        <ele>0</ele>
        <time>2017-07-07T17:20:59Z</time>
      </trkpt>
      <trkpt lat="59.151803895544" lon="17.928531473467">
        <ele>0.4</ele>
        <time>2017-07-07T17:21:00Z</time>
      </trkpt>
      <trkpt lat="59.151878159178" lon="17.928509093794">
        <ele>1</ele>
        <time>2017-07-07T17:21:01Z</time>
      </trkpt>
      <trkpt lat="59.15195007588" lon="17.928486127388">
        <ele>1.4</ele>
        <time>2017-07-07T17:21:02Z</time>
      </trkpt>
      <trkpt lat="59.152025093885" lon="17.928463244801">
        <ele>1.8</ele>
        <time>2017-07-07T17:21:03Z</time>
      </trkpt>
      <trkpt lat="59.152100447166" lon="17.928444636983">
        <ele>2.2</ele>
        <time>2017-07-07T17:21:04Z</time>
      </trkpt>
      <trkpt lat="59.152174626981" lon="17.9284230955">
        <ele>2.6</ele>
        <time>2017-07-07T17:21:05Z</time>
      </trkpt>
      <trkpt lat="59.152249477348" lon="17.928402392207">
        <ele>3.2</ele>
        <time>2017-07-07T17:21:06Z</time>
      </trkpt>
      <trkpt lat="59.152324662991" lon="17.928392417746">
        <ele>3.6</ele>
        <time>2017-07-07T17:21:07Z</time>
      </trkpt>
      <trkpt lat="59.152399178082" lon="17.928391328099">
        <ele>3.6</ele>
        <time>2017-07-07T17:21:08Z</time>
      </trkpt>
      <trkpt lat="59.152623477726" lon="17.928436674178">
        <ele>4.4</ele>
        <time>2017-07-07T17:21:11Z</time>
      </trkpt>
      <trkpt lat="59.152693718048" lon="17.928474560366">
        <ele>4.8</ele>
        <time>2017-07-07T17:21:12Z</time>
      </trkpt>
      <trkpt lat="59.152761611438" lon="17.928527282517">
        <ele>5.2</ele>
        <time>2017-07-07T17:21:13Z</time>
      </trkpt>
      <trkpt lat="59.152827912267" lon="17.928590398224">
        <ele>5.6</ele>
        <time>2017-07-07T17:21:14Z</time>
      </trkpt>
      <trkpt lat="59.153083224941" lon="17.928903797465">
        <ele>5.6</ele>
        <time>2017-07-07T17:21:18Z</time>
      </trkpt>
      <trkpt lat="59.153368963912" lon="17.929291292702">
        <ele>5.6</ele>
        <time>2017-07-07T17:21:23Z</time>
      </trkpt>
      <trkpt lat="59.153487735435" lon="17.929422804713">
        <ele>6</ele>
        <time>2017-07-07T17:21:25Z</time>
      </trkpt>
      <trkpt lat="59.153547246925" lon="17.929481897108">
        <ele>6.4</ele>
        <time>2017-07-07T17:21:26Z</time>
      </trkpt>
      <trkpt lat="59.153603908569" lon="17.929544426082">
        <ele>7</ele>
        <time>2017-07-07T17:21:27Z</time>
      </trkpt>
      <trkpt lat="59.15365579253" lon="17.929599411346">
        <ele>7.4</ele>
        <time>2017-07-07T17:21:28Z</time>
      </trkpt>
      <trkpt lat="59.153710107242" lon="17.929651127669">
        <ele>7.8</ele>
        <time>2017-07-07T17:21:29Z</time>
      </trkpt>
      <trkpt lat="59.154011688004" lon="17.929904261049">
        <ele>7.8</ele>
        <time>2017-07-07T17:21:34Z</time>
      </trkpt>
      <trkpt lat="59.154060805938" lon="17.929951283508">
        <ele>8.2</ele>
        <time>2017-07-07T17:21:35Z</time>
      </trkpt>
      <trkpt lat="59.15411595884" lon="17.929991516628">
        <ele>9.2</ele>
        <time>2017-07-07T17:21:36Z</time>
      </trkpt>
      <trkpt lat="59.154170189733" lon="17.930026050056">
        <ele>9.6</ele>
        <time>2017-07-07T17:21:37Z</time>
      </trkpt>
      <trkpt lat="59.154224755902" lon="17.930062678959">
        <ele>10</ele>
        <time>2017-07-07T17:21:38Z</time>
      </trkpt>
      <trkpt lat="59.154398847965" lon="17.930172984763">
        <ele>10</ele>
        <time>2017-07-07T17:21:41Z</time>
      </trkpt>
      <trkpt lat="59.154653909182" lon="17.930243560361">
        <ele>10</ele>
        <time>2017-07-07T17:21:45Z</time>
      </trkpt>
      <trkpt lat="59.154741080942" lon="17.930231574244">
        <ele>10</ele>
        <time>2017-07-07T17:21:46Z</time>
      </trkpt>
      <trkpt lat="59.15498767644" lon="17.930093272894">
        <ele>10</ele>
        <time>2017-07-07T17:21:49Z</time>
      </trkpt>
      <trkpt lat="59.155134611147" lon="17.929927059817">
        <ele>9.6</ele>
        <time>2017-07-07T17:21:51Z</time>
      </trkpt>
      <trkpt lat="59.155211389351" lon="17.929828237216">
        <ele>9.2</ele>
        <time>2017-07-07T17:21:52Z</time>
      </trkpt>
      <trkpt lat="59.155294873075" lon="17.929720445982">
        <ele>8.8</ele>
        <time>2017-07-07T17:21:53Z</time>
      </trkpt>
      <trkpt lat="59.155378692075" lon="17.929605111038">
        <ele>8.4</ele>
        <time>2017-07-07T17:21:54Z</time>
      </trkpt>
      <trkpt lat="59.155461589066" lon="17.929487680619">
        <ele>8</ele>
        <time>2017-07-07T17:21:55Z</time>
      </trkpt>
      <trkpt lat="59.155714890084" lon="17.929107309997">
        <ele>8</ele>
        <time>2017-07-07T17:21:58Z</time>
      </trkpt>
      <trkpt lat="59.155800050188" lon="17.928982084411">
        <ele>7.4</ele>
        <time>2017-07-07T17:21:59Z</time>
      </trkpt>
      <trkpt lat="59.155887221948" lon="17.928856104454">
        <ele>6.4</ele>
        <time>2017-07-07T17:22:00Z</time>
      </trkpt>
      <trkpt lat="59.15597254969" lon="17.928737668207">
        <ele>5.8</ele>
        <time>2017-07-07T17:22:01Z</time>
      </trkpt>
      <trkpt lat="59.156056033414" lon="17.928621243616">
        <ele>5.4</ele>
        <time>2017-07-07T17:22:02Z</time>
      </trkpt>
      <trkpt lat="59.156230796029" lon="17.928373893747">
        <ele>5.4</ele>
        <time>2017-07-07T17:22:04Z</time>
      </trkpt>
      <trkpt lat="59.156324505671" lon="17.928267862712">
        <ele>4.8</ele>
        <time>2017-07-07T17:22:05Z</time>
      </trkpt>
      <trkpt lat="59.156417963856" lon="17.928182115875">
        <ele>4.4</ele>
        <time>2017-07-07T17:22:06Z</time>
      </trkpt>
      <trkpt lat="59.156523491977" lon="17.928123107299">
        <ele>4</ele>
        <time>2017-07-07T17:22:07Z</time>
      </trkpt>
      <trkpt lat="59.156633965419" lon="17.928089998794">
        <ele>3.6</ele>
        <time>2017-07-07T17:22:08Z</time>
      </trkpt>
      <trkpt lat="59.156744271223" lon="17.928089328242">
        <ele>3.2</ele>
        <time>2017-07-07T17:22:09Z</time>
      </trkpt>
      <trkpt lat="59.156852397733" lon="17.928113216657">
        <ele>3.2</ele>
        <time>2017-07-07T17:22:10Z</time>
      </trkpt>
      <trkpt lat="59.157063286337" lon="17.928188653757">
        <ele>3.2</ele>
        <time>2017-07-07T17:22:12Z</time>
      </trkpt>
      <trkpt lat="59.157384145469" lon="17.92830910166">
        <ele>3.2</ele>
        <time>2017-07-07T17:22:15Z</time>
      </trkpt>
      <trkpt lat="59.157489003038" lon="17.928341120518">
        <ele>2.8</ele>
        <time>2017-07-07T17:22:16Z</time>
      </trkpt>
      <trkpt lat="59.157594363521" lon="17.928365092752">
        <ele>2.2</ele>
        <time>2017-07-07T17:22:17Z</time>
      </trkpt>
      <trkpt lat="59.157697963805" lon="17.928383281475">
        <ele>1.8</ele>
        <time>2017-07-07T17:22:18Z</time>
      </trkpt>
      <trkpt lat="59.157802821374" lon="17.92840968446">
        <ele>1.2</ele>
        <time>2017-07-07T17:22:19Z</time>
      </trkpt>
      <trkpt lat="59.1578995485" lon="17.928435081617">
        <ele>0.8</ele>
        <time>2017-07-07T17:22:20Z</time>
      </trkpt>
      <trkpt lat="59.158094260037" lon="17.928489563967">
        <ele>0.8</ele>
        <time>2017-07-07T17:22:22Z</time>
      </trkpt>
      <trkpt lat="59.15828846866" lon="17.928498700238">
        <ele>0.8</ele>
        <time>2017-07-07T17:22:24Z</time>
      </trkpt>
      <trkpt lat="59.158568675577" lon="17.928471878158">
        <ele>1.2</ele>
        <time>2017-07-07T17:22:27Z</time>
      </trkpt>
      <trkpt lat="59.158650818197" lon="17.928458383299">
        <ele>1.8</ele>
        <time>2017-07-07T17:22:28Z</time>
      </trkpt>
      <trkpt lat="59.158730362428" lon="17.928443882612">
        <ele>2.4</ele>
        <time>2017-07-07T17:22:29Z</time>
      </trkpt>
      <trkpt lat="59.158809319926" lon="17.928424939518">
        <ele>2.8</ele>
        <time>2017-07-07T17:22:30Z</time>
      </trkpt>
      <trkpt lat="59.158886265768" lon="17.928408091899">
        <ele>3.4</ele>
        <time>2017-07-07T17:22:31Z</time>
      </trkpt>
      <trkpt lat="59.158962205782" lon="17.928388059158">
        <ele>3.8</ele>
        <time>2017-07-07T17:22:32Z</time>
      </trkpt>
      <trkpt lat="59.159040576547" lon="17.928368277874">
        <ele>4.2</ele>
        <time>2017-07-07T17:22:33Z</time>
      </trkpt>
      <trkpt lat="59.159121042787" lon="17.928342461622">
        <ele>4.8</ele>
        <time>2017-07-07T17:22:34Z</time>
      </trkpt>
      <trkpt lat="59.159201425208" lon="17.928323015614">
        <ele>5.2</ele>
        <time>2017-07-07T17:22:35Z</time>
      </trkpt>
      <trkpt lat="59.159287172045" lon="17.928304323977">
        <ele>5.8</ele>
        <time>2017-07-07T17:22:36Z</time>
      </trkpt>
      <trkpt lat="59.159367638285" lon="17.928288482186">
        <ele>6.4</ele>
        <time>2017-07-07T17:22:37Z</time>
      </trkpt>
      <trkpt lat="59.159440309358" lon="17.928272808033">
        <ele>7.2</ele>
        <time>2017-07-07T17:22:38Z</time>
      </trkpt>
      <trkpt lat="59.159509627671" lon="17.928256211871">
        <ele>7.8</ele>
        <time>2017-07-07T17:22:39Z</time>
      </trkpt>
      <trkpt lat="59.159579197441" lon="17.928234335112">
        <ele>8.4</ele>
        <time>2017-07-07T17:22:40Z</time>
      </trkpt>
      <trkpt lat="59.159642313148" lon="17.928207848308">
        <ele>9</ele>
        <time>2017-07-07T17:22:41Z</time>
      </trkpt>
      <trkpt lat="59.15970920071" lon="17.928173901613">
        <ele>9.6</ele>
        <time>2017-07-07T17:22:42Z</time>
      </trkpt>
      <trkpt lat="59.159773825159" lon="17.92812889081">
        <ele>10.2</ele>
        <time>2017-07-07T17:22:43Z</time>
      </trkpt>
      <trkpt lat="59.159840042169" lon="17.92807859941">
        <ele>10.6</ele>
        <time>2017-07-07T17:22:44Z</time>
      </trkpt>
      <trkpt lat="59.159907516464" lon="17.928025541983">
        <ele>11.4</ele>
        <time>2017-07-07T17:22:45Z</time>
      </trkpt>
      <trkpt lat="59.159976080406" lon="17.927966952502">
        <ele>12</ele>
        <time>2017-07-07T17:22:46Z</time>
      </trkpt>
      <trkpt lat="59.160049589669" lon="17.927902830967">
        <ele>12.6</ele>
        <time>2017-07-07T17:22:47Z</time>
      </trkpt>
      <trkpt lat="59.160120165267" lon="17.927833177378">
        <ele>13.4</ele>
        <time>2017-07-07T17:22:48Z</time>
      </trkpt>
      <trkpt lat="59.160189986494" lon="17.927759500477">
        <ele>14</ele>
        <time>2017-07-07T17:22:49Z</time>
      </trkpt>
      <trkpt lat="59.160264333947" lon="17.927679788608">
        <ele>14</ele>
        <time>2017-07-07T17:22:50Z</time>
      </trkpt>
      <trkpt lat="59.160792226009" lon="17.927146113035">
        <ele>14</ele>
        <time>2017-07-07T17:22:57Z</time>
      </trkpt>
      <trkpt lat="59.161273682345" lon="17.926764904223">
        <ele>14</ele>
        <time>2017-07-07T17:23:03Z</time>
      </trkpt>
      <trkpt lat="59.161595044391" lon="17.926471956818">
        <ele>13.6</ele>
        <time>2017-07-07T17:23:07Z</time>
      </trkpt>
      <trkpt lat="59.161675426812" lon="17.926386042343">
        <ele>13.2</ele>
        <time>2017-07-07T17:23:08Z</time>
      </trkpt>
      <trkpt lat="59.161756563604" lon="17.926297194203">
        <ele>12.8</ele>
        <time>2017-07-07T17:23:09Z</time>
      </trkpt>
      <trkpt lat="59.161839125319" lon="17.926205496217">
        <ele>12.4</ele>
        <time>2017-07-07T17:23:10Z</time>
      </trkpt>
      <trkpt lat="59.161923782509" lon="17.926111032204">
        <ele>12</ele>
        <time>2017-07-07T17:23:11Z</time>
      </trkpt>
      <trkpt lat="59.162011289545" lon="17.926018579847">
        <ele>11.6</ele>
        <time>2017-07-07T17:23:12Z</time>
      </trkpt>
      <trkpt lat="59.162110698879" lon="17.925927468594">
        <ele>11.2</ele>
        <time>2017-07-07T17:23:13Z</time>
      </trkpt>
      <trkpt lat="59.162210275851" lon="17.925847589087">
        <ele>10</ele>
        <time>2017-07-07T17:23:14Z</time>
      </trkpt>
      <trkpt lat="59.162316642162" lon="17.925778270774">
        <ele>9.4</ele>
        <time>2017-07-07T17:23:15Z</time>
      </trkpt>
      <trkpt lat="59.162433150572" lon="17.925737786197">
        <ele>8.6</ele>
        <time>2017-07-07T17:23:16Z</time>
      </trkpt>
      <trkpt lat="59.162558879072" lon="17.925717669637">
        <ele>7.8</ele>
        <time>2017-07-07T17:23:17Z</time>
      </trkpt>
      <trkpt lat="59.162689217617" lon="17.925708030452">
        <ele>7</ele>
        <time>2017-07-07T17:23:18Z</time>
      </trkpt>
      <trkpt lat="59.162824669121" lon="17.925707778995">
        <ele>6</ele>
        <time>2017-07-07T17:23:19Z</time>
      </trkpt>
      <trkpt lat="59.16296975981" lon="17.92572244732">
        <ele>4.8</ele>
        <time>2017-07-07T17:23:20Z</time>
      </trkpt>
      <trkpt lat="59.163115521051" lon="17.925737115645">
        <ele>3.6</ele>
        <time>2017-07-07T17:23:21Z</time>
      </trkpt>
      <trkpt lat="59.163267903993" lon="17.925746671011">
        <ele>2</ele>
        <time>2017-07-07T17:23:22Z</time>
      </trkpt>
      <trkpt lat="59.163422214772" lon="17.925735439265">
        <ele>0.6</ele>
        <time>2017-07-07T17:23:23Z</time>
      </trkpt>
      <trkpt lat="59.16357828575" lon="17.92570149257">
        <ele>0</ele>
        <time>2017-07-07T17:23:24Z</time>
      </trkpt>
      <trkpt lat="59.163732931805" lon="17.925643825098">
        <ele>0</ele>
        <time>2017-07-07T17:23:25Z</time>
      </trkpt>
      <trkpt lat="59.163884728014" lon="17.925583726875">
        <ele>0</ele>
        <time>2017-07-07T17:23:26Z</time>
      </trkpt>
      <trkpt lat="59.164033506739" lon="17.925538129339">
        <ele>0</ele>
        <time>2017-07-07T17:23:27Z</time>
      </trkpt>
      <trkpt lat="59.164177843057" lon="17.925519102426">
        <ele>0</ele>
        <time>2017-07-07T17:23:28Z</time>
      </trkpt>
      <trkpt lat="59.164317150235" lon="17.925540727728">
        <ele>0</ele>
        <time>2017-07-07T17:23:29Z</time>
      </trkpt>
      <trkpt lat="59.164444052201" lon="17.925611638602">
        <ele>0</ele>
        <time>2017-07-07T17:23:30Z</time>
      </trkpt>
      <trkpt lat="59.164559638602" lon="17.925719848931">
        <ele>0</ele>
        <time>2017-07-07T17:23:31Z</time>
      </trkpt>
      <trkpt lat="59.16485484912" lon="17.92615579155">
        <ele>0</ele>
        <time>2017-07-07T17:23:34Z</time>
      </trkpt>
      <trkpt lat="59.164945038364" lon="17.926291326873">
        <ele>0</ele>
        <time>2017-07-07T17:23:35Z</time>
      </trkpt>
      <trkpt lat="59.16504344187" lon="17.92643323244">
        <ele>0</ele>
        <time>2017-07-07T17:23:36Z</time>
      </trkpt>
      <trkpt lat="59.165145030498" lon="17.926545046986">
        <ele>0</ele>
        <time>2017-07-07T17:23:37Z</time>
      </trkpt>
      <trkpt lat="59.165252486456" lon="17.926637583162">
        <ele>0</ele>
        <time>2017-07-07T17:23:38Z</time>
      </trkpt>
      <trkpt lat="59.16535860131" lon="17.926715534832">
        <ele>0</ele>
        <time>2017-07-07T17:23:39Z</time>
      </trkpt>
      <trkpt lat="59.165583152411" lon="17.926853668544">
        <ele>0</ele>
        <time>2017-07-07T17:23:41Z</time>
      </trkpt>
      <trkpt lat="59.16570728835" lon="17.926895242768">
        <ele>0</ele>
        <time>2017-07-07T17:23:42Z</time>
      </trkpt>
      <trkpt lat="59.166112804672" lon="17.926954167525">
        <ele>0</ele>
        <time>2017-07-07T17:23:45Z</time>
      </trkpt>
      <trkpt lat="59.166244484321" lon="17.926952407326">
        <ele>0</ele>
        <time>2017-07-07T17:23:46Z</time>
      </trkpt>
      <trkpt lat="59.166373733219" lon="17.926948300195">
        <ele>0</ele>
        <time>2017-07-07T17:23:47Z</time>
      </trkpt>
      <trkpt lat="59.166504323221" lon="17.926944444521">
        <ele>0</ele>
        <time>2017-07-07T17:23:48Z</time>
      </trkpt>
      <trkpt lat="59.166634745585" lon="17.926933212775">
        <ele>0</ele>
        <time>2017-07-07T17:23:49Z</time>
      </trkpt>
      <trkpt lat="59.166763910664" lon="17.926918460631">
        <ele>0</ele>
        <time>2017-07-07T17:23:50Z</time>
      </trkpt>
      <trkpt lat="59.166897685788" lon="17.926910749283">
        <ele>0</ele>
        <time>2017-07-07T17:23:51Z</time>
      </trkpt>
      <trkpt lat="59.167021402632" lon="17.926903876125">
        <ele>0</ele>
        <time>2017-07-07T17:23:52Z</time>
      </trkpt>
      <trkpt lat="59.167144951838" lon="17.926890548904">
        <ele>0</ele>
        <time>2017-07-07T17:23:53Z</time>
      </trkpt>
      <trkpt lat="59.167266740845" lon="17.926851153974">
        <ele>0</ele>
        <time>2017-07-07T17:23:54Z</time>
      </trkpt>
      <trkpt lat="59.167377465744" lon="17.926786697163">
        <ele>0</ele>
        <time>2017-07-07T17:23:55Z</time>
      </trkpt>
      <trkpt lat="59.167485340797" lon="17.926700363593">
        <ele>0</ele>
        <time>2017-07-07T17:23:56Z</time>
      </trkpt>
      <trkpt lat="59.167900328666" lon="17.926374475321">
        <ele>0</ele>
        <time>2017-07-07T17:24:00Z</time>
      </trkpt>
      <trkpt lat="59.168006694977" lon="17.926338852246">
        <ele>0</ele>
        <time>2017-07-07T17:24:01Z</time>
      </trkpt>
      <trkpt lat="59.168318501657" lon="17.926321334075">
        <ele>0</ele>
        <time>2017-07-07T17:24:04Z</time>
      </trkpt>
      <trkpt lat="59.168422269579" lon="17.92632259136">
        <ele>0</ele>
        <time>2017-07-07T17:24:05Z</time>
      </trkpt>
      <trkpt lat="59.168529222623" lon="17.926326866129">
        <ele>0</ele>
        <time>2017-07-07T17:24:06Z</time>
      </trkpt>
      <trkpt lat="59.168628883414" lon="17.92632259136">
        <ele>0</ele>
        <time>2017-07-07T17:24:07Z</time>
      </trkpt>
      <trkpt lat="59.168728292748" lon="17.926313790365">
        <ele>0</ele>
        <time>2017-07-07T17:24:08Z</time>
      </trkpt>
      <trkpt lat="59.168829127005" lon="17.926303564447">
        <ele>0</ele>
        <time>2017-07-07T17:24:09Z</time>
      </trkpt>
      <trkpt lat="59.168930296538" lon="17.926290572502">
        <ele>0</ele>
        <time>2017-07-07T17:24:10Z</time>
      </trkpt>
      <trkpt lat="59.169031214614" lon="17.926276658548">
        <ele>0</ele>
        <time>2017-07-07T17:24:11Z</time>
      </trkpt>
      <trkpt lat="59.169530105302" lon="17.926195857032">
        <ele>0</ele>
        <time>2017-07-07T17:24:16Z</time>
      </trkpt>
      <trkpt lat="59.169808468201" lon="17.926089490721">
        <ele>0</ele>
        <time>2017-07-07T17:24:19Z</time>
      </trkpt>
      <trkpt lat="59.169893293029" lon="17.926034086362">
        <ele>0</ele>
        <time>2017-07-07T17:24:20Z</time>
      </trkpt>
      <trkpt lat="59.170309873459" lon="17.9257492694">
        <ele>0</ele>
        <time>2017-07-07T17:24:25Z</time>
      </trkpt>
      <trkpt lat="59.170390423518" lon="17.925679867268">
        <ele>0</ele>
        <time>2017-07-07T17:24:26Z</time>
      </trkpt>
      <trkpt lat="59.170465944437" lon="17.925606358005">
        <ele>0</ele>
        <time>2017-07-07T17:24:27Z</time>
      </trkpt>
      <trkpt lat="59.170544901935" lon="17.925527065231">
        <ele>0</ele>
        <time>2017-07-07T17:24:28Z</time>
      </trkpt>
      <trkpt lat="59.170694015936" lon="17.925374347013">
        <ele>0</ele>
        <time>2017-07-07T17:24:30Z</time>
      </trkpt>
      <trkpt lat="59.170927451851" lon="17.925175528345">
        <ele>0</ele>
        <time>2017-07-07T17:24:33Z</time>
      </trkpt>
      <trkpt lat="59.171014958887" lon="17.925169325739">
        <ele>0</ele>
        <time>2017-07-07T17:24:34Z</time>
      </trkpt>
      <trkpt lat="59.171148650192" lon="17.925362444715">
        <ele>0</ele>
        <time>2017-07-07T17:24:36Z</time>
      </trkpt>
      <trkpt lat="59.171201456162" lon="17.925669976626">
        <ele>0</ele>
        <time>2017-07-07T17:24:38Z</time>
      </trkpt>
      <trkpt lat="59.171226601862" lon="17.925821186102">
        <ele>0</ele>
        <time>2017-07-07T17:24:39Z</time>
      </trkpt>
      <trkpt lat="59.171250825553" lon="17.92596803699">
        <ele>0</ele>
        <time>2017-07-07T17:24:40Z</time>
      </trkpt>
      <trkpt lat="59.171283431144" lon="17.926103404675">
        <ele>0</ele>
        <time>2017-07-07T17:24:41Z</time>
      </trkpt>
      <trkpt lat="59.171325424463" lon="17.926220751275">
        <ele>0</ele>
        <time>2017-07-07T17:24:42Z</time>
      </trkpt>
      <trkpt lat="59.171385438867" lon="17.926309850872">
        <ele>0</ele>
        <time>2017-07-07T17:24:43Z</time>
      </trkpt>
      <trkpt lat="59.171457607026" lon="17.926383276316">
        <ele>0</ele>
        <time>2017-07-07T17:24:44Z</time>
      </trkpt>
      <trkpt lat="59.171529775185" lon="17.926443123082">
        <ele>0</ele>
        <time>2017-07-07T17:24:45Z</time>
      </trkpt>
      <trkpt lat="59.171604038819" lon="17.926485451677">
        <ele>0</ele>
        <time>2017-07-07T17:24:46Z</time>
      </trkpt>
      <trkpt lat="59.171677128987" lon="17.926533060869">
        <ele>0</ele>
        <time>2017-07-07T17:24:47Z</time>
      </trkpt>
      <trkpt lat="59.171748710413" lon="17.926584274278">
        <ele>0</ele>
        <time>2017-07-07T17:24:48Z</time>
      </trkpt>
      <trkpt lat="59.171821800581" lon="17.92663439804">
        <ele>0</ele>
        <time>2017-07-07T17:24:49Z</time>
      </trkpt>
      <trkpt lat="59.17189648331" lon="17.926689970037">
        <ele>0</ele>
        <time>2017-07-07T17:24:50Z</time>
      </trkpt>
      <trkpt lat="59.17197192041" lon="17.926750319717">
        <ele>0</ele>
        <time>2017-07-07T17:24:51Z</time>
      </trkpt>
      <trkpt lat="59.172055236496" lon="17.926812429596">
        <ele>0</ele>
        <time>2017-07-07T17:24:52Z</time>
      </trkpt>
      <trkpt lat="59.172214073501" lon="17.9269227354">
        <ele>0</ele>
        <time>2017-07-07T17:24:54Z</time>
      </trkpt>
      <trkpt lat="59.172802231424" lon="17.927337304174">
        <ele>0</ele>
        <time>2017-07-07T17:25:01Z</time>
      </trkpt>
      <trkpt lat="59.173331213133" lon="17.927705856317">
        <ele>0</ele>
        <time>2017-07-07T17:25:07Z</time>
      </trkpt>
      <trkpt lat="59.173502203893" lon="17.927834602301">
        <ele>0</ele>
        <time>2017-07-07T17:25:09Z</time>
      </trkpt>
      <trkpt lat="59.173986258618" lon="17.928182954065">
        <ele>0</ele>
        <time>2017-07-07T17:25:15Z</time>
      </trkpt>
      <trkpt lat="59.174523538408" lon="17.928571371311">
        <ele>0</ele>
        <time>2017-07-07T17:25:22Z</time>
      </trkpt>
      <trkpt lat="59.174598053499" lon="17.928621411254">
        <ele>0</ele>
        <time>2017-07-07T17:25:23Z</time>
      </trkpt>
      <trkpt lat="59.174674580246" lon="17.928671786473">
        <ele>0</ele>
        <time>2017-07-07T17:25:24Z</time>
      </trkpt>
      <trkpt lat="59.174751777545" lon="17.928724089529">
        <ele>0</ele>
        <time>2017-07-07T17:25:25Z</time>
      </trkpt>
      <trkpt lat="59.174828304292" lon="17.928776308766">
        <ele>0</ele>
        <time>2017-07-07T17:25:26Z</time>
      </trkpt>
      <trkpt lat="59.174907429428" lon="17.928827522175">
        <ele>0</ele>
        <time>2017-07-07T17:25:27Z</time>
      </trkpt>
      <trkpt lat="59.174983034166" lon="17.928875215186">
        <ele>0.2</ele>
        <time>2017-07-07T17:25:28Z</time>
      </trkpt>
      <trkpt lat="59.175062913673" lon="17.928923997844">
        <ele>0.8</ele>
        <time>2017-07-07T17:25:29Z</time>
      </trkpt>
      <trkpt lat="59.17513860223" lon="17.928964314783">
        <ele>1.4</ele>
        <time>2017-07-07T17:25:30Z</time>
      </trkpt>
      <trkpt lat="59.175211943855" lon="17.92899809384">
        <ele>2</ele>
        <time>2017-07-07T17:25:31Z</time>
      </trkpt>
      <trkpt lat="59.175367511919" lon="17.92906933999">
        <ele>2.4</ele>
        <time>2017-07-07T17:25:33Z</time>
      </trkpt>
      <trkpt lat="59.175447559064" lon="17.929101777943">
        <ele>3</ele>
        <time>2017-07-07T17:25:34Z</time>
      </trkpt>
      <trkpt lat="59.175529953141" lon="17.929132120421">
        <ele>3.4</ele>
        <time>2017-07-07T17:25:35Z</time>
      </trkpt>
      <trkpt lat="59.175613269227" lon="17.929158355768">
        <ele>4</ele>
        <time>2017-07-07T17:25:36Z</time>
      </trkpt>
      <trkpt lat="59.175701446815" lon="17.929180986898">
        <ele>4.4</ele>
        <time>2017-07-07T17:25:37Z</time>
      </trkpt>
      <trkpt lat="59.176225483203" lon="17.929234128144">
        <ele>4.4</ele>
        <time>2017-07-07T17:25:43Z</time>
      </trkpt>
      <trkpt lat="59.176406113148" lon="17.929217867258">
        <ele>4.8</ele>
        <time>2017-07-07T17:25:45Z</time>
      </trkpt>
      <trkpt lat="59.176492949632" lon="17.929211161738">
        <ele>5.2</ele>
        <time>2017-07-07T17:25:46Z</time>
      </trkpt>
      <trkpt lat="59.176577606822" lon="17.929206886969">
        <ele>5.6</ele>
        <time>2017-07-07T17:25:47Z</time>
      </trkpt>
      <trkpt lat="59.176662096374" lon="17.929199594716">
        <ele>6</ele>
        <time>2017-07-07T17:25:48Z</time>
      </trkpt>
      <trkpt lat="59.176745328641" lon="17.92918668659">
        <ele>6.4</ele>
        <time>2017-07-07T17:25:49Z</time>
      </trkpt>
      <trkpt lat="59.177149503859" lon="17.929095994432">
        <ele>6.8</ele>
        <time>2017-07-07T17:25:54Z</time>
      </trkpt>
      <trkpt lat="59.177224186588" lon="17.929067328334">
        <ele>7.2</ele>
        <time>2017-07-07T17:25:55Z</time>
      </trkpt>
      <trkpt lat="59.177292331435" lon="17.92902491592">
        <ele>7.8</ele>
        <time>2017-07-07T17:25:56Z</time>
      </trkpt>
      <trkpt lat="59.17735980573" lon="17.928973702511">
        <ele>8.2</ele>
        <time>2017-07-07T17:25:57Z</time>
      </trkpt>
      <trkpt lat="59.177431303337" lon="17.928927015328">
        <ele>8.6</ele>
        <time>2017-07-07T17:25:58Z</time>
      </trkpt>
      <trkpt lat="59.177507746265" lon="17.928884519095">
        <ele>9</ele>
        <time>2017-07-07T17:25:59Z</time>
      </trkpt>
      <trkpt lat="59.17757773513" lon="17.928844956527">
        <ele>9.4</ele>
        <time>2017-07-07T17:26:00Z</time>
      </trkpt>
      <trkpt lat="59.177645293244" lon="17.928802627932">
        <ele>9.8</ele>
        <time>2017-07-07T17:26:01Z</time>
      </trkpt>
      <trkpt lat="59.177711677892" lon="17.92875418055">
        <ele>10.2</ele>
        <time>2017-07-07T17:26:02Z</time>
      </trkpt>
      <trkpt lat="59.177779152187" lon="17.928706990453">
        <ele>10.6</ele>
        <time>2017-07-07T17:26:03Z</time>
      </trkpt>
      <trkpt lat="59.177985179289" lon="17.928558630823">
        <ele>10.6</ele>
        <time>2017-07-07T17:26:06Z</time>
      </trkpt>
      <trkpt lat="59.178345600989" lon="17.928377581783">
        <ele>10.6</ele>
        <time>2017-07-07T17:26:11Z</time>
      </trkpt>
      <trkpt lat="59.178491110773" lon="17.92832502727">
        <ele>11</ele>
        <time>2017-07-07T17:26:13Z</time>
      </trkpt>
      <trkpt lat="59.178564871493" lon="17.928306670909">
        <ele>11.4</ele>
        <time>2017-07-07T17:26:14Z</time>
      </trkpt>
      <trkpt lat="59.178639889498" lon="17.928293259869">
        <ele>11.8</ele>
        <time>2017-07-07T17:26:15Z</time>
      </trkpt>
      <trkpt lat="59.178715326598" lon="17.928283033951">
        <ele>12.2</ele>
        <time>2017-07-07T17:26:16Z</time>
      </trkpt>
      <trkpt lat="59.178790931336" lon="17.92826886854">
        <ele>12.6</ele>
        <time>2017-07-07T17:26:17Z</time>
      </trkpt>
      <trkpt lat="59.179049345313" lon="17.92823701732">
        <ele>12.6</ele>
        <time>2017-07-07T17:26:20Z</time>
      </trkpt>
      <trkpt lat="59.17932200852" lon="17.928242549374">
        <ele>12.2</ele>
        <time>2017-07-07T17:26:23Z</time>
      </trkpt>
      <trkpt lat="59.179412449221" lon="17.92824791379">
        <ele>11.8</ele>
        <time>2017-07-07T17:26:24Z</time>
      </trkpt>
      <trkpt lat="59.179501716456" lon="17.928255625138">
        <ele>11.4</ele>
        <time>2017-07-07T17:26:25Z</time>
      </trkpt>
      <trkpt lat="59.17959609665" lon="17.928272640395">
        <ele>11</ele>
        <time>2017-07-07T17:26:26Z</time>
      </trkpt>
      <trkpt lat="59.179695505984" lon="17.92829233786">
        <ele>10.6</ele>
        <time>2017-07-07T17:26:27Z</time>
      </trkpt>
      <trkpt lat="59.179899269973" lon="17.928344054183">
        <ele>10</ele>
        <time>2017-07-07T17:26:29Z</time>
      </trkpt>
      <trkpt lat="59.180005301008" lon="17.928375234851">
        <ele>9.4</ele>
        <time>2017-07-07T17:26:30Z</time>
      </trkpt>
      <trkpt lat="59.180112170233" lon="17.928403062759">
        <ele>9</ele>
        <time>2017-07-07T17:26:31Z</time>
      </trkpt>
      <trkpt lat="59.180218201268" lon="17.928435333074">
        <ele>7.8</ele>
        <time>2017-07-07T17:26:32Z</time>
      </trkpt>
      <trkpt lat="59.18032448376" lon="17.928468944493">
        <ele>7.2</ele>
        <time>2017-07-07T17:26:33Z</time>
      </trkpt>
      <trkpt lat="59.180434873383" lon="17.928507836509">
        <ele>6.6</ele>
        <time>2017-07-07T17:26:34Z</time>
      </trkpt>
      <trkpt lat="59.18054157497" lon="17.928542286118">
        <ele>6</ele>
        <time>2017-07-07T17:26:35Z</time>
      </trkpt>
      <trkpt lat="59.180649869118" lon="17.928579334116">
        <ele>5.4</ele>
        <time>2017-07-07T17:26:36Z</time>
      </trkpt>
      <trkpt lat="59.180761096931" lon="17.928618142313">
        <ele>4.8</ele>
        <time>2017-07-07T17:26:37Z</time>
      </trkpt>
      <trkpt lat="59.180871402735" lon="17.928659297442">
        <ele>4.4</ele>
        <time>2017-07-07T17:26:38Z</time>
      </trkpt>
      <trkpt lat="59.180978858693" lon="17.928695674888">
        <ele>4</ele>
        <time>2017-07-07T17:26:39Z</time>
      </trkpt>
      <trkpt lat="59.181082291339" lon="17.928727107013">
        <ele>3.6</ele>
        <time>2017-07-07T17:26:40Z</time>
      </trkpt>
      <trkpt lat="59.181184634338" lon="17.928753593817">
        <ele>3.2</ele>
        <time>2017-07-07T17:26:41Z</time>
      </trkpt>
      <trkpt lat="59.181287731708" lon="17.928780751173">
        <ele>3.2</ele>
        <time>2017-07-07T17:26:42Z</time>
      </trkpt>
      <trkpt lat="59.181495854285" lon="17.928822660673">
        <ele>2.8</ele>
        <time>2017-07-07T17:26:44Z</time>
      </trkpt>
      <trkpt lat="59.181604148433" lon="17.928826013433">
        <ele>2.4</ele>
        <time>2017-07-07T17:26:45Z</time>
      </trkpt>
      <trkpt lat="59.181705150328" lon="17.928833054229">
        <ele>2</ele>
        <time>2017-07-07T17:26:46Z</time>
      </trkpt>
      <trkpt lat="59.181808582974" lon="17.928833473324">
        <ele>1.6</ele>
        <time>2017-07-07T17:26:47Z</time>
      </trkpt>
      <trkpt lat="59.181911596525" lon="17.928820900474">
        <ele>1.2</ele>
        <time>2017-07-07T17:26:48Z</time>
      </trkpt>
      <trkpt lat="59.182321555254" lon="17.928689472282">
        <ele>1.2</ele>
        <time>2017-07-07T17:26:52Z</time>
      </trkpt>
      <trkpt lat="59.182902337105" lon="17.928379928715">
        <ele>1.2</ele>
        <time>2017-07-07T17:26:58Z</time>
      </trkpt>
      <trkpt lat="59.18347188721" lon="17.928069714596">
        <ele>1.2</ele>
        <time>2017-07-07T17:27:04Z</time>
      </trkpt>
      <trkpt lat="59.183563920472" lon="17.928022189223">
        <ele>1.2</ele>
        <time>2017-07-07T17:27:05Z</time>
      </trkpt>
      <trkpt lat="59.184092818362" lon="17.927789340041">
        <ele>1.2</ele>
        <time>2017-07-07T17:27:11Z</time>
      </trkpt>
      <trkpt lat="59.18418099595" lon="17.927758159373">
        <ele>1.2</ele>
        <time>2017-07-07T17:27:12Z</time>
      </trkpt>
      <trkpt lat="59.184798155247" lon="17.92764441699">
        <ele>1.2</ele>
        <time>2017-07-07T17:27:19Z</time>
      </trkpt>
      <trkpt lat="59.184983227599" lon="17.927671909622">
        <ele>2.2</ele>
        <time>2017-07-07T17:27:21Z</time>
      </trkpt>
      <trkpt lat="59.185083391304" lon="17.927691523268">
        <ele>2.6</ele>
        <time>2017-07-07T17:27:22Z</time>
      </trkpt>
      <trkpt lat="59.185179950792" lon="17.927719267357">
        <ele>3</ele>
        <time>2017-07-07T17:27:23Z</time>
      </trkpt>
      <trkpt lat="59.185275839728" lon="17.927753465509">
        <ele>3.4</ele>
        <time>2017-07-07T17:27:24Z</time>
      </trkpt>
      <trkpt lat="59.185865338755" lon="17.928006850346">
        <ele>3.4</ele>
        <time>2017-07-07T17:27:30Z</time>
      </trkpt>
      <trkpt lat="59.186062145767" lon="17.928089747337">
        <ele>3.4</ele>
        <time>2017-07-07T17:27:32Z</time>
      </trkpt>
      <trkpt lat="59.186643933446" lon="17.928361991449">
        <ele>3.4</ele>
        <time>2017-07-07T17:27:38Z</time>
      </trkpt>
      <trkpt lat="59.18673747545" lon="17.928399458542">
        <ele>3.4</ele>
        <time>2017-07-07T17:27:39Z</time>
      </trkpt>
      <trkpt lat="59.187111894923" lon="17.928559385194">
        <ele>3</ele>
        <time>2017-07-07T17:27:43Z</time>
      </trkpt>
      <trkpt lat="59.187209795515" lon="17.928598193391">
        <ele>2.6</ele>
        <time>2017-07-07T17:27:44Z</time>
      </trkpt>
      <trkpt lat="59.187302666967" lon="17.928634487018">
        <ele>2.2</ele>
        <time>2017-07-07T17:27:45Z</time>
      </trkpt>
      <trkpt lat="59.187393442944" lon="17.92867203793">
        <ele>1.2</ele>
        <time>2017-07-07T17:27:46Z</time>
      </trkpt>
      <trkpt lat="59.187485308568" lon="17.928711181403">
        <ele>1.2</ele>
        <time>2017-07-07T17:27:47Z</time>
      </trkpt>
      <trkpt lat="59.188038849244" lon="17.928912095546">
        <ele>1.2</ele>
        <time>2017-07-07T17:27:53Z</time>
      </trkpt>
      <trkpt lat="59.188221826121" lon="17.928972780502">
        <ele>1.2</ele>
        <time>2017-07-07T17:27:55Z</time>
      </trkpt>
      <trkpt lat="59.188789867484" lon="17.92913974795">
        <ele>1.2</ele>
        <time>2017-07-07T17:28:01Z</time>
      </trkpt>
      <trkpt lat="59.189370984611" lon="17.929234798696">
        <ele>1.2</ele>
        <time>2017-07-07T17:28:07Z</time>
      </trkpt>
      <trkpt lat="59.189567791623" lon="17.92925793274">
        <ele>1.2</ele>
        <time>2017-07-07T17:28:09Z</time>
      </trkpt>
      <trkpt lat="59.189658819057" lon="17.929324904121">
        <ele>1.2</ele>
        <time>2017-07-07T17:28:10Z</time>
      </trkpt>
      <trkpt lat="59.189790833982" lon="17.929600500993">
        <ele>1.2</ele>
        <time>2017-07-07T17:28:12Z</time>
      </trkpt>
      <trkpt lat="59.189873060421" lon="17.929959749227">
        <ele>1.2</ele>
        <time>2017-07-07T17:28:14Z</time>
      </trkpt>
      <trkpt lat="59.189914886102" lon="17.930130237073">
        <ele>1.2</ele>
        <time>2017-07-07T17:28:15Z</time>
      </trkpt>
      <trkpt lat="59.190139101927" lon="17.930952836739">
        <ele>1.2</ele>
        <time>2017-07-07T17:28:20Z</time>
      </trkpt>
      <trkpt lat="59.190207917326" lon="17.93108937789">
        <ele>1.2</ele>
        <time>2017-07-07T17:28:21Z</time>
      </trkpt>
      <trkpt lat="59.190401371578" lon="17.931223572109">
        <ele>1.2</ele>
        <time>2017-07-07T17:28:23Z</time>
      </trkpt>
      <trkpt lat="59.190596166934" lon="17.931132209399">
        <ele>1.2</ele>
        <time>2017-07-07T17:28:25Z</time>
      </trkpt>
      <trkpt lat="59.190960444308" lon="17.930721496299">
        <ele>1.2</ele>
        <time>2017-07-07T17:28:29Z</time>
      </trkpt>
      <trkpt lat="59.191477523719" lon="17.930090423048">
        <ele>1.2</ele>
        <time>2017-07-07T17:28:35Z</time>
      </trkpt>
      <trkpt lat="59.191651448144" lon="17.929874924399">
        <ele>1.2</ele>
        <time>2017-07-07T17:28:37Z</time>
      </trkpt>
      <trkpt lat="59.192007595075" lon="17.929517101088">
        <ele>0.8</ele>
        <time>2017-07-07T17:28:41Z</time>
      </trkpt>
      <trkpt lat="59.1920977005" lon="17.929443424187">
        <ele>0.4</ele>
        <time>2017-07-07T17:28:42Z</time>
      </trkpt>
      <trkpt lat="59.19218738683" lon="17.929377542453">
        <ele>0</ele>
        <time>2017-07-07T17:28:43Z</time>
      </trkpt>
      <trkpt lat="59.192277156979" lon="17.929309984339">
        <ele>0</ele>
        <time>2017-07-07T17:28:44Z</time>
      </trkpt>
      <trkpt lat="59.192372375363" lon="17.929244270243">
        <ele>0</ele>
        <time>2017-07-07T17:28:45Z</time>
      </trkpt>
      <trkpt lat="59.192827093438" lon="17.928991891234">
        <ele>0</ele>
        <time>2017-07-07T17:28:50Z</time>
      </trkpt>
      <trkpt lat="59.192919378157" lon="17.928946796612">
        <ele>0</ele>
        <time>2017-07-07T17:28:51Z</time>
      </trkpt>
      <trkpt lat="59.193017362568" lon="17.928904468017">
        <ele>0</ele>
        <time>2017-07-07T17:28:52Z</time>
      </trkpt>
      <trkpt lat="59.19310939583" lon="17.928873790263">
        <ele>0.4</ele>
        <time>2017-07-07T17:28:53Z</time>
      </trkpt>
      <trkpt lat="59.193203524567" lon="17.928847303459">
        <ele>0.8</ele>
        <time>2017-07-07T17:28:54Z</time>
      </trkpt>
      <trkpt lat="59.193297737123" lon="17.928825342881">
        <ele>1.2</ele>
        <time>2017-07-07T17:28:55Z</time>
      </trkpt>
      <trkpt lat="59.193390021842" lon="17.928811009832">
        <ele>1.2</ele>
        <time>2017-07-07T17:28:56Z</time>
      </trkpt>
      <trkpt lat="59.19395093859" lon="17.928821906302">
        <ele>1.2</ele>
        <time>2017-07-07T17:29:02Z</time>
      </trkpt>
      <trkpt lat="59.194136849132" lon="17.928857948472">
        <ele>1.6</ele>
        <time>2017-07-07T17:29:04Z</time>
      </trkpt>
      <trkpt lat="59.194228463299" lon="17.928877226842">
        <ele>2.2</ele>
        <time>2017-07-07T17:29:05Z</time>
      </trkpt>
      <trkpt lat="59.194319406914" lon="17.928896924307">
        <ele>2.6</ele>
        <time>2017-07-07T17:29:06Z</time>
      </trkpt>
      <trkpt lat="59.194416217859" lon="17.928917040867">
        <ele>3</ele>
        <time>2017-07-07T17:29:07Z</time>
      </trkpt>
      <trkpt lat="59.19450582037" lon="17.928934139943">
        <ele>3.4</ele>
        <time>2017-07-07T17:29:08Z</time>
      </trkpt>
      <trkpt lat="59.194775466093" lon="17.928989544302">
        <ele>3.8</ele>
        <time>2017-07-07T17:29:11Z</time>
      </trkpt>
      <trkpt lat="59.194864230414" lon="17.929003374437">
        <ele>4.2</ele>
        <time>2017-07-07T17:29:12Z</time>
      </trkpt>
      <trkpt lat="59.194952659459" lon="17.929013935631">
        <ele>4.6</ele>
        <time>2017-07-07T17:29:13Z</time>
      </trkpt>
      <trkpt lat="59.195043770712" lon="17.92902575411">
        <ele>5</ele>
        <time>2017-07-07T17:29:14Z</time>
      </trkpt>
      <trkpt lat="59.195130104282" lon="17.929041595901">
        <ele>5.4</ele>
        <time>2017-07-07T17:29:15Z</time>
      </trkpt>
      <trkpt lat="59.195299921576" lon="17.929078811537">
        <ele>5.8</ele>
        <time>2017-07-07T17:29:17Z</time>
      </trkpt>
      <trkpt lat="59.195383489119" lon="17.929098425183">
        <ele>6.2</ele>
        <time>2017-07-07T17:29:18Z</time>
      </trkpt>
      <trkpt lat="59.195466218472" lon="17.929118038829">
        <ele>6.6</ele>
        <time>2017-07-07T17:29:19Z</time>
      </trkpt>
      <trkpt lat="59.195551546214" lon="17.929139664131">
        <ele>7.2</ele>
        <time>2017-07-07T17:29:20Z</time>
      </trkpt>
      <trkpt lat="59.195638131241" lon="17.929166905306">
        <ele>7.6</ele>
        <time>2017-07-07T17:29:21Z</time>
      </trkpt>
      <trkpt lat="59.19572622501" lon="17.929191296635">
        <ele>7.6</ele>
        <time>2017-07-07T17:29:22Z</time>
      </trkpt>
      <trkpt lat="59.195986483005" lon="17.929252819781">
        <ele>8.4</ele>
        <time>2017-07-07T17:29:25Z</time>
      </trkpt>
      <trkpt lat="59.196068374168" lon="17.929261620776">
        <ele>9</ele>
        <time>2017-07-07T17:29:26Z</time>
      </trkpt>
      <trkpt lat="59.196159150145" lon="17.929259860577">
        <ele>9.4</ele>
        <time>2017-07-07T17:29:27Z</time>
      </trkpt>
      <trkpt lat="59.196246405724" lon="17.929260950224">
        <ele>9.8</ele>
        <time>2017-07-07T17:29:28Z</time>
      </trkpt>
      <trkpt lat="59.196506496081" lon="17.929270589409">
        <ele>9.8</ele>
        <time>2017-07-07T17:29:31Z</time>
      </trkpt>
      <trkpt lat="59.196587381416" lon="17.929267069011">
        <ele>10.4</ele>
        <time>2017-07-07T17:29:32Z</time>
      </trkpt>
      <trkpt lat="59.196668434389" lon="17.929267571925">
        <ele>10.8</ele>
        <time>2017-07-07T17:29:33Z</time>
      </trkpt>
      <trkpt lat="59.196750660828" lon="17.929266482278">
        <ele>11.2</ele>
        <time>2017-07-07T17:29:34Z</time>
      </trkpt>
      <trkpt lat="59.19683179762" lon="17.929261117862">
        <ele>11.6</ele>
        <time>2017-07-07T17:29:35Z</time>
      </trkpt>
      <trkpt lat="59.19691310205" lon="17.929256088722">
        <ele>12</ele>
        <time>2017-07-07T17:29:36Z</time>
      </trkpt>
      <trkpt lat="59.196997507783" lon="17.929248545012">
        <ele>12</ele>
        <time>2017-07-07T17:29:37Z</time>
      </trkpt>
      <trkpt lat="59.197596143081" lon="17.929166821487">
        <ele>12</ele>
        <time>2017-07-07T17:29:44Z</time>
      </trkpt>
      <trkpt lat="59.19813518307" lon="17.929011421061">
        <ele>12</ele>
        <time>2017-07-07T17:29:50Z</time>
      </trkpt>
      <trkpt lat="59.198742535544" lon="17.92875418055">
        <ele>12</ele>
        <time>2017-07-07T17:29:57Z</time>
      </trkpt>
      <trkpt lat="59.198828952933" lon="17.928708247738">
        <ele>12</ele>
        <time>2017-07-07T17:29:58Z</time>
      </trkpt>
      <trkpt lat="59.199276714031" lon="17.928369367521">
        <ele>12</ele>
        <time>2017-07-07T17:30:03Z</time>
      </trkpt>
      <trkpt lat="59.199794044899" lon="17.927847426608">
        <ele>12</ele>
        <time>2017-07-07T17:30:09Z</time>
      </trkpt>
      <trkpt lat="59.199876774252" lon="17.927750615663">
        <ele>12</ele>
        <time>2017-07-07T17:30:10Z</time>
      </trkpt>
      <trkpt lat="59.200352447077" lon="17.927115602919">
        <ele>12</ele>
        <time>2017-07-07T17:30:16Z</time>
      </trkpt>
      <trkpt lat="59.200431320756" lon="17.927007057314">
        <ele>12</ele>
        <time>2017-07-07T17:30:17Z</time>
      </trkpt>
      <trkpt lat="59.200927529236" lon="17.926347485603">
        <ele>12</ele>
        <time>2017-07-07T17:30:23Z</time>
      </trkpt>
      <trkpt lat="59.201013276073" lon="17.926250087925">
        <ele>12</ele>
        <time>2017-07-07T17:30:24Z</time>
      </trkpt>
      <trkpt lat="59.201556926107" lon="17.925714652153">
        <ele>12</ele>
        <time>2017-07-07T17:30:30Z</time>
      </trkpt>
      <trkpt lat="59.201652898862" lon="17.925634772646">
        <ele>11.6</ele>
        <time>2017-07-07T17:30:31Z</time>
      </trkpt>
      <trkpt lat="59.201750883273" lon="17.925564951419">
        <ele>11.2</ele>
        <time>2017-07-07T17:30:32Z</time>
      </trkpt>
      <trkpt lat="59.201851801349" lon="17.925498063857">
        <ele>10.8</ele>
        <time>2017-07-07T17:30:33Z</time>
      </trkpt>
      <trkpt lat="59.201951629778" lon="17.925433439408">
        <ele>10.4</ele>
        <time>2017-07-07T17:30:34Z</time>
      </trkpt>
      <trkpt lat="59.202054475691" lon="17.925373844099">
        <ele>10</ele>
        <time>2017-07-07T17:30:35Z</time>
      </trkpt>
      <trkpt lat="59.202157070147" lon="17.925312153315">
        <ele>10</ele>
        <time>2017-07-07T17:30:36Z</time>
      </trkpt>
      <trkpt lat="59.202710359366" lon="17.925103527824">
        <ele>9.6</ele>
        <time>2017-07-07T17:30:41Z</time>
      </trkpt>
      <trkpt lat="59.202825191396" lon="17.925076873382">
        <ele>9.2</ele>
        <time>2017-07-07T17:30:42Z</time>
      </trkpt>
      <trkpt lat="59.202939604331" lon="17.925054242252">
        <ele>8.8</ele>
        <time>2017-07-07T17:30:43Z</time>
      </trkpt>
      <trkpt lat="59.203061058062" lon="17.925023899774">
        <ele>8.2</ele>
        <time>2017-07-07T17:30:44Z</time>
      </trkpt>
      <trkpt lat="59.203176309187" lon="17.924993305839">
        <ele>7.6</ele>
        <time>2017-07-07T17:30:45Z</time>
      </trkpt>
      <trkpt lat="59.203292398502" lon="17.92496639994">
        <ele>7</ele>
        <time>2017-07-07T17:30:46Z</time>
      </trkpt>
      <trkpt lat="59.203413768414" lon="17.924939074946">
        <ele>6.4</ele>
        <time>2017-07-07T17:30:47Z</time>
      </trkpt>
      <trkpt lat="59.203524241856" lon="17.924917282006">
        <ele>5.8</ele>
        <time>2017-07-07T17:30:48Z</time>
      </trkpt>
      <trkpt lat="59.203870665783" lon="17.924841341992">
        <ele>5.2</ele>
        <time>2017-07-07T17:30:51Z</time>
      </trkpt>
      <trkpt lat="59.203986000727" lon="17.924805551279">
        <ele>4.8</ele>
        <time>2017-07-07T17:30:52Z</time>
      </trkpt>
      <trkpt lat="59.204111226313" lon="17.924777555733">
        <ele>4.2</ele>
        <time>2017-07-07T17:30:53Z</time>
      </trkpt>
      <trkpt lat="59.204231422759" lon="17.92474847054">
        <ele>3.6</ele>
        <time>2017-07-07T17:30:54Z</time>
      </trkpt>
      <trkpt lat="59.204365952254" lon="17.924718882433">
        <ele>3.2</ele>
        <time>2017-07-07T17:30:55Z</time>
      </trkpt>
      <trkpt lat="59.204477431524" lon="17.924693904371">
        <ele>2.6</ele>
        <time>2017-07-07T17:30:56Z</time>
      </trkpt>
      <trkpt lat="59.204600561635" lon="17.924661969332">
        <ele>2.2</ele>
        <time>2017-07-07T17:30:57Z</time>
      </trkpt>
      <trkpt lat="59.204724697574" lon="17.92462944756">
        <ele>1.6</ele>
        <time>2017-07-07T17:30:58Z</time>
      </trkpt>
      <trkpt lat="59.204847240952" lon="17.924597177245">
        <ele>1</ele>
        <time>2017-07-07T17:30:59Z</time>
      </trkpt>
      <trkpt lat="59.20497565166" lon="17.924562979093">
        <ele>0.4</ele>
        <time>2017-07-07T17:31:00Z</time>
      </trkpt>
      <trkpt lat="59.205098446495" lon="17.924530373502">
        <ele>0</ele>
        <time>2017-07-07T17:31:01Z</time>
      </trkpt>
      <trkpt lat="59.205224342633" lon="17.92449617535">
        <ele>0</ele>
        <time>2017-07-07T17:31:02Z</time>
      </trkpt>
      <trkpt lat="59.205349903495" lon="17.924460468456">
        <ele>0</ele>
        <time>2017-07-07T17:31:03Z</time>
      </trkpt>
      <trkpt lat="59.205476218728" lon="17.924416798757">
        <ele>0</ele>
        <time>2017-07-07T17:31:04Z</time>
      </trkpt>
      <trkpt lat="59.205731950497" lon="17.92431847907">
        <ele>0</ele>
        <time>2017-07-07T17:31:06Z</time>
      </trkpt>
      <trkpt lat="59.2058607803" lon="17.924258213209">
        <ele>0</ele>
        <time>2017-07-07T17:31:07Z</time>
      </trkpt>
      <trkpt lat="59.205985335334" lon="17.924194510769">
        <ele>0</ele>
        <time>2017-07-07T17:31:08Z</time>
      </trkpt>
      <trkpt lat="59.206103268667" lon="17.924132568528">
        <ele>0</ele>
        <time>2017-07-07T17:31:09Z</time>
      </trkpt>
      <trkpt lat="59.206223046018" lon="17.924064423681">
        <ele>0</ele>
        <time>2017-07-07T17:31:10Z</time>
      </trkpt>
      <trkpt lat="59.206338800057" lon="17.92399661411">
        <ele>0</ele>
        <time>2017-07-07T17:31:11Z</time>
      </trkpt>
      <trkpt lat="59.206455224648" lon="17.923924278313">
        <ele>0</ele>
        <time>2017-07-07T17:31:12Z</time>
      </trkpt>
      <trkpt lat="59.206574582904" lon="17.923836687458">
        <ele>0</ele>
        <time>2017-07-07T17:31:13Z</time>
      </trkpt>
      <trkpt lat="59.206677261179" lon="17.923743732187">
        <ele>0</ele>
        <time>2017-07-07T17:31:14Z</time>
      </trkpt>
      <trkpt lat="59.207072132488" lon="17.923277363271">
        <ele>0</ele>
        <time>2017-07-07T17:31:18Z</time>
      </trkpt>
      <trkpt lat="59.207160729171" lon="17.923155825721">
        <ele>0</ele>
        <time>2017-07-07T17:31:19Z</time>
      </trkpt>
      <trkpt lat="59.207248990578" lon="17.923028420841">
        <ele>0</ele>
        <time>2017-07-07T17:31:20Z</time>
      </trkpt>
      <trkpt lat="59.207326523153" lon="17.922883078695">
        <ele>0</ele>
        <time>2017-07-07T17:31:21Z</time>
      </trkpt>
      <trkpt lat="59.207409084868" lon="17.922732958866">
        <ele>0</ele>
        <time>2017-07-07T17:31:22Z</time>
      </trkpt>
      <trkpt lat="59.207497010999" lon="17.922578899544">
        <ele>0</ele>
        <time>2017-07-07T17:31:23Z</time>
      </trkpt>
      <trkpt lat="59.207571777547" lon="17.922428695896">
        <ele>0</ele>
        <time>2017-07-07T17:31:24Z</time>
      </trkpt>
      <trkpt lat="59.207648471932" lon="17.922276815868">
        <ele>0</ele>
        <time>2017-07-07T17:31:25Z</time>
      </trkpt>
      <trkpt lat="59.207727513249" lon="17.922128372419">
        <ele>0</ele>
        <time>2017-07-07T17:31:26Z</time>
      </trkpt>
      <trkpt lat="59.207812673353" lon="17.921970876518">
        <ele>0</ele>
        <time>2017-07-07T17:31:27Z</time>
      </trkpt>
      <trkpt lat="59.20788333277" lon="17.92181229097">
        <ele>0</ele>
        <time>2017-07-07T17:31:28Z</time>
      </trkpt>
      <trkpt lat="59.207953573092" lon="17.921640964934">
        <ele>0</ele>
        <time>2017-07-07T17:31:29Z</time>
      </trkpt>
      <trkpt lat="59.208022137034" lon="17.921479864816">
        <ele>0</ele>
        <time>2017-07-07T17:31:30Z</time>
      </trkpt>
      <trkpt lat="59.208089695148" lon="17.921317172137">
        <ele>0</ele>
        <time>2017-07-07T17:31:31Z</time>
      </trkpt>
      <trkpt lat="59.208149961009" lon="17.921163615729">
        <ele>0</ele>
        <time>2017-07-07T17:31:32Z</time>
      </trkpt>
      <trkpt lat="59.208429413555" lon="17.920458446482">
        <ele>0</ele>
        <time>2017-07-07T17:31:37Z</time>
      </trkpt>
      <trkpt lat="59.208626555843" lon="17.91994648003">
        <ele>0</ele>
        <time>2017-07-07T17:31:41Z</time>
      </trkpt>
      <trkpt lat="59.208678104528" lon="17.91982745705">
        <ele>0.4</ele>
        <time>2017-07-07T17:31:42Z</time>
      </trkpt>
      <trkpt lat="59.208729820851" lon="17.919713798486">
        <ele>0.8</ele>
        <time>2017-07-07T17:31:43Z</time>
      </trkpt>
      <trkpt lat="59.208775837482" lon="17.919594859325">
        <ele>1.2</ele>
        <time>2017-07-07T17:31:44Z</time>
      </trkpt>
      <trkpt lat="59.208821435018" lon="17.919466616255">
        <ele>1.6</ele>
        <time>2017-07-07T17:31:45Z</time>
      </trkpt>
      <trkpt lat="59.209015224546" lon="17.918993960914">
        <ele>1.6</ele>
        <time>2017-07-07T17:31:49Z</time>
      </trkpt>
      <trkpt lat="59.209330383986" lon="17.918463889558">
        <ele>1.6</ele>
        <time>2017-07-07T17:31:55Z</time>
      </trkpt>
      <trkpt lat="59.209385536888" lon="17.918413598158">
        <ele>1.6</ele>
        <time>2017-07-07T17:31:58Z</time>
      </trkpt>
      <trkpt lat="59.209404479982" lon="17.918396834358">
        <ele>3.8</ele>
        <time>2017-07-07T17:32:16Z</time>
      </trkpt>
      <trkpt lat="59.209448401138" lon="17.918371604839">
        <ele>3.8</ele>
        <time>2017-07-07T17:32:18Z</time>
      </trkpt>
      <trkpt lat="59.209582427719" lon="17.918313350634">
        <ele>3.8</ele>
        <time>2017-07-07T17:32:22Z</time>
      </trkpt>
      <trkpt lat="59.209713017721" lon="17.918180246062">
        <ele>3.8</ele>
        <time>2017-07-07T17:32:25Z</time>
      </trkpt>
      <trkpt lat="59.209761800379" lon="17.918113442319">
        <ele>3.8</ele>
        <time>2017-07-07T17:32:26Z</time>
      </trkpt>
      <trkpt lat="59.209987860222" lon="17.917879000576">
        <ele>3.8</ele>
        <time>2017-07-07T17:32:30Z</time>
      </trkpt>
      <trkpt lat="59.210104955365" lon="17.917773304817">
        <ele>3.8</ele>
        <time>2017-07-07T17:32:32Z</time>
      </trkpt>
      <trkpt lat="59.21016488595" lon="17.917726030901">
        <ele>3.8</ele>
        <time>2017-07-07T17:32:33Z</time>
      </trkpt>
      <trkpt lat="59.210355238899" lon="17.917590579397">
        <ele>3.8</ele>
        <time>2017-07-07T17:32:36Z</time>
      </trkpt>
      <trkpt lat="59.21077341189" lon="17.917290507377">
        <ele>3.8</ele>
        <time>2017-07-07T17:32:43Z</time>
      </trkpt>
      <trkpt lat="59.211173731434" lon="17.916994039574">
        <ele>3.8</ele>
        <time>2017-07-07T17:32:50Z</time>
      </trkpt>
      <trkpt lat="59.211597855574" lon="17.916630181295">
        <ele>3.8</ele>
        <time>2017-07-07T17:32:57Z</time>
      </trkpt>
      <trkpt lat="59.212016866755" lon="17.916400768692">
        <ele>3.8</ele>
        <time>2017-07-07T17:33:03Z</time>
      </trkpt>
      <trkpt lat="59.212254577439" lon="17.916323403755">
        <ele>3.8</ele>
        <time>2017-07-07T17:33:06Z</time>
      </trkpt>
      <trkpt lat="59.212326494141" lon="17.916343017401">
        <ele>3.8</ele>
        <time>2017-07-07T17:33:07Z</time>
      </trkpt>
      <trkpt lat="59.212610556732" lon="17.916343352677">
        <ele>3.4</ele>
        <time>2017-07-07T17:33:11Z</time>
      </trkpt>
      <trkpt lat="59.2126836469" lon="17.916310998543">
        <ele>3</ele>
        <time>2017-07-07T17:33:12Z</time>
      </trkpt>
      <trkpt lat="59.212755479783" lon="17.916289708517">
        <ele>2.4</ele>
        <time>2017-07-07T17:33:13Z</time>
      </trkpt>
      <trkpt lat="59.212827983218" lon="17.916271184518">
        <ele>2</ele>
        <time>2017-07-07T17:33:14Z</time>
      </trkpt>
      <trkpt lat="59.212908198001" lon="17.916241512592">
        <ele>1.6</ele>
        <time>2017-07-07T17:33:15Z</time>
      </trkpt>
      <trkpt lat="59.213068795205" lon="17.916166746044">
        <ele>1.2</ele>
        <time>2017-07-07T17:33:17Z</time>
      </trkpt>
      <trkpt lat="59.213153536214" lon="17.916113269522">
        <ele>0.8</ele>
        <time>2017-07-07T17:33:18Z</time>
      </trkpt>
      <trkpt lat="59.213240037422" lon="17.916055685869">
        <ele>0.4</ele>
        <time>2017-07-07T17:33:19Z</time>
      </trkpt>
      <trkpt lat="59.213326957725" lon="17.915990977601">
        <ele>0</ele>
        <time>2017-07-07T17:33:20Z</time>
      </trkpt>
      <trkpt lat="59.213417146969" lon="17.915926017876">
        <ele>0</ele>
        <time>2017-07-07T17:33:21Z</time>
      </trkpt>
      <trkpt lat="59.213504905462" lon="17.915863153626">
        <ele>0</ele>
        <time>2017-07-07T17:33:22Z</time>
      </trkpt>
      <trkpt lat="59.213593250688" lon="17.915806911077">
        <ele>0</ele>
        <time>2017-07-07T17:33:23Z</time>
      </trkpt>
      <trkpt lat="59.213683020837" lon="17.915753350736">
        <ele>0</ele>
        <time>2017-07-07T17:33:24Z</time>
      </trkpt>
      <trkpt lat="59.21377077933" lon="17.91569685673">
        <ele>0</ele>
        <time>2017-07-07T17:33:25Z</time>
      </trkpt>
      <trkpt lat="59.213856693805" lon="17.915634327756">
        <ele>0</ele>
        <time>2017-07-07T17:33:26Z</time>
      </trkpt>
      <trkpt lat="59.213943362651" lon="17.915572217877">
        <ele>0</ele>
        <time>2017-07-07T17:33:27Z</time>
      </trkpt>
      <trkpt lat="59.214027684565" lon="17.915509437446">
        <ele>0</ele>
        <time>2017-07-07T17:33:28Z</time>
      </trkpt>
      <trkpt lat="59.214445857556" lon="17.915235097859">
        <ele>0</ele>
        <time>2017-07-07T17:33:33Z</time>
      </trkpt>
      <trkpt lat="59.215011719625" lon="17.914811141357">
        <ele>0</ele>
        <time>2017-07-07T17:33:40Z</time>
      </trkpt>
      <trkpt lat="59.215160749807" lon="17.914646353203">
        <ele>0</ele>
        <time>2017-07-07T17:33:42Z</time>
      </trkpt>
      <trkpt lat="59.215231157767" lon="17.914546440955">
        <ele>0</ele>
        <time>2017-07-07T17:33:43Z</time>
      </trkpt>
      <trkpt lat="59.215291675085" lon="17.91442616069">
        <ele>0</ele>
        <time>2017-07-07T17:33:44Z</time>
      </trkpt>
      <trkpt lat="59.215340290105" lon="17.91430210857">
        <ele>0</ele>
        <time>2017-07-07T17:33:45Z</time>
      </trkpt>
      <trkpt lat="59.215371219316" lon="17.914143606841">
        <ele>0</ele>
        <time>2017-07-07T17:33:46Z</time>
      </trkpt>
      <trkpt lat="59.21538597146" lon="17.913991391537">
        <ele>0</ele>
        <time>2017-07-07T17:33:47Z</time>
      </trkpt>
      <trkpt lat="59.215400975061" lon="17.913837583672">
        <ele>0</ele>
        <time>2017-07-07T17:33:48Z</time>
      </trkpt>
      <trkpt lat="59.215420923983" lon="17.913689810775">
        <ele>0</ele>
        <time>2017-07-07T17:33:49Z</time>
      </trkpt>
      <trkpt lat="59.21545135028" lon="17.91354857576">
        <ele>0</ele>
        <time>2017-07-07T17:33:50Z</time>
      </trkpt>
      <trkpt lat="59.215482111853" lon="17.913412034609">
        <ele>0</ele>
        <time>2017-07-07T17:33:51Z</time>
      </trkpt>
      <trkpt lat="59.215512286693" lon="17.913275074363">
        <ele>0</ele>
        <time>2017-07-07T17:33:52Z</time>
      </trkpt>
      <trkpt lat="59.215566266129" lon="17.91285874539">
        <ele>0</ele>
        <time>2017-07-07T17:33:55Z</time>
      </trkpt>
      <trkpt lat="59.215571043812" lon="17.912724718809">
        <ele>0</ele>
        <time>2017-07-07T17:33:56Z</time>
      </trkpt>
      <trkpt lat="59.215596692426" lon="17.912302103411">
        <ele>0</ele>
        <time>2017-07-07T17:33:59Z</time>
      </trkpt>
      <trkpt lat="59.215608762362" lon="17.912009491282">
        <ele>0</ele>
        <time>2017-07-07T17:34:01Z</time>
      </trkpt>
      <trkpt lat="59.215681433435" lon="17.911158812251">
        <ele>0</ele>
        <time>2017-07-07T17:34:07Z</time>
      </trkpt>
      <trkpt lat="59.215753433956" lon="17.910292542886">
        <ele>0</ele>
        <time>2017-07-07T17:34:13Z</time>
      </trkpt>
      <trkpt lat="59.215839767526" lon="17.909147323889">
        <ele>0</ele>
        <time>2017-07-07T17:34:21Z</time>
      </trkpt>
      <trkpt lat="59.21584529958" lon="17.909006005055">
        <ele>0</ele>
        <time>2017-07-07T17:34:22Z</time>
      </trkpt>
      <trkpt lat="59.215837504413" lon="17.908333189942">
        <ele>0</ele>
        <time>2017-07-07T17:34:27Z</time>
      </trkpt>
      <trkpt lat="59.215835744214" lon="17.9082059527">
        <ele>0</ele>
        <time>2017-07-07T17:34:28Z</time>
      </trkpt>
      <trkpt lat="59.215834989843" lon="17.908071590843">
        <ele>0</ele>
        <time>2017-07-07T17:34:29Z</time>
      </trkpt>
      <trkpt lat="59.215832559092" lon="17.907936977529">
        <ele>0</ele>
        <time>2017-07-07T17:34:30Z</time>
      </trkpt>
      <trkpt lat="59.21583607949" lon="17.907797837989">
        <ele>0</ele>
        <time>2017-07-07T17:34:31Z</time>
      </trkpt>
      <trkpt lat="59.215841024811" lon="17.907661380657">
        <ele>0</ele>
        <time>2017-07-07T17:34:32Z</time>
      </trkpt>
      <trkpt lat="59.215855441679" lon="17.907526348248">
        <ele>0</ele>
        <time>2017-07-07T17:34:33Z</time>
      </trkpt>
      <trkpt lat="59.2159693517" lon="17.907150336214">
        <ele>0</ele>
        <time>2017-07-07T17:34:36Z</time>
      </trkpt>
      <trkpt lat="59.216173534784" lon="17.906838361896">
        <ele>0</ele>
        <time>2017-07-07T17:34:39Z</time>
      </trkpt>
      <trkpt lat="59.216310411211" lon="17.906588832733">
        <ele>0</ele>
        <time>2017-07-07T17:34:41Z</time>
      </trkpt>
      <trkpt lat="59.216380567714" lon="17.906451034297">
        <ele>0</ele>
        <time>2017-07-07T17:34:42Z</time>
      </trkpt>
      <trkpt lat="59.216439324833" lon="17.906308039083">
        <ele>0</ele>
        <time>2017-07-07T17:34:43Z</time>
      </trkpt>
      <trkpt lat="59.216482072523" lon="17.906146352232">
        <ele>0</ele>
        <time>2017-07-07T17:34:44Z</time>
      </trkpt>
      <trkpt lat="59.216516270675" lon="17.905979971517">
        <ele>0</ele>
        <time>2017-07-07T17:34:45Z</time>
      </trkpt>
      <trkpt lat="59.216546529334" lon="17.905801353228">
        <ele>0</ele>
        <time>2017-07-07T17:34:46Z</time>
      </trkpt>
      <trkpt lat="59.216575530708" lon="17.905632290305">
        <ele>0</ele>
        <time>2017-07-07T17:34:47Z</time>
      </trkpt>
      <trkpt lat="59.216603107159" lon="17.905477057517">
        <ele>0</ele>
        <time>2017-07-07T17:34:48Z</time>
      </trkpt>
      <trkpt lat="59.216629426325" lon="17.90531587358">
        <ele>0</ele>
        <time>2017-07-07T17:34:49Z</time>
      </trkpt>
      <trkpt lat="59.216654069111" lon="17.905162233353">
        <ele>0</ele>
        <time>2017-07-07T17:34:50Z</time>
      </trkpt>
      <trkpt lat="59.216678795716" lon="17.905000546502">
        <ele>0</ele>
        <time>2017-07-07T17:34:51Z</time>
      </trkpt>
      <trkpt lat="59.216703103226" lon="17.904839362565">
        <ele>0</ele>
        <time>2017-07-07T17:34:52Z</time>
      </trkpt>
      <trkpt lat="59.216811313555" lon="17.903999496185">
        <ele>0</ele>
        <time>2017-07-07T17:34:57Z</time>
      </trkpt>
      <trkpt lat="59.216830256649" lon="17.90383730642">
        <ele>0</ele>
        <time>2017-07-07T17:34:58Z</time>
      </trkpt>
      <trkpt lat="59.216848277734" lon="17.903680229614">
        <ele>0</ele>
        <time>2017-07-07T17:34:59Z</time>
      </trkpt>
      <trkpt lat="59.216875938004" lon="17.903532037622">
        <ele>0</ele>
        <time>2017-07-07T17:35:00Z</time>
      </trkpt>
      <trkpt lat="59.216909214147" lon="17.903396837575">
        <ele>0</ele>
        <time>2017-07-07T17:35:01Z</time>
      </trkpt>
      <trkpt lat="59.216950453095" lon="17.903261386071">
        <ele>0</ele>
        <time>2017-07-07T17:35:02Z</time>
      </trkpt>
      <trkpt lat="59.217078947622" lon="17.903128365318">
        <ele>0</ele>
        <time>2017-07-07T17:35:04Z</time>
      </trkpt>
      <trkpt lat="59.217299810687" lon="17.903165329497">
        <ele>0</ele>
        <time>2017-07-07T17:35:07Z</time>
      </trkpt>
      <trkpt lat="59.217471555818" lon="17.903473112865">
        <ele>0</ele>
        <time>2017-07-07T17:35:10Z</time>
      </trkpt>
      <trkpt lat="59.217516482802" lon="17.90359506951">
        <ele>0</ele>
        <time>2017-07-07T17:35:11Z</time>
      </trkpt>
      <trkpt lat="59.217832061337" lon="17.904418758823">
        <ele>0</ele>
        <time>2017-07-07T17:35:18Z</time>
      </trkpt>
      <trkpt lat="59.218192399218" lon="17.905327775878">
        <ele>0</ele>
        <time>2017-07-07T17:35:26Z</time>
      </trkpt>
      <trkpt lat="59.218280409168" lon="17.905550315323">
        <ele>0</ele>
        <time>2017-07-07T17:35:28Z</time>
      </trkpt>
      <trkpt lat="59.218391134067" lon="17.90591517943">
        <ele>0</ele>
        <time>2017-07-07T17:35:31Z</time>
      </trkpt>
      <trkpt lat="59.218695816132" lon="17.906690421361">
        <ele>0</ele>
        <time>2017-07-07T17:35:38Z</time>
      </trkpt>
      <trkpt lat="59.218943752734" lon="17.907357117687">
        <ele>0</ele>
        <time>2017-07-07T17:35:44Z</time>
      </trkpt>
      <trkpt lat="59.218957163774" lon="17.907497095417">
        <ele>0</ele>
        <time>2017-07-07T17:35:45Z</time>
      </trkpt>
      <trkpt lat="59.218985494596" lon="17.907778391981">
        <ele>0</ele>
        <time>2017-07-07T17:35:47Z</time>
      </trkpt>
      <trkpt lat="59.219055734918" lon="17.908013001362">
        <ele>0</ele>
        <time>2017-07-07T17:35:49Z</time>
      </trkpt>
      <trkpt lat="59.219297636552" lon="17.908733090391">
        <ele>0</ele>
        <time>2017-07-07T17:35:55Z</time>
      </trkpt>
      <trkpt lat="59.21934222826" lon="17.908853705932">
        <ele>0</ele>
        <time>2017-07-07T17:35:56Z</time>
      </trkpt>
      <trkpt lat="59.219388244891" lon="17.908966610125">
        <ele>0</ele>
        <time>2017-07-07T17:35:57Z</time>
      </trkpt>
      <trkpt lat="59.219431327857" lon="17.909073898445">
        <ele>0</ele>
        <time>2017-07-07T17:35:58Z</time>
      </trkpt>
      <trkpt lat="59.219471393339" lon="17.909190071579">
        <ele>0</ele>
        <time>2017-07-07T17:35:59Z</time>
      </trkpt>
      <trkpt lat="59.219558062185" lon="17.909409844997">
        <ele>0</ele>
        <time>2017-07-07T17:36:01Z</time>
      </trkpt>
      <trkpt lat="59.219606509567" lon="17.909506069209">
        <ele>0</ele>
        <time>2017-07-07T17:36:02Z</time>
      </trkpt>
      <trkpt lat="59.219732992438" lon="17.909583350327">
        <ele>0</ele>
        <time>2017-07-07T17:36:04Z</time>
      </trkpt>
      <trkpt lat="59.21985352416" lon="17.909478492758">
        <ele>0</ele>
        <time>2017-07-07T17:36:06Z</time>
      </trkpt>
      <trkpt lat="59.219910353442" lon="17.909401714554">
        <ele>0</ele>
        <time>2017-07-07T17:36:07Z</time>
      </trkpt>
      <trkpt lat="59.220146136289" lon="17.909035090248">
        <ele>0</ele>
        <time>2017-07-07T17:36:11Z</time>
      </trkpt>
      <trkpt lat="59.220401784239" lon="17.908661006051">
        <ele>0</ele>
        <time>2017-07-07T17:36:16Z</time>
      </trkpt>
      <trkpt lat="59.220378398738" lon="17.908470401645">
        <ele>0</ele>
        <time>2017-07-07T17:36:18Z</time>
      </trkpt>
      <trkpt lat="59.220288209494" lon="17.908350037561">
        <ele>0</ele>
        <time>2017-07-07T17:36:20Z</time>
      </trkpt>
      <trkpt lat="59.220244707433" lon="17.908294717021">
        <ele>0</ele>
        <time>2017-07-07T17:36:21Z</time>
      </trkpt>
      <trkpt lat="59.220210425462" lon="17.908195307687">
        <ele>0</ele>
        <time>2017-07-07T17:36:22Z</time>
      </trkpt>
      <trkpt lat="59.220123672797" lon="17.908006044385">
        <ele>0</ele>
        <time>2017-07-07T17:36:24Z</time>
      </trkpt>
      <trkpt lat="59.220077237071" lon="17.907922812118">
        <ele>0</ele>
        <time>2017-07-07T17:36:25Z</time>
      </trkpt>
      <trkpt lat="59.219920830817" lon="17.907539340193">
        <ele>0</ele>
        <time>2017-07-07T17:36:29Z</time>
      </trkpt>
      <trkpt lat="59.219887973769" lon="17.907447139293">
        <ele>0</ele>
        <time>2017-07-07T17:36:30Z</time>
      </trkpt>
    </trkseg>
  </trk>
</gpx>